<?xml version='1.0' encoding='UTF-8'?><gpx version="1.1" creator="JPX - https://github.com/jenetics/jpx" xmlns="http://www.topografix.com/GPX/1/1"><trk><trkseg><trkpt lat="44.479679886607656" lon="7.872922057823978"><ele>363.0</ele><time>2026-04-09T16:18:04.995Z</time></trkpt><trkpt lat="44.47961305945361" lon="7.872713002622249"><ele>363.0</ele><time>2026-04-09T16:18:10.017Z</time></trkpt><trkpt lat="44.47953879225225" lon="7.87279837743268"><ele>363.0</ele><time>2026-04-09T16:18:15.017Z</time></trkpt><trkpt lat="44.47952798961935" lon="7.872959317215335"><ele>363.0</ele><time>2026-04-09T16:18:18.003Z</time></trkpt><trkpt lat="44.47954787250283" lon="7.872836580970745"><ele>363.1666666666667</ele><time>2026-04-09T16:18:20.003Z</time></trkpt><trkpt lat="44.47951770050567" lon="7.87272575964923"><ele>363.3333333333333</ele><time>2026-04-09T16:18:24.002Z</time></trkpt><trkpt lat="44.479453387757275" lon="7.872693808108551"><ele>363.5</ele><time>2026-04-09T16:18:30.001Z</time></trkpt><trkpt lat="44.47934338232262" lon="7.872707522232516"><ele>363.66666666666663</ele><time>2026-04-09T16:18:33.001Z</time></trkpt><trkpt lat="44.47926018149258" lon="7.872731787315316"><ele>363.8333333333333</ele><time>2026-04-09T16:18:36.001Z</time></trkpt><trkpt lat="44.47917918879783" lon="7.8727698360700025"><ele>364.0</ele><time>2026-04-09T16:18:38.001Z</time></trkpt><trkpt lat="44.479111909924015" lon="7.872792996440446"><ele>364.0</ele><time>2026-04-09T16:18:40.001Z</time></trkpt><trkpt lat="44.479116677012705" lon="7.873101514993982"><ele>364.0</ele><time>2026-04-09T16:18:59Z</time></trkpt><trkpt lat="44.47917501861756" lon="7.873221730677512"><ele>364.0</ele><time>2026-04-09T16:19:01Z</time></trkpt><trkpt lat="44.47920470555882" lon="7.873363125325194"><ele>364.0</ele><time>2026-04-09T16:19:02Z</time></trkpt><trkpt lat="44.479241653103145" lon="7.87347046001272"><ele>363.6</ele><time>2026-04-09T16:19:03Z</time></trkpt><trkpt lat="44.47928795957944" lon="7.873578799264624"><ele>363.2</ele><time>2026-04-09T16:19:04Z</time></trkpt><trkpt lat="44.47932717785496" lon="7.873707251287655"><ele>362.8</ele><time>2026-04-09T16:19:05Z</time></trkpt><trkpt lat="44.47935483930948" lon="7.873849296519833"><ele>362.40000000000003</ele><time>2026-04-09T16:19:06Z</time></trkpt><trkpt lat="44.47938150986071" lon="7.874005254586386"><ele>362.0</ele><time>2026-04-09T16:19:07Z</time></trkpt><trkpt lat="44.47940591595357" lon="7.8741583207671"><ele>361.8</ele><time>2026-04-09T16:19:08Z</time></trkpt><trkpt lat="44.479432938276865" lon="7.874300367985376"><ele>361.6</ele><time>2026-04-09T16:19:09Z</time></trkpt><trkpt lat="44.479445591644236" lon="7.874427542500561"><ele>361.40000000000003</ele><time>2026-04-09T16:19:09.999Z</time></trkpt><trkpt lat="44.47945599569946" lon="7.874545949898335"><ele>361.20000000000005</ele><time>2026-04-09T16:19:10.999Z</time></trkpt><trkpt lat="44.47947561963038" lon="7.874662514559066"><ele>361.0</ele><time>2026-04-09T16:19:11.999Z</time></trkpt><trkpt lat="44.47947413736006" lon="7.874787957878286"><ele>361.0</ele><time>2026-04-09T16:19:12.999Z</time></trkpt><trkpt lat="44.47946917552986" lon="7.874887516867374"><ele>361.0</ele><time>2026-04-09T16:19:13.999Z</time></trkpt><trkpt lat="44.47946704422214" lon="7.875007213765889"><ele>361.0</ele><time>2026-04-09T16:19:14.999Z</time></trkpt><trkpt lat="44.47947943806168" lon="7.875115206065644"><ele>361.0</ele><time>2026-04-09T16:19:15.999Z</time></trkpt><trkpt lat="44.47948126993592" lon="7.875302688008624"><ele>361.0</ele><time>2026-04-09T16:19:17.999Z</time></trkpt><trkpt lat="44.47947071038984" lon="7.875469672716414"><ele>361.0</ele><time>2026-04-09T16:19:19.999Z</time></trkpt><trkpt lat="44.47947678812378" lon="7.875649811347654"><ele>361.0</ele><time>2026-04-09T16:19:21.999Z</time></trkpt><trkpt lat="44.4794746276919" lon="7.875820290114909"><ele>361.0</ele><time>2026-04-09T16:19:23.999Z</time></trkpt><trkpt lat="44.4794744356826" lon="7.87591117238768"><ele>361.0</ele><time>2026-04-09T16:19:24.999Z</time></trkpt><trkpt lat="44.47946636467626" lon="7.8760098217999746"><ele>361.0</ele><time>2026-04-09T16:19:25.999Z</time></trkpt><trkpt lat="44.47946233801864" lon="7.876113372150379"><ele>361.0</ele><time>2026-04-09T16:19:26.999Z</time></trkpt><trkpt lat="44.47943044151158" lon="7.87627072166172"><ele>361.0</ele><time>2026-04-09T16:19:28.999Z</time></trkpt><trkpt lat="44.47941577016401" lon="7.876406927856387"><ele>361.0</ele><time>2026-04-09T16:19:30.999Z</time></trkpt><trkpt lat="44.47942469618826" lon="7.876546850117879"><ele>361.0</ele><time>2026-04-09T16:19:32.999Z</time></trkpt><trkpt lat="44.479442792112394" lon="7.876633508990114"><ele>361.0</ele><time>2026-04-09T16:19:33.999Z</time></trkpt><trkpt lat="44.47944120239856" lon="7.876793544931465"><ele>361.5</ele><time>2026-04-09T16:19:35.999Z</time></trkpt><trkpt lat="44.47943191052524" lon="7.876895371377093"><ele>362.0</ele><time>2026-04-09T16:19:36.999Z</time></trkpt><trkpt lat="44.47936632235717" lon="7.8770454009252475"><ele>362.5</ele><time>2026-04-09T16:19:38.999Z</time></trkpt><trkpt lat="44.479300249313795" lon="7.8771045327996045"><ele>363.0</ele><time>2026-04-09T16:19:39.999Z</time></trkpt><trkpt lat="44.4792532605107" lon="7.877167696800778"><ele>363.5</ele><time>2026-04-09T16:19:40.999Z</time></trkpt><trkpt lat="44.47918185158754" lon="7.8772230544117665"><ele>364.0</ele><time>2026-04-09T16:19:41.999Z</time></trkpt><trkpt lat="44.479123180907536" lon="7.8773112057186205"><ele>364.0</ele><time>2026-04-09T16:19:42.999Z</time></trkpt><trkpt lat="44.47906623326878" lon="7.877378798803629"><ele>364.0</ele><time>2026-04-09T16:19:43.999Z</time></trkpt><trkpt lat="44.478977223504955" lon="7.87748520262195"><ele>364.0</ele><time>2026-04-09T16:19:45.999Z</time></trkpt><trkpt lat="44.478953206565066" lon="7.877567838478728"><ele>364.0</ele><time>2026-04-09T16:19:46.999Z</time></trkpt><trkpt lat="44.478891592325155" lon="7.87769736718699"><ele>364.0</ele><time>2026-04-09T16:19:48.999Z</time></trkpt><trkpt lat="44.47885034589032" lon="7.877787436933612"><ele>364.0</ele><time>2026-04-09T16:19:49.999Z</time></trkpt><trkpt lat="44.478811919484464" lon="7.877872089845155"><ele>364.0</ele><time>2026-04-09T16:19:50.999Z</time></trkpt><trkpt lat="44.47877095179512" lon="7.877998570670455"><ele>364.0</ele><time>2026-04-09T16:19:51.999Z</time></trkpt><trkpt lat="44.47868541820416" lon="7.878112909840968"><ele>364.0</ele><time>2026-04-09T16:19:52.999Z</time></trkpt><trkpt lat="44.478586788998626" lon="7.878226056331127"><ele>364.0</ele><time>2026-04-09T16:19:53.999Z</time></trkpt><trkpt lat="44.47852451144014" lon="7.878311996761438"><ele>364.0</ele><time>2026-04-09T16:19:54.999Z</time></trkpt><trkpt lat="44.478465298495905" lon="7.878394767319476"><ele>363.66666666666663</ele><time>2026-04-09T16:19:55.999Z</time></trkpt><trkpt lat="44.478394992998155" lon="7.87844664269876"><ele>363.3333333333333</ele><time>2026-04-09T16:19:56.999Z</time></trkpt><trkpt lat="44.47834916140508" lon="7.878540108064505"><ele>363.0</ele><time>2026-04-09T16:19:57.999Z</time></trkpt><trkpt lat="44.47830165807409" lon="7.878611453754841"><ele>362.6666666666667</ele><time>2026-04-09T16:19:58.999Z</time></trkpt><trkpt lat="44.47825870542281" lon="7.878675964604361"><ele>362.33333333333337</ele><time>2026-04-09T16:19:59.999Z</time></trkpt><trkpt lat="44.47814356884961" lon="7.878670569149543"><ele>362.0</ele><time>2026-04-09T16:20:00.999Z</time></trkpt><trkpt lat="44.47806804352236" lon="7.878811153252884"><ele>362.0</ele><time>2026-04-09T16:20:02.999Z</time></trkpt><trkpt lat="44.47802120376029" lon="7.8788798551668116"><ele>362.0</ele><time>2026-04-09T16:20:03.999Z</time></trkpt><trkpt lat="44.47794134456698" lon="7.879048684052761"><ele>362.0</ele><time>2026-04-09T16:20:05.999Z</time></trkpt><trkpt lat="44.477936755233856" lon="7.879150640592276"><ele>362.0</ele><time>2026-04-09T16:20:06.999Z</time></trkpt><trkpt lat="44.47795599314458" lon="7.879257013924342"><ele>362.0</ele><time>2026-04-09T16:20:07.999Z</time></trkpt><trkpt lat="44.47798794140528" lon="7.879395437547125"><ele>361.6666666666667</ele><time>2026-04-09T16:20:08.999Z</time></trkpt><trkpt lat="44.47797310683708" lon="7.87952391379148"><ele>361.33333333333337</ele><time>2026-04-09T16:20:09.999Z</time></trkpt><trkpt lat="44.47795678702286" lon="7.879629460380898"><ele>361.0</ele><time>2026-04-09T16:20:10.999Z</time></trkpt><trkpt lat="44.477918323259104" lon="7.879740643827521"><ele>360.6666666666667</ele><time>2026-04-09T16:20:11.999Z</time></trkpt><trkpt lat="44.477892003155326" lon="7.879851745924711"><ele>360.3333333333333</ele><time>2026-04-09T16:20:12.999Z</time></trkpt><trkpt lat="44.47787130603072" lon="7.879964760920193"><ele>360.0</ele><time>2026-04-09T16:20:13.998Z</time></trkpt><trkpt lat="44.47785231758546" lon="7.880072747640626"><ele>358.0</ele><time>2026-04-09T16:20:14.998Z</time></trkpt><trkpt lat="44.47785980411794" lon="7.88020467836679"><ele>356.0</ele><time>2026-04-09T16:20:15.998Z</time></trkpt><trkpt lat="44.47786681206074" lon="7.8803141861479125"><ele>354.0</ele><time>2026-04-09T16:20:16.998Z</time></trkpt><trkpt lat="44.477903604531754" lon="7.880430555352233"><ele>352.0</ele><time>2026-04-09T16:20:17.998Z</time></trkpt><trkpt lat="44.4779395315205" lon="7.880579620430844"><ele>350.0</ele><time>2026-04-09T16:20:18.998Z</time></trkpt><trkpt lat="44.477970722195344" lon="7.880716274199404"><ele>350.0</ele><time>2026-04-09T16:20:19.998Z</time></trkpt><trkpt lat="44.47799726687515" lon="7.880836850086115"><ele>350.0</ele><time>2026-04-09T16:20:20.998Z</time></trkpt><trkpt lat="44.478024016661294" lon="7.880950019756885"><ele>350.0</ele><time>2026-04-09T16:20:21.998Z</time></trkpt><trkpt lat="44.478036669249555" lon="7.881071302201517"><ele>350.0</ele><time>2026-04-09T16:20:22.998Z</time></trkpt><trkpt lat="44.47809252810532" lon="7.881204510618275"><ele>350.0</ele><time>2026-04-09T16:20:24Z</time></trkpt><trkpt lat="44.47813419704309" lon="7.8813203142743395"><ele>347.0</ele><time>2026-04-09T16:20:25Z</time></trkpt><trkpt lat="44.478205547087846" lon="7.881441681822323"><ele>344.0</ele><time>2026-04-09T16:20:26Z</time></trkpt><trkpt lat="44.47829538627972" lon="7.881543982423703"><ele>341.0</ele><time>2026-04-09T16:20:27Z</time></trkpt><trkpt lat="44.47837655805689" lon="7.881629625973778"><ele>338.0</ele><time>2026-04-09T16:20:28Z</time></trkpt><trkpt lat="44.47845982759221" lon="7.881713556015428"><ele>335.0</ele><time>2026-04-09T16:20:29Z</time></trkpt><trkpt lat="44.47853286446178" lon="7.8817827052249845"><ele>331.0</ele><time>2026-04-09T16:20:30Z</time></trkpt><trkpt lat="44.478597326471174" lon="7.881841084838149"><ele>327.0</ele><time>2026-04-09T16:20:31Z</time></trkpt><trkpt lat="44.47868645572432" lon="7.8819312211641686"><ele>323.0</ele><time>2026-04-09T16:20:33Z</time></trkpt><trkpt lat="44.47852791053887" lon="7.88191973799353"><ele>319.0</ele><time>2026-04-09T16:20:40Z</time></trkpt><trkpt lat="44.478458478769795" lon="7.881861866063216"><ele>315.0</ele><time>2026-04-09T16:20:41Z</time></trkpt><trkpt lat="44.478382723013006" lon="7.881787880874307"><ele>319.0</ele><time>2026-04-09T16:20:42Z</time></trkpt><trkpt lat="44.478310476321816" lon="7.8817261612989284"><ele>323.0</ele><time>2026-04-09T16:20:43Z</time></trkpt><trkpt lat="44.47821395086169" lon="7.881668687433909"><ele>327.0</ele><time>2026-04-09T16:20:44Z</time></trkpt><trkpt lat="44.47812595016021" lon="7.881607273950636"><ele>331.0</ele><time>2026-04-09T16:20:45Z</time></trkpt><trkpt lat="44.47804009206564" lon="7.8815319368154615"><ele>335.0</ele><time>2026-04-09T16:20:46Z</time></trkpt><trkpt lat="44.47796184579727" lon="7.881438871200651"><ele>333.83333333333337</ele><time>2026-04-09T16:20:47Z</time></trkpt><trkpt lat="44.47790300490975" lon="7.881341134501209"><ele>332.6666666666667</ele><time>2026-04-09T16:20:48Z</time></trkpt><trkpt lat="44.477847970313654" lon="7.881247803517246"><ele>331.5</ele><time>2026-04-09T16:20:49Z</time></trkpt><trkpt lat="44.47781546096873" lon="7.881118822117606"><ele>330.3333333333333</ele><time>2026-04-09T16:20:50Z</time></trkpt><trkpt lat="44.477774764125925" lon="7.881001099325211"><ele>329.16666666666663</ele><time>2026-04-09T16:20:51Z</time></trkpt><trkpt lat="44.47773574991058" lon="7.88090654295891"><ele>328.0</ele><time>2026-04-09T16:20:52Z</time></trkpt><trkpt lat="44.477693286746245" lon="7.880775811228867"><ele>328.0</ele><time>2026-04-09T16:20:54Z</time></trkpt><trkpt lat="44.47762833347365" lon="7.880789572507647"><ele>328.0</ele><time>2026-04-09T16:20:56Z</time></trkpt><trkpt lat="44.477593040779944" lon="7.880915074849291"><ele>328.0</ele><time>2026-04-09T16:20:58Z</time></trkpt><trkpt lat="44.47758602606856" lon="7.8810066041578555"><ele>328.0</ele><time>2026-04-09T16:20:59Z</time></trkpt><trkpt lat="44.47764110393914" lon="7.88110114423503"><ele>328.0</ele><time>2026-04-09T16:21:00Z</time></trkpt><trkpt lat="44.47766863134686" lon="7.881210895229416"><ele>328.0</ele><time>2026-04-09T16:21:01Z</time></trkpt><trkpt lat="44.477711914878284" lon="7.881313035218499"><ele>324.75</ele><time>2026-04-09T16:21:02Z</time></trkpt><trkpt lat="44.47776382848327" lon="7.881432830933206"><ele>321.5</ele><time>2026-04-09T16:21:03Z</time></trkpt><trkpt lat="44.47782294876652" lon="7.881564494388035"><ele>318.25</ele><time>2026-04-09T16:21:04Z</time></trkpt><trkpt lat="44.47790020810885" lon="7.8817076257247445"><ele>315.0</ele><time>2026-04-09T16:21:05Z</time></trkpt><trkpt lat="44.47800274261641" lon="7.881839983091261"><ele>315.0</ele><time>2026-04-09T16:21:06Z</time></trkpt><trkpt lat="44.478116969581635" lon="7.881969854725636"><ele>315.0</ele><time>2026-04-09T16:21:07Z</time></trkpt><trkpt lat="44.47821772075009" lon="7.882082276803061"><ele>315.0</ele><time>2026-04-09T16:21:08Z</time></trkpt><trkpt lat="44.47831134340808" lon="7.88219633997253"><ele>315.0</ele><time>2026-04-09T16:21:09Z</time></trkpt><trkpt lat="44.47839037346625" lon="7.882293328049799"><ele>315.0</ele><time>2026-04-09T16:21:10Z</time></trkpt><trkpt lat="44.47845585850049" lon="7.8823736938299085"><ele>315.0</ele><time>2026-04-09T16:21:11Z</time></trkpt><trkpt lat="44.478523686995075" lon="7.882448852555616"><ele>315.0</ele><time>2026-04-09T16:21:11.999Z</time></trkpt><trkpt lat="44.478586130632884" lon="7.882504280106087"><ele>315.0</ele><time>2026-04-09T16:21:12.999Z</time></trkpt><trkpt lat="44.478723314862016" lon="7.882535799685173"><ele>315.0</ele><time>2026-04-09T16:21:14.999Z</time></trkpt><trkpt lat="44.4788091632919" lon="7.882500092022562"><ele>316.57142857142856</ele><time>2026-04-09T16:21:15.999Z</time></trkpt><trkpt lat="44.47889712137133" lon="7.882463391445022"><ele>318.1428571428571</ele><time>2026-04-09T16:21:16.999Z</time></trkpt><trkpt lat="44.47896078555969" lon="7.882428593202469"><ele>319.7142857142857</ele><time>2026-04-09T16:21:17.999Z</time></trkpt><trkpt lat="44.47902648779901" lon="7.882388566257191"><ele>321.2857142857143</ele><time>2026-04-09T16:21:18.999Z</time></trkpt><trkpt lat="44.47907949994082" lon="7.8823340885383555"><ele>322.85714285714283</ele><time>2026-04-09T16:21:19.999Z</time></trkpt><trkpt lat="44.479147256549446" lon="7.882326004782317"><ele>324.42857142857144</ele><time>2026-04-09T16:21:20.999Z</time></trkpt><trkpt lat="44.47921811449314" lon="7.88236052247253"><ele>326.0</ele><time>2026-04-09T16:21:21.999Z</time></trkpt><trkpt lat="44.47929565194786" lon="7.88253721522099"><ele>325.6</ele><time>2026-04-09T16:21:23.999Z</time></trkpt><trkpt lat="44.479295533125644" lon="7.882652920497648"><ele>325.20000000000005</ele><time>2026-04-09T16:21:24.999Z</time></trkpt><trkpt lat="44.47923936738526" lon="7.882739467817383"><ele>324.79999999999995</ele><time>2026-04-09T16:21:25.999Z</time></trkpt><trkpt lat="44.479172357442586" lon="7.882833738315279"><ele>324.4</ele><time>2026-04-09T16:21:26.999Z</time></trkpt><trkpt lat="44.47908460900355" lon="7.882909183883768"><ele>324.0</ele><time>2026-04-09T16:21:27.999Z</time></trkpt><trkpt lat="44.47899295498598" lon="7.882981296709873"><ele>324.0</ele><time>2026-04-09T16:21:28.999Z</time></trkpt><trkpt lat="44.47889834454627" lon="7.883027289883582"><ele>324.0</ele><time>2026-04-09T16:21:29.999Z</time></trkpt><trkpt lat="44.47880193206779" lon="7.883082489720514"><ele>324.0</ele><time>2026-04-09T16:21:30.999Z</time></trkpt><trkpt lat="44.478735325194286" lon="7.8831313673614645"><ele>324.0</ele><time>2026-04-09T16:21:31.999Z</time></trkpt><trkpt lat="44.47867289419194" lon="7.883177219894457"><ele>324.0</ele><time>2026-04-09T16:21:32.999Z</time></trkpt><trkpt lat="44.47861502817051" lon="7.883242099934939"><ele>324.0</ele><time>2026-04-09T16:21:33.999Z</time></trkpt><trkpt lat="44.47857580502866" lon="7.883328077267597"><ele>318.0</ele><time>2026-04-09T16:21:34.999Z</time></trkpt><trkpt lat="44.47857079629048" lon="7.883430601083433"><ele>312.0</ele><time>2026-04-09T16:21:35.999Z</time></trkpt><trkpt lat="44.47857703486611" lon="7.883545179562282"><ele>306.0</ele><time>2026-04-09T16:21:36.999Z</time></trkpt><trkpt lat="44.47860466594966" lon="7.8836928872701595"><ele>300.0</ele><time>2026-04-09T16:21:37.999Z</time></trkpt><trkpt lat="44.47864700077686" lon="7.883826731931619"><ele>294.0</ele><time>2026-04-09T16:21:38.999Z</time></trkpt><trkpt lat="44.47872432058565" lon="7.883961119134009"><ele>295.75</ele><time>2026-04-09T16:21:39.999Z</time></trkpt><trkpt lat="44.478800710026846" lon="7.884102090323615"><ele>297.5</ele><time>2026-04-09T16:21:40.999Z</time></trkpt><trkpt lat="44.47888000946746" lon="7.884234537933821"><ele>299.25</ele><time>2026-04-09T16:21:41.999Z</time></trkpt><trkpt lat="44.47897237486681" lon="7.884372005188629"><ele>301.0</ele><time>2026-04-09T16:21:42.999Z</time></trkpt><trkpt lat="44.47907786384763" lon="7.884529003353799"><ele>301.0</ele><time>2026-04-09T16:21:43.999Z</time></trkpt><trkpt lat="44.47918237753508" lon="7.884692162776068"><ele>301.0</ele><time>2026-04-09T16:21:44.999Z</time></trkpt><trkpt lat="44.47929199807035" lon="7.884881884227261"><ele>301.0</ele><time>2026-04-09T16:21:45.999Z</time></trkpt><trkpt lat="44.47938505905218" lon="7.885076859126198"><ele>297.66666666666663</ele><time>2026-04-09T16:21:46.999Z</time></trkpt><trkpt lat="44.479476186262865" lon="7.885300924421378"><ele>294.3333333333333</ele><time>2026-04-09T16:21:47.999Z</time></trkpt><trkpt lat="44.47952764337623" lon="7.8855258772956685"><ele>291.0</ele><time>2026-04-09T16:21:48.999Z</time></trkpt><trkpt lat="44.479589562130734" lon="7.885724071180937"><ele>295.6666666666667</ele><time>2026-04-09T16:21:49.999Z</time></trkpt><trkpt lat="44.4796474581752" lon="7.885955322755393"><ele>300.33333333333337</ele><time>2026-04-09T16:21:50.999Z</time></trkpt><trkpt lat="44.479673792512266" lon="7.88618023715166"><ele>305.0</ele><time>2026-04-09T16:21:51.999Z</time></trkpt><trkpt lat="44.479715137312716" lon="7.886394605787269"><ele>305.0</ele><time>2026-04-09T16:21:52.999Z</time></trkpt><trkpt lat="44.47975499885" lon="7.886589364614909"><ele>305.0</ele><time>2026-04-09T16:21:53.999Z</time></trkpt><trkpt lat="44.47978870901907" lon="7.886748209906517"><ele>305.0</ele><time>2026-04-09T16:21:54.999Z</time></trkpt><trkpt lat="44.47982050448559" lon="7.886920447686227"><ele>305.0</ele><time>2026-04-09T16:21:55.999Z</time></trkpt><trkpt lat="44.479848859834725" lon="7.8870637697404655"><ele>302.8</ele><time>2026-04-09T16:21:56.999Z</time></trkpt><trkpt lat="44.47987951531159" lon="7.887178511168264"><ele>300.6</ele><time>2026-04-09T16:21:57.999Z</time></trkpt><trkpt lat="44.47985607157979" lon="7.887401233029002"><ele>298.4</ele><time>2026-04-09T16:21:59.999Z</time></trkpt><trkpt lat="44.47982138376975" lon="7.887514354384646"><ele>296.2</ele><time>2026-04-09T16:22:00.999Z</time></trkpt><trkpt lat="44.47976489099856" lon="7.887592011635826"><ele>294.0</ele><time>2026-04-09T16:22:01.999Z</time></trkpt><trkpt lat="44.47967032419986" lon="7.887664903521364"><ele>291.2</ele><time>2026-04-09T16:22:02.999Z</time></trkpt><trkpt lat="44.47960267377895" lon="7.887761137879699"><ele>288.4</ele><time>2026-04-09T16:22:03.999Z</time></trkpt><trkpt lat="44.47952551122792" lon="7.887831378647763"><ele>285.6</ele><time>2026-04-09T16:22:04.999Z</time></trkpt><trkpt lat="44.47945199947998" lon="7.887913905745849"><ele>282.8</ele><time>2026-04-09T16:22:05.999Z</time></trkpt><trkpt lat="44.47938707562276" lon="7.888019087425522"><ele>280.0</ele><time>2026-04-09T16:22:06.999Z</time></trkpt><trkpt lat="44.47934854413726" lon="7.888130604272278"><ele>279.6</ele><time>2026-04-09T16:22:07.999Z</time></trkpt><trkpt lat="44.47934062874774" lon="7.888264256118423"><ele>279.2</ele><time>2026-04-09T16:22:08.999Z</time></trkpt><trkpt lat="44.47934149201616" lon="7.888415123843757"><ele>278.8</ele><time>2026-04-09T16:22:09.999Z</time></trkpt><trkpt lat="44.47936181119958" lon="7.888550642209039"><ele>278.4</ele><time>2026-04-09T16:22:10.999Z</time></trkpt><trkpt lat="44.479381171332115" lon="7.888718940037779"><ele>278.0</ele><time>2026-04-09T16:22:11.999Z</time></trkpt><trkpt lat="44.47940094740562" lon="7.888878604542264"><ele>277.6</ele><time>2026-04-09T16:22:12.999Z</time></trkpt><trkpt lat="44.47940241412898" lon="7.889050953333879"><ele>277.20000000000005</ele><time>2026-04-09T16:22:13.999Z</time></trkpt><trkpt lat="44.47941048526858" lon="7.889184526438801"><ele>276.8</ele><time>2026-04-09T16:22:14.999Z</time></trkpt><trkpt lat="44.47941948870445" lon="7.889343244478254"><ele>276.40000000000003</ele><time>2026-04-09T16:22:15.999Z</time></trkpt><trkpt lat="44.47942902110116" lon="7.889473504640375"><ele>276.0</ele><time>2026-04-09T16:22:16.999Z</time></trkpt><trkpt lat="44.479397157239326" lon="7.889610943000292"><ele>275.6</ele><time>2026-04-09T16:22:17.999Z</time></trkpt><trkpt lat="44.479364222106256" lon="7.889742731045465"><ele>275.20000000000005</ele><time>2026-04-09T16:22:18.999Z</time></trkpt><trkpt lat="44.47932810397215" lon="7.889872845673719"><ele>274.79999999999995</ele><time>2026-04-09T16:22:19.999Z</time></trkpt><trkpt lat="44.47926592582895" lon="7.88999802148946"><ele>274.4</ele><time>2026-04-09T16:22:20.999Z</time></trkpt><trkpt lat="44.47920347306339" lon="7.890123752798213"><ele>274.0</ele><time>2026-04-09T16:22:21.999Z</time></trkpt><trkpt lat="44.47910272110963" lon="7.8901621122278645"><ele>274.0</ele><time>2026-04-09T16:22:22.999Z</time></trkpt><trkpt lat="44.479021002471974" lon="7.8902148684968445"><ele>274.0</ele><time>2026-04-09T16:22:23.999Z</time></trkpt><trkpt lat="44.47891708746001" lon="7.890244253697663"><ele>274.0</ele><time>2026-04-09T16:22:24.998Z</time></trkpt><trkpt lat="44.47880685091326" lon="7.890263177669147"><ele>274.0</ele><time>2026-04-09T16:22:25.998Z</time></trkpt><trkpt lat="44.47868808830231" lon="7.890284584865427"><ele>274.0</ele><time>2026-04-09T16:22:26.998Z</time></trkpt><trkpt lat="44.47856406245099" lon="7.8903125822457465"><ele>273.75</ele><time>2026-04-09T16:22:27.998Z</time></trkpt><trkpt lat="44.478437054502386" lon="7.890320370891407"><ele>273.5</ele><time>2026-04-09T16:22:28.998Z</time></trkpt><trkpt lat="44.478292134480384" lon="7.890310469443245"><ele>273.25</ele><time>2026-04-09T16:22:30Z</time></trkpt><trkpt lat="44.47815322583024" lon="7.890281885810605"><ele>273.0</ele><time>2026-04-09T16:22:31Z</time></trkpt><trkpt lat="44.47800999140811" lon="7.890253666331529"><ele>273.6666666666667</ele><time>2026-04-09T16:22:32Z</time></trkpt><trkpt lat="44.47787364107018" lon="7.890197274264881"><ele>274.33333333333337</ele><time>2026-04-09T16:22:33Z</time></trkpt><trkpt lat="44.477708529550526" lon="7.890126047779087"><ele>275.0</ele><time>2026-04-09T16:22:34Z</time></trkpt><trkpt lat="44.47754961028526" lon="7.890072395547424"><ele>275.0</ele><time>2026-04-09T16:22:35Z</time></trkpt><trkpt lat="44.47739100446228" lon="7.890018513690757"><ele>275.0</ele><time>2026-04-09T16:22:36Z</time></trkpt><trkpt lat="44.47723039862513" lon="7.889957289696461"><ele>275.0</ele><time>2026-04-09T16:22:37Z</time></trkpt><trkpt lat="44.477070089426824" lon="7.889896092025922"><ele>274.6666666666667</ele><time>2026-04-09T16:22:38Z</time></trkpt><trkpt lat="44.4768960665793" lon="7.889831550819839"><ele>274.3333333333333</ele><time>2026-04-09T16:22:39Z</time></trkpt><trkpt lat="44.47672242480937" lon="7.88977090781325"><ele>274.0</ele><time>2026-04-09T16:22:40Z</time></trkpt><trkpt lat="44.47656085011337" lon="7.889726052023465"><ele>274.0</ele><time>2026-04-09T16:22:41Z</time></trkpt><trkpt lat="44.47638354653928" lon="7.889692385377274"><ele>274.0</ele><time>2026-04-09T16:22:42Z</time></trkpt><trkpt lat="44.4762071501111" lon="7.889660432790982"><ele>274.0</ele><time>2026-04-09T16:22:43Z</time></trkpt><trkpt lat="44.47603651316899" lon="7.889629537289548"><ele>274.0</ele><time>2026-04-09T16:22:44Z</time></trkpt><trkpt lat="44.47586303654029" lon="7.889629006879816"><ele>274.0</ele><time>2026-04-09T16:22:45Z</time></trkpt><trkpt lat="44.47568724697243" lon="7.889620691581603"><ele>274.0</ele><time>2026-04-09T16:22:46Z</time></trkpt><trkpt lat="44.47550651653908" lon="7.88962893934205"><ele>274.66666666666663</ele><time>2026-04-09T16:22:47Z</time></trkpt><trkpt lat="44.475325490287986" lon="7.889630997354265"><ele>275.3333333333333</ele><time>2026-04-09T16:22:48Z</time></trkpt><trkpt lat="44.4751449186822" lon="7.88962850116105"><ele>276.0</ele><time>2026-04-09T16:22:49Z</time></trkpt><trkpt lat="44.47495809921639" lon="7.889641403321739"><ele>276.0</ele><time>2026-04-09T16:22:50Z</time></trkpt><trkpt lat="44.47477093919311" lon="7.889651327508837"><ele>276.0</ele><time>2026-04-09T16:22:51Z</time></trkpt><trkpt lat="44.47458951425097" lon="7.8896440294075125"><ele>276.0</ele><time>2026-04-09T16:22:52Z</time></trkpt><trkpt lat="44.474406109486566" lon="7.889631860326718"><ele>276.6666666666667</ele><time>2026-04-09T16:22:53Z</time></trkpt><trkpt lat="44.47423161730376" lon="7.889602185616822"><ele>277.33333333333337</ele><time>2026-04-09T16:22:54Z</time></trkpt><trkpt lat="44.47405089667672" lon="7.889549230200115"><ele>278.0</ele><time>2026-04-09T16:22:55Z</time></trkpt><trkpt lat="44.47387114928204" lon="7.88950740085269"><ele>277.6666666666667</ele><time>2026-04-09T16:22:56Z</time></trkpt><trkpt lat="44.47368735835477" lon="7.889453020145966"><ele>277.3333333333333</ele><time>2026-04-09T16:22:57Z</time></trkpt><trkpt lat="44.473519968685686" lon="7.889399415860336"><ele>277.0</ele><time>2026-04-09T16:22:58Z</time></trkpt><trkpt lat="44.473348384365394" lon="7.889341766586041"><ele>277.0</ele><time>2026-04-09T16:22:59Z</time></trkpt><trkpt lat="44.47317641721091" lon="7.889270802359637"><ele>277.0</ele><time>2026-04-09T16:23:00Z</time></trkpt><trkpt lat="44.472993367070515" lon="7.889177246877164"><ele>277.0</ele><time>2026-04-09T16:23:01Z</time></trkpt><trkpt lat="44.47282903547395" lon="7.889083844828551"><ele>277.66666666666663</ele><time>2026-04-09T16:23:02Z</time></trkpt><trkpt lat="44.4726515810228" lon="7.888992488879709"><ele>278.3333333333333</ele><time>2026-04-09T16:23:03Z</time></trkpt><trkpt lat="44.47247919606032" lon="7.888901859446797"><ele>279.0</ele><time>2026-04-09T16:23:04Z</time></trkpt><trkpt lat="44.472311230585895" lon="7.888805779578938"><ele>279.0</ele><time>2026-04-09T16:23:05Z</time></trkpt><trkpt lat="44.47214869356264" lon="7.888690169796211"><ele>279.0</ele><time>2026-04-09T16:23:06Z</time></trkpt><trkpt lat="44.47198614686548" lon="7.888577406684649"><ele>279.0</ele><time>2026-04-09T16:23:07Z</time></trkpt><trkpt lat="44.47182786426987" lon="7.888448604877462"><ele>279.6666666666667</ele><time>2026-04-09T16:23:08Z</time></trkpt><trkpt lat="44.47167507395975" lon="7.888307794952708"><ele>280.33333333333337</ele><time>2026-04-09T16:23:09Z</time></trkpt><trkpt lat="44.47151908402945" lon="7.888159534232144"><ele>281.0</ele><time>2026-04-09T16:23:10Z</time></trkpt><trkpt lat="44.47137467379953" lon="7.888012285685517"><ele>281.33333333333337</ele><time>2026-04-09T16:23:11Z</time></trkpt><trkpt lat="44.47122794564617" lon="7.8878623729963975"><ele>281.6666666666667</ele><time>2026-04-09T16:23:12Z</time></trkpt><trkpt lat="44.471097080805485" lon="7.887715436110254"><ele>282.0</ele><time>2026-04-09T16:23:13Z</time></trkpt><trkpt lat="44.470973574910715" lon="7.887565530815153"><ele>283.0</ele><time>2026-04-09T16:23:14Z</time></trkpt><trkpt lat="44.470859701502086" lon="7.887400029666651"><ele>284.0</ele><time>2026-04-09T16:23:15Z</time></trkpt><trkpt lat="44.47074729366726" lon="7.887244105475878"><ele>285.0</ele><time>2026-04-09T16:23:16Z</time></trkpt><trkpt lat="44.470635089095104" lon="7.887092307860706"><ele>285.0</ele><time>2026-04-09T16:23:17Z</time></trkpt><trkpt lat="44.470519138135494" lon="7.886940114478764"><ele>285.0</ele><time>2026-04-09T16:23:18Z</time></trkpt><trkpt lat="44.470413968559434" lon="7.886788426910396"><ele>285.0</ele><time>2026-04-09T16:23:18.999Z</time></trkpt><trkpt lat="44.47030952032143" lon="7.886644081700154"><ele>285.6666666666667</ele><time>2026-04-09T16:23:19.999Z</time></trkpt><trkpt lat="44.47020327566544" lon="7.886496745679198"><ele>286.33333333333337</ele><time>2026-04-09T16:23:20.999Z</time></trkpt><trkpt lat="44.47009729779638" lon="7.886354265173807"><ele>287.0</ele><time>2026-04-09T16:23:21.999Z</time></trkpt><trkpt lat="44.46998879838923" lon="7.886198238562903"><ele>287.0</ele><time>2026-04-09T16:23:22.999Z</time></trkpt><trkpt lat="44.46988113109403" lon="7.8860587792106545"><ele>287.0</ele><time>2026-04-09T16:23:23.999Z</time></trkpt><trkpt lat="44.46977282820321" lon="7.88591533482022"><ele>287.0</ele><time>2026-04-09T16:23:24.999Z</time></trkpt><trkpt lat="44.469660415235595" lon="7.885777390996224"><ele>287.0</ele><time>2026-04-09T16:23:25.999Z</time></trkpt><trkpt lat="44.46954209208246" lon="7.885640417201829"><ele>286.6666666666667</ele><time>2026-04-09T16:23:26.999Z</time></trkpt><trkpt lat="44.469417450936795" lon="7.885507535072998"><ele>286.3333333333333</ele><time>2026-04-09T16:23:27.999Z</time></trkpt><trkpt lat="44.469282915765646" lon="7.885371044162754"><ele>286.0</ele><time>2026-04-09T16:23:28.999Z</time></trkpt><trkpt lat="44.46914978877335" lon="7.885253199559819"><ele>286.0</ele><time>2026-04-09T16:23:29.999Z</time></trkpt><trkpt lat="44.46901431479492" lon="7.885122629313364"><ele>286.0</ele><time>2026-04-09T16:23:30.999Z</time></trkpt><trkpt lat="44.46887012268699" lon="7.8849966294752525"><ele>286.0</ele><time>2026-04-09T16:23:31.999Z</time></trkpt><trkpt lat="44.46871692890757" lon="7.884876514636029"><ele>285.66666666666663</ele><time>2026-04-09T16:23:32.999Z</time></trkpt><trkpt lat="44.468568547466546" lon="7.884771073936978"><ele>285.3333333333333</ele><time>2026-04-09T16:23:33.999Z</time></trkpt><trkpt lat="44.46841554665872" lon="7.884671691898777"><ele>285.0</ele><time>2026-04-09T16:23:34.999Z</time></trkpt><trkpt lat="44.468262274288875" lon="7.884581971818883"><ele>285.0</ele><time>2026-04-09T16:23:35.999Z</time></trkpt><trkpt lat="44.46810488218762" lon="7.884492722379943"><ele>285.0</ele><time>2026-04-09T16:23:36.999Z</time></trkpt><trkpt lat="44.46794304737389" lon="7.884407980969986"><ele>285.0</ele><time>2026-04-09T16:23:37.999Z</time></trkpt><trkpt lat="44.467776686163404" lon="7.884335312727661"><ele>285.0</ele><time>2026-04-09T16:23:38.999Z</time></trkpt><trkpt lat="44.467610848180435" lon="7.884271005164828"><ele>285.0</ele><time>2026-04-09T16:23:39.999Z</time></trkpt><trkpt lat="44.46743901610865" lon="7.884213051865936"><ele>285.0</ele><time>2026-04-09T16:23:40.999Z</time></trkpt><trkpt lat="44.46726249484172" lon="7.884166011132333"><ele>285.0</ele><time>2026-04-09T16:23:41.999Z</time></trkpt><trkpt lat="44.46709098923082" lon="7.8841321389943335"><ele>285.0</ele><time>2026-04-09T16:23:42.999Z</time></trkpt><trkpt lat="44.46691802592464" lon="7.884094460947354"><ele>285.0</ele><time>2026-04-09T16:23:43.999Z</time></trkpt><trkpt lat="44.4667344154098" lon="7.884069969520149"><ele>285.0</ele><time>2026-04-09T16:23:44.999Z</time></trkpt><trkpt lat="44.46655297189228" lon="7.8840438051921735"><ele>285.0</ele><time>2026-04-09T16:23:45.999Z</time></trkpt><trkpt lat="44.46636039242149" lon="7.884037187332467"><ele>285.0</ele><time>2026-04-09T16:23:46.999Z</time></trkpt><trkpt lat="44.46617422584087" lon="7.884036690407705"><ele>283.3333333333333</ele><time>2026-04-09T16:23:47.999Z</time></trkpt><trkpt lat="44.465977382244134" lon="7.884047311761987"><ele>281.66666666666663</ele><time>2026-04-09T16:23:48.999Z</time></trkpt><trkpt lat="44.46577936820064" lon="7.884075248601102"><ele>280.0</ele><time>2026-04-09T16:23:49.999Z</time></trkpt><trkpt lat="44.465591914372204" lon="7.884105417623712"><ele>279.66666666666663</ele><time>2026-04-09T16:23:50.999Z</time></trkpt><trkpt lat="44.465401415831835" lon="7.884142909858877"><ele>279.3333333333333</ele><time>2026-04-09T16:23:51.999Z</time></trkpt><trkpt lat="44.465208246916816" lon="7.884183741085236"><ele>279.0</ele><time>2026-04-09T16:23:52.999Z</time></trkpt><trkpt lat="44.46501178175269" lon="7.884252687855424"><ele>278.3333333333333</ele><time>2026-04-09T16:23:53.999Z</time></trkpt><trkpt lat="44.46482387152115" lon="7.884325447791477"><ele>277.66666666666663</ele><time>2026-04-09T16:23:54.999Z</time></trkpt><trkpt lat="44.46463924740371" lon="7.884404644639118"><ele>277.0</ele><time>2026-04-09T16:23:55.999Z</time></trkpt><trkpt lat="44.46445258063077" lon="7.884483401691345"><ele>277.0</ele><time>2026-04-09T16:23:56.999Z</time></trkpt><trkpt lat="44.46426863922584" lon="7.884590025011766"><ele>277.0</ele><time>2026-04-09T16:23:57.999Z</time></trkpt><trkpt lat="44.46409466051938" lon="7.884699479536802"><ele>277.0</ele><time>2026-04-09T16:23:58.999Z</time></trkpt><trkpt lat="44.4639203034958" lon="7.884819195203987"><ele>276.66666666666663</ele><time>2026-04-09T16:23:59.999Z</time></trkpt><trkpt lat="44.46374733817921" lon="7.884945299751934"><ele>276.3333333333333</ele><time>2026-04-09T16:24:00.999Z</time></trkpt><trkpt lat="44.46358414817027" lon="7.88507979871613"><ele>276.0</ele><time>2026-04-09T16:24:01.999Z</time></trkpt><trkpt lat="44.46341764264963" lon="7.885223177368029"><ele>275.0</ele><time>2026-04-09T16:24:02.999Z</time></trkpt><trkpt lat="44.46325998601074" lon="7.8853672955972804"><ele>274.0</ele><time>2026-04-09T16:24:03.999Z</time></trkpt><trkpt lat="44.46310253325224" lon="7.885517658177775"><ele>273.0</ele><time>2026-04-09T16:24:04.999Z</time></trkpt><trkpt lat="44.46295280548291" lon="7.8856726874603895"><ele>277.3333333333333</ele><time>2026-04-09T16:24:05.999Z</time></trkpt><trkpt lat="44.462810790494196" lon="7.8858347663452175"><ele>281.66666666666663</ele><time>2026-04-09T16:24:06.999Z</time></trkpt><trkpt lat="44.46267157800869" lon="7.886010532924788"><ele>286.0</ele><time>2026-04-09T16:24:07.999Z</time></trkpt><trkpt lat="44.46253265553355" lon="7.886181653891427"><ele>286.0</ele><time>2026-04-09T16:24:08.999Z</time></trkpt><trkpt lat="44.46238784208212" lon="7.88635820661644"><ele>286.0</ele><time>2026-04-09T16:24:09.999Z</time></trkpt><trkpt lat="44.46224908448918" lon="7.886536819092157"><ele>286.0</ele><time>2026-04-09T16:24:10.999Z</time></trkpt><trkpt lat="44.46211202639077" lon="7.886713933720146"><ele>284.66666666666663</ele><time>2026-04-09T16:24:11.999Z</time></trkpt><trkpt lat="44.461965520232766" lon="7.886885261554508"><ele>283.3333333333333</ele><time>2026-04-09T16:24:12.999Z</time></trkpt><trkpt lat="44.46182558638675" lon="7.887052536520916"><ele>282.0</ele><time>2026-04-09T16:24:13.999Z</time></trkpt><trkpt lat="44.461681661902" lon="7.887229922783539"><ele>282.0</ele><time>2026-04-09T16:24:14.999Z</time></trkpt><trkpt lat="44.46155112461664" lon="7.8874031355080785"><ele>282.0</ele><time>2026-04-09T16:24:15.999Z</time></trkpt><trkpt lat="44.461413319485736" lon="7.887568941561365"><ele>282.0</ele><time>2026-04-09T16:24:16.999Z</time></trkpt><trkpt lat="44.46126349695676" lon="7.887747311123574"><ele>281.6666666666667</ele><time>2026-04-09T16:24:17.999Z</time></trkpt><trkpt lat="44.46113492467192" lon="7.887913998731106"><ele>281.33333333333337</ele><time>2026-04-09T16:24:18.999Z</time></trkpt><trkpt lat="44.461009733462205" lon="7.888091487807801"><ele>281.0</ele><time>2026-04-09T16:24:19.999Z</time></trkpt><trkpt lat="44.46087447915612" lon="7.888252135677108"><ele>281.0</ele><time>2026-04-09T16:24:20.999Z</time></trkpt><trkpt lat="44.46074408944952" lon="7.888412232530558"><ele>281.0</ele><time>2026-04-09T16:24:21.999Z</time></trkpt><trkpt lat="44.46061293769578" lon="7.888568277894786"><ele>281.0</ele><time>2026-04-09T16:24:22.999Z</time></trkpt><trkpt lat="44.46048320443317" lon="7.888724528021505"><ele>281.0</ele><time>2026-04-09T16:24:23.999Z</time></trkpt><trkpt lat="44.46035348465874" lon="7.888878922756482"><ele>281.0</ele><time>2026-04-09T16:24:24.999Z</time></trkpt><trkpt lat="44.460226855884834" lon="7.889032006287983"><ele>281.0</ele><time>2026-04-09T16:24:25.999Z</time></trkpt><trkpt lat="44.460098379323306" lon="7.889186806945703"><ele>279.6666666666667</ele><time>2026-04-09T16:24:26.999Z</time></trkpt><trkpt lat="44.459968634376516" lon="7.889325813461388"><ele>278.3333333333333</ele><time>2026-04-09T16:24:27.999Z</time></trkpt><trkpt lat="44.459832048942104" lon="7.889462288119089"><ele>277.0</ele><time>2026-04-09T16:24:28.999Z</time></trkpt><trkpt lat="44.459697933035685" lon="7.8895829268262565"><ele>277.0</ele><time>2026-04-09T16:24:29.999Z</time></trkpt><trkpt lat="44.459557412595274" lon="7.889701400364058"><ele>277.0</ele><time>2026-04-09T16:24:30.999Z</time></trkpt><trkpt lat="44.45941555717124" lon="7.889803648773296"><ele>277.0</ele><time>2026-04-09T16:24:31.998Z</time></trkpt><trkpt lat="44.4592724802038" lon="7.889903997024562"><ele>277.0</ele><time>2026-04-09T16:24:32.998Z</time></trkpt><trkpt lat="44.45912696475629" lon="7.889998830282469"><ele>277.0</ele><time>2026-04-09T16:24:33.998Z</time></trkpt><trkpt lat="44.45898115578564" lon="7.8900755370906746"><ele>277.0</ele><time>2026-04-09T16:24:34.998Z</time></trkpt><trkpt lat="44.45882642047974" lon="7.8901468459674176"><ele>275.66666666666663</ele><time>2026-04-09T16:24:36Z</time></trkpt><trkpt lat="44.458668943765176" lon="7.890211562367872"><ele>274.3333333333333</ele><time>2026-04-09T16:24:37Z</time></trkpt><trkpt lat="44.458508734733854" lon="7.8902722967456"><ele>273.0</ele><time>2026-04-09T16:24:38Z</time></trkpt><trkpt lat="44.45834824118809" lon="7.890328995162544"><ele>273.0</ele><time>2026-04-09T16:24:39Z</time></trkpt><trkpt lat="44.45819410914033" lon="7.890385746203012"><ele>273.0</ele><time>2026-04-09T16:24:40Z</time></trkpt><trkpt lat="44.4580357837728" lon="7.890440756565081"><ele>273.0</ele><time>2026-04-09T16:24:41Z</time></trkpt><trkpt lat="44.457879404021" lon="7.890496675965793"><ele>272.6666666666667</ele><time>2026-04-09T16:24:42Z</time></trkpt><trkpt lat="44.45772540115894" lon="7.8905591351131585"><ele>272.33333333333337</ele><time>2026-04-09T16:24:43Z</time></trkpt><trkpt lat="44.457566973595576" lon="7.890608816808184"><ele>272.0</ele><time>2026-04-09T16:24:44Z</time></trkpt><trkpt lat="44.45742017097073" lon="7.890665041010905"><ele>272.0</ele><time>2026-04-09T16:24:45Z</time></trkpt><trkpt lat="44.45726509955574" lon="7.890711998576467"><ele>272.0</ele><time>2026-04-09T16:24:46Z</time></trkpt><trkpt lat="44.457107912583766" lon="7.890752289417565"><ele>272.0</ele><time>2026-04-09T16:24:47Z</time></trkpt><trkpt lat="44.45696378651051" lon="7.890803018947533"><ele>273.0</ele><time>2026-04-09T16:24:48Z</time></trkpt><trkpt lat="44.456816305714796" lon="7.890854945320064"><ele>274.0</ele><time>2026-04-09T16:24:49Z</time></trkpt><trkpt lat="44.45666172038936" lon="7.890908773847146"><ele>275.0</ele><time>2026-04-09T16:24:50Z</time></trkpt><trkpt lat="44.45651556802766" lon="7.890980187911485"><ele>275.0</ele><time>2026-04-09T16:24:51Z</time></trkpt><trkpt lat="44.45635903542918" lon="7.89102843827746"><ele>275.0</ele><time>2026-04-09T16:24:52Z</time></trkpt><trkpt lat="44.45621118061244" lon="7.8910737576223156"><ele>275.0</ele><time>2026-04-09T16:24:53Z</time></trkpt><trkpt lat="44.45605907315317" lon="7.891121158868563"><ele>277.33333333333337</ele><time>2026-04-09T16:24:54Z</time></trkpt><trkpt lat="44.455911241410824" lon="7.891167162397514"><ele>279.6666666666667</ele><time>2026-04-09T16:24:55Z</time></trkpt><trkpt lat="44.45576289689211" lon="7.89122242529287"><ele>282.0</ele><time>2026-04-09T16:24:56Z</time></trkpt><trkpt lat="44.45561191267142" lon="7.891270107302151"><ele>282.0</ele><time>2026-04-09T16:24:57Z</time></trkpt><trkpt lat="44.45546212763238" lon="7.891321335246102"><ele>282.0</ele><time>2026-04-09T16:24:58Z</time></trkpt><trkpt lat="44.455310952991084" lon="7.891369613461262"><ele>282.0</ele><time>2026-04-09T16:24:59Z</time></trkpt><trkpt lat="44.455170553954574" lon="7.891416394968377"><ele>282.75</ele><time>2026-04-09T16:25:00Z</time></trkpt><trkpt lat="44.455025271628536" lon="7.891463629239651"><ele>283.5</ele><time>2026-04-09T16:25:01Z</time></trkpt><trkpt lat="44.454888517250694" lon="7.891518173366886"><ele>284.25</ele><time>2026-04-09T16:25:02Z</time></trkpt><trkpt lat="44.4547624465603" lon="7.891572682299493"><ele>285.0</ele><time>2026-04-09T16:25:03Z</time></trkpt><trkpt lat="44.454649439589254" lon="7.891602159486022"><ele>284.6666666666667</ele><time>2026-04-09T16:25:04Z</time></trkpt><trkpt lat="44.4545466236414" lon="7.89163763212217"><ele>284.3333333333333</ele><time>2026-04-09T16:25:05Z</time></trkpt><trkpt lat="44.45446991525885" lon="7.891657147088526"><ele>284.0</ele><time>2026-04-09T16:25:06Z</time></trkpt><trkpt lat="44.45439850539778" lon="7.891672632031507"><ele>283.66666666666663</ele><time>2026-04-09T16:25:07Z</time></trkpt><trkpt lat="44.454301484709596" lon="7.891693301914735"><ele>283.3333333333333</ele><time>2026-04-09T16:25:09Z</time></trkpt><trkpt lat="44.454208574006636" lon="7.891715518385026"><ele>283.0</ele><time>2026-04-09T16:25:47.999Z</time></trkpt><trkpt lat="44.45411860163832" lon="7.89177127406489"><ele>283.0</ele><time>2026-04-09T16:25:59.999Z</time></trkpt><trkpt lat="44.45401654203012" lon="7.891821619130063"><ele>283.0</ele><time>2026-04-09T16:26:01.999Z</time></trkpt><trkpt lat="44.45394516519342" lon="7.891855143896162"><ele>283.0</ele><time>2026-04-09T16:26:02.999Z</time></trkpt><trkpt lat="44.45386746789532" lon="7.891884631027926"><ele>283.0</ele><time>2026-04-09T16:26:03.999Z</time></trkpt><trkpt lat="44.453786112258086" lon="7.891918015877836"><ele>283.0</ele><time>2026-04-09T16:26:04.999Z</time></trkpt><trkpt lat="44.45368704553963" lon="7.891955523183191"><ele>281.75</ele><time>2026-04-09T16:26:05.999Z</time></trkpt><trkpt lat="44.45357879113338" lon="7.891987359773775"><ele>280.5</ele><time>2026-04-09T16:26:06.999Z</time></trkpt><trkpt lat="44.45346298219685" lon="7.892020286920024"><ele>279.25</ele><time>2026-04-09T16:26:07.999Z</time></trkpt><trkpt lat="44.45333466038018" lon="7.8920742304323"><ele>278.0</ele><time>2026-04-09T16:26:08.999Z</time></trkpt><trkpt lat="44.45319775017043" lon="7.892113901793883"><ele>278.0</ele><time>2026-04-09T16:26:09.999Z</time></trkpt><trkpt lat="44.45305769506396" lon="7.892164386869477"><ele>278.0</ele><time>2026-04-09T16:26:10.999Z</time></trkpt><trkpt lat="44.4529160855343" lon="7.892212597576648"><ele>278.0</ele><time>2026-04-09T16:26:11.999Z</time></trkpt><trkpt lat="44.45277262384607" lon="7.892265235010412"><ele>278.0</ele><time>2026-04-09T16:26:12.999Z</time></trkpt><trkpt lat="44.452640269755676" lon="7.892301906087571"><ele>278.5</ele><time>2026-04-09T16:26:13.999Z</time></trkpt><trkpt lat="44.452524738534116" lon="7.892350491961475"><ele>279.0</ele><time>2026-04-09T16:26:14.999Z</time></trkpt><trkpt lat="44.45239869649071" lon="7.892384650035931"><ele>279.5</ele><time>2026-04-09T16:26:15.999Z</time></trkpt><trkpt lat="44.45228361352959" lon="7.892437908523526"><ele>280.0</ele><time>2026-04-09T16:26:16.999Z</time></trkpt><trkpt lat="44.452166458377896" lon="7.892476376119908"><ele>280.6</ele><time>2026-04-09T16:26:17.999Z</time></trkpt><trkpt lat="44.45206592601986" lon="7.892488184733448"><ele>281.2</ele><time>2026-04-09T16:26:18.999Z</time></trkpt><trkpt lat="44.45196505736014" lon="7.892507724181238"><ele>281.8</ele><time>2026-04-09T16:26:19.999Z</time></trkpt><trkpt lat="44.45189012753494" lon="7.892513229721192"><ele>282.4</ele><time>2026-04-09T16:26:20.999Z</time></trkpt><trkpt lat="44.45178925677255" lon="7.892520209078689"><ele>283.0</ele><time>2026-04-09T16:26:21.999Z</time></trkpt><trkpt lat="44.4516983600854" lon="7.892457135371085"><ele>283.0</ele><time>2026-04-09T16:26:22.999Z</time></trkpt><trkpt lat="44.45160069801382" lon="7.8923980068269755"><ele>283.0</ele><time>2026-04-09T16:26:23.999Z</time></trkpt><trkpt lat="44.4514970498907" lon="7.892324837751924"><ele>283.0</ele><time>2026-04-09T16:26:24.999Z</time></trkpt><trkpt lat="44.45140316461053" lon="7.892214756138339"><ele>283.0</ele><time>2026-04-09T16:26:25.999Z</time></trkpt><trkpt lat="44.45131208400226" lon="7.892085948080511"><ele>283.3333333333333</ele><time>2026-04-09T16:26:26.999Z</time></trkpt><trkpt lat="44.45120966595092" lon="7.8919515186759295"><ele>283.6666666666667</ele><time>2026-04-09T16:26:27.999Z</time></trkpt><trkpt lat="44.451139478976216" lon="7.891757884991695"><ele>284.0</ele><time>2026-04-09T16:26:28.999Z</time></trkpt><trkpt lat="44.45104479196742" lon="7.8915755117826984"><ele>284.0</ele><time>2026-04-09T16:26:29.999Z</time></trkpt><trkpt lat="44.45095303944748" lon="7.891396398827956"><ele>284.0</ele><time>2026-04-09T16:26:30.999Z</time></trkpt><trkpt lat="44.45084877207768" lon="7.891193856926165"><ele>284.0</ele><time>2026-04-09T16:26:31.999Z</time></trkpt><trkpt lat="44.45075340198116" lon="7.89100861414319"><ele>282.6666666666667</ele><time>2026-04-09T16:26:32.999Z</time></trkpt><trkpt lat="44.45065047897483" lon="7.890805657095014"><ele>281.3333333333333</ele><time>2026-04-09T16:26:33.999Z</time></trkpt><trkpt lat="44.4505483735737" lon="7.890592139964229"><ele>280.0</ele><time>2026-04-09T16:26:34.999Z</time></trkpt><trkpt lat="44.45044856277766" lon="7.89038724096457"><ele>282.66666666666663</ele><time>2026-04-09T16:26:35.999Z</time></trkpt><trkpt lat="44.450347873611406" lon="7.8901879980643095"><ele>285.3333333333333</ele><time>2026-04-09T16:26:36.999Z</time></trkpt><trkpt lat="44.45025309674019" lon="7.890003585080765"><ele>288.0</ele><time>2026-04-09T16:26:37.999Z</time></trkpt><trkpt lat="44.450145720444276" lon="7.889806049613863"><ele>288.3333333333333</ele><time>2026-04-09T16:26:38.999Z</time></trkpt><trkpt lat="44.450043612331" lon="7.8896022563128705"><ele>288.66666666666663</ele><time>2026-04-09T16:26:39.998Z</time></trkpt><trkpt lat="44.44993528747679" lon="7.88938388022767"><ele>289.0</ele><time>2026-04-09T16:26:40.998Z</time></trkpt><trkpt lat="44.44982708401437" lon="7.889154560274859"><ele>288.3333333333333</ele><time>2026-04-09T16:26:42Z</time></trkpt><trkpt lat="44.44971660207987" lon="7.888917896826323"><ele>287.6666666666667</ele><time>2026-04-09T16:26:43Z</time></trkpt><trkpt lat="44.44960874627528" lon="7.888689109818499"><ele>287.0</ele><time>2026-04-09T16:26:44Z</time></trkpt><trkpt lat="44.44949561761348" lon="7.888459171477268"><ele>289.0</ele><time>2026-04-09T16:26:45Z</time></trkpt><trkpt lat="44.44938090126311" lon="7.888226263970278"><ele>291.0</ele><time>2026-04-09T16:26:46Z</time></trkpt><trkpt lat="44.449267035878044" lon="7.88799380360257"><ele>293.0</ele><time>2026-04-09T16:26:47Z</time></trkpt><trkpt lat="44.44915463005599" lon="7.887767612860762"><ele>292.33333333333337</ele><time>2026-04-09T16:26:48Z</time></trkpt><trkpt lat="44.44903587059344" lon="7.887536646635807"><ele>291.6666666666667</ele><time>2026-04-09T16:26:49Z</time></trkpt><trkpt lat="44.448917819893836" lon="7.887308726848408"><ele>291.0</ele><time>2026-04-09T16:26:50Z</time></trkpt><trkpt lat="44.4487976827808" lon="7.8870790410349185"><ele>291.0</ele><time>2026-04-09T16:26:51Z</time></trkpt><trkpt lat="44.448683486300396" lon="7.886846541495373"><ele>291.0</ele><time>2026-04-09T16:26:52Z</time></trkpt><trkpt lat="44.44856820781975" lon="7.886611053303353"><ele>291.0</ele><time>2026-04-09T16:26:53Z</time></trkpt><trkpt lat="44.44845265836756" lon="7.886367949835585"><ele>291.6666666666667</ele><time>2026-04-09T16:26:54Z</time></trkpt><trkpt lat="44.44834522364529" lon="7.8861392153987495"><ele>292.33333333333337</ele><time>2026-04-09T16:26:55Z</time></trkpt><trkpt lat="44.44824641152945" lon="7.885928935480288"><ele>293.0</ele><time>2026-04-09T16:26:56Z</time></trkpt><trkpt lat="44.44814356259677" lon="7.88571367946652"><ele>292.0</ele><time>2026-04-09T16:26:57Z</time></trkpt><trkpt lat="44.44804300766248" lon="7.885516234674723"><ele>291.0</ele><time>2026-04-09T16:26:58Z</time></trkpt><trkpt lat="44.44795168682691" lon="7.885320205540322"><ele>290.0</ele><time>2026-04-09T16:26:59Z</time></trkpt><trkpt lat="44.44786185450893" lon="7.8851159091381176"><ele>291.0</ele><time>2026-04-09T16:27:00Z</time></trkpt><trkpt lat="44.44778004933076" lon="7.884933063174993"><ele>292.0</ele><time>2026-04-09T16:27:01Z</time></trkpt><trkpt lat="44.44770047135068" lon="7.884732441405727"><ele>293.0</ele><time>2026-04-09T16:27:02Z</time></trkpt><trkpt lat="44.447627092609544" lon="7.884517236196948"><ele>293.0</ele><time>2026-04-09T16:27:03Z</time></trkpt><trkpt lat="44.44755584565378" lon="7.8842943701655015"><ele>293.0</ele><time>2026-04-09T16:27:04Z</time></trkpt><trkpt lat="44.447498379953785" lon="7.884078467855535"><ele>293.0</ele><time>2026-04-09T16:27:05Z</time></trkpt><trkpt lat="44.44744952648077" lon="7.883864110461795"><ele>293.6666666666667</ele><time>2026-04-09T16:27:06Z</time></trkpt><trkpt lat="44.44740939290132" lon="7.883630781383241"><ele>294.3333333333333</ele><time>2026-04-09T16:27:07Z</time></trkpt><trkpt lat="44.447382934473886" lon="7.883396359437193"><ele>295.0</ele><time>2026-04-09T16:27:08Z</time></trkpt><trkpt lat="44.447362743137894" lon="7.88314719007289"><ele>297.3333333333333</ele><time>2026-04-09T16:27:09Z</time></trkpt><trkpt lat="44.44734376940193" lon="7.882894964472487"><ele>299.6666666666667</ele><time>2026-04-09T16:27:10Z</time></trkpt><trkpt lat="44.44732757220252" lon="7.882636579963706"><ele>302.0</ele><time>2026-04-09T16:27:11Z</time></trkpt><trkpt lat="44.44730854462704" lon="7.882375731371811"><ele>303.33333333333337</ele><time>2026-04-09T16:27:12Z</time></trkpt><trkpt lat="44.44729233529926" lon="7.882118228504576"><ele>304.6666666666667</ele><time>2026-04-09T16:27:13Z</time></trkpt><trkpt lat="44.44727760052331" lon="7.881864720807758"><ele>306.0</ele><time>2026-04-09T16:27:14Z</time></trkpt><trkpt lat="44.447268857880196" lon="7.881595801711064"><ele>307.0</ele><time>2026-04-09T16:27:15Z</time></trkpt><trkpt lat="44.44724111848618" lon="7.881311439737545"><ele>308.0</ele><time>2026-04-09T16:27:16Z</time></trkpt><trkpt lat="44.447220196941444" lon="7.881062264084108"><ele>309.0</ele><time>2026-04-09T16:27:17Z</time></trkpt><trkpt lat="44.44721857167198" lon="7.880797834440159"><ele>311.3333333333333</ele><time>2026-04-09T16:27:18Z</time></trkpt><trkpt lat="44.44720844048721" lon="7.880578414960525"><ele>313.66666666666663</ele><time>2026-04-09T16:27:19Z</time></trkpt><trkpt lat="44.447204704278285" lon="7.880338825492073"><ele>316.0</ele><time>2026-04-09T16:27:20Z</time></trkpt><trkpt lat="44.44718255440261" lon="7.880103222494257"><ele>319.66666666666663</ele><time>2026-04-09T16:27:21Z</time></trkpt><trkpt lat="44.44715973995428" lon="7.879888207175227"><ele>323.3333333333333</ele><time>2026-04-09T16:27:22Z</time></trkpt><trkpt lat="44.44712907849637" lon="7.879680867111845"><ele>327.0</ele><time>2026-04-09T16:27:23Z</time></trkpt><trkpt lat="44.44711291420058" lon="7.879457342553408"><ele>319.0</ele><time>2026-04-09T16:27:24Z</time></trkpt><trkpt lat="44.44706586764387" lon="7.879251387408573"><ele>311.0</ele><time>2026-04-09T16:27:25Z</time></trkpt><trkpt lat="44.44699346850428" lon="7.879011256119773"><ele>303.0</ele><time>2026-04-09T16:27:26Z</time></trkpt><trkpt lat="44.446892970731795" lon="7.878819040644668"><ele>303.0</ele><time>2026-04-09T16:27:27Z</time></trkpt><trkpt lat="44.446790817218876" lon="7.87863387869192"><ele>303.0</ele><time>2026-04-09T16:27:28Z</time></trkpt><trkpt lat="44.446681084842" lon="7.878471528788192"><ele>303.0</ele><time>2026-04-09T16:27:29Z</time></trkpt><trkpt lat="44.44655885196733" lon="7.878324642339171"><ele>302.0</ele><time>2026-04-09T16:27:30Z</time></trkpt><trkpt lat="44.44644090926217" lon="7.87816712384333"><ele>301.0</ele><time>2026-04-09T16:27:31Z</time></trkpt><trkpt lat="44.44629785178825" lon="7.878048222056481"><ele>300.0</ele><time>2026-04-09T16:27:32Z</time></trkpt><trkpt lat="44.44617330047078" lon="7.877898190540151"><ele>300.0</ele><time>2026-04-09T16:27:32.999Z</time></trkpt><trkpt lat="44.446052604905695" lon="7.877748606252184"><ele>300.0</ele><time>2026-04-09T16:27:33.999Z</time></trkpt><trkpt lat="44.445959395187785" lon="7.877592926473414"><ele>300.0</ele><time>2026-04-09T16:27:34.999Z</time></trkpt><trkpt lat="44.44586944725496" lon="7.8774285926238035"><ele>307.0</ele><time>2026-04-09T16:27:35.999Z</time></trkpt><trkpt lat="44.44579476249715" lon="7.877232262507495"><ele>314.0</ele><time>2026-04-09T16:27:36.999Z</time></trkpt><trkpt lat="44.44573119361421" lon="7.877051073583102"><ele>321.0</ele><time>2026-04-09T16:27:37.999Z</time></trkpt><trkpt lat="44.445680271922235" lon="7.87685068064244"><ele>324.25</ele><time>2026-04-09T16:27:38.999Z</time></trkpt><trkpt lat="44.44564398738258" lon="7.876661225996407"><ele>327.5</ele><time>2026-04-09T16:27:39.999Z</time></trkpt><trkpt lat="44.445607904881776" lon="7.87645555640104"><ele>330.75</ele><time>2026-04-09T16:27:40.999Z</time></trkpt><trkpt lat="44.44557474927375" lon="7.876259881312198"><ele>334.0</ele><time>2026-04-09T16:27:41.999Z</time></trkpt><trkpt lat="44.44553271057397" lon="7.87605769398485"><ele>336.5</ele><time>2026-04-09T16:27:42.999Z</time></trkpt><trkpt lat="44.44550299816579" lon="7.875858394292019"><ele>339.0</ele><time>2026-04-09T16:27:43.999Z</time></trkpt><trkpt lat="44.44546245940418" lon="7.875662027189212"><ele>341.5</ele><time>2026-04-09T16:27:44.999Z</time></trkpt><trkpt lat="44.44542610357698" lon="7.875476274976304"><ele>344.0</ele><time>2026-04-09T16:27:45.999Z</time></trkpt><trkpt lat="44.44537370792984" lon="7.875271461549245"><ele>340.0</ele><time>2026-04-09T16:27:46.999Z</time></trkpt><trkpt lat="44.445304365473724" lon="7.875079444014518"><ele>336.0</ele><time>2026-04-09T16:27:47.999Z</time></trkpt><trkpt lat="44.4452602335176" lon="7.874883704786167"><ele>332.0</ele><time>2026-04-09T16:27:48.999Z</time></trkpt><trkpt lat="44.44518831039576" lon="7.874703963898559"><ele>328.0</ele><time>2026-04-09T16:27:49.999Z</time></trkpt><trkpt lat="44.44510792481887" lon="7.874522594246492"><ele>328.0</ele><time>2026-04-09T16:27:50.999Z</time></trkpt><trkpt lat="44.44501314291641" lon="7.874358113961176"><ele>328.0</ele><time>2026-04-09T16:27:51.999Z</time></trkpt><trkpt lat="44.4449093709804" lon="7.874216113595975"><ele>328.0</ele><time>2026-04-09T16:27:52.999Z</time></trkpt><trkpt lat="44.44479572847557" lon="7.874080832529068"><ele>328.0</ele><time>2026-04-09T16:27:53.999Z</time></trkpt><trkpt lat="44.44467733096963" lon="7.873950336131335"><ele>328.0</ele><time>2026-04-09T16:27:54.999Z</time></trkpt><trkpt lat="44.44455804449673" lon="7.873827594417132"><ele>328.0</ele><time>2026-04-09T16:27:55.999Z</time></trkpt><trkpt lat="44.444442524124696" lon="7.87371053717077"><ele>328.0</ele><time>2026-04-09T16:27:56.999Z</time></trkpt><trkpt lat="44.44432378486255" lon="7.873598684094821"><ele>328.0</ele><time>2026-04-09T16:27:57.999Z</time></trkpt><trkpt lat="44.444202971310375" lon="7.873485963177366"><ele>331.5</ele><time>2026-04-09T16:27:58.999Z</time></trkpt><trkpt lat="44.44408461810018" lon="7.873379152182272"><ele>335.0</ele><time>2026-04-09T16:27:59.999Z</time></trkpt><trkpt lat="44.44397704746514" lon="7.873259528914419"><ele>338.5</ele><time>2026-04-09T16:28:00.999Z</time></trkpt><trkpt lat="44.44387493172732" lon="7.873166566961581"><ele>342.0</ele><time>2026-04-09T16:28:01.999Z</time></trkpt><trkpt lat="44.443760843944574" lon="7.873047048989214"><ele>342.0</ele><time>2026-04-09T16:28:02.999Z</time></trkpt><trkpt lat="44.44364253288435" lon="7.8729264370731205"><ele>342.0</ele><time>2026-04-09T16:28:03.999Z</time></trkpt><trkpt lat="44.44352423440792" lon="7.872819197603432"><ele>342.0</ele><time>2026-04-09T16:28:04.999Z</time></trkpt><trkpt lat="44.44339597526247" lon="7.872697508764219"><ele>342.0</ele><time>2026-04-09T16:28:05.999Z</time></trkpt><trkpt lat="44.44326602041572" lon="7.8725813328472585"><ele>346.0</ele><time>2026-04-09T16:28:06.999Z</time></trkpt><trkpt lat="44.443136542237106" lon="7.872468653307195"><ele>350.0</ele><time>2026-04-09T16:28:07.999Z</time></trkpt><trkpt lat="44.443001656453426" lon="7.872349048074511"><ele>354.0</ele><time>2026-04-09T16:28:08.999Z</time></trkpt><trkpt lat="44.44286148748871" lon="7.872233515959504"><ele>355.0</ele><time>2026-04-09T16:28:09.999Z</time></trkpt><trkpt lat="44.44273547091725" lon="7.872095283408668"><ele>356.0</ele><time>2026-04-09T16:28:10.999Z</time></trkpt><trkpt lat="44.44258994588665" lon="7.8719738227863365"><ele>357.0</ele><time>2026-04-09T16:28:11.999Z</time></trkpt><trkpt lat="44.442429707502825" lon="7.871855084715586"><ele>357.3333333333333</ele><time>2026-04-09T16:28:12.999Z</time></trkpt><trkpt lat="44.44227400358234" lon="7.871725022915741"><ele>357.66666666666663</ele><time>2026-04-09T16:28:13.999Z</time></trkpt><trkpt lat="44.442113376059474" lon="7.871593810399374"><ele>358.0</ele><time>2026-04-09T16:28:14.999Z</time></trkpt><trkpt lat="44.44195028643116" lon="7.871483807600432"><ele>359.66666666666663</ele><time>2026-04-09T16:28:15.999Z</time></trkpt><trkpt lat="44.44179038029582" lon="7.871361732773817"><ele>361.3333333333333</ele><time>2026-04-09T16:28:16.999Z</time></trkpt><trkpt lat="44.441626230181406" lon="7.871228047983723"><ele>363.0</ele><time>2026-04-09T16:28:17.999Z</time></trkpt><trkpt lat="44.441459225007115" lon="7.871105454704718"><ele>364.6666666666667</ele><time>2026-04-09T16:28:18.999Z</time></trkpt><trkpt lat="44.44128766038424" lon="7.870971270143657"><ele>366.33333333333337</ele><time>2026-04-09T16:28:19.999Z</time></trkpt><trkpt lat="44.44111217449401" lon="7.870844119916461"><ele>368.0</ele><time>2026-04-09T16:28:20.999Z</time></trkpt><trkpt lat="44.44093451400642" lon="7.87071598781042"><ele>368.6666666666667</ele><time>2026-04-09T16:28:21.999Z</time></trkpt><trkpt lat="44.44075593830363" lon="7.870572487102348"><ele>369.3333333333333</ele><time>2026-04-09T16:28:22.999Z</time></trkpt><trkpt lat="44.44057568620358" lon="7.870428471104849"><ele>370.0</ele><time>2026-04-09T16:28:23.999Z</time></trkpt><trkpt lat="44.440392245837444" lon="7.870293249030771"><ele>370.3333333333333</ele><time>2026-04-09T16:28:24.999Z</time></trkpt><trkpt lat="44.44020136370315" lon="7.870152251793118"><ele>370.6666666666667</ele><time>2026-04-09T16:28:25.999Z</time></trkpt><trkpt lat="44.44001401345638" lon="7.870020934560624"><ele>371.0</ele><time>2026-04-09T16:28:26.999Z</time></trkpt><trkpt lat="44.43982110391853" lon="7.869870767696289"><ele>371.0</ele><time>2026-04-09T16:28:27.999Z</time></trkpt><trkpt lat="44.43962581011157" lon="7.869721690156134"><ele>371.0</ele><time>2026-04-09T16:28:28.999Z</time></trkpt><trkpt lat="44.43942805316418" lon="7.86957240909966"><ele>371.0</ele><time>2026-04-09T16:28:29.999Z</time></trkpt><trkpt lat="44.439234522166174" lon="7.8694233190013385"><ele>371.0</ele><time>2026-04-09T16:28:30.999Z</time></trkpt><trkpt lat="44.43903935543041" lon="7.869270894571012"><ele>371.0</ele><time>2026-04-09T16:28:31.999Z</time></trkpt><trkpt lat="44.438841928402475" lon="7.869110037169806"><ele>371.0</ele><time>2026-04-09T16:28:32.999Z</time></trkpt><trkpt lat="44.438642667089724" lon="7.8689363777688826"><ele>371.0</ele><time>2026-04-09T16:28:33.999Z</time></trkpt><trkpt lat="44.43844167395095" lon="7.8687576119224785"><ele>371.0</ele><time>2026-04-09T16:28:34.999Z</time></trkpt><trkpt lat="44.43823304833473" lon="7.868573448187751"><ele>371.0</ele><time>2026-04-09T16:28:35.999Z</time></trkpt><trkpt lat="44.438031169190985" lon="7.868380661699913"><ele>371.0</ele><time>2026-04-09T16:28:36.999Z</time></trkpt><trkpt lat="44.43783122183625" lon="7.868182344702381"><ele>371.0</ele><time>2026-04-09T16:28:37.999Z</time></trkpt><trkpt lat="44.4376392404996" lon="7.867987211629478"><ele>371.0</ele><time>2026-04-09T16:28:38.999Z</time></trkpt><trkpt lat="44.43744505620805" lon="7.867776923169246"><ele>371.0</ele><time>2026-04-09T16:28:39.999Z</time></trkpt><trkpt lat="44.4372570302693" lon="7.867573763224561"><ele>372.0</ele><time>2026-04-09T16:28:40.999Z</time></trkpt><trkpt lat="44.4370666106377" lon="7.867360645328335"><ele>373.0</ele><time>2026-04-09T16:28:41.999Z</time></trkpt><trkpt lat="44.43687581017143" lon="7.867147775557546"><ele>373.0</ele><time>2026-04-09T16:28:42.998Z</time></trkpt><trkpt lat="44.43668192673984" lon="7.866929353870202"><ele>373.0</ele><time>2026-04-09T16:28:43.998Z</time></trkpt><trkpt lat="44.43649158141246" lon="7.8667206614470295"><ele>373.5</ele><time>2026-04-09T16:28:44.998Z</time></trkpt><trkpt lat="44.43629878092356" lon="7.866505110106735"><ele>374.0</ele><time>2026-04-09T16:28:45.998Z</time></trkpt><trkpt lat="44.436104010601944" lon="7.866280620183121"><ele>374.0</ele><time>2026-04-09T16:28:46.998Z</time></trkpt><trkpt lat="44.43590873064732" lon="7.8660661162681915"><ele>374.0</ele><time>2026-04-09T16:28:48Z</time></trkpt><trkpt lat="44.435712163879714" lon="7.86585282765793"><ele>374.0</ele><time>2026-04-09T16:28:49Z</time></trkpt><trkpt lat="44.43552002182218" lon="7.865633628430525"><ele>374.0</ele><time>2026-04-09T16:28:50Z</time></trkpt><trkpt lat="44.43532446428272" lon="7.865415730304646"><ele>374.0</ele><time>2026-04-09T16:28:51Z</time></trkpt><trkpt lat="44.43513321936495" lon="7.865214142603405"><ele>374.0</ele><time>2026-04-09T16:28:52Z</time></trkpt><trkpt lat="44.43495121378338" lon="7.865013784967366"><ele>374.0</ele><time>2026-04-09T16:28:53Z</time></trkpt><trkpt lat="44.43474781356225" lon="7.864788999521809"><ele>374.0</ele><time>2026-04-09T16:28:54Z</time></trkpt><trkpt lat="44.43455314582493" lon="7.864568046989081"><ele>374.0</ele><time>2026-04-09T16:28:55Z</time></trkpt><trkpt lat="44.43435117312935" lon="7.864338944926561"><ele>374.0</ele><time>2026-04-09T16:28:56Z</time></trkpt><trkpt lat="44.434146880191754" lon="7.864117183844741"><ele>374.0</ele><time>2026-04-09T16:28:57Z</time></trkpt><trkpt lat="44.43394289320422" lon="7.863891151490081"><ele>374.0</ele><time>2026-04-09T16:28:58Z</time></trkpt><trkpt lat="44.433746435768086" lon="7.863665128746538"><ele>374.5</ele><time>2026-04-09T16:28:59Z</time></trkpt><trkpt lat="44.433546395349616" lon="7.863429481858807"><ele>375.0</ele><time>2026-04-09T16:29:00Z</time></trkpt><trkpt lat="44.43334217316199" lon="7.863195415956888"><ele>375.0</ele><time>2026-04-09T16:29:01Z</time></trkpt><trkpt lat="44.43314530472811" lon="7.862972782803433"><ele>375.0</ele><time>2026-04-09T16:29:02Z</time></trkpt><trkpt lat="44.432947628516594" lon="7.862739257998657"><ele>375.0</ele><time>2026-04-09T16:29:03Z</time></trkpt><trkpt lat="44.432751779993694" lon="7.862510792987726"><ele>375.0</ele><time>2026-04-09T16:29:04Z</time></trkpt><trkpt lat="44.43255452416684" lon="7.862276319858018"><ele>375.0</ele><time>2026-04-09T16:29:05Z</time></trkpt><trkpt lat="44.43236900438509" lon="7.862053345074144"><ele>375.0</ele><time>2026-04-09T16:29:06Z</time></trkpt><trkpt lat="44.43217041540165" lon="7.861834800114535"><ele>377.0</ele><time>2026-04-09T16:29:07Z</time></trkpt><trkpt lat="44.431967761235406" lon="7.861612153501392"><ele>379.0</ele><time>2026-04-09T16:29:08Z</time></trkpt><trkpt lat="44.431769276599326" lon="7.861390185750132"><ele>379.0</ele><time>2026-04-09T16:29:09Z</time></trkpt><trkpt lat="44.43157051312546" lon="7.861174133721276"><ele>379.0</ele><time>2026-04-09T16:29:10Z</time></trkpt><trkpt lat="44.4313696304074" lon="7.860962468792137"><ele>378.5</ele><time>2026-04-09T16:29:11Z</time></trkpt><trkpt lat="44.43116709808466" lon="7.860739729004832"><ele>378.0</ele><time>2026-04-09T16:29:12Z</time></trkpt><trkpt lat="44.4309636483629" lon="7.860512886355668"><ele>378.0</ele><time>2026-04-09T16:29:13Z</time></trkpt><trkpt lat="44.43077326509909" lon="7.860280709119863"><ele>378.0</ele><time>2026-04-09T16:29:14Z</time></trkpt><trkpt lat="44.4305761132735" lon="7.860058328098333"><ele>379.0</ele><time>2026-04-09T16:29:15Z</time></trkpt><trkpt lat="44.430383304601804" lon="7.85984254670643"><ele>380.0</ele><time>2026-04-09T16:29:16Z</time></trkpt><trkpt lat="44.43018418709728" lon="7.8596236734156175"><ele>380.0</ele><time>2026-04-09T16:29:17Z</time></trkpt><trkpt lat="44.429990891799825" lon="7.859403110454693"><ele>380.0</ele><time>2026-04-09T16:29:18Z</time></trkpt><trkpt lat="44.42979548208751" lon="7.859185369867351"><ele>379.5</ele><time>2026-04-09T16:29:19Z</time></trkpt><trkpt lat="44.42959496338799" lon="7.858955033256559"><ele>379.0</ele><time>2026-04-09T16:29:20Z</time></trkpt><trkpt lat="44.42940042033359" lon="7.85873940257922"><ele>379.0</ele><time>2026-04-09T16:29:21Z</time></trkpt><trkpt lat="44.42919784881975" lon="7.858514293479748"><ele>379.0</ele><time>2026-04-09T16:29:22Z</time></trkpt><trkpt lat="44.428995521110686" lon="7.858301089276137"><ele>379.0</ele><time>2026-04-09T16:29:23Z</time></trkpt><trkpt lat="44.42880241280947" lon="7.858072022856379"><ele>379.0</ele><time>2026-04-09T16:29:24Z</time></trkpt><trkpt lat="44.42860357211271" lon="7.857847290619072"><ele>379.0</ele><time>2026-04-09T16:29:25Z</time></trkpt><trkpt lat="44.42841109783466" lon="7.857632529054916"><ele>379.0</ele><time>2026-04-09T16:29:26Z</time></trkpt><trkpt lat="44.42822979987565" lon="7.857426806926473"><ele>379.0</ele><time>2026-04-09T16:29:27Z</time></trkpt><trkpt lat="44.42804412960773" lon="7.857219024945294"><ele>379.0</ele><time>2026-04-09T16:29:28Z</time></trkpt><trkpt lat="44.427858501586385" lon="7.857005648814483"><ele>380.0</ele><time>2026-04-09T16:29:29Z</time></trkpt><trkpt lat="44.427681880220916" lon="7.856787237415958"><ele>381.0</ele><time>2026-04-09T16:29:30Z</time></trkpt><trkpt lat="44.42751094932488" lon="7.8565569290940465"><ele>381.5</ele><time>2026-04-09T16:29:31Z</time></trkpt><trkpt lat="44.42734108553535" lon="7.856327409331136"><ele>382.0</ele><time>2026-04-09T16:29:32Z</time></trkpt><trkpt lat="44.42717057048216" lon="7.856106109946032"><ele>382.0</ele><time>2026-04-09T16:29:33Z</time></trkpt><trkpt lat="44.42700004363784" lon="7.855886229723341"><ele>382.0</ele><time>2026-04-09T16:29:34Z</time></trkpt><trkpt lat="44.42683429280826" lon="7.855672949977205"><ele>382.0</ele><time>2026-04-09T16:29:35Z</time></trkpt><trkpt lat="44.42668147597746" lon="7.855474978022531"><ele>382.0</ele><time>2026-04-09T16:29:36Z</time></trkpt><trkpt lat="44.426521227023265" lon="7.855259858490106"><ele>382.0</ele><time>2026-04-09T16:29:37Z</time></trkpt><trkpt lat="44.426368088551406" lon="7.855082297780645"><ele>382.3333333333333</ele><time>2026-04-09T16:29:38Z</time></trkpt><trkpt lat="44.42621860807728" lon="7.854891477682024"><ele>382.6666666666667</ele><time>2026-04-09T16:29:38.999Z</time></trkpt><trkpt lat="44.42606116066393" lon="7.854683954376766"><ele>383.0</ele><time>2026-04-09T16:29:39.999Z</time></trkpt><trkpt lat="44.42590583347491" lon="7.854490797879365"><ele>383.0</ele><time>2026-04-09T16:29:40.999Z</time></trkpt><trkpt lat="44.42575127300272" lon="7.854278627734923"><ele>383.0</ele><time>2026-04-09T16:29:41.999Z</time></trkpt><trkpt lat="44.425597374334735" lon="7.854085312693913"><ele>383.0</ele><time>2026-04-09T16:29:42.999Z</time></trkpt><trkpt lat="44.42544793428417" lon="7.853899459405055"><ele>383.0</ele><time>2026-04-09T16:29:43.999Z</time></trkpt><trkpt lat="44.42530536082018" lon="7.853720195002909"><ele>383.0</ele><time>2026-04-09T16:29:44.999Z</time></trkpt><trkpt lat="44.42516579601363" lon="7.853533329089648"><ele>383.0</ele><time>2026-04-09T16:29:45.999Z</time></trkpt><trkpt lat="44.425028278811126" lon="7.853358716770291"><ele>383.0</ele><time>2026-04-09T16:29:46.999Z</time></trkpt><trkpt lat="44.424896252123474" lon="7.853160990962458"><ele>383.0</ele><time>2026-04-09T16:29:47.999Z</time></trkpt><trkpt lat="44.42476364826866" lon="7.852991652640609"><ele>383.0</ele><time>2026-04-09T16:29:48.999Z</time></trkpt><trkpt lat="44.42463938056014" lon="7.8528235841002045"><ele>383.0</ele><time>2026-04-09T16:29:49.999Z</time></trkpt><trkpt lat="44.42452400728365" lon="7.852627255035669"><ele>383.0</ele><time>2026-04-09T16:29:50.999Z</time></trkpt><trkpt lat="44.4244203822717" lon="7.852425499702869"><ele>383.0</ele><time>2026-04-09T16:29:51.999Z</time></trkpt><trkpt lat="44.42431915331065" lon="7.852203843364282"><ele>383.0</ele><time>2026-04-09T16:29:52.999Z</time></trkpt><trkpt lat="44.42422217234836" lon="7.851979016785188"><ele>383.0</ele><time>2026-04-09T16:29:53.999Z</time></trkpt><trkpt lat="44.424120956210814" lon="7.851753770964097"><ele>383.0</ele><time>2026-04-09T16:29:54.999Z</time></trkpt><trkpt lat="44.42402718376186" lon="7.851535435689159"><ele>383.0</ele><time>2026-04-09T16:29:55.999Z</time></trkpt><trkpt lat="44.423941151825545" lon="7.851346268410151"><ele>383.0</ele><time>2026-04-09T16:29:56.999Z</time></trkpt><trkpt lat="44.423856532041384" lon="7.851166058508721"><ele>383.0</ele><time>2026-04-09T16:29:57.999Z</time></trkpt><trkpt lat="44.42378126089987" lon="7.8509999151451995"><ele>383.25</ele><time>2026-04-09T16:29:58.999Z</time></trkpt><trkpt lat="44.423691377294574" lon="7.850824365257709"><ele>383.5</ele><time>2026-04-09T16:29:59.999Z</time></trkpt><trkpt lat="44.42361875172983" lon="7.850690665403838"><ele>383.75</ele><time>2026-04-09T16:30:00.999Z</time></trkpt><trkpt lat="44.42355244111752" lon="7.8505628343723775"><ele>384.0</ele><time>2026-04-09T16:30:01.999Z</time></trkpt><trkpt lat="44.42348411152386" lon="7.8504558026828"><ele>384.0</ele><time>2026-04-09T16:30:02.999Z</time></trkpt><trkpt lat="44.42343271348702" lon="7.850359195557598"><ele>384.0</ele><time>2026-04-09T16:30:03.999Z</time></trkpt><trkpt lat="44.423387248838516" lon="7.850264588461203"><ele>384.0</ele><time>2026-04-09T16:30:04.999Z</time></trkpt><trkpt lat="44.42334581889309" lon="7.850155629203986"><ele>384.0</ele><time>2026-04-09T16:30:05.999Z</time></trkpt><trkpt lat="44.42330423734677" lon="7.850044407370161"><ele>384.0</ele><time>2026-04-09T16:30:06.999Z</time></trkpt><trkpt lat="44.42325907925203" lon="7.849947490574796"><ele>384.0</ele><time>2026-04-09T16:30:07.999Z</time></trkpt><trkpt lat="44.423190035321674" lon="7.849857423142781"><ele>383.79999999999995</ele><time>2026-04-09T16:30:08.999Z</time></trkpt><trkpt lat="44.42310071046251" lon="7.849783131461846"><ele>383.59999999999997</ele><time>2026-04-09T16:30:09.999Z</time></trkpt><trkpt lat="44.42300817242677" lon="7.849727352243036"><ele>383.4</ele><time>2026-04-09T16:30:10.999Z</time></trkpt><trkpt lat="44.422912411627344" lon="7.849647759157628"><ele>383.2</ele><time>2026-04-09T16:30:11.999Z</time></trkpt><trkpt lat="44.42282467999275" lon="7.84953435044015"><ele>383.0</ele><time>2026-04-09T16:30:12.999Z</time></trkpt><trkpt lat="44.42273261896021" lon="7.849424779276463"><ele>383.2</ele><time>2026-04-09T16:30:13.999Z</time></trkpt><trkpt lat="44.4226419027884" lon="7.849321506555034"><ele>383.4</ele><time>2026-04-09T16:30:14.999Z</time></trkpt><trkpt lat="44.42255137045978" lon="7.849254224929146"><ele>383.59999999999997</ele><time>2026-04-09T16:30:15.999Z</time></trkpt><trkpt lat="44.422463819852226" lon="7.849225091846886"><ele>383.79999999999995</ele><time>2026-04-09T16:30:16.999Z</time></trkpt><trkpt lat="44.42237800982177" lon="7.849195191531097"><ele>384.0</ele><time>2026-04-09T16:30:17.999Z</time></trkpt><trkpt lat="44.42229942028044" lon="7.849178481598239"><ele>384.0</ele><time>2026-04-09T16:30:18.999Z</time></trkpt><trkpt lat="44.42222690553492" lon="7.849165988714548"><ele>384.0</ele><time>2026-04-09T16:30:19.999Z</time></trkpt><trkpt lat="44.42216108825976" lon="7.849139802113621"><ele>384.0</ele><time>2026-04-09T16:30:20.999Z</time></trkpt><trkpt lat="44.422102036942974" lon="7.849087029233445"><ele>384.0</ele><time>2026-04-09T16:30:21.999Z</time></trkpt><trkpt lat="44.42203084285553" lon="7.849010087479696"><ele>384.0</ele><time>2026-04-09T16:30:22.999Z</time></trkpt><trkpt lat="44.4219352916298" lon="7.848932745310467"><ele>384.0</ele><time>2026-04-09T16:30:23.999Z</time></trkpt><trkpt lat="44.42184305882951" lon="7.848886185344636"><ele>384.2</ele><time>2026-04-09T16:30:24.999Z</time></trkpt><trkpt lat="44.421741242187146" lon="7.848876074533586"><ele>384.4</ele><time>2026-04-09T16:30:25.999Z</time></trkpt><trkpt lat="44.421622735653656" lon="7.848869228060828"><ele>384.6</ele><time>2026-04-09T16:30:26.999Z</time></trkpt><trkpt lat="44.42151894044109" lon="7.8488450487629065"><ele>384.8</ele><time>2026-04-09T16:30:27.999Z</time></trkpt><trkpt lat="44.421411910879016" lon="7.848795318785873"><ele>385.0</ele><time>2026-04-09T16:30:28.999Z</time></trkpt><trkpt lat="44.421298534219176" lon="7.848710763328147"><ele>385.25</ele><time>2026-04-09T16:30:29.999Z</time></trkpt><trkpt lat="44.42118198790772" lon="7.8486011237915605"><ele>385.5</ele><time>2026-04-09T16:30:30.999Z</time></trkpt><trkpt lat="44.42105149167855" lon="7.848483022187588"><ele>385.75</ele><time>2026-04-09T16:30:31.999Z</time></trkpt><trkpt lat="44.420926457086516" lon="7.848371764617026"><ele>386.0</ele><time>2026-04-09T16:30:32.999Z</time></trkpt><trkpt lat="44.420790260646434" lon="7.848249616176289"><ele>386.66666666666663</ele><time>2026-04-09T16:30:33.999Z</time></trkpt><trkpt lat="44.42064628222703" lon="7.848134161701053"><ele>387.33333333333337</ele><time>2026-04-09T16:30:34.999Z</time></trkpt><trkpt lat="44.4205068799693" lon="7.848016687231857"><ele>388.0</ele><time>2026-04-09T16:30:35.999Z</time></trkpt><trkpt lat="44.42037265099107" lon="7.8478902856401875"><ele>388.0</ele><time>2026-04-09T16:30:36.999Z</time></trkpt><trkpt lat="44.42022875977658" lon="7.847744977944684"><ele>388.0</ele><time>2026-04-09T16:30:37.999Z</time></trkpt><trkpt lat="44.420100427693136" lon="7.847618179222339"><ele>388.0</ele><time>2026-04-09T16:30:38.999Z</time></trkpt><trkpt lat="44.41999359675261" lon="7.847510627766255"><ele>388.0</ele><time>2026-04-09T16:30:39.999Z</time></trkpt><trkpt lat="44.41990402515596" lon="7.847428392270797"><ele>388.0</ele><time>2026-04-09T16:30:40.999Z</time></trkpt><trkpt lat="44.4198101250179" lon="7.847350681871014"><ele>388.0</ele><time>2026-04-09T16:30:41.999Z</time></trkpt><trkpt lat="44.41972580147567" lon="7.84728853836623"><ele>388.0</ele><time>2026-04-09T16:30:42.999Z</time></trkpt><trkpt lat="44.41963525916219" lon="7.847249399074968"><ele>388.0</ele><time>2026-04-09T16:30:43.999Z</time></trkpt><trkpt lat="44.419530397772185" lon="7.847211168467707"><ele>388.0</ele><time>2026-04-09T16:30:44.999Z</time></trkpt><trkpt lat="44.419437039482446" lon="7.847112412129077"><ele>388.0</ele><time>2026-04-09T16:30:45.999Z</time></trkpt><trkpt lat="44.41933736831946" lon="7.8470272321222385"><ele>388.0</ele><time>2026-04-09T16:30:46.999Z</time></trkpt><trkpt lat="44.41920539658383" lon="7.8469672100626005"><ele>388.0</ele><time>2026-04-09T16:30:47.998Z</time></trkpt><trkpt lat="44.41909191617096" lon="7.846799647456906"><ele>388.5</ele><time>2026-04-09T16:30:48.998Z</time></trkpt><trkpt lat="44.41897668523403" lon="7.846698465952366"><ele>389.0</ele><time>2026-04-09T16:30:49.998Z</time></trkpt><trkpt lat="44.4188576898034" lon="7.8465985412750845"><ele>389.5</ele><time>2026-04-09T16:30:50.998Z</time></trkpt><trkpt lat="44.41872167761095" lon="7.846506516091121"><ele>390.0</ele><time>2026-04-09T16:30:51.998Z</time></trkpt><trkpt lat="44.41858923622734" lon="7.846383980701428"><ele>390.0</ele><time>2026-04-09T16:30:52.998Z</time></trkpt><trkpt lat="44.41847008514179" lon="7.846263977699803"><ele>390.0</ele><time>2026-04-09T16:30:54Z</time></trkpt><trkpt lat="44.41835285804545" lon="7.846154778107311"><ele>390.0</ele><time>2026-04-09T16:30:55Z</time></trkpt><trkpt lat="44.4182291999594" lon="7.846047935907561"><ele>390.0</ele><time>2026-04-09T16:30:56Z</time></trkpt><trkpt lat="44.41809378094367" lon="7.845944336988649"><ele>390.33333333333337</ele><time>2026-04-09T16:30:57Z</time></trkpt><trkpt lat="44.417956422976545" lon="7.845835034309161"><ele>390.6666666666667</ele><time>2026-04-09T16:30:58Z</time></trkpt><trkpt lat="44.41782099908571" lon="7.845715055800844"><ele>391.0</ele><time>2026-04-09T16:30:59Z</time></trkpt><trkpt lat="44.41768703238495" lon="7.845606021525816"><ele>391.0</ele><time>2026-04-09T16:31:00Z</time></trkpt><trkpt lat="44.41754979259283" lon="7.845482380957818"><ele>391.0</ele><time>2026-04-09T16:31:01Z</time></trkpt><trkpt lat="44.41740864341584" lon="7.845365147526071"><ele>391.0</ele><time>2026-04-09T16:31:02Z</time></trkpt><trkpt lat="44.41726220991019" lon="7.8452411414420995"><ele>390.33333333333337</ele><time>2026-04-09T16:31:03Z</time></trkpt><trkpt lat="44.41711887351762" lon="7.8451210733382855"><ele>389.66666666666663</ele><time>2026-04-09T16:31:04Z</time></trkpt><trkpt lat="44.416977134654225" lon="7.844992155854433"><ele>389.0</ele><time>2026-04-09T16:31:05Z</time></trkpt><trkpt lat="44.416829512859316" lon="7.844865476710445"><ele>389.0</ele><time>2026-04-09T16:31:06Z</time></trkpt><trkpt lat="44.41667717392047" lon="7.844741049603818"><ele>389.0</ele><time>2026-04-09T16:31:07Z</time></trkpt><trkpt lat="44.416530858451125" lon="7.844601992489171"><ele>389.0</ele><time>2026-04-09T16:31:08Z</time></trkpt><trkpt lat="44.41638209326202" lon="7.844461458611806"><ele>389.0</ele><time>2026-04-09T16:31:09Z</time></trkpt><trkpt lat="44.41623647997483" lon="7.844338392636095"><ele>389.0</ele><time>2026-04-09T16:31:10Z</time></trkpt><trkpt lat="44.416086116235796" lon="7.844208888662846"><ele>389.0</ele><time>2026-04-09T16:31:11Z</time></trkpt><trkpt lat="44.41593713675014" lon="7.844075202954979"><ele>389.3333333333333</ele><time>2026-04-09T16:31:12Z</time></trkpt><trkpt lat="44.41578631549987" lon="7.843954336603713"><ele>389.66666666666663</ele><time>2026-04-09T16:31:13Z</time></trkpt><trkpt lat="44.415629830593396" lon="7.843821677980222"><ele>390.0</ele><time>2026-04-09T16:31:14Z</time></trkpt><trkpt lat="44.4154699162174" lon="7.843701297170493"><ele>390.0</ele><time>2026-04-09T16:31:15Z</time></trkpt><trkpt lat="44.41530473646366" lon="7.843594609214721"><ele>390.0</ele><time>2026-04-09T16:31:16Z</time></trkpt><trkpt lat="44.415133765601624" lon="7.843478798880367"><ele>390.0</ele><time>2026-04-09T16:31:17Z</time></trkpt><trkpt lat="44.41496022458511" lon="7.843366013371964"><ele>390.33333333333337</ele><time>2026-04-09T16:31:18Z</time></trkpt><trkpt lat="44.414780249120625" lon="7.843260030675208"><ele>390.6666666666667</ele><time>2026-04-09T16:31:19Z</time></trkpt><trkpt lat="44.414596708894074" lon="7.843156178369894"><ele>391.0</ele><time>2026-04-09T16:31:20Z</time></trkpt><trkpt lat="44.41442530560382" lon="7.843056726578057"><ele>391.0</ele><time>2026-04-09T16:31:21Z</time></trkpt><trkpt lat="44.414257631373566" lon="7.842954205728539"><ele>391.0</ele><time>2026-04-09T16:31:22Z</time></trkpt><trkpt lat="44.414090527388964" lon="7.842842466882377"><ele>391.0</ele><time>2026-04-09T16:31:23Z</time></trkpt><trkpt lat="44.413936628908566" lon="7.842755457376265"><ele>391.0</ele><time>2026-04-09T16:31:24Z</time></trkpt><trkpt lat="44.41378956282777" lon="7.842663247149369"><ele>391.0</ele><time>2026-04-09T16:31:25Z</time></trkpt><trkpt lat="44.41364741290529" lon="7.842580715404964"><ele>391.0</ele><time>2026-04-09T16:31:26Z</time></trkpt><trkpt lat="44.4135182880873" lon="7.842504371049356"><ele>391.0</ele><time>2026-04-09T16:31:27Z</time></trkpt><trkpt lat="44.41340300754083" lon="7.842437516507988"><ele>391.0</ele><time>2026-04-09T16:31:28Z</time></trkpt><trkpt lat="44.413293089408214" lon="7.842372487562443"><ele>391.0</ele><time>2026-04-09T16:31:29Z</time></trkpt><trkpt lat="44.41319233757943" lon="7.842316346224317"><ele>391.0</ele><time>2026-04-09T16:31:30Z</time></trkpt><trkpt lat="44.41309974769047" lon="7.842263929320956"><ele>391.00000000000006</ele><time>2026-04-09T16:31:31Z</time></trkpt><trkpt lat="44.413012939171516" lon="7.842215183372557"><ele>391.0</ele><time>2026-04-09T16:31:32Z</time></trkpt><trkpt lat="44.412925594381655" lon="7.842173872583027"><ele>391.0</ele><time>2026-04-09T16:31:33Z</time></trkpt><trkpt lat="44.41284092088602" lon="7.842155809242346"><ele>391.0</ele><time>2026-04-09T16:31:34Z</time></trkpt><trkpt lat="44.412769556299025" lon="7.842155710656887"><ele>391.00000000000006</ele><time>2026-04-09T16:31:35Z</time></trkpt><trkpt lat="44.41270606882606" lon="7.8421320741713325"><ele>391.0</ele><time>2026-04-09T16:31:36Z</time></trkpt><trkpt lat="44.41264211353031" lon="7.842096149534223"><ele>391.0</ele><time>2026-04-09T16:31:37Z</time></trkpt><trkpt lat="44.41256749108235" lon="7.842052047479682"><ele>391.0</ele><time>2026-04-09T16:31:38Z</time></trkpt><trkpt lat="44.412483019072646" lon="7.841997903180228"><ele>391.0</ele><time>2026-04-09T16:31:39Z</time></trkpt><trkpt lat="44.4123902566365" lon="7.8419849176532335"><ele>391.0</ele><time>2026-04-09T16:31:40Z</time></trkpt><trkpt lat="44.41231596690007" lon="7.841844835871687"><ele>391.0</ele><time>2026-04-09T16:31:41Z</time></trkpt><trkpt lat="44.412265827469774" lon="7.841705182294041"><ele>391.25</ele><time>2026-04-09T16:31:42Z</time></trkpt><trkpt lat="44.41217701101097" lon="7.841591935497955"><ele>391.5</ele><time>2026-04-09T16:31:43Z</time></trkpt><trkpt lat="44.41209194839212" lon="7.841462000784221"><ele>391.75</ele><time>2026-04-09T16:31:44Z</time></trkpt><trkpt lat="44.411990871282335" lon="7.841337630091602"><ele>392.0</ele><time>2026-04-09T16:31:45Z</time></trkpt><trkpt lat="44.41188209211379" lon="7.8411963283391035"><ele>392.0</ele><time>2026-04-09T16:31:45.999Z</time></trkpt><trkpt lat="44.411771913821" lon="7.8410605710558645"><ele>392.0</ele><time>2026-04-09T16:31:46.999Z</time></trkpt><trkpt lat="44.41165454131767" lon="7.8409143442050775"><ele>392.0</ele><time>2026-04-09T16:31:47.999Z</time></trkpt><trkpt lat="44.411528050283955" lon="7.840760603352166"><ele>392.0</ele><time>2026-04-09T16:31:48.999Z</time></trkpt><trkpt lat="44.41140291083592" lon="7.840618508178602"><ele>392.0</ele><time>2026-04-09T16:31:49.999Z</time></trkpt><trkpt lat="44.41127317577577" lon="7.840466904768331"><ele>392.0</ele><time>2026-04-09T16:31:50.999Z</time></trkpt><trkpt lat="44.41114039229724" lon="7.840302151881354"><ele>392.0</ele><time>2026-04-09T16:31:51.999Z</time></trkpt><trkpt lat="44.4110113394912" lon="7.84014254239578"><ele>392.0</ele><time>2026-04-09T16:31:52.999Z</time></trkpt><trkpt lat="44.41089180576167" lon="7.8399942451673175"><ele>392.0</ele><time>2026-04-09T16:31:53.999Z</time></trkpt><trkpt lat="44.41077450787725" lon="7.839849819761521"><ele>392.0</ele><time>2026-04-09T16:31:54.999Z</time></trkpt><trkpt lat="44.410657626152684" lon="7.8397026612419864"><ele>392.0</ele><time>2026-04-09T16:31:55.999Z</time></trkpt><trkpt lat="44.41053986910353" lon="7.83955149098615"><ele>392.0</ele><time>2026-04-09T16:31:56.999Z</time></trkpt><trkpt lat="44.41042851353478" lon="7.839411832643435"><ele>393.0</ele><time>2026-04-09T16:31:57.999Z</time></trkpt><trkpt lat="44.410310073877156" lon="7.839261959623056"><ele>394.0</ele><time>2026-04-09T16:31:58.999Z</time></trkpt><trkpt lat="44.4101890725727" lon="7.839109833321527"><ele>395.0</ele><time>2026-04-09T16:31:59.999Z</time></trkpt><trkpt lat="44.4100636678567" lon="7.838961569276337"><ele>395.0</ele><time>2026-04-09T16:32:00.999Z</time></trkpt><trkpt lat="44.40994243358121" lon="7.838827736802129"><ele>395.0</ele><time>2026-04-09T16:32:01.999Z</time></trkpt><trkpt lat="44.409822249058806" lon="7.838683430463851"><ele>395.0</ele><time>2026-04-09T16:32:02.999Z</time></trkpt><trkpt lat="44.40969952534537" lon="7.8385313461008455"><ele>395.66666666666663</ele><time>2026-04-09T16:32:03.999Z</time></trkpt><trkpt lat="44.409577900477274" lon="7.838391482952206"><ele>396.33333333333337</ele><time>2026-04-09T16:32:04.999Z</time></trkpt><trkpt lat="44.4094625310488" lon="7.838244428435149"><ele>397.0</ele><time>2026-04-09T16:32:05.999Z</time></trkpt><trkpt lat="44.40935398193245" lon="7.838112048680036"><ele>397.0</ele><time>2026-04-09T16:32:06.999Z</time></trkpt><trkpt lat="44.40924729242499" lon="7.837974691906464"><ele>397.0</ele><time>2026-04-09T16:32:07.999Z</time></trkpt><trkpt lat="44.409146984865366" lon="7.837851745369318"><ele>397.0</ele><time>2026-04-09T16:32:08.999Z</time></trkpt><trkpt lat="44.40903870409767" lon="7.8377204902957756"><ele>397.0</ele><time>2026-04-09T16:32:09.999Z</time></trkpt><trkpt lat="44.4089308408644" lon="7.83759292548602"><ele>397.0</ele><time>2026-04-09T16:32:10.999Z</time></trkpt><trkpt lat="44.40882127876124" lon="7.8374644131265"><ele>397.0</ele><time>2026-04-09T16:32:11.999Z</time></trkpt><trkpt lat="44.408710170362184" lon="7.8373337452061556"><ele>397.0</ele><time>2026-04-09T16:32:12.999Z</time></trkpt><trkpt lat="44.408595116014936" lon="7.837193585179957"><ele>397.0</ele><time>2026-04-09T16:32:13.999Z</time></trkpt><trkpt lat="44.408476599942176" lon="7.8370521883387365"><ele>397.0</ele><time>2026-04-09T16:32:14.999Z</time></trkpt><trkpt lat="44.408364480508254" lon="7.836916767289451"><ele>397.0</ele><time>2026-04-09T16:32:15.999Z</time></trkpt><trkpt lat="44.40825182152551" lon="7.836778105328596"><ele>397.0</ele><time>2026-04-09T16:32:16.999Z</time></trkpt><trkpt lat="44.40813375071962" lon="7.836633441206688"><ele>397.0</ele><time>2026-04-09T16:32:17.999Z</time></trkpt><trkpt lat="44.40802272423775" lon="7.836511853209108"><ele>397.0</ele><time>2026-04-09T16:32:18.999Z</time></trkpt><trkpt lat="44.40791604321041" lon="7.836387573339986"><ele>397.0</ele><time>2026-04-09T16:32:19.999Z</time></trkpt><trkpt lat="44.407805980590965" lon="7.836250756641253"><ele>397.0</ele><time>2026-04-09T16:32:20.999Z</time></trkpt><trkpt lat="44.40768986676625" lon="7.836101330099095"><ele>397.0</ele><time>2026-04-09T16:32:21.999Z</time></trkpt><trkpt lat="44.407572777755156" lon="7.835951446709304"><ele>397.0</ele><time>2026-04-09T16:32:22.999Z</time></trkpt><trkpt lat="44.40745591260726" lon="7.8358228023617285"><ele>397.0</ele><time>2026-04-09T16:32:23.999Z</time></trkpt><trkpt lat="44.40734193022146" lon="7.835689012321581"><ele>397.0</ele><time>2026-04-09T16:32:24.999Z</time></trkpt><trkpt lat="44.40722345018207" lon="7.835537096779415"><ele>397.0</ele><time>2026-04-09T16:32:25.999Z</time></trkpt><trkpt lat="44.4071094236696" lon="7.8353993706670675"><ele>397.0</ele><time>2026-04-09T16:32:26.999Z</time></trkpt><trkpt lat="44.40699709943384" lon="7.835263350381903"><ele>397.25</ele><time>2026-04-09T16:32:27.999Z</time></trkpt><trkpt lat="44.406877228788154" lon="7.8351135482253875"><ele>397.5</ele><time>2026-04-09T16:32:28.999Z</time></trkpt><trkpt lat="44.40676798180069" lon="7.834976030872375"><ele>397.75</ele><time>2026-04-09T16:32:29.999Z</time></trkpt><trkpt lat="44.40666303659558" lon="7.834849344082733"><ele>398.0</ele><time>2026-04-09T16:32:30.999Z</time></trkpt><trkpt lat="44.40655860977482" lon="7.834720372828418"><ele>398.0</ele><time>2026-04-09T16:32:31.999Z</time></trkpt><trkpt lat="44.406453782297206" lon="7.8345818844825645"><ele>398.0</ele><time>2026-04-09T16:32:32.999Z</time></trkpt><trkpt lat="44.406354006251284" lon="7.834432230834138"><ele>398.0</ele><time>2026-04-09T16:32:33.999Z</time></trkpt><trkpt lat="44.4062684404544" lon="7.834291700039611"><ele>398.0</ele><time>2026-04-09T16:32:34.999Z</time></trkpt><trkpt lat="44.40619131539172" lon="7.834136011550493"><ele>396.5</ele><time>2026-04-09T16:32:35.999Z</time></trkpt><trkpt lat="44.40612905337558" lon="7.8339752155949665"><ele>395.0</ele><time>2026-04-09T16:32:36.999Z</time></trkpt><trkpt lat="44.40607197151101" lon="7.833799367322695"><ele>393.5</ele><time>2026-04-09T16:32:37.999Z</time></trkpt><trkpt lat="44.40602092334388" lon="7.833605706383389"><ele>392.0</ele><time>2026-04-09T16:32:38.999Z</time></trkpt><trkpt lat="44.40598229981122" lon="7.83342885015286"><ele>392.0</ele><time>2026-04-09T16:32:39.999Z</time></trkpt><trkpt lat="44.40596662280082" lon="7.833250658208991"><ele>392.0</ele><time>2026-04-09T16:32:40.999Z</time></trkpt><trkpt lat="44.4059318979494" lon="7.833070891540463"><ele>392.0</ele><time>2026-04-09T16:32:41.999Z</time></trkpt><trkpt lat="44.40590028452006" lon="7.83291487218128"><ele>392.0</ele><time>2026-04-09T16:32:42.999Z</time></trkpt><trkpt lat="44.40583659937743" lon="7.832746877437626"><ele>393.20000000000005</ele><time>2026-04-09T16:32:43.999Z</time></trkpt><trkpt lat="44.4057963706307" lon="7.832608946691717"><ele>394.4</ele><time>2026-04-09T16:32:44.999Z</time></trkpt><trkpt lat="44.405763377159204" lon="7.832464111108795"><ele>395.6</ele><time>2026-04-09T16:32:45.999Z</time></trkpt><trkpt lat="44.40572384714838" lon="7.832333750684344"><ele>396.79999999999995</ele><time>2026-04-09T16:32:46.999Z</time></trkpt><trkpt lat="44.40568781591394" lon="7.83221922380012"><ele>398.0</ele><time>2026-04-09T16:32:47.999Z</time></trkpt><trkpt lat="44.40565545441298" lon="7.832119471120469"><ele>398.0</ele><time>2026-04-09T16:32:48.999Z</time></trkpt><trkpt lat="44.405611203623614" lon="7.831968389748852"><ele>398.0</ele><time>2026-04-09T16:32:50.999Z</time></trkpt><trkpt lat="44.4055828032075" lon="7.831873034403113"><ele>398.0</ele><time>2026-04-09T16:32:53.999Z</time></trkpt><trkpt lat="44.40556531596714" lon="7.831781857508856"><ele>398.0</ele><time>2026-04-09T16:32:58.998Z</time></trkpt><trkpt lat="44.405612960543756" lon="7.83164607699972"><ele>398.0</ele><time>2026-04-09T16:33:01Z</time></trkpt><trkpt lat="44.40561128866902" lon="7.831516821310193"><ele>398.4</ele><time>2026-04-09T16:33:03Z</time></trkpt><trkpt lat="44.40551451819583" lon="7.831449108580498"><ele>398.79999999999995</ele><time>2026-04-09T16:33:05Z</time></trkpt><trkpt lat="44.40541127201451" lon="7.831484356943506"><ele>399.2</ele><time>2026-04-09T16:33:07Z</time></trkpt><trkpt lat="44.40528688794245" lon="7.831415661231522"><ele>399.6</ele><time>2026-04-09T16:33:09Z</time></trkpt><trkpt lat="44.40519689641728" lon="7.831350953592067"><ele>400.0</ele><time>2026-04-09T16:33:11Z</time></trkpt><trkpt lat="44.40512953278325" lon="7.831281872108495"><ele>400.2</ele><time>2026-04-09T16:33:13Z</time></trkpt><trkpt lat="44.40503159299429" lon="7.831173793414511"><ele>400.4</ele><time>2026-04-09T16:33:15Z</time></trkpt><trkpt lat="44.40496562288606" lon="7.831106345614222"><ele>400.6</ele><time>2026-04-09T16:33:16Z</time></trkpt><trkpt lat="44.40489824751822" lon="7.831031304444932"><ele>400.8</ele><time>2026-04-09T16:33:17Z</time></trkpt><trkpt lat="44.40482226376021" lon="7.83095280994707"><ele>401.0</ele><time>2026-04-09T16:33:18Z</time></trkpt><trkpt lat="44.40474189798465" lon="7.830869930606496"><ele>400.0</ele><time>2026-04-09T16:33:19Z</time></trkpt><trkpt lat="44.40464435561698" lon="7.830787823881148"><ele>399.0</ele><time>2026-04-09T16:33:20Z</time></trkpt><trkpt lat="44.40455105628022" lon="7.83069519985406"><ele>398.0</ele><time>2026-04-09T16:33:21Z</time></trkpt><trkpt lat="44.4044591883465" lon="7.830607549419839"><ele>397.0</ele><time>2026-04-09T16:33:22Z</time></trkpt><trkpt lat="44.40438039030797" lon="7.8305221285647"><ele>396.0</ele><time>2026-04-09T16:33:23Z</time></trkpt><trkpt lat="44.40429751398331" lon="7.830453256964592"><ele>396.0</ele><time>2026-04-09T16:33:24Z</time></trkpt><trkpt lat="44.40421619037526" lon="7.8303730025980105"><ele>396.0</ele><time>2026-04-09T16:33:25Z</time></trkpt><trkpt lat="44.40412998735717" lon="7.830290211417799"><ele>396.0</ele><time>2026-04-09T16:33:26Z</time></trkpt><trkpt lat="44.404043720521805" lon="7.830189915944498"><ele>396.0</ele><time>2026-04-09T16:33:27Z</time></trkpt><trkpt lat="44.40395919169027" lon="7.830103713003899"><ele>396.0</ele><time>2026-04-09T16:33:28Z</time></trkpt><trkpt lat="44.403878135228936" lon="7.830003881796951"><ele>396.3333333333333</ele><time>2026-04-09T16:33:29Z</time></trkpt><trkpt lat="44.40380211980986" lon="7.829934536557198"><ele>396.66666666666663</ele><time>2026-04-09T16:33:30Z</time></trkpt><trkpt lat="44.403746077039386" lon="7.829881872474396"><ele>397.0</ele><time>2026-04-09T16:33:31Z</time></trkpt><trkpt lat="44.403688884328425" lon="7.829815533341874"><ele>397.3333333333333</ele><time>2026-04-09T16:33:34Z</time></trkpt><trkpt lat="44.403631622615755" lon="7.829755261254506"><ele>397.66666666666663</ele><time>2026-04-09T16:33:35Z</time></trkpt><trkpt lat="44.403557619293295" lon="7.829693612754456"><ele>398.0</ele><time>2026-04-09T16:33:36Z</time></trkpt><trkpt lat="44.40348522764511" lon="7.82961787244979"><ele>397.99999999999994</ele><time>2026-04-09T16:33:37Z</time></trkpt><trkpt lat="44.403395867794394" lon="7.8294863701112725"><ele>398.0</ele><time>2026-04-09T16:33:39Z</time></trkpt><trkpt lat="44.40337326216303" lon="7.829401201460607"><ele>398.0</ele><time>2026-04-09T16:33:40Z</time></trkpt><trkpt lat="44.40334111227175" lon="7.829304399445731"><ele>398.0</ele><time>2026-04-09T16:33:41Z</time></trkpt><trkpt lat="44.40326242424251" lon="7.829210683839843"><ele>397.99999999999994</ele><time>2026-04-09T16:33:43Z</time></trkpt><trkpt lat="44.40320002056107" lon="7.829198629345013"><ele>398.0</ele><time>2026-04-09T16:33:44Z</time></trkpt><trkpt lat="44.40312255951604" lon="7.829217750257042"><ele>398.2</ele><time>2026-04-09T16:33:45Z</time></trkpt><trkpt lat="44.403041471169104" lon="7.829187743758383"><ele>398.4</ele><time>2026-04-09T16:33:46Z</time></trkpt><trkpt lat="44.402965196683404" lon="7.829087091831906"><ele>398.59999999999997</ele><time>2026-04-09T16:33:47Z</time></trkpt><trkpt lat="44.4028702194277" lon="7.829016320900513"><ele>398.79999999999995</ele><time>2026-04-09T16:33:48Z</time></trkpt><trkpt lat="44.402770708526184" lon="7.82889493810719"><ele>399.0</ele><time>2026-04-09T16:33:49Z</time></trkpt><trkpt lat="44.4026612243306" lon="7.828767811175891"><ele>399.25</ele><time>2026-04-09T16:33:50Z</time></trkpt><trkpt lat="44.40257234347175" lon="7.828687300067099"><ele>399.5</ele><time>2026-04-09T16:33:51Z</time></trkpt><trkpt lat="44.4024726874577" lon="7.828581392809318"><ele>399.75</ele><time>2026-04-09T16:33:51.999Z</time></trkpt><trkpt lat="44.40237443509395" lon="7.828480637402325"><ele>400.0</ele><time>2026-04-09T16:33:52.999Z</time></trkpt><trkpt lat="44.40228087333419" lon="7.828397995385185"><ele>400.0</ele><time>2026-04-09T16:33:53.999Z</time></trkpt><trkpt lat="44.40219744660129" lon="7.828301760900008"><ele>400.0</ele><time>2026-04-09T16:33:54.999Z</time></trkpt><trkpt lat="44.40210820806371" lon="7.828212341634455"><ele>400.0</ele><time>2026-04-09T16:33:55.999Z</time></trkpt><trkpt lat="44.40202207298982" lon="7.82811928858941"><ele>400.0</ele><time>2026-04-09T16:33:56.999Z</time></trkpt><trkpt lat="44.40192966573913" lon="7.828026564022189"><ele>400.0</ele><time>2026-04-09T16:33:57.999Z</time></trkpt><trkpt lat="44.40184025538607" lon="7.827926546538729"><ele>399.75</ele><time>2026-04-09T16:33:58.999Z</time></trkpt><trkpt lat="44.40174654885112" lon="7.8278252749915245"><ele>399.5</ele><time>2026-04-09T16:33:59.999Z</time></trkpt><trkpt lat="44.401653956335245" lon="7.827725739514491"><ele>399.25</ele><time>2026-04-09T16:34:00.999Z</time></trkpt><trkpt lat="44.40156641811912" lon="7.8276336163113704"><ele>399.0</ele><time>2026-04-09T16:34:01.999Z</time></trkpt><trkpt lat="44.401476706668625" lon="7.8275388597180395"><ele>399.0</ele><time>2026-04-09T16:34:02.999Z</time></trkpt><trkpt lat="44.401390540962495" lon="7.8274588269244605"><ele>399.0</ele><time>2026-04-09T16:34:03.999Z</time></trkpt><trkpt lat="44.401305414201595" lon="7.82736460180176"><ele>399.0</ele><time>2026-04-09T16:34:04.999Z</time></trkpt><trkpt lat="44.40121140853388" lon="7.827264637968132"><ele>399.0</ele><time>2026-04-09T16:34:05.999Z</time></trkpt><trkpt lat="44.401121591798514" lon="7.827172688320735"><ele>399.0</ele><time>2026-04-09T16:34:06.999Z</time></trkpt><trkpt lat="44.40102851478824" lon="7.8270851998661835"><ele>399.75</ele><time>2026-04-09T16:34:07.999Z</time></trkpt><trkpt lat="44.4009356126506" lon="7.826989623795239"><ele>400.5</ele><time>2026-04-09T16:34:08.999Z</time></trkpt><trkpt lat="44.400841819215465" lon="7.826900451965005"><ele>401.25</ele><time>2026-04-09T16:34:09.999Z</time></trkpt><trkpt lat="44.400748491065634" lon="7.826802753317723"><ele>402.0</ele><time>2026-04-09T16:34:10.999Z</time></trkpt><trkpt lat="44.40065102266777" lon="7.826719461138145"><ele>402.0</ele><time>2026-04-09T16:34:11.999Z</time></trkpt><trkpt lat="44.40055326570221" lon="7.826659376409076"><ele>402.0</ele><time>2026-04-09T16:34:12.999Z</time></trkpt><trkpt lat="44.40044682031375" lon="7.826592865422731"><ele>402.0</ele><time>2026-04-09T16:34:13.999Z</time></trkpt><trkpt lat="44.40033408780529" lon="7.826538011293332"><ele>402.0</ele><time>2026-04-09T16:34:14.999Z</time></trkpt><trkpt lat="44.40021555155564" lon="7.826486182935533"><ele>400.25</ele><time>2026-04-09T16:34:15.999Z</time></trkpt><trkpt lat="44.40009496987668" lon="7.826427138721115"><ele>398.5</ele><time>2026-04-09T16:34:16.999Z</time></trkpt><trkpt lat="44.39997261992833" lon="7.82635848735677"><ele>396.75</ele><time>2026-04-09T16:34:17.999Z</time></trkpt><trkpt lat="44.39984079915946" lon="7.826285150980509"><ele>395.0</ele><time>2026-04-09T16:34:18.999Z</time></trkpt><trkpt lat="44.399715062538895" lon="7.826178037068376"><ele>396.3333333333333</ele><time>2026-04-09T16:34:19.999Z</time></trkpt><trkpt lat="44.39958819366586" lon="7.82606822484956"><ele>397.66666666666663</ele><time>2026-04-09T16:34:20.999Z</time></trkpt><trkpt lat="44.399452537732316" lon="7.825943434244402"><ele>399.0</ele><time>2026-04-09T16:34:21.999Z</time></trkpt><trkpt lat="44.39933177920458" lon="7.825832076304807"><ele>399.0</ele><time>2026-04-09T16:34:22.999Z</time></trkpt><trkpt lat="44.399216793753496" lon="7.825725991718576"><ele>399.0</ele><time>2026-04-09T16:34:23.999Z</time></trkpt><trkpt lat="44.39910936189503" lon="7.825612764215523"><ele>399.0</ele><time>2026-04-09T16:34:24.999Z</time></trkpt><trkpt lat="44.399003359250436" lon="7.825502760765686"><ele>399.0</ele><time>2026-04-09T16:34:25.999Z</time></trkpt><trkpt lat="44.39889513222806" lon="7.825411834496037"><ele>399.79999999999995</ele><time>2026-04-09T16:34:26.999Z</time></trkpt><trkpt lat="44.398797030943214" lon="7.825325946758276"><ele>400.59999999999997</ele><time>2026-04-09T16:34:27.999Z</time></trkpt><trkpt lat="44.398698799752275" lon="7.825244735975609"><ele>401.4</ele><time>2026-04-09T16:34:28.999Z</time></trkpt><trkpt lat="44.39860433976873" lon="7.825156087243104"><ele>402.2</ele><time>2026-04-09T16:34:29.999Z</time></trkpt><trkpt lat="44.39853523309964" lon="7.82508168236752"><ele>403.0</ele><time>2026-04-09T16:34:30.999Z</time></trkpt><trkpt lat="44.39848112154998" lon="7.825025252284561"><ele>403.0</ele><time>2026-04-09T16:34:31.999Z</time></trkpt><trkpt lat="44.39841485005319" lon="7.824907571336987"><ele>403.0</ele><time>2026-04-09T16:34:33.999Z</time></trkpt><trkpt lat="44.39837637336753" lon="7.82478898370565"><ele>403.0</ele><time>2026-04-09T16:34:35.999Z</time></trkpt><trkpt lat="44.39832163768708" lon="7.824678001443944"><ele>403.0</ele><time>2026-04-09T16:34:37.999Z</time></trkpt><trkpt lat="44.39823583449697" lon="7.824720440703615"><ele>403.0</ele><time>2026-04-09T16:34:38.999Z</time></trkpt><trkpt lat="44.39816434091114" lon="7.824749429743454"><ele>403.0</ele><time>2026-04-09T16:34:39.999Z</time></trkpt><trkpt lat="44.39808224738709" lon="7.82477706362242"><ele>403.0</ele><time>2026-04-09T16:34:40.999Z</time></trkpt><trkpt lat="44.39799201675105" lon="7.824784789800205"><ele>403.0</ele><time>2026-04-09T16:34:41.999Z</time></trkpt><trkpt lat="44.39789742158829" lon="7.824750047576293"><ele>403.0</ele><time>2026-04-09T16:34:42.999Z</time></trkpt><trkpt lat="44.39779191829676" lon="7.824686448018772"><ele>403.0</ele><time>2026-04-09T16:34:43.999Z</time></trkpt><trkpt lat="44.39769152629738" lon="7.824610453622445"><ele>401.5</ele><time>2026-04-09T16:34:44.999Z</time></trkpt><trkpt lat="44.397584080821524" lon="7.82454752267204"><ele>400.0</ele><time>2026-04-09T16:34:45.999Z</time></trkpt><trkpt lat="44.39746115021774" lon="7.824511270794993"><ele>398.5</ele><time>2026-04-09T16:34:46.999Z</time></trkpt><trkpt lat="44.397328311289534" lon="7.824508571103607"><ele>397.0</ele><time>2026-04-09T16:34:47.999Z</time></trkpt><trkpt lat="44.39718587105373" lon="7.8245287530320615"><ele>395.5</ele><time>2026-04-09T16:34:48.999Z</time></trkpt><trkpt lat="44.39704066339758" lon="7.824560483260011"><ele>394.0</ele><time>2026-04-09T16:34:49.999Z</time></trkpt><trkpt lat="44.39690139551835" lon="7.824571616822017"><ele>392.5</ele><time>2026-04-09T16:34:50.999Z</time></trkpt><trkpt lat="44.396769925284204" lon="7.824565578478866"><ele>391.0</ele><time>2026-04-09T16:34:51.999Z</time></trkpt><trkpt lat="44.396637965382105" lon="7.824555434873839"><ele>391.0</ele><time>2026-04-09T16:34:52.999Z</time></trkpt><trkpt lat="44.396511369732735" lon="7.8245722591794555"><ele>391.0</ele><time>2026-04-09T16:34:53.999Z</time></trkpt><trkpt lat="44.396385537729216" lon="7.824554178658556"><ele>391.0</ele><time>2026-04-09T16:34:54.999Z</time></trkpt><trkpt lat="44.39626836188357" lon="7.8245226806869725"><ele>391.0</ele><time>2026-04-09T16:34:55.999Z</time></trkpt><trkpt lat="44.39615176147398" lon="7.824491779294141"><ele>388.25</ele><time>2026-04-09T16:34:56.999Z</time></trkpt><trkpt lat="44.3960376778746" lon="7.824447425699399"><ele>385.5</ele><time>2026-04-09T16:34:57.999Z</time></trkpt><trkpt lat="44.39592018759992" lon="7.824398008588983"><ele>382.75</ele><time>2026-04-09T16:34:58.999Z</time></trkpt><trkpt lat="44.39580281820526" lon="7.8243440428206315"><ele>380.0</ele><time>2026-04-09T16:34:59.998Z</time></trkpt><trkpt lat="44.39567627856215" lon="7.8243135983820675"><ele>380.2</ele><time>2026-04-09T16:35:00.998Z</time></trkpt><trkpt lat="44.39558008415222" lon="7.824253393104906"><ele>380.4</ele><time>2026-04-09T16:35:01.998Z</time></trkpt><trkpt lat="44.39549888941722" lon="7.824198665228541"><ele>380.6</ele><time>2026-04-09T16:35:02.998Z</time></trkpt><trkpt lat="44.39541021686158" lon="7.824139443951668"><ele>380.8</ele><time>2026-04-09T16:35:03.998Z</time></trkpt><trkpt lat="44.39532376492508" lon="7.824079166137831"><ele>381.0</ele><time>2026-04-09T16:35:04.998Z</time></trkpt><trkpt lat="44.395240903448" lon="7.824013196762784"><ele>381.0</ele><time>2026-04-09T16:35:06Z</time></trkpt><trkpt lat="44.39515133396535" lon="7.82394062456369"><ele>381.0</ele><time>2026-04-09T16:35:07Z</time></trkpt><trkpt lat="44.395045932639206" lon="7.823859289135311"><ele>381.0</ele><time>2026-04-09T16:35:08Z</time></trkpt><trkpt lat="44.39494446955629" lon="7.8237495299594935"><ele>381.0</ele><time>2026-04-09T16:35:09Z</time></trkpt><trkpt lat="44.39485330149301" lon="7.823646294226202"><ele>381.0</ele><time>2026-04-09T16:35:10Z</time></trkpt><trkpt lat="44.394778645042805" lon="7.823537739895017"><ele>381.0</ele><time>2026-04-09T16:35:11Z</time></trkpt><trkpt lat="44.39469434543956" lon="7.823455387358501"><ele>381.0</ele><time>2026-04-09T16:35:12Z</time></trkpt><trkpt lat="44.394593144266764" lon="7.823371979558542"><ele>381.0</ele><time>2026-04-09T16:35:13Z</time></trkpt><trkpt lat="44.39449263124911" lon="7.8232972574892985"><ele>381.0</ele><time>2026-04-09T16:35:14Z</time></trkpt><trkpt lat="44.39440989678981" lon="7.823234804274543"><ele>380.6</ele><time>2026-04-09T16:35:15Z</time></trkpt><trkpt lat="44.39431907618725" lon="7.823159711981571"><ele>380.20000000000005</ele><time>2026-04-09T16:35:16Z</time></trkpt><trkpt lat="44.394235494150685" lon="7.8230863611926855"><ele>379.79999999999995</ele><time>2026-04-09T16:35:17Z</time></trkpt><trkpt lat="44.3941517267643" lon="7.823028276522371"><ele>379.4</ele><time>2026-04-09T16:35:18Z</time></trkpt><trkpt lat="44.39405787409833" lon="7.822947492731102"><ele>379.0</ele><time>2026-04-09T16:35:19Z</time></trkpt><trkpt lat="44.39397763335344" lon="7.82286861194879"><ele>379.0</ele><time>2026-04-09T16:35:20Z</time></trkpt><trkpt lat="44.393902684005496" lon="7.82278791969431"><ele>379.0</ele><time>2026-04-09T16:35:21Z</time></trkpt><trkpt lat="44.39382543117417" lon="7.822702774437938"><ele>379.0</ele><time>2026-04-09T16:35:22Z</time></trkpt><trkpt lat="44.39374451934672" lon="7.8226198506787386"><ele>379.0</ele><time>2026-04-09T16:35:23Z</time></trkpt><trkpt lat="44.39366344452436" lon="7.822537057179749"><ele>379.0</ele><time>2026-04-09T16:35:24Z</time></trkpt><trkpt lat="44.393589441291056" lon="7.822452170464363"><ele>379.5</ele><time>2026-04-09T16:35:25Z</time></trkpt><trkpt lat="44.393518430929305" lon="7.822380101077507"><ele>380.0</ele><time>2026-04-09T16:35:26Z</time></trkpt><trkpt lat="44.39345847256075" lon="7.822315576978924"><ele>380.5</ele><time>2026-04-09T16:35:27Z</time></trkpt><trkpt lat="44.39340472536541" lon="7.822263794481873"><ele>381.0</ele><time>2026-04-09T16:35:28Z</time></trkpt><trkpt lat="44.39331387264863" lon="7.822177252481371"><ele>381.5</ele><time>2026-04-09T16:35:30Z</time></trkpt><trkpt lat="44.393226161207195" lon="7.822089079602732"><ele>382.0</ele><time>2026-04-09T16:35:32Z</time></trkpt><trkpt lat="44.393143087595" lon="7.822002330156618"><ele>382.0</ele><time>2026-04-09T16:35:34Z</time></trkpt><trkpt lat="44.393091831164526" lon="7.82186999794398"><ele>382.0</ele><time>2026-04-09T16:35:36Z</time></trkpt><trkpt lat="44.39308538595917" lon="7.821782167100487"><ele>382.0</ele><time>2026-04-09T16:35:37Z</time></trkpt><trkpt lat="44.39308411239281" lon="7.821665742317192"><ele>382.0</ele><time>2026-04-09T16:35:38Z</time></trkpt><trkpt lat="44.393084339741456" lon="7.821562237399435"><ele>382.0</ele><time>2026-04-09T16:35:39Z</time></trkpt><trkpt lat="44.39309632872437" lon="7.821416148439149"><ele>382.0</ele><time>2026-04-09T16:35:41Z</time></trkpt><trkpt lat="44.39310399285989" lon="7.821280313366972"><ele>382.5</ele><time>2026-04-09T16:35:43Z</time></trkpt><trkpt lat="44.39310289129076" lon="7.82116077589954"><ele>383.0</ele><time>2026-04-09T16:35:46Z</time></trkpt><trkpt lat="44.39308879732916" lon="7.821067518724657"><ele>383.5</ele><time>2026-04-09T16:35:49Z</time></trkpt><trkpt lat="44.39308836832222" lon="7.820935168383572"><ele>384.0</ele><time>2026-04-09T16:35:51Z</time></trkpt><trkpt lat="44.39304447694788" lon="7.820858755942746"><ele>384.50000000000006</ele><time>2026-04-09T16:35:52Z</time></trkpt><trkpt lat="44.39298992063268" lon="7.820773686732651"><ele>385.0</ele><time>2026-04-09T16:35:53Z</time></trkpt><trkpt lat="44.39293697706033" lon="7.82070607581576"><ele>385.50000000000006</ele><time>2026-04-09T16:35:53.999Z</time></trkpt><trkpt lat="44.392891357857046" lon="7.820631376926939"><ele>386.0</ele><time>2026-04-09T16:35:54.999Z</time></trkpt><trkpt lat="44.39283714019018" lon="7.820585208815599"><ele>386.5</ele><time>2026-04-09T16:35:55.999Z</time></trkpt><trkpt lat="44.392719910759304" lon="7.820529183867821"><ele>387.0</ele><time>2026-04-09T16:35:57.999Z</time></trkpt><trkpt lat="44.392656880014734" lon="7.820521504521907"><ele>387.50000000000006</ele><time>2026-04-09T16:35:58.999Z</time></trkpt><trkpt lat="44.392582620092774" lon="7.82052845847715"><ele>388.0</ele><time>2026-04-09T16:35:59.999Z</time></trkpt><trkpt lat="44.39250803414025" lon="7.82052779786591"><ele>388.0</ele><time>2026-04-09T16:36:00.999Z</time></trkpt><trkpt lat="44.392380322683806" lon="7.820541848011826"><ele>388.0</ele><time>2026-04-09T16:36:02.999Z</time></trkpt><trkpt lat="44.39225286842788" lon="7.820547760596683"><ele>388.0</ele><time>2026-04-09T16:36:04.999Z</time></trkpt><trkpt lat="44.3921869023385" lon="7.820558363873907"><ele>388.0</ele><time>2026-04-09T16:36:05.999Z</time></trkpt><trkpt lat="44.39211601722863" lon="7.820529899842146"><ele>388.0</ele><time>2026-04-09T16:36:06.999Z</time></trkpt><trkpt lat="44.39204695864781" lon="7.8205308023688005"><ele>388.2</ele><time>2026-04-09T16:36:07.999Z</time></trkpt><trkpt lat="44.39193141475337" lon="7.820530993809666"><ele>388.4</ele><time>2026-04-09T16:36:09.999Z</time></trkpt><trkpt lat="44.39182680717507" lon="7.820539034430251"><ele>388.59999999999997</ele><time>2026-04-09T16:36:11.999Z</time></trkpt><trkpt lat="44.3917569675366" lon="7.820553219351862"><ele>388.79999999999995</ele><time>2026-04-09T16:36:14.999Z</time></trkpt><trkpt lat="44.39167533170916" lon="7.8205837674621135"><ele>389.0</ele><time>2026-04-09T16:36:18.999Z</time></trkpt><trkpt lat="44.3915776379005" lon="7.820615691320724"><ele>389.0</ele><time>2026-04-09T16:36:20.999Z</time></trkpt><trkpt lat="44.39146407844797" lon="7.820586859923731"><ele>389.0</ele><time>2026-04-09T16:36:22.999Z</time></trkpt><trkpt lat="44.39135335929048" lon="7.820584026576931"><ele>389.0</ele><time>2026-04-09T16:36:24.999Z</time></trkpt><trkpt lat="44.391218925341256" lon="7.820587172407805"><ele>389.0</ele><time>2026-04-09T16:36:26.999Z</time></trkpt><trkpt lat="44.39113522595549" lon="7.820614383438908"><ele>389.0</ele><time>2026-04-09T16:36:27.999Z</time></trkpt><trkpt lat="44.39105681807945" lon="7.820618117477889"><ele>389.42857142857144</ele><time>2026-04-09T16:36:28.999Z</time></trkpt><trkpt lat="44.39098543669972" lon="7.8206259680350065"><ele>389.85714285714283</ele><time>2026-04-09T16:36:29.999Z</time></trkpt><trkpt lat="44.39091049519497" lon="7.8206374927611195"><ele>390.2857142857143</ele><time>2026-04-09T16:36:30.999Z</time></trkpt><trkpt lat="44.39083282004871" lon="7.820642577678872"><ele>390.7142857142857</ele><time>2026-04-09T16:36:31.999Z</time></trkpt><trkpt lat="44.39075969364469" lon="7.820641306342078"><ele>391.1428571428571</ele><time>2026-04-09T16:36:32.999Z</time></trkpt><trkpt lat="44.39068778620539" lon="7.820652648254182"><ele>391.57142857142856</ele><time>2026-04-09T16:36:33.999Z</time></trkpt><trkpt lat="44.39061225579968" lon="7.820655671219458"><ele>392.0</ele><time>2026-04-09T16:36:34.999Z</time></trkpt><trkpt lat="44.39053844122613" lon="7.820658058700048"><ele>392.3333333333333</ele><time>2026-04-09T16:36:35.999Z</time></trkpt><trkpt lat="44.39047131448902" lon="7.820663506554929"><ele>392.66666666666663</ele><time>2026-04-09T16:36:36.999Z</time></trkpt><trkpt lat="44.39036818524691" lon="7.8206656040659706"><ele>393.0</ele><time>2026-04-09T16:36:38.999Z</time></trkpt><trkpt lat="44.39029417607933" lon="7.820659249729127"><ele>393.33333333333337</ele><time>2026-04-09T16:36:40.999Z</time></trkpt><trkpt lat="44.39021367383614" lon="7.82062795431322"><ele>393.6666666666667</ele><time>2026-04-09T16:36:42.999Z</time></trkpt><trkpt lat="44.390166306505975" lon="7.8205520453701665"><ele>394.0</ele><time>2026-04-09T16:36:44.999Z</time></trkpt><trkpt lat="44.39014496406366" lon="7.820468748462445"><ele>394.0</ele><time>2026-04-09T16:36:45.999Z</time></trkpt><trkpt lat="44.39009761693924" lon="7.8203458478953065"><ele>394.0</ele><time>2026-04-09T16:36:47.999Z</time></trkpt><trkpt lat="44.390030690828596" lon="7.82032536872524"><ele>394.0</ele><time>2026-04-09T16:36:49.999Z</time></trkpt><trkpt lat="44.389923991978876" lon="7.820342736588495"><ele>394.0</ele><time>2026-04-09T16:36:51.999Z</time></trkpt><trkpt lat="44.38982332014733" lon="7.8203621362478115"><ele>394.0</ele><time>2026-04-09T16:36:53.999Z</time></trkpt><trkpt lat="44.38970368648195" lon="7.820352805811752"><ele>395.25</ele><time>2026-04-09T16:36:55.999Z</time></trkpt><trkpt lat="44.38958859996016" lon="7.820322567710247"><ele>396.5</ele><time>2026-04-09T16:36:57.999Z</time></trkpt><trkpt lat="44.38947260830579" lon="7.820287410496058"><ele>397.75</ele><time>2026-04-09T16:36:59.999Z</time></trkpt><trkpt lat="44.38934293035882" lon="7.8202469255580285"><ele>399.0</ele><time>2026-04-09T16:37:01.998Z</time></trkpt><trkpt lat="44.38922993556218" lon="7.820250936545323"><ele>399.0</ele><time>2026-04-09T16:37:03.998Z</time></trkpt><trkpt lat="44.38915630325775" lon="7.8202671690630154"><ele>399.0</ele><time>2026-04-09T16:37:04.998Z</time></trkpt><trkpt lat="44.38907252484462" lon="7.82028772269505"><ele>399.0</ele><time>2026-04-09T16:37:05.998Z</time></trkpt><trkpt lat="44.3889958250435" lon="7.8203117003779195"><ele>399.0</ele><time>2026-04-09T16:37:06.998Z</time></trkpt><trkpt lat="44.38892768189305" lon="7.820333891174382"><ele>399.0</ele><time>2026-04-09T16:37:07.998Z</time></trkpt><trkpt lat="44.38886134563504" lon="7.820344647554541"><ele>399.0</ele><time>2026-04-09T16:37:08.998Z</time></trkpt><trkpt lat="44.388795900552985" lon="7.820373146862247"><ele>399.0</ele><time>2026-04-09T16:37:09.998Z</time></trkpt><trkpt lat="44.38873179323832" lon="7.820404286560817"><ele>399.5</ele><time>2026-04-09T16:37:10.998Z</time></trkpt><trkpt lat="44.38866293526932" lon="7.820428940686475"><ele>400.0</ele><time>2026-04-09T16:37:12Z</time></trkpt><trkpt lat="44.388596845123836" lon="7.820445164253003"><ele>400.5</ele><time>2026-04-09T16:37:13Z</time></trkpt><trkpt lat="44.38853203902131" lon="7.8204545631589175"><ele>401.0</ele><time>2026-04-09T16:37:14Z</time></trkpt><trkpt lat="44.388401465051714" lon="7.820461708686726"><ele>401.5</ele><time>2026-04-09T16:37:16Z</time></trkpt><trkpt lat="44.388332334917216" lon="7.8204703093014905"><ele>402.0</ele><time>2026-04-09T16:37:17Z</time></trkpt><trkpt lat="44.388259973362466" lon="7.82046955104796"><ele>402.0</ele><time>2026-04-09T16:37:18Z</time></trkpt><trkpt lat="44.38815436018999" lon="7.820437025048046"><ele>402.0</ele><time>2026-04-09T16:37:20Z</time></trkpt><trkpt lat="44.38806068590131" lon="7.820376575345082"><ele>402.0</ele><time>2026-04-09T16:37:22Z</time></trkpt><trkpt lat="44.38795983972522" lon="7.820332752511057"><ele>402.0</ele><time>2026-04-09T16:37:24Z</time></trkpt><trkpt lat="44.38784740671896" lon="7.820247167020439"><ele>402.0</ele><time>2026-04-09T16:37:26Z</time></trkpt><trkpt lat="44.38778922559145" lon="7.820209905768018"><ele>402.1666666666667</ele><time>2026-04-09T16:37:27Z</time></trkpt><trkpt lat="44.38773030723339" lon="7.8201640530386705"><ele>402.33333333333337</ele><time>2026-04-09T16:37:28Z</time></trkpt><trkpt lat="44.38766508770481" lon="7.820128583228914"><ele>402.5</ele><time>2026-04-09T16:37:29Z</time></trkpt><trkpt lat="44.38755185171944" lon="7.820035988563326"><ele>402.6666666666667</ele><time>2026-04-09T16:37:31Z</time></trkpt><trkpt lat="44.3874926030117" lon="7.819994126825414"><ele>402.83333333333337</ele><time>2026-04-09T16:37:32Z</time></trkpt><trkpt lat="44.38739223230758" lon="7.819934968283287"><ele>403.0</ele><time>2026-04-09T16:37:34Z</time></trkpt><trkpt lat="44.38729132730052" lon="7.819898701076251"><ele>402.33333333333337</ele><time>2026-04-09T16:37:36Z</time></trkpt><trkpt lat="44.38719772191183" lon="7.819905309300038"><ele>401.6666666666667</ele><time>2026-04-09T16:37:38Z</time></trkpt><trkpt lat="44.387115175052486" lon="7.819893546208945"><ele>401.0</ele><time>2026-04-09T16:37:40Z</time></trkpt><trkpt lat="44.387022061582385" lon="7.81989673028318"><ele>400.33333333333337</ele><time>2026-04-09T16:37:42Z</time></trkpt><trkpt lat="44.38694701720283" lon="7.819905708882765"><ele>399.6666666666667</ele><time>2026-04-09T16:37:44Z</time></trkpt><trkpt lat="44.38686190203429" lon="7.819933873606263"><ele>399.0</ele><time>2026-04-09T16:37:46Z</time></trkpt><trkpt lat="44.38678726838693" lon="7.819959417444419"><ele>399.0</ele><time>2026-04-09T16:37:48Z</time></trkpt><trkpt lat="44.38671628133367" lon="7.819991448770306"><ele>399.0</ele><time>2026-04-09T16:37:51Z</time></trkpt><trkpt lat="44.38664148361613" lon="7.820022168952171"><ele>399.0</ele><time>2026-04-09T16:37:58Z</time></trkpt><trkpt lat="44.386557890463344" lon="7.820035185955683"><ele>399.0</ele><time>2026-04-09T16:38:01.999Z</time></trkpt><trkpt lat="44.386497958739405" lon="7.820065928351418"><ele>399.0</ele><time>2026-04-09T16:38:04.999Z</time></trkpt><trkpt lat="44.386429333337254" lon="7.820097402942528"><ele>399.0</ele><time>2026-04-09T16:38:09.999Z</time></trkpt><trkpt lat="44.386347899511684" lon="7.82009322633324"><ele>399.0</ele><time>2026-04-09T16:38:14.999Z</time></trkpt><trkpt lat="44.38628225024206" lon="7.820104310979429"><ele>399.0</ele><time>2026-04-09T16:38:15.999Z</time></trkpt><trkpt lat="44.386203993628804" lon="7.820128213906525"><ele>399.0</ele><time>2026-04-09T16:38:17.999Z</time></trkpt><trkpt lat="44.386106907498196" lon="7.820032505001467"><ele>399.0</ele><time>2026-04-09T16:38:18.999Z</time></trkpt><trkpt lat="44.38603551402481" lon="7.819960206375316"><ele>399.0</ele><time>2026-04-09T16:38:19.999Z</time></trkpt><trkpt lat="44.38596205950315" lon="7.819880103358385"><ele>399.0</ele><time>2026-04-09T16:38:20.999Z</time></trkpt><trkpt lat="44.385901108946825" lon="7.81981818136614"><ele>399.0</ele><time>2026-04-09T16:38:21.999Z</time></trkpt><trkpt lat="44.38583759976419" lon="7.819744718395815"><ele>399.0</ele><time>2026-04-09T16:38:22.999Z</time></trkpt><trkpt lat="44.38578756923549" lon="7.819690796452655"><ele>399.0</ele><time>2026-04-09T16:38:23.999Z</time></trkpt><trkpt lat="44.38568715665163" lon="7.819634553352318"><ele>399.0</ele><time>2026-04-09T16:38:25.999Z</time></trkpt><trkpt lat="44.385593437627186" lon="7.819621780008649"><ele>399.0</ele><time>2026-04-09T16:38:27.999Z</time></trkpt><trkpt lat="44.3854793151637" lon="7.819604889799535"><ele>399.6</ele><time>2026-04-09T16:38:29.999Z</time></trkpt><trkpt lat="44.38541546234082" lon="7.819653381055637"><ele>400.2</ele><time>2026-04-09T16:38:30.999Z</time></trkpt><trkpt lat="44.38534297455335" lon="7.819695726444538"><ele>400.8</ele><time>2026-04-09T16:38:31.999Z</time></trkpt><trkpt lat="44.3852447926642" lon="7.8197335622708355"><ele>401.40000000000003</ele><time>2026-04-09T16:38:33.999Z</time></trkpt><trkpt lat="44.385131769568574" lon="7.819692710012741"><ele>402.0</ele><time>2026-04-09T16:38:35.999Z</time></trkpt><trkpt lat="44.38511360408159" lon="7.819534838106524"><ele>402.0</ele><time>2026-04-09T16:38:37.999Z</time></trkpt><trkpt lat="44.38508312958547" lon="7.819452633905142"><ele>402.0</ele><time>2026-04-09T16:38:38.999Z</time></trkpt><trkpt lat="44.38504897027509" lon="7.819266333746241"><ele>402.0</ele><time>2026-04-09T16:38:40.999Z</time></trkpt><trkpt lat="44.38504552627871" lon="7.81917005034194"><ele>402.0</ele><time>2026-04-09T16:38:41.999Z</time></trkpt><trkpt lat="44.38507108392125" lon="7.819037411903947"><ele>402.0</ele><time>2026-04-09T16:38:42.999Z</time></trkpt><trkpt lat="44.38507086010094" lon="7.818938056515692"><ele>402.0</ele><time>2026-04-09T16:38:43.999Z</time></trkpt><trkpt lat="44.38505076131383" lon="7.818848912137133"><ele>402.8333333333333</ele><time>2026-04-09T16:38:44.999Z</time></trkpt><trkpt lat="44.38504053400362" lon="7.818760836517921"><ele>403.66666666666663</ele><time>2026-04-09T16:38:45.999Z</time></trkpt><trkpt lat="44.38503379288564" lon="7.818668105333806"><ele>404.5</ele><time>2026-04-09T16:38:46.999Z</time></trkpt><trkpt lat="44.38501994620068" lon="7.818533981885908"><ele>405.3333333333333</ele><time>2026-04-09T16:38:48.999Z</time></trkpt><trkpt lat="44.38500182194442" lon="7.81842773813887"><ele>406.16666666666663</ele><time>2026-04-09T16:39:01.999Z</time></trkpt><trkpt lat="44.385002194349994" lon="7.818315036599832"><ele>407.0</ele><time>2026-04-09T16:39:07.998Z</time></trkpt><trkpt lat="44.38501546229249" lon="7.818160213897894"><ele>407.40000000000003</ele><time>2026-04-09T16:39:09.998Z</time></trkpt><trkpt lat="44.385032926118235" lon="7.8180539972099385"><ele>407.8</ele><time>2026-04-09T16:39:10.998Z</time></trkpt><trkpt lat="44.38506014160522" lon="7.81793369269065"><ele>408.2</ele><time>2026-04-09T16:39:11.998Z</time></trkpt><trkpt lat="44.38508225037272" lon="7.8178153688663246"><ele>408.6</ele><time>2026-04-09T16:39:12.998Z</time></trkpt><trkpt lat="44.38512030497111" lon="7.8176904589987295"><ele>409.0</ele><time>2026-04-09T16:39:13.998Z</time></trkpt><trkpt lat="44.38514948766993" lon="7.817542709550926"><ele>410.0</ele><time>2026-04-09T16:39:14.998Z</time></trkpt><trkpt lat="44.38521158223924" lon="7.817427515395486"><ele>411.0</ele><time>2026-04-09T16:39:15.998Z</time></trkpt><trkpt lat="44.385260494284736" lon="7.8173279736301025"><ele>412.0</ele><time>2026-04-09T16:39:16.998Z</time></trkpt><trkpt lat="44.38532456614697" lon="7.817194133368345"><ele>413.0</ele><time>2026-04-09T16:39:18Z</time></trkpt><trkpt lat="44.38537227558492" lon="7.817091687863463"><ele>414.0</ele><time>2026-04-09T16:39:19Z</time></trkpt><trkpt lat="44.38541163147564" lon="7.8170050902143915"><ele>414.0</ele><time>2026-04-09T16:39:20Z</time></trkpt><trkpt lat="44.38547423139874" lon="7.8168643666916395"><ele>414.0</ele><time>2026-04-09T16:39:22Z</time></trkpt><trkpt lat="44.385526777921925" lon="7.816759999321367"><ele>414.0</ele><time>2026-04-09T16:39:24Z</time></trkpt><trkpt lat="44.385599942255816" lon="7.81666801500249"><ele>414.0</ele><time>2026-04-09T16:39:26Z</time></trkpt><trkpt lat="44.3855578359585" lon="7.816575924110812"><ele>414.0</ele><time>2026-04-09T16:39:28Z</time></trkpt><trkpt lat="44.38551333383475" lon="7.816504750698123"><ele>415.3333333333333</ele><time>2026-04-09T16:39:30Z</time></trkpt><trkpt lat="44.385395503942746" lon="7.816433763905487"><ele>416.66666666666663</ele><time>2026-04-09T16:39:32Z</time></trkpt><trkpt lat="44.38534004429076" lon="7.816379524549959"><ele>418.0</ele><time>2026-04-09T16:39:33Z</time></trkpt><trkpt lat="44.38527776141741" lon="7.8163325102657915"><ele>419.3333333333333</ele><time>2026-04-09T16:39:34Z</time></trkpt><trkpt lat="44.38522982548916" lon="7.816266848696854"><ele>420.66666666666663</ele><time>2026-04-09T16:39:35Z</time></trkpt><trkpt lat="44.38514666102451" lon="7.816191855066426"><ele>422.0</ele><time>2026-04-09T16:39:37Z</time></trkpt><trkpt lat="44.38504311058113" lon="7.816098495428532"><ele>421.99999999999994</ele><time>2026-04-09T16:39:39Z</time></trkpt><trkpt lat="44.384989540668556" lon="7.816050197486062"><ele>422.0</ele><time>2026-04-09T16:39:40Z</time></trkpt><trkpt lat="44.38492839205425" lon="7.815995066759897"><ele>422.0</ele><time>2026-04-09T16:39:41Z</time></trkpt><trkpt lat="44.384854689192544" lon="7.815928617190256"><ele>422.0</ele><time>2026-04-09T16:39:42Z</time></trkpt><trkpt lat="44.38479166787892" lon="7.815866201486562"><ele>421.99999999999994</ele><time>2026-04-09T16:39:43Z</time></trkpt><trkpt lat="44.38472314745882" lon="7.8157905715392175"><ele>422.0</ele><time>2026-04-09T16:39:44Z</time></trkpt><trkpt lat="44.38464140114424" lon="7.815726828519352"><ele>423.16666666666663</ele><time>2026-04-09T16:39:45Z</time></trkpt><trkpt lat="44.384579166150914" lon="7.8156635554716205"><ele>424.3333333333333</ele><time>2026-04-09T16:39:46Z</time></trkpt><trkpt lat="44.384500525500776" lon="7.815591396800639"><ele>425.5</ele><time>2026-04-09T16:39:47Z</time></trkpt><trkpt lat="44.38443291431084" lon="7.8155284061779"><ele>426.66666666666663</ele><time>2026-04-09T16:39:48Z</time></trkpt><trkpt lat="44.384365178466915" lon="7.815464778725086"><ele>427.8333333333333</ele><time>2026-04-09T16:39:49Z</time></trkpt><trkpt lat="44.384295827721424" lon="7.8153972451493186"><ele>429.0</ele><time>2026-04-09T16:39:50Z</time></trkpt><trkpt lat="44.38422000154096" lon="7.815333340588019"><ele>429.0</ele><time>2026-04-09T16:39:51Z</time></trkpt><trkpt lat="44.3841643855252" lon="7.815276702931503"><ele>429.0</ele><time>2026-04-09T16:39:52Z</time></trkpt><trkpt lat="44.38410470021781" lon="7.815206316986727"><ele>429.0</ele><time>2026-04-09T16:39:53Z</time></trkpt><trkpt lat="44.384033344727385" lon="7.815148263563088"><ele>429.0</ele><time>2026-04-09T16:39:54Z</time></trkpt><trkpt lat="44.3839495222745" lon="7.81508125550271"><ele>429.0</ele><time>2026-04-09T16:39:55Z</time></trkpt><trkpt lat="44.38388364143443" lon="7.815015482494854"><ele>429.0</ele><time>2026-04-09T16:39:56Z</time></trkpt><trkpt lat="44.383801521956336" lon="7.8149350811022185"><ele>429.4</ele><time>2026-04-09T16:39:57Z</time></trkpt><trkpt lat="44.383738052432115" lon="7.814856704927051"><ele>429.79999999999995</ele><time>2026-04-09T16:39:58Z</time></trkpt><trkpt lat="44.38364469323015" lon="7.81478319544158"><ele>430.20000000000005</ele><time>2026-04-09T16:39:59Z</time></trkpt><trkpt lat="44.38355072828361" lon="7.814693212496825"><ele>430.6</ele><time>2026-04-09T16:40:00Z</time></trkpt><trkpt lat="44.38346183903226" lon="7.8146198613476345"><ele>431.0</ele><time>2026-04-09T16:40:01Z</time></trkpt><trkpt lat="44.38337569477251" lon="7.814541423732651"><ele>431.0</ele><time>2026-04-09T16:40:02Z</time></trkpt><trkpt lat="44.38327818512364" lon="7.814454320877328"><ele>431.0</ele><time>2026-04-09T16:40:03Z</time></trkpt><trkpt lat="44.38318207611728" lon="7.814372333053749"><ele>431.0</ele><time>2026-04-09T16:40:04Z</time></trkpt><trkpt lat="44.383096278920185" lon="7.81430027501822"><ele>431.0</ele><time>2026-04-09T16:40:05Z</time></trkpt><trkpt lat="44.38299659186746" lon="7.814233769669059"><ele>431.0</ele><time>2026-04-09T16:40:05.999Z</time></trkpt><trkpt lat="44.38290746491185" lon="7.814147204122978"><ele>431.25</ele><time>2026-04-09T16:40:06.999Z</time></trkpt><trkpt lat="44.38281172762887" lon="7.814060104450467"><ele>431.5</ele><time>2026-04-09T16:40:07.999Z</time></trkpt><trkpt lat="44.38270874619551" lon="7.813977780791013"><ele>431.75</ele><time>2026-04-09T16:40:08.999Z</time></trkpt><trkpt lat="44.38261220846812" lon="7.8138887514377275"><ele>432.0</ele><time>2026-04-09T16:40:09.999Z</time></trkpt><trkpt lat="44.382512861089864" lon="7.813816542373272"><ele>432.0</ele><time>2026-04-09T16:40:10.999Z</time></trkpt><trkpt lat="44.382419074988874" lon="7.813721749971431"><ele>432.0</ele><time>2026-04-09T16:40:11.999Z</time></trkpt><trkpt lat="44.382327607492314" lon="7.8136428244573555"><ele>432.0</ele><time>2026-04-09T16:40:12.999Z</time></trkpt><trkpt lat="44.38223284979089" lon="7.8135475479176515"><ele>432.0</ele><time>2026-04-09T16:40:13.999Z</time></trkpt><trkpt lat="44.38213927823594" lon="7.813454448039626"><ele>432.40000000000003</ele><time>2026-04-09T16:40:14.999Z</time></trkpt><trkpt lat="44.382043009560405" lon="7.8133794531880065"><ele>432.80000000000007</ele><time>2026-04-09T16:40:15.999Z</time></trkpt><trkpt lat="44.38194350983797" lon="7.813306987522749"><ele>433.2</ele><time>2026-04-09T16:40:16.999Z</time></trkpt><trkpt lat="44.38184976089405" lon="7.813226089061197"><ele>433.6</ele><time>2026-04-09T16:40:17.999Z</time></trkpt><trkpt lat="44.38175677762517" lon="7.813128736064923"><ele>434.0</ele><time>2026-04-09T16:40:18.999Z</time></trkpt><trkpt lat="44.38165611681903" lon="7.813042187001536"><ele>434.0</ele><time>2026-04-09T16:40:19.999Z</time></trkpt><trkpt lat="44.38156255208658" lon="7.8129541869597965"><ele>434.0</ele><time>2026-04-09T16:40:20.999Z</time></trkpt><trkpt lat="44.38147688035741" lon="7.812874294654361"><ele>434.0</ele><time>2026-04-09T16:40:21.999Z</time></trkpt><trkpt lat="44.38137986768443" lon="7.812789082715891"><ele>434.0</ele><time>2026-04-09T16:40:22.999Z</time></trkpt><trkpt lat="44.38128944161513" lon="7.812707000116474"><ele>434.0</ele><time>2026-04-09T16:40:23.999Z</time></trkpt><trkpt lat="44.381194553948184" lon="7.812620151655866"><ele>433.25</ele><time>2026-04-09T16:40:24.999Z</time></trkpt><trkpt lat="44.381099957023864" lon="7.812524133159986"><ele>432.5</ele><time>2026-04-09T16:40:25.999Z</time></trkpt><trkpt lat="44.381012633278885" lon="7.812430276957539"><ele>431.75</ele><time>2026-04-09T16:40:26.999Z</time></trkpt><trkpt lat="44.38091671450333" lon="7.812347287725615"><ele>431.0</ele><time>2026-04-09T16:40:27.999Z</time></trkpt><trkpt lat="44.380819007152525" lon="7.812266734445126"><ele>431.0</ele><time>2026-04-09T16:40:28.999Z</time></trkpt><trkpt lat="44.380729214555544" lon="7.812194259689808"><ele>431.0</ele><time>2026-04-09T16:40:29.999Z</time></trkpt><trkpt lat="44.38063674010498" lon="7.812112196861434"><ele>431.0</ele><time>2026-04-09T16:40:30.999Z</time></trkpt><trkpt lat="44.380541123277126" lon="7.812031063864266"><ele>431.0</ele><time>2026-04-09T16:40:31.999Z</time></trkpt><trkpt lat="44.38044187506017" lon="7.81194884312267"><ele>431.0</ele><time>2026-04-09T16:40:32.999Z</time></trkpt><trkpt lat="44.380347008461115" lon="7.8118626643776246"><ele>431.25</ele><time>2026-04-09T16:40:33.999Z</time></trkpt><trkpt lat="44.380250715973354" lon="7.811777408256967"><ele>431.5</ele><time>2026-04-09T16:40:34.999Z</time></trkpt><trkpt lat="44.38015636480566" lon="7.811700498108085"><ele>431.75</ele><time>2026-04-09T16:40:35.999Z</time></trkpt><trkpt lat="44.380055452431485" lon="7.811612717941738"><ele>432.0</ele><time>2026-04-09T16:40:36.999Z</time></trkpt><trkpt lat="44.37995092550961" lon="7.811525880184044"><ele>432.0</ele><time>2026-04-09T16:40:37.999Z</time></trkpt><trkpt lat="44.379851986621006" lon="7.811439771662773"><ele>432.0</ele><time>2026-04-09T16:40:38.999Z</time></trkpt><trkpt lat="44.37974791964464" lon="7.811355776916358"><ele>432.0</ele><time>2026-04-09T16:40:39.999Z</time></trkpt><trkpt lat="44.37965011094214" lon="7.811274356309173"><ele>432.0</ele><time>2026-04-09T16:40:40.999Z</time></trkpt><trkpt lat="44.3795539561498" lon="7.811193390859732"><ele>432.0</ele><time>2026-04-09T16:40:41.999Z</time></trkpt><trkpt lat="44.37946103978132" lon="7.811106436927062"><ele>432.00000000000006</ele><time>2026-04-09T16:40:42.999Z</time></trkpt><trkpt lat="44.37936613530334" lon="7.811023107737611"><ele>432.00000000000006</ele><time>2026-04-09T16:40:43.999Z</time></trkpt><trkpt lat="44.37927011108215" lon="7.810939339412774"><ele>432.0</ele><time>2026-04-09T16:40:44.999Z</time></trkpt><trkpt lat="44.37917698128336" lon="7.81085170470774"><ele>432.0</ele><time>2026-04-09T16:40:45.999Z</time></trkpt><trkpt lat="44.37907982638938" lon="7.810756671226364"><ele>432.5</ele><time>2026-04-09T16:40:46.999Z</time></trkpt><trkpt lat="44.37898207463867" lon="7.81066005768641"><ele>433.0</ele><time>2026-04-09T16:40:47.999Z</time></trkpt><trkpt lat="44.37888400159206" lon="7.8105695273415074"><ele>433.5</ele><time>2026-04-09T16:40:48.999Z</time></trkpt><trkpt lat="44.37878905886384" lon="7.810482394297546"><ele>434.0</ele><time>2026-04-09T16:40:49.999Z</time></trkpt><trkpt lat="44.37869344819128" lon="7.810397946322518"><ele>434.0</ele><time>2026-04-09T16:40:50.999Z</time></trkpt><trkpt lat="44.37859808100434" lon="7.810304671977654"><ele>434.0</ele><time>2026-04-09T16:40:51.999Z</time></trkpt><trkpt lat="44.378494609239624" lon="7.8102098075762045"><ele>434.0</ele><time>2026-04-09T16:40:52.999Z</time></trkpt><trkpt lat="44.37838894625854" lon="7.81011398419172"><ele>434.0</ele><time>2026-04-09T16:40:53.999Z</time></trkpt><trkpt lat="44.3782806205266" lon="7.810019515490784"><ele>434.25</ele><time>2026-04-09T16:40:54.999Z</time></trkpt><trkpt lat="44.37817026414971" lon="7.809923805707499"><ele>434.5</ele><time>2026-04-09T16:40:55.999Z</time></trkpt><trkpt lat="44.3780570220903" lon="7.80982668589881"><ele>434.75</ele><time>2026-04-09T16:40:56.999Z</time></trkpt><trkpt lat="44.37794341975456" lon="7.8097166504911755"><ele>435.0</ele><time>2026-04-09T16:40:57.999Z</time></trkpt><trkpt lat="44.37783130002099" lon="7.809620409457116"><ele>435.0</ele><time>2026-04-09T16:40:58.999Z</time></trkpt><trkpt lat="44.377714464666035" lon="7.809518671366642"><ele>435.0</ele><time>2026-04-09T16:40:59.999Z</time></trkpt><trkpt lat="44.37759551043972" lon="7.809426755550533"><ele>435.0</ele><time>2026-04-09T16:41:00.999Z</time></trkpt><trkpt lat="44.377474615913364" lon="7.809317012408097"><ele>435.0</ele><time>2026-04-09T16:41:01.999Z</time></trkpt><trkpt lat="44.37734630719248" lon="7.809200174662691"><ele>435.0</ele><time>2026-04-09T16:41:02.999Z</time></trkpt><trkpt lat="44.37721087910494" lon="7.809078645849836"><ele>435.0</ele><time>2026-04-09T16:41:03.999Z</time></trkpt><trkpt lat="44.37707763165159" lon="7.808959552387717"><ele>435.0</ele><time>2026-04-09T16:41:04.999Z</time></trkpt><trkpt lat="44.37693191028431" lon="7.808831922043917"><ele>435.33333333333337</ele><time>2026-04-09T16:41:05.999Z</time></trkpt><trkpt lat="44.3767797446706" lon="7.808693193625135"><ele>435.6666666666667</ele><time>2026-04-09T16:41:06.999Z</time></trkpt><trkpt lat="44.37661532917945" lon="7.808564373995112"><ele>436.0</ele><time>2026-04-09T16:41:07.999Z</time></trkpt><trkpt lat="44.376452855308685" lon="7.808452046219548"><ele>437.0</ele><time>2026-04-09T16:41:08.999Z</time></trkpt><trkpt lat="44.376275606153385" lon="7.808330751243915"><ele>438.0</ele><time>2026-04-09T16:41:09.999Z</time></trkpt><trkpt lat="44.37609312120737" lon="7.808220599929"><ele>439.0</ele><time>2026-04-09T16:41:10.999Z</time></trkpt><trkpt lat="44.375918039645576" lon="7.808126147456978"><ele>439.0</ele><time>2026-04-09T16:41:11.999Z</time></trkpt><trkpt lat="44.37574882032196" lon="7.808046011842568"><ele>439.0</ele><time>2026-04-09T16:41:12.998Z</time></trkpt><trkpt lat="44.375580137907896" lon="7.807965244241441"><ele>439.0</ele><time>2026-04-09T16:41:13.998Z</time></trkpt><trkpt lat="44.375413601659154" lon="7.807880589056189"><ele>439.33333333333337</ele><time>2026-04-09T16:41:14.998Z</time></trkpt><trkpt lat="44.375253816455555" lon="7.807772300560249"><ele>439.66666666666663</ele><time>2026-04-09T16:41:15.998Z</time></trkpt><trkpt lat="44.37508436707404" lon="7.807701977495635"><ele>440.0</ele><time>2026-04-09T16:41:16.998Z</time></trkpt><trkpt lat="44.374921482845274" lon="7.807605642871289"><ele>440.3333333333333</ele><time>2026-04-09T16:41:17.998Z</time></trkpt><trkpt lat="44.37475848489041" lon="7.807507834889925"><ele>440.66666666666663</ele><time>2026-04-09T16:41:18.998Z</time></trkpt><trkpt lat="44.37459878357818" lon="7.807414835117441"><ele>441.0</ele><time>2026-04-09T16:41:19.998Z</time></trkpt><trkpt lat="44.37443753150118" lon="7.807329501387472"><ele>441.0</ele><time>2026-04-09T16:41:20.998Z</time></trkpt><trkpt lat="44.37427736048459" lon="7.807232226598636"><ele>441.0</ele><time>2026-04-09T16:41:21.998Z</time></trkpt><trkpt lat="44.37411546344624" lon="7.807150158110711"><ele>441.0</ele><time>2026-04-09T16:41:22.998Z</time></trkpt><trkpt lat="44.373952517843534" lon="7.807066624642735"><ele>441.66666666666663</ele><time>2026-04-09T16:41:24Z</time></trkpt><trkpt lat="44.37379158155904" lon="7.80697410636902"><ele>442.3333333333333</ele><time>2026-04-09T16:41:25Z</time></trkpt><trkpt lat="44.37363278300623" lon="7.806882442940157"><ele>443.0</ele><time>2026-04-09T16:41:26Z</time></trkpt><trkpt lat="44.37347435608533" lon="7.806787845168612"><ele>444.3333333333333</ele><time>2026-04-09T16:41:27Z</time></trkpt><trkpt lat="44.37330899747885" lon="7.806692398356816"><ele>445.66666666666663</ele><time>2026-04-09T16:41:28Z</time></trkpt><trkpt lat="44.37315452892233" lon="7.806600728099215"><ele>447.0</ele><time>2026-04-09T16:41:29Z</time></trkpt><trkpt lat="44.37301009454837" lon="7.806510746352333"><ele>447.25</ele><time>2026-04-09T16:41:30Z</time></trkpt><trkpt lat="44.37288646499418" lon="7.806428471983964"><ele>447.5</ele><time>2026-04-09T16:41:31Z</time></trkpt><trkpt lat="44.37276938037406" lon="7.806324661092911"><ele>447.75</ele><time>2026-04-09T16:41:32Z</time></trkpt><trkpt lat="44.37265853663918" lon="7.806201208619125"><ele>448.0</ele><time>2026-04-09T16:41:33Z</time></trkpt><trkpt lat="44.372553410631774" lon="7.8060599511801385"><ele>449.5</ele><time>2026-04-09T16:41:34Z</time></trkpt><trkpt lat="44.37246381295353" lon="7.80589570650601"><ele>451.0</ele><time>2026-04-09T16:41:35Z</time></trkpt><trkpt lat="44.37238057113982" lon="7.8057154722479805"><ele>452.5</ele><time>2026-04-09T16:41:36Z</time></trkpt><trkpt lat="44.372311198955394" lon="7.805542440613938"><ele>454.0</ele><time>2026-04-09T16:41:37Z</time></trkpt><trkpt lat="44.37224395867863" lon="7.805343331170909"><ele>456.33333333333337</ele><time>2026-04-09T16:41:38Z</time></trkpt><trkpt lat="44.37218690324621" lon="7.805133915988424"><ele>458.66666666666663</ele><time>2026-04-09T16:41:39Z</time></trkpt><trkpt lat="44.37213398072015" lon="7.804926747165061"><ele>461.0</ele><time>2026-04-09T16:41:40Z</time></trkpt><trkpt lat="44.372074187927836" lon="7.804733618224133"><ele>461.0</ele><time>2026-04-09T16:41:41Z</time></trkpt><trkpt lat="44.37201225557337" lon="7.804534148660702"><ele>461.0</ele><time>2026-04-09T16:41:42Z</time></trkpt><trkpt lat="44.3719559478857" lon="7.804332834546132"><ele>461.0</ele><time>2026-04-09T16:41:43Z</time></trkpt><trkpt lat="44.37189816934499" lon="7.804139358442589"><ele>461.0</ele><time>2026-04-09T16:41:44Z</time></trkpt><trkpt lat="44.371837144349506" lon="7.803932959700581"><ele>461.0</ele><time>2026-04-09T16:41:45Z</time></trkpt><trkpt lat="44.37177665939032" lon="7.803724015545135"><ele>461.0</ele><time>2026-04-09T16:41:46Z</time></trkpt><trkpt lat="44.371714474900934" lon="7.803526691489131"><ele>462.3333333333333</ele><time>2026-04-09T16:41:47Z</time></trkpt><trkpt lat="44.37163953929329" lon="7.803325172067336"><ele>463.66666666666663</ele><time>2026-04-09T16:41:48Z</time></trkpt><trkpt lat="44.37156255793631" lon="7.803125672176298"><ele>465.0</ele><time>2026-04-09T16:41:49Z</time></trkpt><trkpt lat="44.371504268169275" lon="7.802924798929458"><ele>465.0</ele><time>2026-04-09T16:41:50Z</time></trkpt><trkpt lat="44.371428190741426" lon="7.802713187094674"><ele>465.0</ele><time>2026-04-09T16:41:51Z</time></trkpt><trkpt lat="44.37134543273826" lon="7.802492674854416"><ele>465.0</ele><time>2026-04-09T16:41:52Z</time></trkpt><trkpt lat="44.37126530613923" lon="7.802288102844229"><ele>465.33333333333337</ele><time>2026-04-09T16:41:53Z</time></trkpt><trkpt lat="44.37117626634637" lon="7.802082742374971"><ele>465.6666666666667</ele><time>2026-04-09T16:41:54Z</time></trkpt><trkpt lat="44.371076221211155" lon="7.801876856027594"><ele>466.0</ele><time>2026-04-09T16:41:55Z</time></trkpt><trkpt lat="44.370970251058985" lon="7.801676506925606"><ele>466.0</ele><time>2026-04-09T16:41:56Z</time></trkpt><trkpt lat="44.37085180999394" lon="7.8014711490175594"><ele>466.0</ele><time>2026-04-09T16:41:57Z</time></trkpt><trkpt lat="44.370727378803394" lon="7.801273584849377"><ele>466.0</ele><time>2026-04-09T16:41:58Z</time></trkpt><trkpt lat="44.370594059959835" lon="7.801079162184132"><ele>466.6666666666667</ele><time>2026-04-09T16:41:59Z</time></trkpt><trkpt lat="44.37045038971283" lon="7.800889567275364"><ele>467.33333333333337</ele><time>2026-04-09T16:42:00Z</time></trkpt><trkpt lat="44.370305519993565" lon="7.800721790908479"><ele>468.0</ele><time>2026-04-09T16:42:01Z</time></trkpt><trkpt lat="44.37015517786736" lon="7.8005865700451125"><ele>468.0</ele><time>2026-04-09T16:42:02Z</time></trkpt><trkpt lat="44.37001499427031" lon="7.8004365612839885"><ele>468.0</ele><time>2026-04-09T16:42:03Z</time></trkpt><trkpt lat="44.36987327623613" lon="7.800291125878922"><ele>468.0</ele><time>2026-04-09T16:42:04Z</time></trkpt><trkpt lat="44.369744962325996" lon="7.800157633193253"><ele>468.33333333333337</ele><time>2026-04-09T16:42:05Z</time></trkpt><trkpt lat="44.36961392863853" lon="7.8000235363932795"><ele>468.6666666666667</ele><time>2026-04-09T16:42:06Z</time></trkpt><trkpt lat="44.36949351061772" lon="7.799886135724089"><ele>469.0</ele><time>2026-04-09T16:42:07Z</time></trkpt><trkpt lat="44.369376063185044" lon="7.799762802488323"><ele>469.0</ele><time>2026-04-09T16:42:08Z</time></trkpt><trkpt lat="44.36925435620449" lon="7.799646575771289"><ele>469.0</ele><time>2026-04-09T16:42:09Z</time></trkpt><trkpt lat="44.369146268994875" lon="7.7995332872560255"><ele>469.0</ele><time>2026-04-09T16:42:10Z</time></trkpt><trkpt lat="44.3690587826176" lon="7.7994361195795365"><ele>469.0</ele><time>2026-04-09T16:42:10.999Z</time></trkpt><trkpt lat="44.368987417896754" lon="7.7993667371689"><ele>469.1666666666667</ele><time>2026-04-09T16:42:11.999Z</time></trkpt><trkpt lat="44.368915265166244" lon="7.799294818571208"><ele>469.33333333333337</ele><time>2026-04-09T16:42:12.999Z</time></trkpt><trkpt lat="44.36885102629449" lon="7.7992411309443455"><ele>469.5</ele><time>2026-04-09T16:42:13.999Z</time></trkpt><trkpt lat="44.36877417562916" lon="7.7991670771099875"><ele>469.66666666666663</ele><time>2026-04-09T16:42:14.999Z</time></trkpt><trkpt lat="44.368709480085464" lon="7.799059688445882"><ele>469.8333333333333</ele><time>2026-04-09T16:42:15.999Z</time></trkpt><trkpt lat="44.36864524779456" lon="7.798991424403103"><ele>470.0</ele><time>2026-04-09T16:42:16.999Z</time></trkpt><trkpt lat="44.36858981148003" lon="7.798945002979143"><ele>469.99999999999994</ele><time>2026-04-09T16:42:17.999Z</time></trkpt><trkpt lat="44.36852154362115" lon="7.798867991186919"><ele>470.0</ele><time>2026-04-09T16:42:19.999Z</time></trkpt><trkpt lat="44.36845652657137" lon="7.798814201902868"><ele>470.0</ele><time>2026-04-09T16:42:21.999Z</time></trkpt><trkpt lat="44.36836693466088" lon="7.798718557766393"><ele>470.0</ele><time>2026-04-09T16:42:23.999Z</time></trkpt><trkpt lat="44.36831485064566" lon="7.798655880203537"><ele>469.99999999999994</ele><time>2026-04-09T16:42:24.999Z</time></trkpt><trkpt lat="44.36826637779534" lon="7.798580442971321"><ele>470.0</ele><time>2026-04-09T16:42:25.999Z</time></trkpt><trkpt lat="44.36818936120394" lon="7.7984686247757695"><ele>470.3333333333333</ele><time>2026-04-09T16:42:27.999Z</time></trkpt><trkpt lat="44.36813572294655" lon="7.7983734665434685"><ele>470.66666666666663</ele><time>2026-04-09T16:42:29.999Z</time></trkpt><trkpt lat="44.36810271475187" lon="7.79828703557089"><ele>471.0</ele><time>2026-04-09T16:42:31.999Z</time></trkpt><trkpt lat="44.36807268916935" lon="7.798202754525318"><ele>471.33333333333337</ele><time>2026-04-09T16:42:32.999Z</time></trkpt><trkpt lat="44.36803190332167" lon="7.7981157720172805"><ele>471.6666666666667</ele><time>2026-04-09T16:42:33.999Z</time></trkpt><trkpt lat="44.36797494496256" lon="7.798016437921712"><ele>472.0</ele><time>2026-04-09T16:42:34.999Z</time></trkpt><trkpt lat="44.36791651034882" lon="7.797916111411034"><ele>472.0</ele><time>2026-04-09T16:42:35.999Z</time></trkpt><trkpt lat="44.36783440718792" lon="7.79783725136121"><ele>472.0</ele><time>2026-04-09T16:42:36.999Z</time></trkpt><trkpt lat="44.36771936182019" lon="7.797816385177219"><ele>472.0</ele><time>2026-04-09T16:42:37.999Z</time></trkpt><trkpt lat="44.36760539280917" lon="7.797788412490469"><ele>472.0</ele><time>2026-04-09T16:42:38.999Z</time></trkpt><trkpt lat="44.36748535666578" lon="7.797764057227212"><ele>472.0</ele><time>2026-04-09T16:42:39.999Z</time></trkpt><trkpt lat="44.36735657636883" lon="7.797709514740056"><ele>472.0</ele><time>2026-04-09T16:42:40.999Z</time></trkpt><trkpt lat="44.367219269987835" lon="7.797673564995228"><ele>472.0</ele><time>2026-04-09T16:42:41.999Z</time></trkpt><trkpt lat="44.36710623834853" lon="7.7975343914967965"><ele>472.0</ele><time>2026-04-09T16:42:42.999Z</time></trkpt><trkpt lat="44.366990112818605" lon="7.797436748192597"><ele>472.5</ele><time>2026-04-09T16:42:43.999Z</time></trkpt><trkpt lat="44.366886720958504" lon="7.797329443153658"><ele>473.0</ele><time>2026-04-09T16:42:44.999Z</time></trkpt><trkpt lat="44.366779782160044" lon="7.797239521001316"><ele>473.5</ele><time>2026-04-09T16:42:45.999Z</time></trkpt><trkpt lat="44.3666653102854" lon="7.797139395547071"><ele>474.0</ele><time>2026-04-09T16:42:46.999Z</time></trkpt><trkpt lat="44.36655033514665" lon="7.797026291647142"><ele>474.0</ele><time>2026-04-09T16:42:47.999Z</time></trkpt><trkpt lat="44.36643543566761" lon="7.7969194631921415"><ele>474.0</ele><time>2026-04-09T16:42:48.999Z</time></trkpt><trkpt lat="44.36632102891891" lon="7.796818934792264"><ele>474.0</ele><time>2026-04-09T16:42:49.999Z</time></trkpt><trkpt lat="44.366216702953245" lon="7.7966821723640765"><ele>474.0</ele><time>2026-04-09T16:42:50.999Z</time></trkpt><trkpt lat="44.36611174925273" lon="7.796584617119423"><ele>474.5</ele><time>2026-04-09T16:42:51.999Z</time></trkpt><trkpt lat="44.36600481483155" lon="7.796483347901597"><ele>475.0</ele><time>2026-04-09T16:42:52.999Z</time></trkpt><trkpt lat="44.36589391154531" lon="7.7963755257125635"><ele>475.5</ele><time>2026-04-09T16:42:53.999Z</time></trkpt><trkpt lat="44.36578354095407" lon="7.796264942578796"><ele>476.0</ele><time>2026-04-09T16:42:54.999Z</time></trkpt><trkpt lat="44.36566246740573" lon="7.796160882583912"><ele>476.0</ele><time>2026-04-09T16:42:55.999Z</time></trkpt><trkpt lat="44.365530319274484" lon="7.796052977758949"><ele>476.0</ele><time>2026-04-09T16:42:56.999Z</time></trkpt><trkpt lat="44.365386054162535" lon="7.795932878276675"><ele>476.0</ele><time>2026-04-09T16:42:57.999Z</time></trkpt><trkpt lat="44.3652417690032" lon="7.795779687204294"><ele>476.3333333333333</ele><time>2026-04-09T16:42:58.999Z</time></trkpt><trkpt lat="44.365095387417185" lon="7.795665158327284"><ele>476.66666666666663</ele><time>2026-04-09T16:42:59.999Z</time></trkpt><trkpt lat="44.3649674104204" lon="7.795532867052686"><ele>477.0</ele><time>2026-04-09T16:43:00.999Z</time></trkpt><trkpt lat="44.36483229613147" lon="7.795413386901928"><ele>477.0</ele><time>2026-04-09T16:43:01.999Z</time></trkpt><trkpt lat="44.364699083408446" lon="7.79529431535582"><ele>477.0</ele><time>2026-04-09T16:43:02.999Z</time></trkpt><trkpt lat="44.364570344015284" lon="7.795148733093011"><ele>477.0</ele><time>2026-04-09T16:43:03.999Z</time></trkpt><trkpt lat="44.36442958956828" lon="7.795016462733823"><ele>476.75</ele><time>2026-04-09T16:43:04.999Z</time></trkpt><trkpt lat="44.36429572299749" lon="7.794890665132579"><ele>476.5</ele><time>2026-04-09T16:43:05.999Z</time></trkpt><trkpt lat="44.36417410101214" lon="7.794776374045083"><ele>476.25</ele><time>2026-04-09T16:43:06.999Z</time></trkpt><trkpt lat="44.364061742106514" lon="7.794670787705894"><ele>476.0</ele><time>2026-04-09T16:43:07.999Z</time></trkpt><trkpt lat="44.36394837803354" lon="7.794563983693975"><ele>476.0</ele><time>2026-04-09T16:43:08.999Z</time></trkpt><trkpt lat="44.363820468092364" lon="7.79444338075339"><ele>476.0</ele><time>2026-04-09T16:43:09.999Z</time></trkpt><trkpt lat="44.363693526957604" lon="7.794323691579905"><ele>476.0</ele><time>2026-04-09T16:43:10.999Z</time></trkpt><trkpt lat="44.36355507229897" lon="7.794193146379676"><ele>477.0</ele><time>2026-04-09T16:43:11.999Z</time></trkpt><trkpt lat="44.36340271654287" lon="7.7940769023847585"><ele>478.0</ele><time>2026-04-09T16:43:12.999Z</time></trkpt><trkpt lat="44.36326349815498" lon="7.793897019066076"><ele>479.0</ele><time>2026-04-09T16:43:13.999Z</time></trkpt><trkpt lat="44.36311520707537" lon="7.793755005220421"><ele>478.3333333333333</ele><time>2026-04-09T16:43:14.999Z</time></trkpt><trkpt lat="44.362980666659055" lon="7.793630399450631"><ele>477.66666666666663</ele><time>2026-04-09T16:43:15.999Z</time></trkpt><trkpt lat="44.36285181118439" lon="7.793514158108125"><ele>477.0</ele><time>2026-04-09T16:43:16.998Z</time></trkpt><trkpt lat="44.36273286876407" lon="7.793405122645293"><ele>478.0</ele><time>2026-04-09T16:43:17.998Z</time></trkpt><trkpt lat="44.36262835901918" lon="7.79331243076696"><ele>479.0</ele><time>2026-04-09T16:43:18.998Z</time></trkpt><trkpt lat="44.36251582541777" lon="7.793213639034185"><ele>480.0</ele><time>2026-04-09T16:43:19.998Z</time></trkpt><trkpt lat="44.36240233123409" lon="7.793114194018609"><ele>481.0</ele><time>2026-04-09T16:43:20.998Z</time></trkpt><trkpt lat="44.36228412151299" lon="7.7929980667570256"><ele>481.33333333333337</ele><time>2026-04-09T16:43:21.998Z</time></trkpt><trkpt lat="44.36215229630626" lon="7.792884567233948"><ele>481.66666666666663</ele><time>2026-04-09T16:43:22.998Z</time></trkpt><trkpt lat="44.362029546864974" lon="7.792778421763008"><ele>482.0</ele><time>2026-04-09T16:43:23.998Z</time></trkpt><trkpt lat="44.361903124419726" lon="7.792663788587226"><ele>482.0</ele><time>2026-04-09T16:43:24.998Z</time></trkpt><trkpt lat="44.36176753920716" lon="7.792531030920683"><ele>482.0</ele><time>2026-04-09T16:43:25.998Z</time></trkpt><trkpt lat="44.36163332266695" lon="7.792406689968531"><ele>482.0</ele><time>2026-04-09T16:43:26.998Z</time></trkpt><trkpt lat="44.361485384341336" lon="7.792238972121168"><ele>482.0</ele><time>2026-04-09T16:43:27.998Z</time></trkpt><trkpt lat="44.36132873457522" lon="7.792102742575115"><ele>482.0</ele><time>2026-04-09T16:43:28.998Z</time></trkpt><trkpt lat="44.361182866284935" lon="7.791963887681309"><ele>482.0</ele><time>2026-04-09T16:43:30Z</time></trkpt><trkpt lat="44.36104775787961" lon="7.791837346293424"><ele>481.75</ele><time>2026-04-09T16:43:31Z</time></trkpt><trkpt lat="44.36093074002825" lon="7.79171395973416"><ele>481.5</ele><time>2026-04-09T16:43:32Z</time></trkpt><trkpt lat="44.36081515840155" lon="7.791603386207695"><ele>481.25</ele><time>2026-04-09T16:43:33Z</time></trkpt><trkpt lat="44.36070116141643" lon="7.791500627918479"><ele>481.0</ele><time>2026-04-09T16:43:34Z</time></trkpt><trkpt lat="44.36059318995002" lon="7.791401390497022"><ele>481.5</ele><time>2026-04-09T16:43:35Z</time></trkpt><trkpt lat="44.36049033921439" lon="7.7913093039290215"><ele>482.0</ele><time>2026-04-09T16:43:36Z</time></trkpt><trkpt lat="44.36038342926717" lon="7.79122695135798"><ele>482.5</ele><time>2026-04-09T16:43:37Z</time></trkpt><trkpt lat="44.3602762849757" lon="7.7911239304247495"><ele>483.0</ele><time>2026-04-09T16:43:38Z</time></trkpt><trkpt lat="44.36017384576025" lon="7.791033483276494"><ele>482.75</ele><time>2026-04-09T16:43:39Z</time></trkpt><trkpt lat="44.36006452970214" lon="7.7909304435398266"><ele>482.5</ele><time>2026-04-09T16:43:40Z</time></trkpt><trkpt lat="44.3599478714611" lon="7.790823973000063"><ele>482.25</ele><time>2026-04-09T16:43:41Z</time></trkpt><trkpt lat="44.35982489588836" lon="7.790717743492278"><ele>482.0</ele><time>2026-04-09T16:43:42Z</time></trkpt><trkpt lat="44.35971724003042" lon="7.790591660131896"><ele>482.75</ele><time>2026-04-09T16:43:43Z</time></trkpt><trkpt lat="44.35961554925984" lon="7.790497693510362"><ele>483.5</ele><time>2026-04-09T16:43:44Z</time></trkpt><trkpt lat="44.35951483330118" lon="7.790412174029505"><ele>484.25</ele><time>2026-04-09T16:43:45Z</time></trkpt><trkpt lat="44.359405982950044" lon="7.790316037345384"><ele>485.0</ele><time>2026-04-09T16:43:46Z</time></trkpt><trkpt lat="44.35929508451722" lon="7.7902092321610255"><ele>485.3333333333333</ele><time>2026-04-09T16:43:47Z</time></trkpt><trkpt lat="44.359167008875716" lon="7.79010317095295"><ele>485.66666666666663</ele><time>2026-04-09T16:43:48Z</time></trkpt><trkpt lat="44.35902809824046" lon="7.789955904139254"><ele>486.0</ele><time>2026-04-09T16:43:49Z</time></trkpt><trkpt lat="44.3588965294336" lon="7.78982941316961"><ele>485.0</ele><time>2026-04-09T16:43:50Z</time></trkpt><trkpt lat="44.358777182844115" lon="7.789710318639404"><ele>484.0</ele><time>2026-04-09T16:43:51Z</time></trkpt><trkpt lat="44.35866357292404" lon="7.789602928558964"><ele>483.0</ele><time>2026-04-09T16:43:52Z</time></trkpt><trkpt lat="44.35855081064611" lon="7.789492438690247"><ele>482.0</ele><time>2026-04-09T16:43:53Z</time></trkpt><trkpt lat="44.358437097673026" lon="7.78938634943785"><ele>482.5</ele><time>2026-04-09T16:43:54Z</time></trkpt><trkpt lat="44.35832928590367" lon="7.789286185873756"><ele>483.0</ele><time>2026-04-09T16:43:55Z</time></trkpt><trkpt lat="44.35822424261672" lon="7.789184502372494"><ele>483.5</ele><time>2026-04-09T16:43:56Z</time></trkpt><trkpt lat="44.35812526151091" lon="7.789098596973012"><ele>484.0</ele><time>2026-04-09T16:43:57Z</time></trkpt><trkpt lat="44.35803126359769" lon="7.789019755788222"><ele>484.0</ele><time>2026-04-09T16:43:58Z</time></trkpt><trkpt lat="44.357942731959554" lon="7.788938935056786"><ele>484.0</ele><time>2026-04-09T16:43:59Z</time></trkpt><trkpt lat="44.35786337120291" lon="7.788842426178226"><ele>484.0</ele><time>2026-04-09T16:44:00Z</time></trkpt><trkpt lat="44.35778706127603" lon="7.78877414239041"><ele>484.0</ele><time>2026-04-09T16:44:01Z</time></trkpt><trkpt lat="44.35770797259018" lon="7.788704725061653"><ele>484.0</ele><time>2026-04-09T16:44:02Z</time></trkpt><trkpt lat="44.35763793960116" lon="7.78864096332707"><ele>484.0</ele><time>2026-04-09T16:44:03Z</time></trkpt><trkpt lat="44.357567993299845" lon="7.788569601196337"><ele>484.0</ele><time>2026-04-09T16:44:04Z</time></trkpt><trkpt lat="44.35749450880209" lon="7.7884968816196185"><ele>484.0</ele><time>2026-04-09T16:44:05Z</time></trkpt><trkpt lat="44.35742969800507" lon="7.78843804322819"><ele>484.0</ele><time>2026-04-09T16:44:06Z</time></trkpt><trkpt lat="44.357368024322135" lon="7.788371307349635"><ele>484.0</ele><time>2026-04-09T16:44:07Z</time></trkpt><trkpt lat="44.35727334713669" lon="7.788268789885218"><ele>484.1666666666667</ele><time>2026-04-09T16:44:09Z</time></trkpt><trkpt lat="44.35720627396961" lon="7.788146410618537"><ele>484.33333333333337</ele><time>2026-04-09T16:44:11Z</time></trkpt><trkpt lat="44.357167408642034" lon="7.788050001548687"><ele>484.5</ele><time>2026-04-09T16:44:12Z</time></trkpt><trkpt lat="44.35711680033434" lon="7.78795901195591"><ele>484.66666666666663</ele><time>2026-04-09T16:44:13Z</time></trkpt><trkpt lat="44.3570523053992" lon="7.7878978998637916"><ele>484.8333333333333</ele><time>2026-04-09T16:44:14Z</time></trkpt><trkpt lat="44.35696204651879" lon="7.787861030291204"><ele>485.0</ele><time>2026-04-09T16:44:15Z</time></trkpt><trkpt lat="44.356862778469065" lon="7.787828432684592"><ele>485.25</ele><time>2026-04-09T16:44:16Z</time></trkpt><trkpt lat="44.35675165671517" lon="7.787771665930776"><ele>485.5</ele><time>2026-04-09T16:44:16.999Z</time></trkpt><trkpt lat="44.35663528168654" lon="7.787693705535607"><ele>485.75</ele><time>2026-04-09T16:44:17.999Z</time></trkpt><trkpt lat="44.35652676039106" lon="7.7876037903620885"><ele>486.0</ele><time>2026-04-09T16:44:18.999Z</time></trkpt><trkpt lat="44.35642004414621" lon="7.7875120154093445"><ele>486.25</ele><time>2026-04-09T16:44:19.999Z</time></trkpt><trkpt lat="44.3563113515483" lon="7.787413893424346"><ele>486.5</ele><time>2026-04-09T16:44:20.999Z</time></trkpt><trkpt lat="44.35619640972763" lon="7.787297266947313"><ele>486.75</ele><time>2026-04-09T16:44:21.999Z</time></trkpt><trkpt lat="44.356081461002034" lon="7.787190945812874"><ele>487.0</ele><time>2026-04-09T16:44:22.999Z</time></trkpt><trkpt lat="44.35597721312251" lon="7.787095558481914"><ele>487.0</ele><time>2026-04-09T16:44:23.999Z</time></trkpt><trkpt lat="44.35587773746181" lon="7.787004343207752"><ele>487.0</ele><time>2026-04-09T16:44:24.999Z</time></trkpt><trkpt lat="44.35578107958043" lon="7.786908771653322"><ele>487.0</ele><time>2026-04-09T16:44:25.999Z</time></trkpt><trkpt lat="44.35568591692893" lon="7.786811621262727"><ele>487.0</ele><time>2026-04-09T16:44:26.999Z</time></trkpt><trkpt lat="44.35559534168702" lon="7.786726377844158"><ele>487.8</ele><time>2026-04-09T16:44:27.999Z</time></trkpt><trkpt lat="44.35550677926218" lon="7.786639046747865"><ele>488.6</ele><time>2026-04-09T16:44:28.999Z</time></trkpt><trkpt lat="44.35541423470191" lon="7.786558376367574"><ele>489.40000000000003</ele><time>2026-04-09T16:44:29.999Z</time></trkpt><trkpt lat="44.3553215746144" lon="7.786467215192227"><ele>490.20000000000005</ele><time>2026-04-09T16:44:30.999Z</time></trkpt><trkpt lat="44.35523835192781" lon="7.786385922572064"><ele>491.0</ele><time>2026-04-09T16:44:31.999Z</time></trkpt><trkpt lat="44.35515097716078" lon="7.786307218065922"><ele>491.0</ele><time>2026-04-09T16:44:32.999Z</time></trkpt><trkpt lat="44.355063124806286" lon="7.786219599722629"><ele>491.0</ele><time>2026-04-09T16:44:33.999Z</time></trkpt><trkpt lat="44.354977204069684" lon="7.78613220913055"><ele>491.0</ele><time>2026-04-09T16:44:34.999Z</time></trkpt><trkpt lat="44.35490515261442" lon="7.7860515575019775"><ele>491.0</ele><time>2026-04-09T16:44:35.999Z</time></trkpt><trkpt lat="44.35483396846809" lon="7.785953280282463"><ele>491.0</ele><time>2026-04-09T16:44:36.999Z</time></trkpt><trkpt lat="44.35477204911932" lon="7.785843997006904"><ele>491.20000000000005</ele><time>2026-04-09T16:44:37.999Z</time></trkpt><trkpt lat="44.3547214796381" lon="7.785740875411244"><ele>491.40000000000003</ele><time>2026-04-09T16:44:38.999Z</time></trkpt><trkpt lat="44.354662826833106" lon="7.785630017192682"><ele>491.6</ele><time>2026-04-09T16:44:39.999Z</time></trkpt><trkpt lat="44.3545863040223" lon="7.7855226195386615"><ele>491.8</ele><time>2026-04-09T16:44:40.999Z</time></trkpt><trkpt lat="44.35450697845516" lon="7.7854295272919884"><ele>492.0</ele><time>2026-04-09T16:44:41.999Z</time></trkpt><trkpt lat="44.35444426508158" lon="7.785325635850094"><ele>492.0</ele><time>2026-04-09T16:44:42.999Z</time></trkpt><trkpt lat="44.35438409291656" lon="7.785224199163302"><ele>492.00000000000006</ele><time>2026-04-09T16:44:43.999Z</time></trkpt><trkpt lat="44.35432978178954" lon="7.785106517162208"><ele>492.00000000000006</ele><time>2026-04-09T16:44:44.999Z</time></trkpt><trkpt lat="44.35427443753657" lon="7.784988719555949"><ele>492.0</ele><time>2026-04-09T16:44:45.999Z</time></trkpt><trkpt lat="44.3542336929288" lon="7.7849051678433785"><ele>492.0</ele><time>2026-04-09T16:44:46.999Z</time></trkpt><trkpt lat="44.354185779806684" lon="7.784809633570064"><ele>492.6</ele><time>2026-04-09T16:44:47.999Z</time></trkpt><trkpt lat="44.35413692196622" lon="7.784709071678147"><ele>493.20000000000005</ele><time>2026-04-09T16:44:48.999Z</time></trkpt><trkpt lat="44.35408516724602" lon="7.784604324652096"><ele>493.8</ele><time>2026-04-09T16:44:49.999Z</time></trkpt><trkpt lat="44.35403169744188" lon="7.784495355555214"><ele>494.4</ele><time>2026-04-09T16:44:50.999Z</time></trkpt><trkpt lat="44.35397505655751" lon="7.784379134313764"><ele>495.0</ele><time>2026-04-09T16:44:51.999Z</time></trkpt><trkpt lat="44.353911873770066" lon="7.784251538611921"><ele>494.8</ele><time>2026-04-09T16:44:52.999Z</time></trkpt><trkpt lat="44.35384978210435" lon="7.784120285842001"><ele>494.6</ele><time>2026-04-09T16:44:53.999Z</time></trkpt><trkpt lat="44.35379711570917" lon="7.784003498336096"><ele>494.4</ele><time>2026-04-09T16:44:54.999Z</time></trkpt><trkpt lat="44.35374323647619" lon="7.783879463935128"><ele>494.2</ele><time>2026-04-09T16:44:55.999Z</time></trkpt><trkpt lat="44.35369125205606" lon="7.7837779897927595"><ele>494.0</ele><time>2026-04-09T16:44:56.999Z</time></trkpt><trkpt lat="44.35363495477529" lon="7.783662762194896"><ele>494.6</ele><time>2026-04-09T16:44:57.999Z</time></trkpt><trkpt lat="44.35358612755429" lon="7.78351015788194"><ele>495.2</ele><time>2026-04-09T16:44:58.999Z</time></trkpt><trkpt lat="44.35352778100539" lon="7.783396273133923"><ele>495.80000000000007</ele><time>2026-04-09T16:44:59.999Z</time></trkpt><trkpt lat="44.3534673534951" lon="7.783264474022092"><ele>496.40000000000003</ele><time>2026-04-09T16:45:00.999Z</time></trkpt><trkpt lat="44.35340570665282" lon="7.78312750393204"><ele>497.0</ele><time>2026-04-09T16:45:01.999Z</time></trkpt><trkpt lat="44.353346798995105" lon="7.782995372387688"><ele>497.0</ele><time>2026-04-09T16:45:02.999Z</time></trkpt><trkpt lat="44.353290796471704" lon="7.782879281866583"><ele>497.00000000000006</ele><time>2026-04-09T16:45:03.999Z</time></trkpt><trkpt lat="44.35323853764634" lon="7.782764613464895"><ele>497.00000000000006</ele><time>2026-04-09T16:45:04.999Z</time></trkpt><trkpt lat="44.35317994487611" lon="7.782626244598815"><ele>497.0</ele><time>2026-04-09T16:45:05.999Z</time></trkpt><trkpt lat="44.3531219187353" lon="7.782506407123629"><ele>497.0</ele><time>2026-04-09T16:45:06.999Z</time></trkpt><trkpt lat="44.3530611972474" lon="7.782384043305383"><ele>497.40000000000003</ele><time>2026-04-09T16:45:07.999Z</time></trkpt><trkpt lat="44.35299610250035" lon="7.782248219333705"><ele>497.80000000000007</ele><time>2026-04-09T16:45:08.999Z</time></trkpt><trkpt lat="44.35293760235574" lon="7.7821257521693035"><ele>498.2</ele><time>2026-04-09T16:45:09.999Z</time></trkpt><trkpt lat="44.35288336161051" lon="7.782011648041937"><ele>498.6</ele><time>2026-04-09T16:45:10.999Z</time></trkpt><trkpt lat="44.35282298152058" lon="7.781893651394926"><ele>499.0</ele><time>2026-04-09T16:45:11.999Z</time></trkpt><trkpt lat="44.35276182533079" lon="7.781774057884859"><ele>499.2</ele><time>2026-04-09T16:45:12.999Z</time></trkpt><trkpt lat="44.352700039888504" lon="7.7816494074698"><ele>499.4</ele><time>2026-04-09T16:45:13.999Z</time></trkpt><trkpt lat="44.352642539880684" lon="7.781515086717242"><ele>499.6</ele><time>2026-04-09T16:45:14.999Z</time></trkpt><trkpt lat="44.352583945357566" lon="7.781381142871147"><ele>499.8</ele><time>2026-04-09T16:45:15.999Z</time></trkpt><trkpt lat="44.3525250900425" lon="7.781260159240091"><ele>500.0</ele><time>2026-04-09T16:45:16.999Z</time></trkpt><trkpt lat="44.35246781477601" lon="7.781122115442329"><ele>499.8</ele><time>2026-04-09T16:45:17.999Z</time></trkpt><trkpt lat="44.352412196863085" lon="7.7809939825932775"><ele>499.6</ele><time>2026-04-09T16:45:18.999Z</time></trkpt><trkpt lat="44.352357165815604" lon="7.780856862343315"><ele>499.4</ele><time>2026-04-09T16:45:19.999Z</time></trkpt><trkpt lat="44.35229469064251" lon="7.780726401902355"><ele>499.2</ele><time>2026-04-09T16:45:20.999Z</time></trkpt><trkpt lat="44.35223538788301" lon="7.780604279682916"><ele>499.0</ele><time>2026-04-09T16:45:21.999Z</time></trkpt><trkpt lat="44.35217584405379" lon="7.780478604264218"><ele>499.0</ele><time>2026-04-09T16:45:22.999Z</time></trkpt><trkpt lat="44.352119102598316" lon="7.78034947238353"><ele>499.0</ele><time>2026-04-09T16:45:23.998Z</time></trkpt><trkpt lat="44.35206154491355" lon="7.78020853400173"><ele>499.0</ele><time>2026-04-09T16:45:24.998Z</time></trkpt><trkpt lat="44.35200315461147" lon="7.780089467315299"><ele>499.0</ele><time>2026-04-09T16:45:25.998Z</time></trkpt><trkpt lat="44.35194704194667" lon="7.77996332098192"><ele>499.0</ele><time>2026-04-09T16:45:26.998Z</time></trkpt><trkpt lat="44.351885562448835" lon="7.779835068690628"><ele>498.79999999999995</ele><time>2026-04-09T16:45:27.998Z</time></trkpt><trkpt lat="44.351845886436415" lon="7.779685255230537"><ele>498.59999999999997</ele><time>2026-04-09T16:45:28.998Z</time></trkpt><trkpt lat="44.35179149067874" lon="7.77956342482553"><ele>498.4</ele><time>2026-04-09T16:45:29.998Z</time></trkpt><trkpt lat="44.351728532532235" lon="7.779433623196416"><ele>498.2</ele><time>2026-04-09T16:45:30.998Z</time></trkpt><trkpt lat="44.351666738959885" lon="7.7792978823126155"><ele>498.0</ele><time>2026-04-09T16:45:31.998Z</time></trkpt><trkpt lat="44.351607861031525" lon="7.779162921333044"><ele>497.75</ele><time>2026-04-09T16:45:32.998Z</time></trkpt><trkpt lat="44.351547982706485" lon="7.779023741955621"><ele>497.5</ele><time>2026-04-09T16:45:33.998Z</time></trkpt><trkpt lat="44.35149002106121" lon="7.778892080094892"><ele>497.25</ele><time>2026-04-09T16:45:34.998Z</time></trkpt><trkpt lat="44.35143040982082" lon="7.778766185728884"><ele>497.0</ele><time>2026-04-09T16:45:36Z</time></trkpt><trkpt lat="44.35137060958475" lon="7.778625901891611"><ele>497.5</ele><time>2026-04-09T16:45:37Z</time></trkpt><trkpt lat="44.35131124821315" lon="7.778492742327107"><ele>498.0</ele><time>2026-04-09T16:45:38Z</time></trkpt><trkpt lat="44.3512487417218" lon="7.778356259891573"><ele>498.5</ele><time>2026-04-09T16:45:39Z</time></trkpt><trkpt lat="44.35118373751243" lon="7.778220142970486"><ele>499.0</ele><time>2026-04-09T16:45:40Z</time></trkpt><trkpt lat="44.35112249260309" lon="7.7780809213995985"><ele>499.0</ele><time>2026-04-09T16:45:41Z</time></trkpt><trkpt lat="44.35105701837827" lon="7.777924203797068"><ele>499.0</ele><time>2026-04-09T16:45:42Z</time></trkpt><trkpt lat="44.35098032039178" lon="7.777758275398455"><ele>499.0</ele><time>2026-04-09T16:45:43Z</time></trkpt><trkpt lat="44.35091460338908" lon="7.777602895057772"><ele>499.0</ele><time>2026-04-09T16:45:44Z</time></trkpt><trkpt lat="44.350848692499994" lon="7.777443155753935"><ele>499.75</ele><time>2026-04-09T16:45:45Z</time></trkpt><trkpt lat="44.35077962515329" lon="7.777281816634771"><ele>500.5</ele><time>2026-04-09T16:45:46Z</time></trkpt><trkpt lat="44.3507157042537" lon="7.777132751800868"><ele>501.25</ele><time>2026-04-09T16:45:47Z</time></trkpt><trkpt lat="44.350654202151844" lon="7.776998708494832"><ele>502.0</ele><time>2026-04-09T16:45:48Z</time></trkpt><trkpt lat="44.35059866243914" lon="7.776873366755873"><ele>502.75</ele><time>2026-04-09T16:45:49Z</time></trkpt><trkpt lat="44.35054315916479" lon="7.7767357907718555"><ele>503.5</ele><time>2026-04-09T16:45:50Z</time></trkpt><trkpt lat="44.350480155356145" lon="7.776601743226898"><ele>504.25</ele><time>2026-04-09T16:45:51Z</time></trkpt><trkpt lat="44.35041729763497" lon="7.776468954911206"><ele>505.0</ele><time>2026-04-09T16:45:52Z</time></trkpt><trkpt lat="44.3503529264246" lon="7.776332265400315"><ele>505.0</ele><time>2026-04-09T16:45:53Z</time></trkpt><trkpt lat="44.35028895752214" lon="7.776195097670388"><ele>505.0</ele><time>2026-04-09T16:45:54Z</time></trkpt><trkpt lat="44.35022984150666" lon="7.776055831756659"><ele>505.0</ele><time>2026-04-09T16:45:55Z</time></trkpt><trkpt lat="44.350168439758" lon="7.775918268322229"><ele>505.0</ele><time>2026-04-09T16:45:56Z</time></trkpt><trkpt lat="44.35011032377466" lon="7.7757936431886465"><ele>504.8</ele><time>2026-04-09T16:45:57Z</time></trkpt><trkpt lat="44.3500536567299" lon="7.775657906032411"><ele>504.6</ele><time>2026-04-09T16:45:58Z</time></trkpt><trkpt lat="44.349997327387655" lon="7.775530184436411"><ele>504.4</ele><time>2026-04-09T16:45:59Z</time></trkpt><trkpt lat="44.349936228064614" lon="7.775406590473884"><ele>504.2</ele><time>2026-04-09T16:46:00Z</time></trkpt><trkpt lat="44.34988046814636" lon="7.775286344074206"><ele>504.0</ele><time>2026-04-09T16:46:01Z</time></trkpt><trkpt lat="44.349826192340835" lon="7.775154623990898"><ele>504.0</ele><time>2026-04-09T16:46:02Z</time></trkpt><trkpt lat="44.3497663004588" lon="7.7750250894574915"><ele>504.0</ele><time>2026-04-09T16:46:03Z</time></trkpt><trkpt lat="44.34971588726117" lon="7.774902762479263"><ele>504.0</ele><time>2026-04-09T16:46:04Z</time></trkpt><trkpt lat="44.349659229445855" lon="7.774773979880474"><ele>504.0</ele><time>2026-04-09T16:46:05Z</time></trkpt><trkpt lat="44.34960920320954" lon="7.774647790879502"><ele>504.0</ele><time>2026-04-09T16:46:06Z</time></trkpt><trkpt lat="44.3495564829298" lon="7.774535584107371"><ele>504.0</ele><time>2026-04-09T16:46:07Z</time></trkpt><trkpt lat="44.34950087836853" lon="7.774400688508108"><ele>504.0</ele><time>2026-04-09T16:46:08Z</time></trkpt><trkpt lat="44.34944397764099" lon="7.774277572079537"><ele>504.0</ele><time>2026-04-09T16:46:09Z</time></trkpt><trkpt lat="44.349383039611205" lon="7.774146354275016"><ele>504.0</ele><time>2026-04-09T16:46:10Z</time></trkpt><trkpt lat="44.34932632200554" lon="7.774015347967278"><ele>504.0</ele><time>2026-04-09T16:46:11Z</time></trkpt><trkpt lat="44.349277468302716" lon="7.7738989275139145"><ele>504.6666666666667</ele><time>2026-04-09T16:46:12Z</time></trkpt><trkpt lat="44.3492274568025" lon="7.773786421996137"><ele>505.33333333333337</ele><time>2026-04-09T16:46:13Z</time></trkpt><trkpt lat="44.34917997113052" lon="7.7736707479998906"><ele>506.0</ele><time>2026-04-09T16:46:14Z</time></trkpt><trkpt lat="44.349134580998225" lon="7.773549091248921"><ele>506.6666666666667</ele><time>2026-04-09T16:46:15Z</time></trkpt><trkpt lat="44.34909611110526" lon="7.7734531359840275"><ele>507.33333333333337</ele><time>2026-04-09T16:46:16Z</time></trkpt><trkpt lat="44.34905711384588" lon="7.773362462414798"><ele>508.0</ele><time>2026-04-09T16:46:17Z</time></trkpt><trkpt lat="44.34901957603659" lon="7.773272575579032"><ele>508.00000000000006</ele><time>2026-04-09T16:46:18Z</time></trkpt><trkpt lat="44.34898045314183" lon="7.773181271360748"><ele>508.0</ele><time>2026-04-09T16:46:19Z</time></trkpt><trkpt lat="44.348939926479915" lon="7.773088421067661"><ele>508.0</ele><time>2026-04-09T16:46:20Z</time></trkpt><trkpt lat="44.348883332972655" lon="7.772960714055149"><ele>508.0</ele><time>2026-04-09T16:46:22Z</time></trkpt><trkpt lat="44.348823262120355" lon="7.7728504822710835"><ele>508.00000000000006</ele><time>2026-04-09T16:46:23.999Z</time></trkpt><trkpt lat="44.34878375971885" lon="7.772741862138135"><ele>508.0</ele><time>2026-04-09T16:46:25.999Z</time></trkpt><trkpt lat="44.3487449706621" lon="7.772602150119614"><ele>508.14285714285717</ele><time>2026-04-09T16:46:27.999Z</time></trkpt><trkpt lat="44.34870591126551" lon="7.772523357749656"><ele>508.2857142857142</ele><time>2026-04-09T16:46:28.999Z</time></trkpt><trkpt lat="44.34865151984324" lon="7.772430801204613"><ele>508.4285714285714</ele><time>2026-04-09T16:46:29.999Z</time></trkpt><trkpt lat="44.34859721456193" lon="7.772366337200014"><ele>508.57142857142856</ele><time>2026-04-09T16:46:30.999Z</time></trkpt><trkpt lat="44.348557917117716" lon="7.772293034549842"><ele>508.71428571428567</ele><time>2026-04-09T16:46:31.999Z</time></trkpt><trkpt lat="44.3485106900831" lon="7.772215515344924"><ele>508.8571428571428</ele><time>2026-04-09T16:46:32.999Z</time></trkpt><trkpt lat="44.348464998050765" lon="7.772139543637456"><ele>508.99999999999994</ele><time>2026-04-09T16:46:33.999Z</time></trkpt><trkpt lat="44.3484094833415" lon="7.772033282592627"><ele>508.99999999999994</ele><time>2026-04-09T16:46:34.999Z</time></trkpt><trkpt lat="44.348349498055676" lon="7.771932945913127"><ele>509.0</ele><time>2026-04-09T16:46:35.999Z</time></trkpt><trkpt lat="44.348286687579915" lon="7.771847517958112"><ele>509.0</ele><time>2026-04-09T16:46:36.999Z</time></trkpt><trkpt lat="44.34823328867211" lon="7.771775809240131"><ele>509.0</ele><time>2026-04-09T16:46:37.999Z</time></trkpt><trkpt lat="44.34818093760302" lon="7.771700384545041"><ele>508.99999999999994</ele><time>2026-04-09T16:46:38.999Z</time></trkpt><trkpt lat="44.34814085061067" lon="7.771630111759704"><ele>509.0</ele><time>2026-04-09T16:46:39.999Z</time></trkpt><trkpt lat="44.348100232411646" lon="7.77154742132006"><ele>509.0</ele><time>2026-04-09T16:46:41.999Z</time></trkpt><trkpt lat="44.3480712315331" lon="7.771422059312605"><ele>509.0</ele><time>2026-04-09T16:46:49.999Z</time></trkpt><trkpt lat="44.3480201252744" lon="7.77128310411479"><ele>509.0</ele><time>2026-04-09T16:46:51.999Z</time></trkpt><trkpt lat="44.3479513686839" lon="7.771168539332152"><ele>509.0</ele><time>2026-04-09T16:46:53.999Z</time></trkpt><trkpt lat="44.34786699572067" lon="7.77106326079163"><ele>509.0</ele><time>2026-04-09T16:46:55.999Z</time></trkpt><trkpt lat="44.34781171315195" lon="7.770966044239422"><ele>509.79999999999995</ele><time>2026-04-09T16:46:57.999Z</time></trkpt><trkpt lat="44.34777519115997" lon="7.770836757751318"><ele>510.59999999999997</ele><time>2026-04-09T16:46:59.999Z</time></trkpt><trkpt lat="44.34775165347207" lon="7.7707303636013805"><ele>511.4</ele><time>2026-04-09T16:47:01.999Z</time></trkpt><trkpt lat="44.34773182025842" lon="7.770604227020973"><ele>512.1999999999999</ele><time>2026-04-09T16:47:03.999Z</time></trkpt><trkpt lat="44.34774925177329" lon="7.770443253259698"><ele>513.0</ele><time>2026-04-09T16:47:05.999Z</time></trkpt><trkpt lat="44.34776419267269" lon="7.770340525909884"><ele>513.0</ele><time>2026-04-09T16:47:06.999Z</time></trkpt><trkpt lat="44.347776865868575" lon="7.770222090274618"><ele>513.0</ele><time>2026-04-09T16:47:07.999Z</time></trkpt><trkpt lat="44.34779447463239" lon="7.770088979168242"><ele>513.0</ele><time>2026-04-09T16:47:08.999Z</time></trkpt><trkpt lat="44.347814679620974" lon="7.769955251595954"><ele>513.0</ele><time>2026-04-09T16:47:09.999Z</time></trkpt><trkpt lat="44.34783526489513" lon="7.769795667698878"><ele>513.0</ele><time>2026-04-09T16:47:10.999Z</time></trkpt><trkpt lat="44.34785468338652" lon="7.7696354398386696"><ele>513.6</ele><time>2026-04-09T16:47:11.999Z</time></trkpt><trkpt lat="44.34787431322857" lon="7.769494761749566"><ele>514.1999999999999</ele><time>2026-04-09T16:47:12.999Z</time></trkpt><trkpt lat="44.34789465081235" lon="7.769360744293719"><ele>514.8</ele><time>2026-04-09T16:47:13.999Z</time></trkpt><trkpt lat="44.347911934395206" lon="7.769226073636599"><ele>515.4</ele><time>2026-04-09T16:47:14.999Z</time></trkpt><trkpt lat="44.347929118083044" lon="7.769093724041615"><ele>516.0</ele><time>2026-04-09T16:47:15.999Z</time></trkpt><trkpt lat="44.347949460343294" lon="7.768961252859149"><ele>516.6</ele><time>2026-04-09T16:47:16.999Z</time></trkpt><trkpt lat="44.347973923797085" lon="7.768832763494169"><ele>517.2</ele><time>2026-04-09T16:47:17.999Z</time></trkpt><trkpt lat="44.347995393574124" lon="7.768686332568302"><ele>517.8</ele><time>2026-04-09T16:47:18.999Z</time></trkpt><trkpt lat="44.34801529632914" lon="7.768551106651873"><ele>518.4</ele><time>2026-04-09T16:47:19.999Z</time></trkpt><trkpt lat="44.348033353026615" lon="7.768405703516664"><ele>519.0</ele><time>2026-04-09T16:47:20.999Z</time></trkpt><trkpt lat="44.3480568931467" lon="7.768264884875611"><ele>520.2</ele><time>2026-04-09T16:47:21.999Z</time></trkpt><trkpt lat="44.34807354381882" lon="7.768128639263755"><ele>521.4</ele><time>2026-04-09T16:47:22.999Z</time></trkpt><trkpt lat="44.34809690086628" lon="7.768006615702192"><ele>522.6</ele><time>2026-04-09T16:47:23.999Z</time></trkpt><trkpt lat="44.348117518834755" lon="7.767878725331088"><ele>523.8</ele><time>2026-04-09T16:47:24.999Z</time></trkpt><trkpt lat="44.348138318339856" lon="7.767751270274064"><ele>525.0</ele><time>2026-04-09T16:47:25.999Z</time></trkpt><trkpt lat="44.34815710965747" lon="7.767643323120631"><ele>525.6666666666666</ele><time>2026-04-09T16:47:26.999Z</time></trkpt><trkpt lat="44.34817767184063" lon="7.767543083905359"><ele>526.3333333333334</ele><time>2026-04-09T16:47:27.999Z</time></trkpt><trkpt lat="44.3481921843144" lon="7.767448249119413"><ele>527.0</ele><time>2026-04-09T16:47:28.999Z</time></trkpt><trkpt lat="44.34824668948094" lon="7.767301431575148"><ele>527.6666666666667</ele><time>2026-04-09T16:47:30.998Z</time></trkpt><trkpt lat="44.34829399882215" lon="7.767239889587564"><ele>528.3333333333334</ele><time>2026-04-09T16:47:31.998Z</time></trkpt><trkpt lat="44.348355780703464" lon="7.767199376413448"><ele>529.0</ele><time>2026-04-09T16:47:32.998Z</time></trkpt><trkpt lat="44.34844022320414" lon="7.767098927126709"><ele>529.0</ele><time>2026-04-09T16:47:34.998Z</time></trkpt><trkpt lat="44.34846323161011" lon="7.766934029502101"><ele>529.0</ele><time>2026-04-09T16:47:36.998Z</time></trkpt><trkpt lat="44.348439658927106" lon="7.766838380595746"><ele>529.0</ele><time>2026-04-09T16:47:37.998Z</time></trkpt><trkpt lat="44.34841392519175" lon="7.766727351370359"><ele>529.0</ele><time>2026-04-09T16:47:38.998Z</time></trkpt><trkpt lat="44.34840735161675" lon="7.7665949861345505"><ele>529.0</ele><time>2026-04-09T16:47:39.998Z</time></trkpt><trkpt lat="44.348397771540135" lon="7.766468782804378"><ele>529.3333333333334</ele><time>2026-04-09T16:47:40.998Z</time></trkpt><trkpt lat="44.34839426923135" lon="7.76635512000101"><ele>529.6666666666667</ele><time>2026-04-09T16:47:42Z</time></trkpt><trkpt lat="44.34838872968194" lon="7.7662361928819035"><ele>530.0</ele><time>2026-04-09T16:47:43Z</time></trkpt><trkpt lat="44.34841127523521" lon="7.7661386455838075"><ele>530.3333333333334</ele><time>2026-04-09T16:47:44Z</time></trkpt><trkpt lat="44.348416872235966" lon="7.766045597068704"><ele>530.6666666666666</ele><time>2026-04-09T16:47:45Z</time></trkpt><trkpt lat="44.34843678864805" lon="7.765945080678996"><ele>531.0</ele><time>2026-04-09T16:47:46Z</time></trkpt><trkpt lat="44.348455393275586" lon="7.765825693547133"><ele>531.2</ele><time>2026-04-09T16:47:47Z</time></trkpt><trkpt lat="44.3484602086614" lon="7.76570107811728"><ele>531.4000000000001</ele><time>2026-04-09T16:47:48Z</time></trkpt><trkpt lat="44.3484973317526" lon="7.765559845095269"><ele>531.6</ele><time>2026-04-09T16:47:49Z</time></trkpt><trkpt lat="44.34851979374409" lon="7.765417560259526"><ele>531.8000000000001</ele><time>2026-04-09T16:47:50Z</time></trkpt><trkpt lat="44.34854624097459" lon="7.76526861536542"><ele>532.0</ele><time>2026-04-09T16:47:51Z</time></trkpt><trkpt lat="44.348573555181034" lon="7.765116865271187"><ele>532.0</ele><time>2026-04-09T16:47:52Z</time></trkpt><trkpt lat="44.34859480269253" lon="7.764972326959795"><ele>532.0</ele><time>2026-04-09T16:47:53Z</time></trkpt><trkpt lat="44.34861180077243" lon="7.764842240373121"><ele>532.0</ele><time>2026-04-09T16:47:54Z</time></trkpt><trkpt lat="44.34863135147382" lon="7.764700001501245"><ele>532.0</ele><time>2026-04-09T16:47:55Z</time></trkpt><trkpt lat="44.34865610533083" lon="7.764557381270352"><ele>532.0</ele><time>2026-04-09T16:47:56Z</time></trkpt><trkpt lat="44.3486726376979" lon="7.764412771469388"><ele>532.4</ele><time>2026-04-09T16:47:57Z</time></trkpt><trkpt lat="44.3486979135037" lon="7.764268245005812"><ele>532.8000000000001</ele><time>2026-04-09T16:47:58Z</time></trkpt><trkpt lat="44.348726873975174" lon="7.764124090382174"><ele>533.2</ele><time>2026-04-09T16:47:59Z</time></trkpt><trkpt lat="44.34874152776567" lon="7.763977661951911"><ele>533.6</ele><time>2026-04-09T16:48:00Z</time></trkpt><trkpt lat="44.348751406042894" lon="7.763846144131102"><ele>534.0</ele><time>2026-04-09T16:48:01Z</time></trkpt><trkpt lat="44.348760175943866" lon="7.763706792673124"><ele>534.0</ele><time>2026-04-09T16:48:02Z</time></trkpt><trkpt lat="44.34875796542574" lon="7.763572330622803"><ele>534.0</ele><time>2026-04-09T16:48:03Z</time></trkpt><trkpt lat="44.3487448276983" lon="7.763442357779371"><ele>534.0</ele><time>2026-04-09T16:48:04Z</time></trkpt><trkpt lat="44.348758838552044" lon="7.763272717330318"><ele>534.0</ele><time>2026-04-09T16:48:05Z</time></trkpt><trkpt lat="44.34874089098723" lon="7.7631201542016655"><ele>534.0</ele><time>2026-04-09T16:48:06Z</time></trkpt><trkpt lat="44.34871969195804" lon="7.762976677751102"><ele>534.5</ele><time>2026-04-09T16:48:07Z</time></trkpt><trkpt lat="44.34869081473695" lon="7.762832130680786"><ele>535.0</ele><time>2026-04-09T16:48:08Z</time></trkpt><trkpt lat="44.34865028225962" lon="7.762684403917754"><ele>535.5</ele><time>2026-04-09T16:48:09Z</time></trkpt><trkpt lat="44.3486019670149" lon="7.762538105636165"><ele>536.0</ele><time>2026-04-09T16:48:10Z</time></trkpt><trkpt lat="44.348550895193924" lon="7.762388336869225"><ele>537.0</ele><time>2026-04-09T16:48:11Z</time></trkpt><trkpt lat="44.34849240943668" lon="7.76225285084588"><ele>538.0</ele><time>2026-04-09T16:48:12Z</time></trkpt><trkpt lat="44.348423453766806" lon="7.762111547325142"><ele>539.0</ele><time>2026-04-09T16:48:13Z</time></trkpt><trkpt lat="44.348356672228014" lon="7.761977973864773"><ele>540.0</ele><time>2026-04-09T16:48:14Z</time></trkpt><trkpt lat="44.3482796735834" lon="7.761851810266187"><ele>540.6</ele><time>2026-04-09T16:48:15Z</time></trkpt><trkpt lat="44.348194030798716" lon="7.761750755215881"><ele>541.2</ele><time>2026-04-09T16:48:16Z</time></trkpt><trkpt lat="44.34811628615626" lon="7.761652523629518"><ele>541.8</ele><time>2026-04-09T16:48:17Z</time></trkpt><trkpt lat="44.348037672696286" lon="7.76157788853728"><ele>542.4</ele><time>2026-04-09T16:48:18Z</time></trkpt><trkpt lat="44.3479496848304" lon="7.7614890901003015"><ele>543.0</ele><time>2026-04-09T16:48:19Z</time></trkpt><trkpt lat="44.34786281269177" lon="7.761399362890106"><ele>543.0</ele><time>2026-04-09T16:48:20Z</time></trkpt><trkpt lat="44.347772059024614" lon="7.761300858453673"><ele>543.0</ele><time>2026-04-09T16:48:21Z</time></trkpt><trkpt lat="44.34768231040867" lon="7.761199493225408"><ele>543.0</ele><time>2026-04-09T16:48:22Z</time></trkpt><trkpt lat="44.347590711540875" lon="7.761103475332423"><ele>543.0</ele><time>2026-04-09T16:48:23Z</time></trkpt><trkpt lat="44.347499270759826" lon="7.76101217798991"><ele>543.5</ele><time>2026-04-09T16:48:24Z</time></trkpt><trkpt lat="44.347407296994724" lon="7.760917419833119"><ele>544.0</ele><time>2026-04-09T16:48:25Z</time></trkpt><trkpt lat="44.34731477245026" lon="7.760821226424743"><ele>544.5</ele><time>2026-04-09T16:48:26Z</time></trkpt><trkpt lat="44.34722358820854" lon="7.760723335814045"><ele>545.0</ele><time>2026-04-09T16:48:27Z</time></trkpt><trkpt lat="44.34713166423318" lon="7.760631528025999"><ele>545.0</ele><time>2026-04-09T16:48:28Z</time></trkpt><trkpt lat="44.34704126571623" lon="7.760541941411894"><ele>545.0</ele><time>2026-04-09T16:48:29Z</time></trkpt><trkpt lat="44.34695235931015" lon="7.760452352017511"><ele>545.0</ele><time>2026-04-09T16:48:29.999Z</time></trkpt><trkpt lat="44.34686112379736" lon="7.7603623814998715"><ele>545.0</ele><time>2026-04-09T16:48:30.999Z</time></trkpt><trkpt lat="44.34677614989491" lon="7.76027050903395"><ele>545.0</ele><time>2026-04-09T16:48:31.999Z</time></trkpt><trkpt lat="44.34668411515688" lon="7.760178244697573"><ele>545.0</ele><time>2026-04-09T16:48:32.999Z</time></trkpt><trkpt lat="44.346594052738716" lon="7.760081923531547"><ele>545.0</ele><time>2026-04-09T16:48:33.999Z</time></trkpt><trkpt lat="44.34651079130673" lon="7.759985920193391"><ele>545.0</ele><time>2026-04-09T16:48:34.999Z</time></trkpt><trkpt lat="44.34643885481559" lon="7.759872216394272"><ele>545.0</ele><time>2026-04-09T16:48:35.999Z</time></trkpt><trkpt lat="44.34637409407505" lon="7.7597554016889365"><ele>545.0</ele><time>2026-04-09T16:48:36.999Z</time></trkpt><trkpt lat="44.34631468603354" lon="7.75962387519994"><ele>548.0</ele><time>2026-04-09T16:48:37.999Z</time></trkpt><trkpt lat="44.34627005664617" lon="7.75948824155889"><ele>551.0</ele><time>2026-04-09T16:48:38.999Z</time></trkpt><trkpt lat="44.34624172354977" lon="7.759334307057842"><ele>554.0</ele><time>2026-04-09T16:48:39.999Z</time></trkpt><trkpt lat="44.34622427485428" lon="7.759184785832189"><ele>557.0</ele><time>2026-04-09T16:48:40.999Z</time></trkpt><trkpt lat="44.34621800801022" lon="7.759028984524891"><ele>560.0</ele><time>2026-04-09T16:48:41.999Z</time></trkpt><trkpt lat="44.346226146484284" lon="7.758882173656601"><ele>561.0</ele><time>2026-04-09T16:48:42.999Z</time></trkpt><trkpt lat="44.34623704223619" lon="7.758710918919274"><ele>562.0</ele><time>2026-04-09T16:48:43.999Z</time></trkpt><trkpt lat="44.34624699731598" lon="7.758532346487689"><ele>563.0</ele><time>2026-04-09T16:48:44.999Z</time></trkpt><trkpt lat="44.346251013247105" lon="7.758347487898528"><ele>564.0</ele><time>2026-04-09T16:48:45.999Z</time></trkpt><trkpt lat="44.34626064978236" lon="7.758151741047394"><ele>564.75</ele><time>2026-04-09T16:48:46.999Z</time></trkpt><trkpt lat="44.34626697520238" lon="7.757956291498627"><ele>565.5</ele><time>2026-04-09T16:48:47.999Z</time></trkpt><trkpt lat="44.34627577684602" lon="7.75775976444851"><ele>566.25</ele><time>2026-04-09T16:48:48.999Z</time></trkpt><trkpt lat="44.34628933677569" lon="7.7575542617884965"><ele>567.0</ele><time>2026-04-09T16:48:49.999Z</time></trkpt><trkpt lat="44.346287790361245" lon="7.757351661157827"><ele>568.25</ele><time>2026-04-09T16:48:50.999Z</time></trkpt><trkpt lat="44.346290208952965" lon="7.7571668944108465"><ele>569.5</ele><time>2026-04-09T16:48:51.999Z</time></trkpt><trkpt lat="44.34629921436311" lon="7.756973532308377"><ele>570.75</ele><time>2026-04-09T16:48:52.999Z</time></trkpt><trkpt lat="44.34630589903584" lon="7.756776861929487"><ele>572.0</ele><time>2026-04-09T16:48:53.999Z</time></trkpt><trkpt lat="44.34631400955467" lon="7.756585248903658"><ele>572.0</ele><time>2026-04-09T16:48:54.999Z</time></trkpt><trkpt lat="44.346333180958176" lon="7.756386857011142"><ele>572.0</ele><time>2026-04-09T16:48:55.999Z</time></trkpt><trkpt lat="44.34634458877331" lon="7.756192512443727"><ele>572.0</ele><time>2026-04-09T16:48:56.999Z</time></trkpt><trkpt lat="44.3463562947958" lon="7.756003438083278"><ele>572.0</ele><time>2026-04-09T16:48:57.999Z</time></trkpt><trkpt lat="44.34636904714937" lon="7.755810512314481"><ele>569.75</ele><time>2026-04-09T16:48:58.999Z</time></trkpt><trkpt lat="44.34638011677103" lon="7.7556161285047684"><ele>567.5</ele><time>2026-04-09T16:48:59.999Z</time></trkpt><trkpt lat="44.34639354095489" lon="7.75541870836357"><ele>565.25</ele><time>2026-04-09T16:49:00.999Z</time></trkpt><trkpt lat="44.34640819343078" lon="7.755226657556438"><ele>563.0</ele><time>2026-04-09T16:49:01.999Z</time></trkpt><trkpt lat="44.346424527624" lon="7.755035748424106"><ele>563.0</ele><time>2026-04-09T16:49:02.999Z</time></trkpt><trkpt lat="44.34643845178335" lon="7.754853307675254"><ele>563.0</ele><time>2026-04-09T16:49:03.999Z</time></trkpt><trkpt lat="44.34645886908931" lon="7.754682199739752"><ele>563.0</ele><time>2026-04-09T16:49:04.999Z</time></trkpt><trkpt lat="44.346471621293944" lon="7.754498176373223"><ele>563.0</ele><time>2026-04-09T16:49:05.999Z</time></trkpt><trkpt lat="44.346488788883896" lon="7.754325600900918"><ele>563.5</ele><time>2026-04-09T16:49:06.999Z</time></trkpt><trkpt lat="44.34649854131536" lon="7.75416650101469"><ele>564.0</ele><time>2026-04-09T16:49:07.999Z</time></trkpt><trkpt lat="44.34651434290949" lon="7.753986353508538"><ele>564.5</ele><time>2026-04-09T16:49:08.999Z</time></trkpt><trkpt lat="44.34653058720659" lon="7.753811816293488"><ele>565.0</ele><time>2026-04-09T16:49:09.999Z</time></trkpt><trkpt lat="44.34654705523904" lon="7.753636307197294"><ele>565.75</ele><time>2026-04-09T16:49:10.999Z</time></trkpt><trkpt lat="44.34656436834276" lon="7.7534507903357115"><ele>566.5</ele><time>2026-04-09T16:49:11.999Z</time></trkpt><trkpt lat="44.346561637848964" lon="7.753281478386749"><ele>567.25</ele><time>2026-04-09T16:49:12.999Z</time></trkpt><trkpt lat="44.34654478584851" lon="7.753108718647314"><ele>568.0</ele><time>2026-04-09T16:49:13.999Z</time></trkpt><trkpt lat="44.34652011033748" lon="7.752943950403462"><ele>568.0</ele><time>2026-04-09T16:49:14.999Z</time></trkpt><trkpt lat="44.34649774349191" lon="7.752787986322942"><ele>568.0</ele><time>2026-04-09T16:49:15.999Z</time></trkpt><trkpt lat="44.34648627885969" lon="7.752635562744742"><ele>568.0</ele><time>2026-04-09T16:49:16.999Z</time></trkpt><trkpt lat="44.34646375157805" lon="7.752491089627319"><ele>568.0</ele><time>2026-04-09T16:49:17.999Z</time></trkpt><trkpt lat="44.3464476027441" lon="7.752359645346519"><ele>568.0</ele><time>2026-04-09T16:49:18.999Z</time></trkpt><trkpt lat="44.34644094790446" lon="7.752237556708646"><ele>568.1999999999999</ele><time>2026-04-09T16:49:19.999Z</time></trkpt><trkpt lat="44.34639110202537" lon="7.7521016736858925"><ele>568.4</ele><time>2026-04-09T16:49:20.999Z</time></trkpt><trkpt lat="44.346352737714774" lon="7.751992870283406"><ele>568.5999999999999</ele><time>2026-04-09T16:49:21.999Z</time></trkpt><trkpt lat="44.34631913249594" lon="7.751878830491106"><ele>568.8</ele><time>2026-04-09T16:49:22.999Z</time></trkpt><trkpt lat="44.346297203553625" lon="7.751764331871209"><ele>569.0</ele><time>2026-04-09T16:49:23.999Z</time></trkpt><trkpt lat="44.34627895058431" lon="7.751636178916084"><ele>572.4</ele><time>2026-04-09T16:49:24.999Z</time></trkpt><trkpt lat="44.346257614053634" lon="7.751491892544766"><ele>575.8</ele><time>2026-04-09T16:49:25.999Z</time></trkpt><trkpt lat="44.34623456219295" lon="7.751342143463379"><ele>579.2</ele><time>2026-04-09T16:49:26.999Z</time></trkpt><trkpt lat="44.34620815210038" lon="7.751187844081537"><ele>582.6</ele><time>2026-04-09T16:49:27.999Z</time></trkpt><trkpt lat="44.34618109015149" lon="7.751047592888338"><ele>586.0</ele><time>2026-04-09T16:49:28.999Z</time></trkpt><trkpt lat="44.34615179821361" lon="7.750910374489913"><ele>586.2</ele><time>2026-04-09T16:49:29.999Z</time></trkpt><trkpt lat="44.34610236873785" lon="7.750782935144094"><ele>586.4000000000001</ele><time>2026-04-09T16:49:30.999Z</time></trkpt><trkpt lat="44.34606368830271" lon="7.750648238631314"><ele>586.6</ele><time>2026-04-09T16:49:31.999Z</time></trkpt><trkpt lat="44.34602306007984" lon="7.750521494611004"><ele>586.8000000000001</ele><time>2026-04-09T16:49:32.999Z</time></trkpt><trkpt lat="44.34599215694339" lon="7.7503861362783075"><ele>587.0</ele><time>2026-04-09T16:49:33.999Z</time></trkpt><trkpt lat="44.3459722612336" lon="7.750236252672945"><ele>586.0</ele><time>2026-04-09T16:49:34.998Z</time></trkpt><trkpt lat="44.345962731628234" lon="7.750080309910536"><ele>585.0</ele><time>2026-04-09T16:49:35.998Z</time></trkpt><trkpt lat="44.345961474013336" lon="7.749914920942993"><ele>584.0</ele><time>2026-04-09T16:49:36.998Z</time></trkpt><trkpt lat="44.34596248319135" lon="7.749743140193766"><ele>583.0</ele><time>2026-04-09T16:49:37.998Z</time></trkpt><trkpt lat="44.34596215766995" lon="7.7495691920007275"><ele>583.0</ele><time>2026-04-09T16:49:38.998Z</time></trkpt><trkpt lat="44.345953733285114" lon="7.74941130102293"><ele>583.0</ele><time>2026-04-09T16:49:39.998Z</time></trkpt><trkpt lat="44.345944331037586" lon="7.749258245787627"><ele>583.0</ele><time>2026-04-09T16:49:40.998Z</time></trkpt><trkpt lat="44.34592053780431" lon="7.749112435774177"><ele>583.0</ele><time>2026-04-09T16:49:41.998Z</time></trkpt><trkpt lat="44.345879835062924" lon="7.748974920722013"><ele>583.0</ele><time>2026-04-09T16:49:42.998Z</time></trkpt><trkpt lat="44.345845661807026" lon="7.748854600874189"><ele>584.1666666666667</ele><time>2026-04-09T16:49:43.998Z</time></trkpt><trkpt lat="44.34581626515219" lon="7.748744914289426"><ele>585.3333333333334</ele><time>2026-04-09T16:49:44.998Z</time></trkpt><trkpt lat="44.34578193322922" lon="7.748640645357182"><ele>586.5</ele><time>2026-04-09T16:49:45.998Z</time></trkpt><trkpt lat="44.34573401997969" lon="7.748551857624382"><ele>587.6666666666666</ele><time>2026-04-09T16:49:46.998Z</time></trkpt><trkpt lat="44.34570172856854" lon="7.748431537023039"><ele>588.8333333333333</ele><time>2026-04-09T16:49:48Z</time></trkpt><trkpt lat="44.34564626792572" lon="7.748321975347241"><ele>590.0</ele><time>2026-04-09T16:49:49Z</time></trkpt><trkpt lat="44.345572596810605" lon="7.748221804578449"><ele>590.4</ele><time>2026-04-09T16:49:50Z</time></trkpt><trkpt lat="44.34552909164586" lon="7.748096759586514"><ele>590.8</ele><time>2026-04-09T16:49:51Z</time></trkpt><trkpt lat="44.345467276417835" lon="7.747997359453641"><ele>591.2</ele><time>2026-04-09T16:49:52Z</time></trkpt><trkpt lat="44.345420008668235" lon="7.747866787962954"><ele>591.6</ele><time>2026-04-09T16:49:53Z</time></trkpt><trkpt lat="44.345375609237" lon="7.747732102445986"><ele>592.0</ele><time>2026-04-09T16:49:54Z</time></trkpt><trkpt lat="44.34532104176918" lon="7.747573989465926"><ele>592.0</ele><time>2026-04-09T16:49:55Z</time></trkpt><trkpt lat="44.34525798935736" lon="7.747440977290495"><ele>592.0</ele><time>2026-04-09T16:49:56Z</time></trkpt><trkpt lat="44.3452032040943" lon="7.747306182508462"><ele>592.0</ele><time>2026-04-09T16:49:57Z</time></trkpt><trkpt lat="44.345154949245654" lon="7.747179029850945"><ele>592.0</ele><time>2026-04-09T16:49:58Z</time></trkpt><trkpt lat="44.34510560534151" lon="7.747062196841191"><ele>592.0</ele><time>2026-04-09T16:49:59Z</time></trkpt><trkpt lat="44.34507436777261" lon="7.746939914004413"><ele>591.8000000000001</ele><time>2026-04-09T16:50:00Z</time></trkpt><trkpt lat="44.34505514515003" lon="7.746800864782264"><ele>591.6</ele><time>2026-04-09T16:50:01Z</time></trkpt><trkpt lat="44.34504607134662" lon="7.74665328490661"><ele>591.4000000000001</ele><time>2026-04-09T16:50:02Z</time></trkpt><trkpt lat="44.345040301441784" lon="7.74652074924837"><ele>591.2</ele><time>2026-04-09T16:50:03Z</time></trkpt><trkpt lat="44.34503448707828" lon="7.74638508523606"><ele>591.0</ele><time>2026-04-09T16:50:04Z</time></trkpt><trkpt lat="44.3450208927602" lon="7.746250286415787"><ele>591.0</ele><time>2026-04-09T16:50:05Z</time></trkpt><trkpt lat="44.34500912481814" lon="7.746134711853563"><ele>591.0</ele><time>2026-04-09T16:50:06Z</time></trkpt><trkpt lat="44.344980789385005" lon="7.746008858760058"><ele>591.0</ele><time>2026-04-09T16:50:07Z</time></trkpt><trkpt lat="44.34494471400257" lon="7.745874084127243"><ele>591.0</ele><time>2026-04-09T16:50:08Z</time></trkpt><trkpt lat="44.34488585134636" lon="7.745731834382766"><ele>591.0</ele><time>2026-04-09T16:50:09Z</time></trkpt><trkpt lat="44.34482970831505" lon="7.745594218688296"><ele>591.0</ele><time>2026-04-09T16:50:10Z</time></trkpt><trkpt lat="44.34476618979736" lon="7.745454755740274"><ele>591.0</ele><time>2026-04-09T16:50:11Z</time></trkpt><trkpt lat="44.34469717140838" lon="7.7453159457990335"><ele>591.0</ele><time>2026-04-09T16:50:12Z</time></trkpt><trkpt lat="44.34462375438222" lon="7.745190099225166"><ele>591.0</ele><time>2026-04-09T16:50:13Z</time></trkpt><trkpt lat="44.34455508922575" lon="7.745061888182747"><ele>591.0</ele><time>2026-04-09T16:50:14Z</time></trkpt><trkpt lat="44.344484686647995" lon="7.744936972145409"><ele>591.0</ele><time>2026-04-09T16:50:15Z</time></trkpt><trkpt lat="44.34441266681889" lon="7.744804208187066"><ele>591.0</ele><time>2026-04-09T16:50:16Z</time></trkpt><trkpt lat="44.34434864640489" lon="7.744664671517851"><ele>591.0</ele><time>2026-04-09T16:50:17Z</time></trkpt><trkpt lat="44.34428887092145" lon="7.7445182276337405"><ele>591.0</ele><time>2026-04-09T16:50:18Z</time></trkpt><trkpt lat="44.344233598229174" lon="7.744385930729392"><ele>591.0</ele><time>2026-04-09T16:50:19Z</time></trkpt><trkpt lat="44.34418393058649" lon="7.744241003186782"><ele>591.0</ele><time>2026-04-09T16:50:20Z</time></trkpt><trkpt lat="44.34413516806532" lon="7.744092627622229"><ele>591.0</ele><time>2026-04-09T16:50:21Z</time></trkpt><trkpt lat="44.34409120945333" lon="7.743953188584636"><ele>590.6666666666666</ele><time>2026-04-09T16:50:22Z</time></trkpt><trkpt lat="44.34405181807771" lon="7.743822891858543"><ele>590.3333333333334</ele><time>2026-04-09T16:50:23Z</time></trkpt><trkpt lat="44.34403083726233" lon="7.7436954234728645"><ele>590.0</ele><time>2026-04-09T16:50:24Z</time></trkpt><trkpt lat="44.34400297009162" lon="7.743586462750447"><ele>589.6666666666667</ele><time>2026-04-09T16:50:25Z</time></trkpt><trkpt lat="44.34397585971623" lon="7.743472543228513"><ele>589.3333333333334</ele><time>2026-04-09T16:50:26Z</time></trkpt><trkpt lat="44.34395488528931" lon="7.7433715961542005"><ele>589.0</ele><time>2026-04-09T16:50:27Z</time></trkpt><trkpt lat="44.34393383795635" lon="7.743256532467868"><ele>589.0</ele><time>2026-04-09T16:50:28Z</time></trkpt><trkpt lat="44.34391489403212" lon="7.74313669332646"><ele>589.0</ele><time>2026-04-09T16:50:29Z</time></trkpt><trkpt lat="44.343883613477495" lon="7.743023200212927"><ele>589.0</ele><time>2026-04-09T16:50:30Z</time></trkpt><trkpt lat="44.34386939713533" lon="7.742899471813684"><ele>589.0</ele><time>2026-04-09T16:50:31Z</time></trkpt><trkpt lat="44.34385389487297" lon="7.742773372570252"><ele>589.0</ele><time>2026-04-09T16:50:32Z</time></trkpt><trkpt lat="44.343841797674806" lon="7.742655779115656"><ele>589.0</ele><time>2026-04-09T16:50:33Z</time></trkpt><trkpt lat="44.3438320479112" lon="7.742556651444386"><ele>590.4</ele><time>2026-04-09T16:50:33.999Z</time></trkpt><trkpt lat="44.34381908492768" lon="7.742454315406165"><ele>591.8</ele><time>2026-04-09T16:50:34.999Z</time></trkpt><trkpt lat="44.34380053047944" lon="7.742339532614216"><ele>593.2</ele><time>2026-04-09T16:50:35.999Z</time></trkpt><trkpt lat="44.34376698946034" lon="7.742221309866489"><ele>594.6</ele><time>2026-04-09T16:50:36.999Z</time></trkpt><trkpt lat="44.343711164547756" lon="7.742087561348545"><ele>596.0</ele><time>2026-04-09T16:50:37.999Z</time></trkpt><trkpt lat="44.34365268688697" lon="7.741973942047987"><ele>595.1666666666666</ele><time>2026-04-09T16:50:38.999Z</time></trkpt><trkpt lat="44.34359904423843" lon="7.741864319778816"><ele>594.3333333333333</ele><time>2026-04-09T16:50:39.999Z</time></trkpt><trkpt lat="44.34354902796504" lon="7.741764384009666"><ele>593.5</ele><time>2026-04-09T16:50:40.999Z</time></trkpt><trkpt lat="44.34350433072967" lon="7.741676705827272"><ele>592.6666666666666</ele><time>2026-04-09T16:50:41.999Z</time></trkpt><trkpt lat="44.34346254749442" lon="7.741606264148849"><ele>591.8333333333334</ele><time>2026-04-09T16:50:42.999Z</time></trkpt><trkpt lat="44.34341348118341" lon="7.741495004759675"><ele>591.0</ele><time>2026-04-09T16:50:44.999Z</time></trkpt><trkpt lat="44.34336381812449" lon="7.7414156899306"><ele>591.0</ele><time>2026-04-09T16:50:46.999Z</time></trkpt><trkpt lat="44.343255821256285" lon="7.741343531894808"><ele>591.0</ele><time>2026-04-09T16:50:48.999Z</time></trkpt><trkpt lat="44.34318385629356" lon="7.741353270210385"><ele>591.0</ele><time>2026-04-09T16:50:49.999Z</time></trkpt><trkpt lat="44.343100470849215" lon="7.741343356577333"><ele>591.0</ele><time>2026-04-09T16:50:50.999Z</time></trkpt><trkpt lat="44.34300890906483" lon="7.741341775598405"><ele>591.0</ele><time>2026-04-09T16:50:51.999Z</time></trkpt><trkpt lat="44.34290421053649" lon="7.741335349872898"><ele>591.8333333333334</ele><time>2026-04-09T16:50:52.999Z</time></trkpt><trkpt lat="44.34280456926424" lon="7.741331800419409"><ele>592.6666666666666</ele><time>2026-04-09T16:50:53.999Z</time></trkpt><trkpt lat="44.34271049376399" lon="7.741335295003936"><ele>593.5</ele><time>2026-04-09T16:50:54.999Z</time></trkpt><trkpt lat="44.342625680341776" lon="7.741345128353557"><ele>594.3333333333333</ele><time>2026-04-09T16:50:55.999Z</time></trkpt><trkpt lat="44.34254030700292" lon="7.741347982401859"><ele>595.1666666666666</ele><time>2026-04-09T16:50:56.999Z</time></trkpt><trkpt lat="44.34246369145491" lon="7.74136351308565"><ele>596.0</ele><time>2026-04-09T16:50:57.999Z</time></trkpt><trkpt lat="44.342389757709256" lon="7.741382943949533"><ele>596.0</ele><time>2026-04-09T16:50:58.999Z</time></trkpt><trkpt lat="44.34231709223314" lon="7.741391411560258"><ele>596.0</ele><time>2026-04-09T16:50:59.999Z</time></trkpt><trkpt lat="44.34224284668114" lon="7.741408128138481"><ele>596.0</ele><time>2026-04-09T16:51:00.999Z</time></trkpt><trkpt lat="44.34217104396674" lon="7.7414038424264175"><ele>596.0</ele><time>2026-04-09T16:51:01.999Z</time></trkpt><trkpt lat="44.34210582359711" lon="7.7413971115846545"><ele>596.0</ele><time>2026-04-09T16:51:02.999Z</time></trkpt><trkpt lat="44.34204086525187" lon="7.741377256687346"><ele>596.0</ele><time>2026-04-09T16:51:03.999Z</time></trkpt><trkpt lat="44.34198189350605" lon="7.741343187182833"><ele>596.0</ele><time>2026-04-09T16:51:04.999Z</time></trkpt><trkpt lat="44.341916715226" lon="7.741302360442592"><ele>595.6666666666666</ele><time>2026-04-09T16:51:05.999Z</time></trkpt><trkpt lat="44.34185547843558" lon="7.741241668814153"><ele>595.3333333333333</ele><time>2026-04-09T16:51:06.999Z</time></trkpt><trkpt lat="44.34178826134145" lon="7.741199250641476"><ele>595.0</ele><time>2026-04-09T16:51:07.999Z</time></trkpt><trkpt lat="44.34167441942995" lon="7.741119267986226"><ele>594.6666666666666</ele><time>2026-04-09T16:51:09.999Z</time></trkpt><trkpt lat="44.34159952049333" lon="7.741083593058296"><ele>594.3333333333334</ele><time>2026-04-09T16:51:10.999Z</time></trkpt><trkpt lat="44.341520223878106" lon="7.741063560397058"><ele>594.0</ele><time>2026-04-09T16:51:11.999Z</time></trkpt><trkpt lat="44.341424309766076" lon="7.7410495791713005"><ele>593.8</ele><time>2026-04-09T16:51:12.999Z</time></trkpt><trkpt lat="44.341315947261165" lon="7.741023481653718"><ele>593.5999999999999</ele><time>2026-04-09T16:51:13.999Z</time></trkpt><trkpt lat="44.34119903249801" lon="7.740998154966599"><ele>593.4</ele><time>2026-04-09T16:51:14.999Z</time></trkpt><trkpt lat="44.34109026584199" lon="7.740984827969773"><ele>593.1999999999999</ele><time>2026-04-09T16:51:15.999Z</time></trkpt><trkpt lat="44.34098493291025" lon="7.740997766562161"><ele>593.0</ele><time>2026-04-09T16:51:16.999Z</time></trkpt><trkpt lat="44.340871261005645" lon="7.740970740518183"><ele>593.0</ele><time>2026-04-09T16:51:17.999Z</time></trkpt><trkpt lat="44.34076793469728" lon="7.74091568040656"><ele>593.0</ele><time>2026-04-09T16:51:18.999Z</time></trkpt><trkpt lat="44.34065784054317" lon="7.740868025206132"><ele>593.0</ele><time>2026-04-09T16:51:19.999Z</time></trkpt><trkpt lat="44.3405341685926" lon="7.740810600693527"><ele>593.0</ele><time>2026-04-09T16:51:20.999Z</time></trkpt><trkpt lat="44.34041027282338" lon="7.74074943105124"><ele>593.75</ele><time>2026-04-09T16:51:21.999Z</time></trkpt><trkpt lat="44.340283084383664" lon="7.740694947993799"><ele>594.5</ele><time>2026-04-09T16:51:22.999Z</time></trkpt><trkpt lat="44.34013883450228" lon="7.740635455442311"><ele>595.25</ele><time>2026-04-09T16:51:23.999Z</time></trkpt><trkpt lat="44.340005738766884" lon="7.740571778029658"><ele>596.0</ele><time>2026-04-09T16:51:24.999Z</time></trkpt><trkpt lat="44.339868746684495" lon="7.740545406417917"><ele>596.0</ele><time>2026-04-09T16:51:25.999Z</time></trkpt><trkpt lat="44.33975417507084" lon="7.74050360639814"><ele>596.0</ele><time>2026-04-09T16:51:26.999Z</time></trkpt><trkpt lat="44.33964807801109" lon="7.740463394645201"><ele>596.0</ele><time>2026-04-09T16:51:27.999Z</time></trkpt><trkpt lat="44.3395581484354" lon="7.740421371974261"><ele>596.0</ele><time>2026-04-09T16:51:28.999Z</time></trkpt><trkpt lat="44.33944443778629" lon="7.740364457457126"><ele>596.0</ele><time>2026-04-09T16:51:29.999Z</time></trkpt><trkpt lat="44.33933345171154" lon="7.740293858305928"><ele>597.4</ele><time>2026-04-09T16:51:30.999Z</time></trkpt><trkpt lat="44.33924497104007" lon="7.740218005424137"><ele>598.8</ele><time>2026-04-09T16:51:31.999Z</time></trkpt><trkpt lat="44.3391601012006" lon="7.740137957526944"><ele>600.1999999999999</ele><time>2026-04-09T16:51:32.999Z</time></trkpt><trkpt lat="44.339082640608616" lon="7.740038988429322"><ele>601.6</ele><time>2026-04-09T16:51:33.999Z</time></trkpt><trkpt lat="44.33902025689083" lon="7.739924591962437"><ele>603.0</ele><time>2026-04-09T16:51:34.999Z</time></trkpt><trkpt lat="44.3389618183688" lon="7.739807832560602"><ele>604.0</ele><time>2026-04-09T16:51:35.999Z</time></trkpt><trkpt lat="44.33891414218319" lon="7.739682266111512"><ele>605.0</ele><time>2026-04-09T16:51:36.999Z</time></trkpt><trkpt lat="44.338873018965586" lon="7.739537214944896"><ele>606.0</ele><time>2026-04-09T16:51:37.999Z</time></trkpt><trkpt lat="44.33884848806203" lon="7.739404714243802"><ele>607.0</ele><time>2026-04-09T16:51:38.999Z</time></trkpt><trkpt lat="44.33884256166393" lon="7.73926966868463"><ele>608.0</ele><time>2026-04-09T16:51:39.998Z</time></trkpt><trkpt lat="44.338841552791756" lon="7.73913802143467"><ele>610.8</ele><time>2026-04-09T16:51:40.998Z</time></trkpt><trkpt lat="44.33885264310439" lon="7.7389970771111285"><ele>613.5999999999999</ele><time>2026-04-09T16:51:41.998Z</time></trkpt><trkpt lat="44.33887390048057" lon="7.738858802772135"><ele>616.4000000000001</ele><time>2026-04-09T16:51:42.998Z</time></trkpt><trkpt lat="44.3389034171836" lon="7.738729271488058"><ele>619.2</ele><time>2026-04-09T16:51:43.998Z</time></trkpt><trkpt lat="44.33893171601405" lon="7.738585561625369"><ele>622.0</ele><time>2026-04-09T16:51:44.998Z</time></trkpt><trkpt lat="44.338953401752" lon="7.738450401052895"><ele>624.6</ele><time>2026-04-09T16:51:45.998Z</time></trkpt><trkpt lat="44.33896593124075" lon="7.738288975481939"><ele>627.2</ele><time>2026-04-09T16:51:46.998Z</time></trkpt><trkpt lat="44.33897335506656" lon="7.738123275700438"><ele>629.8</ele><time>2026-04-09T16:51:47.998Z</time></trkpt><trkpt lat="44.33898015002932" lon="7.737976141549387"><ele>632.4</ele><time>2026-04-09T16:51:48.998Z</time></trkpt><trkpt lat="44.338993625501004" lon="7.737829395581877"><ele>635.0</ele><time>2026-04-09T16:51:49.998Z</time></trkpt><trkpt lat="44.33900899287727" lon="7.737690968621534"><ele>635.5</ele><time>2026-04-09T16:51:50.998Z</time></trkpt><trkpt lat="44.3390253904179" lon="7.737547830336665"><ele>636.0</ele><time>2026-04-09T16:51:51.998Z</time></trkpt><trkpt lat="44.33904316004354" lon="7.737442081320519"><ele>636.5</ele><time>2026-04-09T16:51:52.998Z</time></trkpt><trkpt lat="44.33905934162426" lon="7.737328297870273"><ele>637.0</ele><time>2026-04-09T16:51:54Z</time></trkpt><trkpt lat="44.33908114965869" lon="7.73721401157066"><ele>637.5</ele><time>2026-04-09T16:51:55Z</time></trkpt><trkpt lat="44.33911350685377" lon="7.7371061713566815"><ele>638.0</ele><time>2026-04-09T16:51:56Z</time></trkpt><trkpt lat="44.339152850273884" lon="7.736985850383625"><ele>636.4</ele><time>2026-04-09T16:51:57Z</time></trkpt><trkpt lat="44.33919633712679" lon="7.736846431401782"><ele>634.8</ele><time>2026-04-09T16:51:58Z</time></trkpt><trkpt lat="44.339241355827774" lon="7.736716455274557"><ele>633.2</ele><time>2026-04-09T16:51:59Z</time></trkpt><trkpt lat="44.339286388570756" lon="7.736585383462012"><ele>631.6</ele><time>2026-04-09T16:52:00Z</time></trkpt><trkpt lat="44.33933139206776" lon="7.736475529095509"><ele>630.0</ele><time>2026-04-09T16:52:01Z</time></trkpt><trkpt lat="44.33938335701244" lon="7.736368979504263"><ele>630.0</ele><time>2026-04-09T16:52:02Z</time></trkpt><trkpt lat="44.33943438370295" lon="7.7362381805228315"><ele>630.0</ele><time>2026-04-09T16:52:03Z</time></trkpt><trkpt lat="44.33947990077903" lon="7.736137469182454"><ele>630.0</ele><time>2026-04-09T16:52:04Z</time></trkpt><trkpt lat="44.339514644729846" lon="7.736051685576781"><ele>630.0</ele><time>2026-04-09T16:52:05Z</time></trkpt><trkpt lat="44.33954681100477" lon="7.735873539060161"><ele>630.0</ele><time>2026-04-09T16:52:07Z</time></trkpt><trkpt lat="44.33954338328064" lon="7.735776794747219"><ele>629.2</ele><time>2026-04-09T16:52:08Z</time></trkpt><trkpt lat="44.33951432680918" lon="7.735675967324188"><ele>628.4</ele><time>2026-04-09T16:52:09Z</time></trkpt><trkpt lat="44.3394812684398" lon="7.735555964798611"><ele>627.6</ele><time>2026-04-09T16:52:10Z</time></trkpt><trkpt lat="44.3394365496511" lon="7.735428530132923"><ele>626.8</ele><time>2026-04-09T16:52:11Z</time></trkpt><trkpt lat="44.33939430028981" lon="7.735304178388241"><ele>626.0</ele><time>2026-04-09T16:52:12Z</time></trkpt><trkpt lat="44.33934647625285" lon="7.73518713403416"><ele>626.0</ele><time>2026-04-09T16:52:13Z</time></trkpt><trkpt lat="44.339295282891385" lon="7.7350523785067615"><ele>626.0</ele><time>2026-04-09T16:52:14Z</time></trkpt><trkpt lat="44.33924851563791" lon="7.7348970954740865"><ele>626.0</ele><time>2026-04-09T16:52:15Z</time></trkpt><trkpt lat="44.33920993829317" lon="7.734726240626942"><ele>626.0</ele><time>2026-04-09T16:52:16Z</time></trkpt><trkpt lat="44.33916106757544" lon="7.73456990305404"><ele>626.0</ele><time>2026-04-09T16:52:17Z</time></trkpt><trkpt lat="44.33910718464903" lon="7.734399675448321"><ele>626.0</ele><time>2026-04-09T16:52:18Z</time></trkpt><trkpt lat="44.33905605464722" lon="7.734251943966051"><ele>626.0</ele><time>2026-04-09T16:52:19Z</time></trkpt><trkpt lat="44.33900255842672" lon="7.7341104919437695"><ele>626.0</ele><time>2026-04-09T16:52:20Z</time></trkpt><trkpt lat="44.33894305940412" lon="7.733995961567496"><ele>626.4</ele><time>2026-04-09T16:52:21Z</time></trkpt><trkpt lat="44.338882055725605" lon="7.733872046703199"><ele>626.8</ele><time>2026-04-09T16:52:22Z</time></trkpt><trkpt lat="44.33882850806348" lon="7.73374232417558"><ele>627.1999999999999</ele><time>2026-04-09T16:52:23Z</time></trkpt><trkpt lat="44.33876666673283" lon="7.733611408270368"><ele>627.6</ele><time>2026-04-09T16:52:24Z</time></trkpt><trkpt lat="44.33871246813906" lon="7.7334718284950235"><ele>628.0</ele><time>2026-04-09T16:52:25Z</time></trkpt><trkpt lat="44.33865355606053" lon="7.7333187880711"><ele>628.8</ele><time>2026-04-09T16:52:26Z</time></trkpt><trkpt lat="44.338600971552175" lon="7.733170330325626"><ele>629.5999999999999</ele><time>2026-04-09T16:52:27Z</time></trkpt><trkpt lat="44.33854580256968" lon="7.733028322035446"><ele>630.4000000000001</ele><time>2026-04-09T16:52:28Z</time></trkpt><trkpt lat="44.33849669802728" lon="7.732900633626799"><ele>631.2</ele><time>2026-04-09T16:52:29Z</time></trkpt><trkpt lat="44.33845167184623" lon="7.732790005242529"><ele>632.0</ele><time>2026-04-09T16:52:30Z</time></trkpt><trkpt lat="44.33841346434234" lon="7.732659964783996"><ele>633.0</ele><time>2026-04-09T16:52:31Z</time></trkpt><trkpt lat="44.33838360967406" lon="7.73252326030821"><ele>634.0</ele><time>2026-04-09T16:52:32Z</time></trkpt><trkpt lat="44.33835674807838" lon="7.732400916771666"><ele>635.0</ele><time>2026-04-09T16:52:33Z</time></trkpt><trkpt lat="44.33832385381" lon="7.732282703435363"><ele>636.0</ele><time>2026-04-09T16:52:34Z</time></trkpt><trkpt lat="44.33827639344551" lon="7.732162365077883"><ele>637.0</ele><time>2026-04-09T16:52:35Z</time></trkpt><trkpt lat="44.33822382264829" lon="7.7320403149123225"><ele>637.0</ele><time>2026-04-09T16:52:36Z</time></trkpt><trkpt lat="44.3381710942255" lon="7.731932967308318"><ele>637.0</ele><time>2026-04-09T16:52:37Z</time></trkpt><trkpt lat="44.338120246822506" lon="7.731814228368396"><ele>637.0</ele><time>2026-04-09T16:52:38Z</time></trkpt><trkpt lat="44.33806840762998" lon="7.731710942090909"><ele>637.0</ele><time>2026-04-09T16:52:39Z</time></trkpt><trkpt lat="44.33802259618228" lon="7.7316205081632905"><ele>637.0</ele><time>2026-04-09T16:52:40Z</time></trkpt><trkpt lat="44.337980527015496" lon="7.73153328643539"><ele>637.0</ele><time>2026-04-09T16:52:40.999Z</time></trkpt><trkpt lat="44.33793919638802" lon="7.73143217504533"><ele>637.4</ele><time>2026-04-09T16:52:41.999Z</time></trkpt><trkpt lat="44.33788326457545" lon="7.731326953228524"><ele>637.8000000000001</ele><time>2026-04-09T16:52:42.999Z</time></trkpt><trkpt lat="44.33781227293216" lon="7.731216233010658"><ele>638.2</ele><time>2026-04-09T16:52:43.999Z</time></trkpt><trkpt lat="44.33774920594737" lon="7.731107287617649"><ele>638.6</ele><time>2026-04-09T16:52:44.999Z</time></trkpt><trkpt lat="44.33766408163432" lon="7.731000862621057"><ele>639.0</ele><time>2026-04-09T16:52:45.999Z</time></trkpt><trkpt lat="44.33755723663294" lon="7.730887701528278"><ele>640.75</ele><time>2026-04-09T16:52:46.999Z</time></trkpt><trkpt lat="44.33745412844047" lon="7.7307748508717085"><ele>642.5</ele><time>2026-04-09T16:52:47.999Z</time></trkpt><trkpt lat="44.33735986520033" lon="7.730687369642378"><ele>644.25</ele><time>2026-04-09T16:52:48.999Z</time></trkpt><trkpt lat="44.33726576026805" lon="7.730596835071524"><ele>646.0</ele><time>2026-04-09T16:52:49.999Z</time></trkpt><trkpt lat="44.337183608661924" lon="7.730522495840265"><ele>646.0</ele><time>2026-04-09T16:52:50.999Z</time></trkpt><trkpt lat="44.33711038750058" lon="7.730444758597287"><ele>646.0</ele><time>2026-04-09T16:52:51.999Z</time></trkpt><trkpt lat="44.33704064886823" lon="7.730359694318091"><ele>646.0</ele><time>2026-04-09T16:52:52.999Z</time></trkpt><trkpt lat="44.33695978563186" lon="7.730282986447194"><ele>646.0</ele><time>2026-04-09T16:52:53.999Z</time></trkpt><trkpt lat="44.33686963717296" lon="7.730215619351762"><ele>646.0</ele><time>2026-04-09T16:52:54.999Z</time></trkpt><trkpt lat="44.33678753288763" lon="7.730137181257076"><ele>646.1666666666667</ele><time>2026-04-09T16:52:55.999Z</time></trkpt><trkpt lat="44.336713226113055" lon="7.730069643569344"><ele>646.3333333333334</ele><time>2026-04-09T16:52:56.999Z</time></trkpt><trkpt lat="44.33664455531964" lon="7.730014714390364"><ele>646.5</ele><time>2026-04-09T16:52:57.999Z</time></trkpt><trkpt lat="44.33657761666753" lon="7.729948022723722"><ele>646.6666666666666</ele><time>2026-04-09T16:52:58.999Z</time></trkpt><trkpt lat="44.336515839545335" lon="7.729893317158936"><ele>646.8333333333333</ele><time>2026-04-09T16:52:59.999Z</time></trkpt><trkpt lat="44.336453875501" lon="7.729838700701182"><ele>647.0</ele><time>2026-04-09T16:53:00.999Z</time></trkpt><trkpt lat="44.33638154563367" lon="7.7297906787802155"><ele>647.0</ele><time>2026-04-09T16:53:01.999Z</time></trkpt><trkpt lat="44.33630857508341" lon="7.729734377168757"><ele>647.0</ele><time>2026-04-09T16:53:02.999Z</time></trkpt><trkpt lat="44.336219573869556" lon="7.729679913580909"><ele>647.0</ele><time>2026-04-09T16:53:03.999Z</time></trkpt><trkpt lat="44.33612591273924" lon="7.729636689580712"><ele>647.0</ele><time>2026-04-09T16:53:04.999Z</time></trkpt><trkpt lat="44.33603183438289" lon="7.729601985738153"><ele>647.0</ele><time>2026-04-09T16:53:05.999Z</time></trkpt><trkpt lat="44.33593970718491" lon="7.729572295243295"><ele>647.0</ele><time>2026-04-09T16:53:06.999Z</time></trkpt><trkpt lat="44.335857433973416" lon="7.729547414958885"><ele>647.0</ele><time>2026-04-09T16:53:07.999Z</time></trkpt><trkpt lat="44.335772969757535" lon="7.729502173945556"><ele>647.0</ele><time>2026-04-09T16:53:08.999Z</time></trkpt><trkpt lat="44.33569260430198" lon="7.729478790285317"><ele>647.0</ele><time>2026-04-09T16:53:09.999Z</time></trkpt><trkpt lat="44.335610152958566" lon="7.729412680496248"><ele>647.0</ele><time>2026-04-09T16:53:10.999Z</time></trkpt><trkpt lat="44.33552798160834" lon="7.729328493565666"><ele>648.8</ele><time>2026-04-09T16:53:11.999Z</time></trkpt><trkpt lat="44.335444944488295" lon="7.72923491480206"><ele>650.6</ele><time>2026-04-09T16:53:12.999Z</time></trkpt><trkpt lat="44.3353612222455" lon="7.729154189548917"><ele>652.4</ele><time>2026-04-09T16:53:13.999Z</time></trkpt><trkpt lat="44.33527196816608" lon="7.72904971471859"><ele>654.1999999999999</ele><time>2026-04-09T16:53:14.999Z</time></trkpt><trkpt lat="44.335188351424016" lon="7.728955824933576"><ele>656.0</ele><time>2026-04-09T16:53:15.999Z</time></trkpt><trkpt lat="44.335104497362934" lon="7.72887499876019"><ele>656.0</ele><time>2026-04-09T16:53:16.999Z</time></trkpt><trkpt lat="44.33501992033936" lon="7.728793395836504"><ele>656.0</ele><time>2026-04-09T16:53:17.999Z</time></trkpt><trkpt lat="44.33494181053144" lon="7.728736118534173"><ele>656.0</ele><time>2026-04-09T16:53:18.999Z</time></trkpt><trkpt lat="44.33488106543372" lon="7.728673545227857"><ele>656.0</ele><time>2026-04-09T16:53:19.999Z</time></trkpt><trkpt lat="44.33481168339697" lon="7.7286159090261695"><ele>656.0</ele><time>2026-04-09T16:53:20.999Z</time></trkpt><trkpt lat="44.33475222302736" lon="7.728550562048532"><ele>656.0</ele><time>2026-04-09T16:53:21.999Z</time></trkpt><trkpt lat="44.33470968503291" lon="7.728458226450428"><ele>658.5</ele><time>2026-04-09T16:53:22.999Z</time></trkpt><trkpt lat="44.33469133321902" lon="7.728349086756457"><ele>661.0</ele><time>2026-04-09T16:53:23.999Z</time></trkpt><trkpt lat="44.334662097236425" lon="7.72823305801909"><ele>663.5</ele><time>2026-04-09T16:53:24.999Z</time></trkpt><trkpt lat="44.33463992732636" lon="7.728122345247465"><ele>666.0</ele><time>2026-04-09T16:53:25.999Z</time></trkpt><trkpt lat="44.33461750036427" lon="7.728003253719319"><ele>668.5</ele><time>2026-04-09T16:53:26.999Z</time></trkpt><trkpt lat="44.33459237506341" lon="7.727874706909509"><ele>671.0</ele><time>2026-04-09T16:53:27.999Z</time></trkpt><trkpt lat="44.33455263259195" lon="7.727737944797339"><ele>672.4</ele><time>2026-04-09T16:53:28.999Z</time></trkpt><trkpt lat="44.334527391269134" lon="7.727615897369808"><ele>673.8</ele><time>2026-04-09T16:53:29.999Z</time></trkpt><trkpt lat="44.33449430892032" lon="7.727469496405989"><ele>675.1999999999999</ele><time>2026-04-09T16:53:30.999Z</time></trkpt><trkpt lat="44.33444835593853" lon="7.727325036564224"><ele>676.5999999999999</ele><time>2026-04-09T16:53:31.999Z</time></trkpt><trkpt lat="44.33439451048432" lon="7.727196721702471"><ele>678.0</ele><time>2026-04-09T16:53:32.999Z</time></trkpt><trkpt lat="44.33433260021591" lon="7.727076607096269"><ele>678.0</ele><time>2026-04-09T16:53:33.999Z</time></trkpt><trkpt lat="44.3342662551182" lon="7.726947732660695"><ele>678.0</ele><time>2026-04-09T16:53:34.999Z</time></trkpt><trkpt lat="44.33420113638156" lon="7.72682082095675"><ele>678.0</ele><time>2026-04-09T16:53:35.999Z</time></trkpt><trkpt lat="44.33412547901853" lon="7.726711682151369"><ele>678.0</ele><time>2026-04-09T16:53:36.999Z</time></trkpt><trkpt lat="44.33404593910215" lon="7.726594025159875"><ele>681.2</ele><time>2026-04-09T16:53:37.999Z</time></trkpt><trkpt lat="44.33395904798724" lon="7.726496883333711"><ele>684.4</ele><time>2026-04-09T16:53:38.999Z</time></trkpt><trkpt lat="44.33388957021279" lon="7.72645156907986"><ele>687.6</ele><time>2026-04-09T16:53:39.999Z</time></trkpt><trkpt lat="44.33382495973731" lon="7.72638670696749"><ele>690.8000000000001</ele><time>2026-04-09T16:53:40.999Z</time></trkpt><trkpt lat="44.33374686741159" lon="7.726305275685298"><ele>694.0</ele><time>2026-04-09T16:53:41.999Z</time></trkpt><trkpt lat="44.33367575919718" lon="7.726237839864999"><ele>695.0</ele><time>2026-04-09T16:53:42.999Z</time></trkpt><trkpt lat="44.33361757397403" lon="7.726185089772779"><ele>696.0</ele><time>2026-04-09T16:53:43.999Z</time></trkpt><trkpt lat="44.33350638859752" lon="7.726078855608758"><ele>697.0</ele><time>2026-04-09T16:53:45.999Z</time></trkpt><trkpt lat="44.33345279941278" lon="7.726003743716012"><ele>698.0</ele><time>2026-04-09T16:53:46.998Z</time></trkpt><trkpt lat="44.33340744553059" lon="7.725923996510003"><ele>699.0</ele><time>2026-04-09T16:53:47.998Z</time></trkpt><trkpt lat="44.333372468189644" lon="7.725839264705957"><ele>700.0</ele><time>2026-04-09T16:53:48.998Z</time></trkpt><trkpt lat="44.333332647281786" lon="7.7257233526512"><ele>700.0</ele><time>2026-04-09T16:53:50.998Z</time></trkpt><trkpt lat="44.33330856232584" lon="7.725626137262167"><ele>700.0</ele><time>2026-04-09T16:53:52.998Z</time></trkpt><trkpt lat="44.33332380168887" lon="7.725477243691099"><ele>700.0</ele><time>2026-04-09T16:54:06Z</time></trkpt><trkpt lat="44.33336776002735" lon="7.725412980541528"><ele>700.0</ele><time>2026-04-09T16:54:09Z</time></trkpt><trkpt lat="44.333394478411286" lon="7.725492815722859"><ele>700.0</ele><time>2026-04-09T16:54:11Z</time></trkpt><trkpt lat="44.33346285503701" lon="7.725513517830294"><ele>700.0</ele><time>2026-04-09T16:54:27Z</time></trkpt><trkpt lat="44.333539352956" lon="7.725545332691702"><ele>700.0</ele><time>2026-04-09T16:54:29Z</time></trkpt><trkpt lat="44.33360677304997" lon="7.72558084858244"><ele>700.0</ele><time>2026-04-09T16:54:31Z</time></trkpt><trkpt lat="44.33368539257673" lon="7.7256335527871745"><ele>700.0</ele><time>2026-04-09T16:54:34Z</time></trkpt><trkpt lat="44.3337557629057" lon="7.7256932927999085"><ele>700.0</ele><time>2026-04-09T16:54:36Z</time></trkpt><trkpt lat="44.33382531937816" lon="7.725744778047369"><ele>700.0</ele><time>2026-04-09T16:54:39Z</time></trkpt><trkpt lat="44.33388396050105" lon="7.72580592721073"><ele>700.0</ele><time>2026-04-09T16:54:41Z</time></trkpt><trkpt lat="44.33392545498656" lon="7.725873021851686"><ele>700.2</ele><time>2026-04-09T16:54:46.999Z</time></trkpt><trkpt lat="44.3340585027221" lon="7.725803363123218"><ele>700.4</ele><time>2026-04-09T16:54:48.999Z</time></trkpt><trkpt lat="44.33413364968099" lon="7.725723682834767"><ele>700.5999999999999</ele><time>2026-04-09T16:54:50.999Z</time></trkpt><trkpt lat="44.33418681407548" lon="7.725642703107644"><ele>700.8</ele><time>2026-04-09T16:54:52.999Z</time></trkpt><trkpt lat="44.334238833993666" lon="7.725577960402515"><ele>701.0</ele><time>2026-04-09T16:54:54.999Z</time></trkpt><trkpt lat="44.33430432839841" lon="7.725527872345299"><ele>701.0</ele><time>2026-04-09T16:54:57.999Z</time></trkpt><trkpt lat="44.33436819541354" lon="7.725527306545709"><ele>701.0</ele><time>2026-04-09T16:55:02.999Z</time></trkpt><trkpt lat="44.33442877060956" lon="7.7255649396676285"><ele>701.0</ele><time>2026-04-09T16:55:07.999Z</time></trkpt><trkpt lat="44.33448283112313" lon="7.725671876166999"><ele>701.0</ele><time>2026-04-09T16:55:11.999Z</time></trkpt><trkpt lat="44.33450857632119" lon="7.725823414422424"><ele>701.0</ele><time>2026-04-09T16:55:13.999Z</time></trkpt><trkpt lat="44.33452588423046" lon="7.725941915734861"><ele>701.0</ele><time>2026-04-09T16:55:15.999Z</time></trkpt><trkpt lat="44.334540229673735" lon="7.726046416748054"><ele>701.0</ele><time>2026-04-09T16:55:17.999Z</time></trkpt><trkpt lat="44.33456428448745" lon="7.726152055822888"><ele>701.0</ele><time>2026-04-09T16:55:20.999Z</time></trkpt><trkpt lat="44.33460951208954" lon="7.726218937782777"><ele>701.0</ele><time>2026-04-09T16:55:22.999Z</time></trkpt><trkpt lat="44.33456757180469" lon="7.726138558386238"><ele>701.0</ele><time>2026-04-09T16:55:49.999Z</time></trkpt><trkpt lat="44.33454187327946" lon="7.726035617085067"><ele>701.0</ele><time>2026-04-09T16:55:55.998Z</time></trkpt><trkpt lat="44.334521988796446" lon="7.725926602721066"><ele>701.0</ele><time>2026-04-09T16:55:58.998Z</time></trkpt><trkpt lat="44.33450910458609" lon="7.725821687399329"><ele>701.0</ele><time>2026-04-09T16:56:01.998Z</time></trkpt><trkpt lat="44.334496716229864" lon="7.725730490281232"><ele>701.0</ele><time>2026-04-09T16:56:04.998Z</time></trkpt><trkpt lat="44.33446959872096" lon="7.725639474287976"><ele>701.0</ele><time>2026-04-09T16:56:08Z</time></trkpt><trkpt lat="44.33442133615821" lon="7.725566300120691"><ele>701.0</ele><time>2026-04-09T16:56:10Z</time></trkpt><trkpt lat="44.334358467410944" lon="7.725519621985109"><ele>701.0</ele><time>2026-04-09T16:56:13Z</time></trkpt><trkpt lat="44.33429563396158" lon="7.72553308133281"><ele>701.0</ele><time>2026-04-09T16:56:16Z</time></trkpt><trkpt lat="44.334229708669326" lon="7.725560584540182"><ele>701.0</ele><time>2026-04-09T16:56:19Z</time></trkpt><trkpt lat="44.33417286168318" lon="7.725616595939495"><ele>701.0</ele><time>2026-04-09T16:56:21Z</time></trkpt><trkpt lat="44.33411376708195" lon="7.725682391877601"><ele>701.0</ele><time>2026-04-09T16:56:24Z</time></trkpt><trkpt lat="44.334063377448935" lon="7.7257545546578665"><ele>701.0</ele><time>2026-04-09T16:56:27Z</time></trkpt><trkpt lat="44.33399363304764" lon="7.725815099348273"><ele>701.0</ele><time>2026-04-09T16:56:30Z</time></trkpt><trkpt lat="44.333939644251686" lon="7.725863604325086"><ele>701.0</ele><time>2026-04-09T16:56:34Z</time></trkpt><trkpt lat="44.333823717583776" lon="7.725700867257966"><ele>700.8</ele><time>2026-04-09T16:56:42Z</time></trkpt><trkpt lat="44.33373101645089" lon="7.7256171128470275"><ele>700.5999999999999</ele><time>2026-04-09T16:56:44Z</time></trkpt><trkpt lat="44.333632631326246" lon="7.7255450419491885"><ele>700.4</ele><time>2026-04-09T16:56:46Z</time></trkpt><trkpt lat="44.333541670530515" lon="7.7254976256002035"><ele>700.2</ele><time>2026-04-09T16:56:48Z</time></trkpt><trkpt lat="44.33345489573644" lon="7.725463126330028"><ele>700.0</ele><time>2026-04-09T16:56:51Z</time></trkpt><trkpt lat="44.33337455114169" lon="7.725456524503327"><ele>700.0</ele><time>2026-04-09T16:56:53.999Z</time></trkpt><trkpt lat="44.33332385210871" lon="7.725621367967224"><ele>700.0</ele><time>2026-04-09T16:57:00.999Z</time></trkpt><trkpt lat="44.333249237180034" lon="7.725750009244748"><ele>700.0</ele><time>2026-04-09T16:57:09.999Z</time></trkpt><trkpt lat="44.333268139246954" lon="7.725835658530259"><ele>700.0</ele><time>2026-04-09T16:57:11.999Z</time></trkpt><trkpt lat="44.33332387188807" lon="7.725892914975813"><ele>700.0</ele><time>2026-04-09T16:57:18.999Z</time></trkpt><trkpt lat="44.333306800940406" lon="7.725777036325447"><ele>700.0</ele><time>2026-04-09T16:57:28.999Z</time></trkpt><trkpt lat="44.33327949863413" lon="7.725669225378754"><ele>700.0</ele><time>2026-04-09T16:57:30.999Z</time></trkpt><trkpt lat="44.333095590695144" lon="7.725618834317701"><ele>700.0</ele><time>2026-04-09T16:57:34.999Z</time></trkpt><trkpt lat="44.332967185850144" lon="7.725641925262601"><ele>700.0</ele><time>2026-04-09T16:57:36.999Z</time></trkpt><trkpt lat="44.33288998310963" lon="7.725656757967186"><ele>701.6666666666667</ele><time>2026-04-09T16:57:37.999Z</time></trkpt><trkpt lat="44.332805234919824" lon="7.725678457542413"><ele>703.3333333333334</ele><time>2026-04-09T16:57:38.999Z</time></trkpt><trkpt lat="44.33272559201263" lon="7.725700289694515"><ele>705.0</ele><time>2026-04-09T16:57:39.999Z</time></trkpt><trkpt lat="44.33264522971963" lon="7.7257174824554795"><ele>706.6666666666666</ele><time>2026-04-09T16:57:40.999Z</time></trkpt><trkpt lat="44.332557209352856" lon="7.725740919603292"><ele>708.3333333333333</ele><time>2026-04-09T16:57:42.999Z</time></trkpt><trkpt lat="44.33248061791964" lon="7.725770967055344"><ele>710.0</ele><time>2026-04-09T16:57:44.999Z</time></trkpt><trkpt lat="44.3324537737679" lon="7.725850736738806"><ele>710.0</ele><time>2026-04-09T16:57:46.999Z</time></trkpt><trkpt lat="44.33245154256066" lon="7.725992912983912"><ele>710.0</ele><time>2026-04-09T16:57:48.999Z</time></trkpt><trkpt lat="44.332497567096226" lon="7.726173704698467"><ele>710.0</ele><time>2026-04-09T16:57:50.999Z</time></trkpt><trkpt lat="44.332539971435324" lon="7.726262765497476"><ele>710.0</ele><time>2026-04-09T16:57:51.999Z</time></trkpt><trkpt lat="44.33256198339347" lon="7.726376476011031"><ele>710.0</ele><time>2026-04-09T16:57:52.999Z</time></trkpt><trkpt lat="44.332594469412356" lon="7.726491263133385"><ele>713.0</ele><time>2026-04-09T16:57:53.999Z</time></trkpt><trkpt lat="44.332627465893076" lon="7.726605132888672"><ele>716.0</ele><time>2026-04-09T16:57:54.999Z</time></trkpt><trkpt lat="44.33265577159569" lon="7.726703738189044"><ele>719.0</ele><time>2026-04-09T16:57:55.999Z</time></trkpt><trkpt lat="44.332695673192816" lon="7.726819224012835"><ele>722.0</ele><time>2026-04-09T16:57:56.999Z</time></trkpt><trkpt lat="44.33274126229477" lon="7.726927570842731"><ele>725.0</ele><time>2026-04-09T16:57:57.998Z</time></trkpt><trkpt lat="44.33277637873448" lon="7.727036837411453"><ele>728.0</ele><time>2026-04-09T16:57:58.998Z</time></trkpt><trkpt lat="44.332801315285074" lon="7.727141100360354"><ele>728.0</ele><time>2026-04-09T16:57:59.998Z</time></trkpt><trkpt lat="44.33282479555775" lon="7.727251797635852"><ele>728.0</ele><time>2026-04-09T16:58:00.998Z</time></trkpt><trkpt lat="44.332857205155626" lon="7.727368805341604"><ele>728.0</ele><time>2026-04-09T16:58:01.998Z</time></trkpt><trkpt lat="44.33286165890591" lon="7.727466087230008"><ele>728.0</ele><time>2026-04-09T16:58:02.998Z</time></trkpt><trkpt lat="44.332865093230325" lon="7.727622298603932"><ele>728.0</ele><time>2026-04-09T16:58:04.998Z</time></trkpt><trkpt lat="44.33285673961099" lon="7.727750220209828"><ele>728.0</ele><time>2026-04-09T16:58:06.998Z</time></trkpt><trkpt lat="44.33282627943555" lon="7.727845591576473"><ele>728.0</ele><time>2026-04-09T16:58:08.998Z</time></trkpt><trkpt lat="44.33273390543277" lon="7.727816902388795"><ele>728.0</ele><time>2026-04-09T16:58:10.998Z</time></trkpt><trkpt lat="44.332677309103474" lon="7.727750374489534"><ele>728.0</ele><time>2026-04-09T16:58:12Z</time></trkpt><trkpt lat="44.33260436194397" lon="7.7277091402669384"><ele>728.0</ele><time>2026-04-09T16:58:13Z</time></trkpt><trkpt lat="44.33252929982112" lon="7.727657802107711"><ele>728.0</ele><time>2026-04-09T16:58:14Z</time></trkpt><trkpt lat="44.33246658843447" lon="7.727618248377489"><ele>728.0</ele><time>2026-04-09T16:58:15Z</time></trkpt><trkpt lat="44.33237928910543" lon="7.727542402193474"><ele>728.0</ele><time>2026-04-09T16:58:17Z</time></trkpt><trkpt lat="44.332278325343744" lon="7.727499116856522"><ele>728.0</ele><time>2026-04-09T16:58:19Z</time></trkpt><trkpt lat="44.332216345637825" lon="7.727473788259143"><ele>728.0</ele><time>2026-04-09T16:58:20Z</time></trkpt><trkpt lat="44.332092561381344" lon="7.727422406363847"><ele>728.0</ele><time>2026-04-09T16:58:22Z</time></trkpt><trkpt lat="44.33202037588305" lon="7.727395565423699"><ele>728.0</ele><time>2026-04-09T16:58:23Z</time></trkpt><trkpt lat="44.33194337280034" lon="7.7273709901966114"><ele>728.3333333333333</ele><time>2026-04-09T16:58:24Z</time></trkpt><trkpt lat="44.33187288993761" lon="7.727340181146841"><ele>728.6666666666666</ele><time>2026-04-09T16:58:25Z</time></trkpt><trkpt lat="44.331799118748854" lon="7.727301362815457"><ele>729.0</ele><time>2026-04-09T16:58:26Z</time></trkpt><trkpt lat="44.33171226909388" lon="7.727264816726285"><ele>729.3333333333334</ele><time>2026-04-09T16:58:27Z</time></trkpt><trkpt lat="44.33162813185916" lon="7.72722999397203"><ele>729.6666666666667</ele><time>2026-04-09T16:58:28Z</time></trkpt><trkpt lat="44.33153028372191" lon="7.727187836173491"><ele>730.0</ele><time>2026-04-09T16:58:29Z</time></trkpt><trkpt lat="44.33144814216641" lon="7.727151205130051"><ele>730.6666666666667</ele><time>2026-04-09T16:58:30Z</time></trkpt><trkpt lat="44.33137379920485" lon="7.727146607672257"><ele>731.3333333333334</ele><time>2026-04-09T16:58:31Z</time></trkpt><trkpt lat="44.33132302425099" lon="7.727089944312427"><ele>732.0</ele><time>2026-04-09T16:58:32Z</time></trkpt><trkpt lat="44.33123692337838" lon="7.726997098686779"><ele>732.6666666666666</ele><time>2026-04-09T16:58:34Z</time></trkpt><trkpt lat="44.331196136763324" lon="7.7268963056398485"><ele>733.3333333333333</ele><time>2026-04-09T16:58:35Z</time></trkpt><trkpt lat="44.33115464953916" lon="7.726814170053819"><ele>734.0</ele><time>2026-04-09T16:58:36Z</time></trkpt><trkpt lat="44.33109261536554" lon="7.726704880663443"><ele>734.0</ele><time>2026-04-09T16:58:38Z</time></trkpt><trkpt lat="44.33107702534039" lon="7.72661094822072"><ele>734.0</ele><time>2026-04-09T16:58:44Z</time></trkpt><trkpt lat="44.3314099090699" lon="7.726504381569842"><ele>734.0</ele><time>2026-04-09T16:58:54Z</time></trkpt><trkpt lat="44.331502840235125" lon="7.7265172644417595"><ele>734.6</ele><time>2026-04-09T16:58:58.999Z</time></trkpt><trkpt lat="44.33158054053058" lon="7.726512585090341"><ele>735.2</ele><time>2026-04-09T16:59:00.999Z</time></trkpt><trkpt lat="44.33167364224238" lon="7.72654441940434"><ele>735.8000000000001</ele><time>2026-04-09T16:59:02.999Z</time></trkpt><trkpt lat="44.33174457562481" lon="7.726575801437646"><ele>736.4000000000001</ele><time>2026-04-09T16:59:03.999Z</time></trkpt><trkpt lat="44.331848072331304" lon="7.726621590294456"><ele>737.0</ele><time>2026-04-09T16:59:05.999Z</time></trkpt><trkpt lat="44.331941717402096" lon="7.726688519525744"><ele>737.0</ele><time>2026-04-09T16:59:07.999Z</time></trkpt><trkpt lat="44.33199499494976" lon="7.726747477687147"><ele>737.0</ele><time>2026-04-09T16:59:08.999Z</time></trkpt><trkpt lat="44.33203914328142" lon="7.726818492939168"><ele>737.0</ele><time>2026-04-09T16:59:09.999Z</time></trkpt><trkpt lat="44.3320887133986" lon="7.726928735011469"><ele>737.0</ele><time>2026-04-09T16:59:11.999Z</time></trkpt><trkpt lat="44.33213817138371" lon="7.727047781613382"><ele>737.0</ele><time>2026-04-09T16:59:13.999Z</time></trkpt><trkpt lat="44.33218354636831" lon="7.727154778228"><ele>737.0</ele><time>2026-04-09T16:59:15.999Z</time></trkpt><trkpt lat="44.332239895989375" lon="7.727266486516904"><ele>735.5</ele><time>2026-04-09T16:59:17.999Z</time></trkpt><trkpt lat="44.33229908278407" lon="7.727363366170386"><ele>734.0</ele><time>2026-04-09T16:59:19.999Z</time></trkpt><trkpt lat="44.33232024091023" lon="7.727453645359401"><ele>732.5</ele><time>2026-04-09T16:59:21.999Z</time></trkpt><trkpt lat="44.332367357827515" lon="7.727585313932623"><ele>731.0</ele><time>2026-04-09T17:00:11.998Z</time></trkpt><trkpt lat="44.33244484305829" lon="7.727618781050471"><ele>729.5</ele><time>2026-04-09T17:00:14.998Z</time></trkpt><trkpt lat="44.33250491376179" lon="7.727661489627995"><ele>728.0</ele><time>2026-04-09T17:00:16.998Z</time></trkpt><trkpt lat="44.33258982360675" lon="7.727723581885142"><ele>728.0</ele><time>2026-04-09T17:00:19Z</time></trkpt><trkpt lat="44.33266382529796" lon="7.727783748555207"><ele>728.0</ele><time>2026-04-09T17:00:21Z</time></trkpt><trkpt lat="44.332734403903906" lon="7.727843327034577"><ele>728.0</ele><time>2026-04-09T17:00:23Z</time></trkpt><trkpt lat="44.33279836382115" lon="7.727874406824952"><ele>728.0</ele><time>2026-04-09T17:00:25Z</time></trkpt><trkpt lat="44.33276109534381" lon="7.727801224642814"><ele>728.0</ele><time>2026-04-09T17:00:31Z</time></trkpt><trkpt lat="44.33268787986378" lon="7.727720742371244"><ele>728.0</ele><time>2026-04-09T17:00:33Z</time></trkpt><trkpt lat="44.33262217129091" lon="7.727721652345804"><ele>728.0</ele><time>2026-04-09T17:00:34Z</time></trkpt><trkpt lat="44.332559065285146" lon="7.727655772683621"><ele>728.0</ele><time>2026-04-09T17:00:36Z</time></trkpt><trkpt lat="44.33233076771363" lon="7.727351194365423"><ele>728.0</ele><time>2026-04-09T17:00:38Z</time></trkpt><trkpt lat="44.33220777151581" lon="7.727164914672992"><ele>728.3333333333333</ele><time>2026-04-09T17:00:40Z</time></trkpt><trkpt lat="44.33216548851764" lon="7.727067489266135"><ele>728.6666666666666</ele><time>2026-04-09T17:00:41Z</time></trkpt><trkpt lat="44.332109433579504" lon="7.726931464581482"><ele>729.0</ele><time>2026-04-09T17:00:43Z</time></trkpt><trkpt lat="44.33207073843777" lon="7.726855758125946"><ele>729.3333333333334</ele><time>2026-04-09T17:00:45Z</time></trkpt><trkpt lat="44.33201612230279" lon="7.72675809987729"><ele>729.6666666666667</ele><time>2026-04-09T17:00:47Z</time></trkpt><trkpt lat="44.33202136136903" lon="7.726625753328933"><ele>730.0</ele><time>2026-04-09T17:00:49Z</time></trkpt><trkpt lat="44.33247196250911" lon="7.725896803824884"><ele>726.0</ele><time>2026-04-09T17:00:55Z</time></trkpt><trkpt lat="44.332515837950126" lon="7.725818664341695"><ele>722.0</ele><time>2026-04-09T17:00:57Z</time></trkpt><trkpt lat="44.33263459848508" lon="7.725828222038786"><ele>718.0</ele><time>2026-04-09T17:00:59Z</time></trkpt><trkpt lat="44.33269976618953" lon="7.725812860267168"><ele>714.0</ele><time>2026-04-09T17:01:00Z</time></trkpt><trkpt lat="44.33281731542289" lon="7.7257629558399845"><ele>710.0</ele><time>2026-04-09T17:01:02Z</time></trkpt><trkpt lat="44.33292978086229" lon="7.72572232383689"><ele>710.0</ele><time>2026-04-09T17:01:04Z</time></trkpt><trkpt lat="44.33302826699079" lon="7.7257138224739785"><ele>710.0</ele><time>2026-04-09T17:01:05.999Z</time></trkpt><trkpt lat="44.33308393004273" lon="7.7256420632684355"><ele>710.0</ele><time>2026-04-09T17:01:07.999Z</time></trkpt><trkpt lat="44.333162584445475" lon="7.725616738444064"><ele>710.0</ele><time>2026-04-09T17:01:09.999Z</time></trkpt><trkpt lat="44.333241617185585" lon="7.725611927119764"><ele>710.0</ele><time>2026-04-09T17:01:12.999Z</time></trkpt><trkpt lat="44.333306463275804" lon="7.725664641171942"><ele>710.0</ele><time>2026-04-09T17:01:25.999Z</time></trkpt><trkpt lat="44.33336111880324" lon="7.725568397025998"><ele>708.0</ele><time>2026-04-09T17:01:30.999Z</time></trkpt><trkpt lat="44.33335575811612" lon="7.725466800679355"><ele>706.0</ele><time>2026-04-09T17:01:33.999Z</time></trkpt><trkpt lat="44.333281411955426" lon="7.725393045800675"><ele>704.0</ele><time>2026-04-09T17:01:36.999Z</time></trkpt><trkpt lat="44.333212084673136" lon="7.7252994189338295"><ele>702.0</ele><time>2026-04-09T17:01:38.999Z</time></trkpt><trkpt lat="44.33310700368888" lon="7.725256309282207"><ele>700.0</ele><time>2026-04-09T17:01:40.999Z</time></trkpt><trkpt lat="44.33299568579588" lon="7.7252117412346575"><ele>698.8</ele><time>2026-04-09T17:01:42.999Z</time></trkpt><trkpt lat="44.33292884472989" lon="7.725183507566811"><ele>697.6</ele><time>2026-04-09T17:01:43.999Z</time></trkpt><trkpt lat="44.332859660201194" lon="7.7251509382183565"><ele>696.4000000000001</ele><time>2026-04-09T17:01:44.999Z</time></trkpt><trkpt lat="44.33275016380334" lon="7.7250904340369795"><ele>695.2</ele><time>2026-04-09T17:01:46.999Z</time></trkpt><trkpt lat="44.33263481376172" lon="7.725026569153457"><ele>694.0</ele><time>2026-04-09T17:01:48.999Z</time></trkpt><trkpt lat="44.33255747667437" lon="7.724990888249776"><ele>694.0</ele><time>2026-04-09T17:01:49.999Z</time></trkpt><trkpt lat="44.33244866184169" lon="7.72494435965989"><ele>694.0</ele><time>2026-04-09T17:01:51.999Z</time></trkpt><trkpt lat="44.3323647440741" lon="7.724870987569297"><ele>694.0</ele><time>2026-04-09T17:01:53.999Z</time></trkpt><trkpt lat="44.33224866794265" lon="7.724844321051414"><ele>694.0</ele><time>2026-04-09T17:01:55.999Z</time></trkpt><trkpt lat="44.332126331680776" lon="7.724858083981213"><ele>697.2</ele><time>2026-04-09T17:01:57.999Z</time></trkpt><trkpt lat="44.332029255724194" lon="7.724912644824074"><ele>700.4000000000001</ele><time>2026-04-09T17:01:59.999Z</time></trkpt><trkpt lat="44.33191216493524" lon="7.72493904208696"><ele>703.6</ele><time>2026-04-09T17:02:01.999Z</time></trkpt><trkpt lat="44.331847029574945" lon="7.724836315391682"><ele>706.8</ele><time>2026-04-09T17:02:03.999Z</time></trkpt><trkpt lat="44.33182622100959" lon="7.724734403576825"><ele>710.0</ele><time>2026-04-09T17:02:05.999Z</time></trkpt><trkpt lat="44.33192059992436" lon="7.724660831974713"><ele>710.0</ele><time>2026-04-09T17:02:07.999Z</time></trkpt><trkpt lat="44.33201427380553" lon="7.724563788453107"><ele>710.0</ele><time>2026-04-09T17:02:09.999Z</time></trkpt><trkpt lat="44.3320736092242" lon="7.724495793457835"><ele>710.0</ele><time>2026-04-09T17:02:10.999Z</time></trkpt><trkpt lat="44.33213639021454" lon="7.724398644955923"><ele>710.0</ele><time>2026-04-09T17:02:11.999Z</time></trkpt><trkpt lat="44.33217585067688" lon="7.724308927010313"><ele>710.0</ele><time>2026-04-09T17:02:12.998Z</time></trkpt><trkpt lat="44.332206964264735" lon="7.724228935868301"><ele>710.0</ele><time>2026-04-09T17:02:13.998Z</time></trkpt><trkpt lat="44.332218271062544" lon="7.724139145653687"><ele>706.6666666666666</ele><time>2026-04-09T17:02:14.998Z</time></trkpt><trkpt lat="44.332287707581585" lon="7.72402642214316"><ele>703.3333333333333</ele><time>2026-04-09T17:02:16.998Z</time></trkpt><trkpt lat="44.33234619561204" lon="7.723992354414202"><ele>700.0</ele><time>2026-04-09T17:02:17.998Z</time></trkpt><trkpt lat="44.33241001756905" lon="7.723959761022643"><ele>696.6666666666666</ele><time>2026-04-09T17:02:18.998Z</time></trkpt><trkpt lat="44.332480199084316" lon="7.723924255893306"><ele>693.3333333333334</ele><time>2026-04-09T17:02:19.998Z</time></trkpt><trkpt lat="44.332584431809906" lon="7.723861464474233"><ele>690.0</ele><time>2026-04-09T17:02:21.998Z</time></trkpt><trkpt lat="44.33267289434371" lon="7.7237914931776155"><ele>690.0</ele><time>2026-04-09T17:02:24Z</time></trkpt><trkpt lat="44.33273326251776" lon="7.723703654358075"><ele>690.0</ele><time>2026-04-09T17:02:26Z</time></trkpt><trkpt lat="44.332778006589166" lon="7.723581736162352"><ele>690.0</ele><time>2026-04-09T17:02:28Z</time></trkpt><trkpt lat="44.3327887470592" lon="7.723408664219169"><ele>690.0</ele><time>2026-04-09T17:02:30Z</time></trkpt><trkpt lat="44.332765011028044" lon="7.723296615061214"><ele>690.0</ele><time>2026-04-09T17:02:31Z</time></trkpt><trkpt lat="44.332744269968195" lon="7.723194417296526"><ele>690.8333333333334</ele><time>2026-04-09T17:02:32Z</time></trkpt><trkpt lat="44.33272716239464" lon="7.723104824010845"><ele>691.6666666666666</ele><time>2026-04-09T17:02:33Z</time></trkpt><trkpt lat="44.33271187584389" lon="7.723011392965179"><ele>692.5</ele><time>2026-04-09T17:02:34Z</time></trkpt><trkpt lat="44.33270622827076" lon="7.722911198483189"><ele>693.3333333333333</ele><time>2026-04-09T17:02:35Z</time></trkpt><trkpt lat="44.33269931197045" lon="7.7228066543700145"><ele>694.1666666666666</ele><time>2026-04-09T17:02:36Z</time></trkpt><trkpt lat="44.332691386551346" lon="7.722650794112575"><ele>695.0</ele><time>2026-04-09T17:02:38Z</time></trkpt><trkpt lat="44.332694323916805" lon="7.7225615262976754"><ele>695.1666666666666</ele><time>2026-04-09T17:02:40Z</time></trkpt><trkpt lat="44.33272771262572" lon="7.722472205152699"><ele>695.3333333333333</ele><time>2026-04-09T17:02:43Z</time></trkpt><trkpt lat="44.33280828509116" lon="7.722447173555869"><ele>695.5</ele><time>2026-04-09T17:02:45Z</time></trkpt><trkpt lat="44.332886584736755" lon="7.722490867367897"><ele>695.6666666666666</ele><time>2026-04-09T17:02:46Z</time></trkpt><trkpt lat="44.33296799319012" lon="7.722530565379599"><ele>695.8333333333334</ele><time>2026-04-09T17:02:47Z</time></trkpt><trkpt lat="44.33305048127055" lon="7.722562386860647"><ele>696.0</ele><time>2026-04-09T17:02:48Z</time></trkpt><trkpt lat="44.333131641308945" lon="7.7225831077664004"><ele>694.1666666666666</ele><time>2026-04-09T17:02:49Z</time></trkpt><trkpt lat="44.3332185619976" lon="7.722601469797667"><ele>692.3333333333334</ele><time>2026-04-09T17:02:50Z</time></trkpt><trkpt lat="44.33329894801888" lon="7.722616087965331"><ele>690.5</ele><time>2026-04-09T17:02:51Z</time></trkpt><trkpt lat="44.33337869963198" lon="7.722637037090033"><ele>688.6666666666667</ele><time>2026-04-09T17:02:52Z</time></trkpt><trkpt lat="44.33345360270367" lon="7.722643986004335"><ele>686.8333333333334</ele><time>2026-04-09T17:02:53Z</time></trkpt><trkpt lat="44.33353222884785" lon="7.7226621503612884"><ele>685.0</ele><time>2026-04-09T17:02:54Z</time></trkpt><trkpt lat="44.33362313602495" lon="7.722645677288399"><ele>685.0</ele><time>2026-04-09T17:02:55Z</time></trkpt><trkpt lat="44.33370170128062" lon="7.722680680715632"><ele>685.0</ele><time>2026-04-09T17:02:56Z</time></trkpt><trkpt lat="44.33377968255867" lon="7.722688057427999"><ele>685.0</ele><time>2026-04-09T17:02:57Z</time></trkpt><trkpt lat="44.33389140387325" lon="7.722690293210082"><ele>685.0</ele><time>2026-04-09T17:02:59Z</time></trkpt><trkpt lat="44.33402177904437" lon="7.7226749348933605"><ele>685.0</ele><time>2026-04-09T17:03:01Z</time></trkpt><trkpt lat="44.334154514944274" lon="7.722613917722858"><ele>682.2</ele><time>2026-04-09T17:03:03Z</time></trkpt><trkpt lat="44.33421709796318" lon="7.722572587466905"><ele>679.4</ele><time>2026-04-09T17:03:04Z</time></trkpt><trkpt lat="44.3343165176311" lon="7.722491211508903"><ele>676.5999999999999</ele><time>2026-04-09T17:03:06Z</time></trkpt><trkpt lat="44.334399503794245" lon="7.722403142893868"><ele>673.8</ele><time>2026-04-09T17:03:08Z</time></trkpt><trkpt lat="44.33447299429283" lon="7.722267392284083"><ele>671.0</ele><time>2026-04-09T17:03:10Z</time></trkpt><trkpt lat="44.33452763121996" lon="7.722118141228641"><ele>671.0</ele><time>2026-04-09T17:03:11.999Z</time></trkpt><trkpt lat="44.33458349158461" lon="7.721958748966387"><ele>671.0</ele><time>2026-04-09T17:03:13.999Z</time></trkpt><trkpt lat="44.33464085688979" lon="7.721829975223624"><ele>671.0</ele><time>2026-04-09T17:03:15.999Z</time></trkpt><trkpt lat="44.33469719051682" lon="7.721715462812635"><ele>671.0</ele><time>2026-04-09T17:03:17.999Z</time></trkpt><trkpt lat="44.33477258110055" lon="7.721629762540256"><ele>671.0</ele><time>2026-04-09T17:03:19.999Z</time></trkpt><trkpt lat="44.33484941651571" lon="7.721538132145747"><ele>668.1999999999999</ele><time>2026-04-09T17:03:21.999Z</time></trkpt><trkpt lat="44.334919719743176" lon="7.721408749806949"><ele>665.4</ele><time>2026-04-09T17:03:23.999Z</time></trkpt><trkpt lat="44.33494430685476" lon="7.721319042563396"><ele>662.6</ele><time>2026-04-09T17:03:24.999Z</time></trkpt><trkpt lat="44.334968876887864" lon="7.7211564939638215"><ele>659.8</ele><time>2026-04-09T17:03:26.999Z</time></trkpt><trkpt lat="44.33498145034911" lon="7.721020719455502"><ele>657.0</ele><time>2026-04-09T17:03:28.999Z</time></trkpt><trkpt lat="44.33499219840697" lon="7.720883874013246"><ele>657.0</ele><time>2026-04-09T17:03:30.999Z</time></trkpt><trkpt lat="44.33500156928782" lon="7.720779566846429"><ele>657.0</ele><time>2026-04-09T17:03:32.999Z</time></trkpt><trkpt lat="44.335035246326036" lon="7.720666138966492"><ele>657.0</ele><time>2026-04-09T17:03:35.999Z</time></trkpt><trkpt lat="44.33509905302962" lon="7.72061865751578"><ele>657.0</ele><time>2026-04-09T17:03:39.999Z</time></trkpt><trkpt lat="44.33517852990377" lon="7.720593869994034"><ele>657.0</ele><time>2026-04-09T17:03:41.999Z</time></trkpt><trkpt lat="44.33526153953017" lon="7.7206099706123945"><ele>657.0</ele><time>2026-04-09T17:03:43.999Z</time></trkpt><trkpt lat="44.335342055860544" lon="7.720609399104653"><ele>657.0</ele><time>2026-04-09T17:03:45.999Z</time></trkpt><trkpt lat="44.3354421941487" lon="7.720616965198056"><ele>657.0</ele><time>2026-04-09T17:03:47.999Z</time></trkpt><trkpt lat="44.33553733695469" lon="7.720566499053396"><ele>657.0</ele><time>2026-04-09T17:03:49.999Z</time></trkpt><trkpt lat="44.33562873557792" lon="7.720489082837751"><ele>657.0</ele><time>2026-04-09T17:03:51.999Z</time></trkpt><trkpt lat="44.33575013003561" lon="7.720357339937784"><ele>655.0</ele><time>2026-04-09T17:03:53.999Z</time></trkpt><trkpt lat="44.335827780473615" lon="7.720297661176071"><ele>653.0</ele><time>2026-04-09T17:03:54.999Z</time></trkpt><trkpt lat="44.33591841169934" lon="7.72021669375686"><ele>651.0</ele><time>2026-04-09T17:03:55.999Z</time></trkpt><trkpt lat="44.336021590244954" lon="7.720137170005124"><ele>649.0</ele><time>2026-04-09T17:03:56.999Z</time></trkpt><trkpt lat="44.336125143402064" lon="7.720055025434342"><ele>647.0</ele><time>2026-04-09T17:03:57.999Z</time></trkpt><trkpt lat="44.33621759339355" lon="7.719973455843373"><ele>647.0</ele><time>2026-04-09T17:03:58.999Z</time></trkpt><trkpt lat="44.33629966894254" lon="7.719901027872858"><ele>647.0</ele><time>2026-04-09T17:03:59.999Z</time></trkpt><trkpt lat="44.33641207005921" lon="7.719830756135338"><ele>647.0</ele><time>2026-04-09T17:04:00.999Z</time></trkpt><trkpt lat="44.33650082679007" lon="7.719762694558204"><ele>647.0</ele><time>2026-04-09T17:04:01.999Z</time></trkpt><trkpt lat="44.336572962289544" lon="7.719702054995248"><ele>647.0</ele><time>2026-04-09T17:04:02.999Z</time></trkpt><trkpt lat="44.33665017978071" lon="7.719641541674618"><ele>644.8333333333333</ele><time>2026-04-09T17:04:03.999Z</time></trkpt><trkpt lat="44.33672652412927" lon="7.719582006700463"><ele>642.6666666666666</ele><time>2026-04-09T17:04:04.999Z</time></trkpt><trkpt lat="44.33679686420636" lon="7.719522527798073"><ele>640.5</ele><time>2026-04-09T17:04:05.999Z</time></trkpt><trkpt lat="44.33686359650409" lon="7.719465998686583"><ele>638.3333333333334</ele><time>2026-04-09T17:04:06.999Z</time></trkpt><trkpt lat="44.33692796125196" lon="7.719417892610116"><ele>636.1666666666667</ele><time>2026-04-09T17:04:07.999Z</time></trkpt><trkpt lat="44.33700109943879" lon="7.719371156142618"><ele>634.0</ele><time>2026-04-09T17:04:08.999Z</time></trkpt><trkpt lat="44.33707091143884" lon="7.719345198758632"><ele>634.0</ele><time>2026-04-09T17:04:09.999Z</time></trkpt><trkpt lat="44.337150898289046" lon="7.719333779290957"><ele>634.0</ele><time>2026-04-09T17:04:10.999Z</time></trkpt><trkpt lat="44.33722996012787" lon="7.719322067462318"><ele>634.0</ele><time>2026-04-09T17:04:11.999Z</time></trkpt><trkpt lat="44.33730514707007" lon="7.71931481881604"><ele>634.0</ele><time>2026-04-09T17:04:12.999Z</time></trkpt><trkpt lat="44.337384763403406" lon="7.719307102094124"><ele>634.0</ele><time>2026-04-09T17:04:13.999Z</time></trkpt><trkpt lat="44.33746021395798" lon="7.719293023558733"><ele>634.0</ele><time>2026-04-09T17:04:14.999Z</time></trkpt><trkpt lat="44.33753322492546" lon="7.71928511862015"><ele>631.4</ele><time>2026-04-09T17:04:15.999Z</time></trkpt><trkpt lat="44.337655718820464" lon="7.719274189534716"><ele>628.8</ele><time>2026-04-09T17:04:17.999Z</time></trkpt><trkpt lat="44.337749392968284" lon="7.719256359602719"><ele>626.2</ele><time>2026-04-09T17:04:19.998Z</time></trkpt><trkpt lat="44.33782264086456" lon="7.719248107784824"><ele>623.6</ele><time>2026-04-09T17:04:21.998Z</time></trkpt><trkpt lat="44.33792202798359" lon="7.719235862714221"><ele>621.0</ele><time>2026-04-09T17:04:24.998Z</time></trkpt><trkpt lat="44.338004106806956" lon="7.719150102539664"><ele>621.0</ele><time>2026-04-09T17:04:26.998Z</time></trkpt><trkpt lat="44.33804257500628" lon="7.7190137146822915"><ele>621.0</ele><time>2026-04-09T17:04:28.998Z</time></trkpt><trkpt lat="44.338051647419434" lon="7.718921770390301"><ele>621.0</ele><time>2026-04-09T17:04:30Z</time></trkpt><trkpt lat="44.338092425246515" lon="7.7187891524162735"><ele>621.0</ele><time>2026-04-09T17:04:32Z</time></trkpt><trkpt lat="44.33813854508484" lon="7.718686901450223"><ele>621.0</ele><time>2026-04-09T17:04:34Z</time></trkpt><trkpt lat="44.33817071124955" lon="7.718583361117937"><ele>621.0</ele><time>2026-04-09T17:04:36Z</time></trkpt><trkpt lat="44.33817735489804" lon="7.718462352888555"><ele>620.3333333333334</ele><time>2026-04-09T17:04:38Z</time></trkpt><trkpt lat="44.33817848302847" lon="7.718366758694433"><ele>619.6666666666666</ele><time>2026-04-09T17:04:40Z</time></trkpt><trkpt lat="44.338185601535265" lon="7.718257084461095"><ele>619.0</ele><time>2026-04-09T17:04:43Z</time></trkpt><trkpt lat="44.338234946033815" lon="7.71819908422834"><ele>618.3333333333333</ele><time>2026-04-09T17:04:45Z</time></trkpt><trkpt lat="44.33833052760013" lon="7.718170583282965"><ele>617.6666666666666</ele><time>2026-04-09T17:04:47Z</time></trkpt><trkpt lat="44.33844593188567" lon="7.718257925342782"><ele>617.0</ele><time>2026-04-09T17:04:49Z</time></trkpt><trkpt lat="44.338510591946594" lon="7.718317672889637"><ele>617.0</ele><time>2026-04-09T17:04:50Z</time></trkpt><trkpt lat="44.33862668488619" lon="7.718400172404369"><ele>617.0</ele><time>2026-04-09T17:04:52Z</time></trkpt><trkpt lat="44.33873547909648" lon="7.718450981813287"><ele>617.0</ele><time>2026-04-09T17:04:54Z</time></trkpt><trkpt lat="44.338800324106955" lon="7.718475918434126"><ele>617.0</ele><time>2026-04-09T17:04:55Z</time></trkpt><trkpt lat="44.33886751653853" lon="7.718499639607876"><ele>617.0</ele><time>2026-04-09T17:04:56Z</time></trkpt><trkpt lat="44.33894159306551" lon="7.718515701943477"><ele>616.2</ele><time>2026-04-09T17:04:57Z</time></trkpt><trkpt lat="44.33901987003125" lon="7.71853369809827"><ele>615.4000000000001</ele><time>2026-04-09T17:04:58Z</time></trkpt><trkpt lat="44.3391085756721" lon="7.71854533667734"><ele>614.5999999999999</ele><time>2026-04-09T17:04:59Z</time></trkpt><trkpt lat="44.33918999927461" lon="7.718567231940534"><ele>613.8</ele><time>2026-04-09T17:05:00Z</time></trkpt><trkpt lat="44.339294003973" lon="7.718573156764577"><ele>613.0</ele><time>2026-04-09T17:05:01Z</time></trkpt><trkpt lat="44.33940020601061" lon="7.7185802505583165"><ele>613.0</ele><time>2026-04-09T17:05:02Z</time></trkpt><trkpt lat="44.33949653229766" lon="7.71858293574958"><ele>613.0</ele><time>2026-04-09T17:05:03Z</time></trkpt><trkpt lat="44.33959256975666" lon="7.718579413379418"><ele>613.0</ele><time>2026-04-09T17:05:04Z</time></trkpt><trkpt lat="44.33968264032929" lon="7.718556654922244"><ele>613.0</ele><time>2026-04-09T17:05:05Z</time></trkpt><trkpt lat="44.33977152098979" lon="7.718528184749488"><ele>613.0</ele><time>2026-04-09T17:05:06Z</time></trkpt><trkpt lat="44.33984530773065" lon="7.718488919788833"><ele>612.5714285714286</ele><time>2026-04-09T17:05:07Z</time></trkpt><trkpt lat="44.33991333004569" lon="7.718452444293136"><ele>612.1428571428571</ele><time>2026-04-09T17:05:08Z</time></trkpt><trkpt lat="44.339977046875454" lon="7.718444933634548"><ele>611.7142857142858</ele><time>2026-04-09T17:05:09Z</time></trkpt><trkpt lat="44.34003467388677" lon="7.718395061365488"><ele>611.2857142857142</ele><time>2026-04-09T17:05:10Z</time></trkpt><trkpt lat="44.34010546726888" lon="7.718375908693602"><ele>610.8571428571428</ele><time>2026-04-09T17:05:11Z</time></trkpt><trkpt lat="44.34017256615101" lon="7.718358634030563"><ele>610.4285714285714</ele><time>2026-04-09T17:05:12Z</time></trkpt><trkpt lat="44.34024414532286" lon="7.718353104532317"><ele>610.0</ele><time>2026-04-09T17:05:13Z</time></trkpt><trkpt lat="44.34033618313039" lon="7.718369651239103"><ele>610.0</ele><time>2026-04-09T17:05:14Z</time></trkpt><trkpt lat="44.340446317480584" lon="7.718406715827372"><ele>610.0</ele><time>2026-04-09T17:05:14.999Z</time></trkpt><trkpt lat="44.34052654955352" lon="7.718435628528139"><ele>610.0</ele><time>2026-04-09T17:05:15.999Z</time></trkpt><trkpt lat="44.34060966706625" lon="7.7184580005404335"><ele>610.0</ele><time>2026-04-09T17:05:16.999Z</time></trkpt><trkpt lat="44.340696537884085" lon="7.718481003948363"><ele>610.0</ele><time>2026-04-09T17:05:17.999Z</time></trkpt><trkpt lat="44.34077541132554" lon="7.718497750264228"><ele>610.0</ele><time>2026-04-09T17:05:18.999Z</time></trkpt><trkpt lat="44.34084699915798" lon="7.718500179101378"><ele>609.5</ele><time>2026-04-09T17:05:19.999Z</time></trkpt><trkpt lat="44.340936720991635" lon="7.718495777303499"><ele>609.0</ele><time>2026-04-09T17:05:20.999Z</time></trkpt><trkpt lat="44.34100706635977" lon="7.718482951260387"><ele>608.5</ele><time>2026-04-09T17:05:21.999Z</time></trkpt><trkpt lat="44.341074419280766" lon="7.718467892265276"><ele>608.0</ele><time>2026-04-09T17:05:22.999Z</time></trkpt><trkpt lat="44.34114056338136" lon="7.718454392800531"><ele>607.5</ele><time>2026-04-09T17:05:23.999Z</time></trkpt><trkpt lat="44.341226119768535" lon="7.718425804504267"><ele>607.0</ele><time>2026-04-09T17:05:24.999Z</time></trkpt><trkpt lat="44.34131982415416" lon="7.718407652981105"><ele>606.6666666666667</ele><time>2026-04-09T17:05:25.999Z</time></trkpt><trkpt lat="44.34139449000534" lon="7.718379151401075"><ele>606.3333333333334</ele><time>2026-04-09T17:05:26.999Z</time></trkpt><trkpt lat="44.34147683926334" lon="7.718350085372052"><ele>606.0</ele><time>2026-04-09T17:05:27.999Z</time></trkpt><trkpt lat="44.34154974375235" lon="7.718325457080796"><ele>605.6666666666666</ele><time>2026-04-09T17:05:28.999Z</time></trkpt><trkpt lat="44.34161980293332" lon="7.7183024906881395"><ele>605.3333333333333</ele><time>2026-04-09T17:05:29.999Z</time></trkpt><trkpt lat="44.3416887965096" lon="7.718280394010972"><ele>605.0</ele><time>2026-04-09T17:05:30.999Z</time></trkpt><trkpt lat="44.34176894953408" lon="7.718256285770861"><ele>605.0</ele><time>2026-04-09T17:05:31.999Z</time></trkpt><trkpt lat="44.3418573776473" lon="7.718237178674404"><ele>605.0</ele><time>2026-04-09T17:05:32.999Z</time></trkpt><trkpt lat="44.341931082013616" lon="7.718229253007897"><ele>605.0</ele><time>2026-04-09T17:05:33.999Z</time></trkpt><trkpt lat="44.342023401130895" lon="7.718227659778165"><ele>605.0</ele><time>2026-04-09T17:05:34.999Z</time></trkpt><trkpt lat="44.34212019752246" lon="7.718232015038605"><ele>605.0</ele><time>2026-04-09T17:05:35.999Z</time></trkpt><trkpt lat="44.34221823965721" lon="7.718237882712031"><ele>604.5</ele><time>2026-04-09T17:05:36.999Z</time></trkpt><trkpt lat="44.34231392974035" lon="7.718250209211179"><ele>604.0</ele><time>2026-04-09T17:05:37.999Z</time></trkpt><trkpt lat="44.342393404880326" lon="7.7182617587871425"><ele>603.5</ele><time>2026-04-09T17:05:38.999Z</time></trkpt><trkpt lat="44.34247144441638" lon="7.7182797486068"><ele>603.0</ele><time>2026-04-09T17:05:39.999Z</time></trkpt><trkpt lat="44.34254831750865" lon="7.718297313960045"><ele>602.5</ele><time>2026-04-09T17:05:40.999Z</time></trkpt><trkpt lat="44.34265799879811" lon="7.71832239964646"><ele>602.0</ele><time>2026-04-09T17:05:42.999Z</time></trkpt><trkpt lat="44.34271991115321" lon="7.718338659431458"><ele>602.0</ele><time>2026-04-09T17:05:43.999Z</time></trkpt><trkpt lat="44.34282279894035" lon="7.718358471134372"><ele>602.0</ele><time>2026-04-09T17:05:45.999Z</time></trkpt><trkpt lat="44.34291772415209" lon="7.718380654459165"><ele>602.0</ele><time>2026-04-09T17:05:47.999Z</time></trkpt><trkpt lat="44.34302005631969" lon="7.718405283413849"><ele>602.0</ele><time>2026-04-09T17:05:49.999Z</time></trkpt><trkpt lat="44.34311812676685" lon="7.718426230269029"><ele>602.0</ele><time>2026-04-09T17:05:51.999Z</time></trkpt><trkpt lat="44.3431837950322" lon="7.718415988987437"><ele>601.8333333333333</ele><time>2026-04-09T17:05:53.999Z</time></trkpt><trkpt lat="44.34324672562917" lon="7.718361236004239"><ele>601.6666666666666</ele><time>2026-04-09T17:05:57.999Z</time></trkpt><trkpt lat="44.34325667910134" lon="7.7182652772064895"><ele>601.5</ele><time>2026-04-09T17:06:00.999Z</time></trkpt><trkpt lat="44.34325299933991" lon="7.718142770325054"><ele>601.3333333333334</ele><time>2026-04-09T17:06:03.999Z</time></trkpt><trkpt lat="44.343237283855956" lon="7.71800863915791"><ele>601.1666666666667</ele><time>2026-04-09T17:06:06.999Z</time></trkpt><trkpt lat="44.3432236638981" lon="7.717884619976224"><ele>601.0</ele><time>2026-04-09T17:06:08.999Z</time></trkpt><trkpt lat="44.34320878981477" lon="7.7177953673911475"><ele>600.8333333333334</ele><time>2026-04-09T17:06:09.999Z</time></trkpt><trkpt lat="44.34319560113167" lon="7.717690298589504"><ele>600.6666666666667</ele><time>2026-04-09T17:06:10.999Z</time></trkpt><trkpt lat="44.3431773229586" lon="7.717580074958133"><ele>600.5</ele><time>2026-04-09T17:06:11.999Z</time></trkpt><trkpt lat="44.34315998885278" lon="7.717476779902429"><ele>600.3333333333334</ele><time>2026-04-09T17:06:12.999Z</time></trkpt><trkpt lat="44.343145639754596" lon="7.717364370002502"><ele>600.1666666666666</ele><time>2026-04-09T17:06:13.999Z</time></trkpt><trkpt lat="44.34314576317624" lon="7.717260642349054"><ele>600.0</ele><time>2026-04-09T17:06:14.999Z</time></trkpt><trkpt lat="44.34316113692893" lon="7.717137796304024"><ele>600.0</ele><time>2026-04-09T17:06:15.999Z</time></trkpt><trkpt lat="44.34319638498546" lon="7.716998882607339"><ele>600.0</ele><time>2026-04-09T17:06:16.999Z</time></trkpt><trkpt lat="44.343227344197224" lon="7.71686657628441"><ele>600.0</ele><time>2026-04-09T17:06:17.999Z</time></trkpt><trkpt lat="44.34325719801677" lon="7.71675352872417"><ele>600.0</ele><time>2026-04-09T17:06:18.999Z</time></trkpt><trkpt lat="44.34327738222744" lon="7.716656122667632"><ele>600.0</ele><time>2026-04-09T17:06:19.999Z</time></trkpt><trkpt lat="44.343293212535585" lon="7.716565670769732"><ele>600.0</ele><time>2026-04-09T17:06:20.999Z</time></trkpt><trkpt lat="44.343335720827675" lon="7.716410632997445"><ele>600.0</ele><time>2026-04-09T17:06:22.999Z</time></trkpt><trkpt lat="44.343372666272984" lon="7.716332118288158"><ele>600.0</ele><time>2026-04-09T17:06:23.998Z</time></trkpt><trkpt lat="44.34345108592081" lon="7.716214053328597"><ele>600.0</ele><time>2026-04-09T17:06:25.998Z</time></trkpt><trkpt lat="44.343505950501175" lon="7.716167756195997"><ele>600.0</ele><time>2026-04-09T17:06:26.998Z</time></trkpt><trkpt lat="44.34357371506343" lon="7.716115128574407"><ele>600.0</ele><time>2026-04-09T17:06:27.998Z</time></trkpt><trkpt lat="44.34363724954918" lon="7.716067720393991"><ele>600.0</ele><time>2026-04-09T17:06:28.998Z</time></trkpt><trkpt lat="44.34373972757223" lon="7.715978740550785"><ele>599.75</ele><time>2026-04-09T17:06:30.998Z</time></trkpt><trkpt lat="44.34382161665058" lon="7.715868013223349"><ele>599.5</ele><time>2026-04-09T17:06:32.998Z</time></trkpt><trkpt lat="44.34388943449478" lon="7.71573276276014"><ele>599.25</ele><time>2026-04-09T17:06:34.998Z</time></trkpt><trkpt lat="44.34393207344922" lon="7.715596503710743"><ele>599.0</ele><time>2026-04-09T17:06:37Z</time></trkpt><trkpt lat="44.343983232918205" lon="7.7154467963241"><ele>598.8</ele><time>2026-04-09T17:06:39Z</time></trkpt><trkpt lat="44.344009843538885" lon="7.715279288582731"><ele>598.5999999999999</ele><time>2026-04-09T17:06:41Z</time></trkpt><trkpt lat="44.34406997446111" lon="7.715200965787806"><ele>598.4</ele><time>2026-04-09T17:06:42Z</time></trkpt><trkpt lat="44.34408551855117" lon="7.715035056170787"><ele>598.1999999999999</ele><time>2026-04-09T17:06:44Z</time></trkpt><trkpt lat="44.3441183591135" lon="7.7148767517890136"><ele>598.0</ele><time>2026-04-09T17:06:46Z</time></trkpt><trkpt lat="44.34414869979281" lon="7.714711672634344"><ele>597.6</ele><time>2026-04-09T17:06:48Z</time></trkpt><trkpt lat="44.34418601670345" lon="7.714569479714587"><ele>597.1999999999999</ele><time>2026-04-09T17:06:50Z</time></trkpt><trkpt lat="44.34420933347904" lon="7.714424737759574"><ele>596.8</ele><time>2026-04-09T17:06:52Z</time></trkpt><trkpt lat="44.34425030144819" lon="7.714304312800212"><ele>596.4</ele><time>2026-04-09T17:06:54Z</time></trkpt><trkpt lat="44.34430756580994" lon="7.714189717302732"><ele>596.0</ele><time>2026-04-09T17:06:56Z</time></trkpt><trkpt lat="44.344362100089654" lon="7.714084162072436"><ele>594.0</ele><time>2026-04-09T17:06:58Z</time></trkpt><trkpt lat="44.34439022953281" lon="7.7139614911144685"><ele>592.0</ele><time>2026-04-09T17:07:00Z</time></trkpt><trkpt lat="44.34440180659047" lon="7.7138225902285456"><ele>590.0</ele><time>2026-04-09T17:07:02Z</time></trkpt><trkpt lat="44.34440771067463" lon="7.7137317692766425"><ele>588.0</ele><time>2026-04-09T17:07:03Z</time></trkpt><trkpt lat="44.34442456734599" lon="7.713585882490033"><ele>586.0</ele><time>2026-04-09T17:07:05Z</time></trkpt><trkpt lat="44.34441297332081" lon="7.713470316633652"><ele>584.0</ele><time>2026-04-09T17:07:07Z</time></trkpt><trkpt lat="44.344399536094215" lon="7.713343486799573"><ele>582.3333333333333</ele><time>2026-04-09T17:07:09Z</time></trkpt><trkpt lat="44.34435932737637" lon="7.713251759381109"><ele>580.6666666666666</ele><time>2026-04-09T17:07:11Z</time></trkpt><trkpt lat="44.34430753660049" lon="7.713162437763381"><ele>579.0</ele><time>2026-04-09T17:07:13Z</time></trkpt><trkpt lat="44.34426916981222" lon="7.713047620500906"><ele>577.3333333333334</ele><time>2026-04-09T17:07:16Z</time></trkpt><trkpt lat="44.34429479041755" lon="7.712935624583528"><ele>575.6666666666667</ele><time>2026-04-09T17:07:19Z</time></trkpt><trkpt lat="44.34437593735167" lon="7.712910405347492"><ele>574.0</ele><time>2026-04-09T17:07:22Z</time></trkpt><trkpt lat="44.34445757710118" lon="7.712953255998089"><ele>574.0</ele><time>2026-04-09T17:07:24.999Z</time></trkpt><trkpt lat="44.34452613579444" lon="7.713075894064023"><ele>574.0</ele><time>2026-04-09T17:07:26.999Z</time></trkpt><trkpt lat="44.34457084648615" lon="7.713188170202616"><ele>574.0</ele><time>2026-04-09T17:07:27.999Z</time></trkpt><trkpt lat="44.34460173842877" lon="7.713281708967111"><ele>574.0</ele><time>2026-04-09T17:07:28.999Z</time></trkpt><trkpt lat="44.34463451107453" lon="7.713373812964084"><ele>574.0</ele><time>2026-04-09T17:07:29.999Z</time></trkpt><trkpt lat="44.34466270846858" lon="7.713454071840113"><ele>574.0</ele><time>2026-04-09T17:07:30.999Z</time></trkpt><trkpt lat="44.344717139813156" lon="7.713591530297016"><ele>575.2</ele><time>2026-04-09T17:07:32.999Z</time></trkpt><trkpt lat="44.34476593557826" lon="7.713721036885889"><ele>576.4</ele><time>2026-04-09T17:07:34.999Z</time></trkpt><trkpt lat="44.3448008456631" lon="7.713816245215796"><ele>577.6</ele><time>2026-04-09T17:07:36.999Z</time></trkpt><trkpt lat="44.34484454188773" lon="7.713907306862132"><ele>578.8</ele><time>2026-04-09T17:07:39.999Z</time></trkpt><trkpt lat="44.34493170694579" lon="7.71386670271856"><ele>580.0</ele><time>2026-04-09T17:07:43.999Z</time></trkpt><trkpt lat="44.34501970997364" lon="7.713771805784056"><ele>580.0</ele><time>2026-04-09T17:07:46.999Z</time></trkpt><trkpt lat="44.34500773238954" lon="7.713677720502944"><ele>580.0</ele><time>2026-04-09T17:07:47.999Z</time></trkpt><trkpt lat="44.345017723048876" lon="7.713574602163637"><ele>580.0</ele><time>2026-04-09T17:07:48.999Z</time></trkpt><trkpt lat="44.345025965871514" lon="7.713436796999772"><ele>580.0</ele><time>2026-04-09T17:07:49.999Z</time></trkpt><trkpt lat="44.34504359045503" lon="7.7132998298314925"><ele>580.0</ele><time>2026-04-09T17:07:50.999Z</time></trkpt><trkpt lat="44.34506879620984" lon="7.7131768830216725"><ele>580.0</ele><time>2026-04-09T17:07:51.999Z</time></trkpt><trkpt lat="44.34508159466187" lon="7.713070107821312"><ele>579.0</ele><time>2026-04-09T17:07:52.999Z</time></trkpt><trkpt lat="44.34508509836676" lon="7.712971349251359"><ele>578.0</ele><time>2026-04-09T17:07:53.999Z</time></trkpt><trkpt lat="44.3450768833366" lon="7.7128570317366165"><ele>577.0</ele><time>2026-04-09T17:07:54.999Z</time></trkpt><trkpt lat="44.345067624242766" lon="7.71276263324426"><ele>576.0</ele><time>2026-04-09T17:07:55.999Z</time></trkpt><trkpt lat="44.345071952928905" lon="7.712608466181557"><ele>575.0</ele><time>2026-04-09T17:07:57.999Z</time></trkpt><trkpt lat="44.34514887270758" lon="7.7124445644679005"><ele>573.6</ele><time>2026-04-09T17:07:59.999Z</time></trkpt><trkpt lat="44.34522985197866" lon="7.712383976990719"><ele>572.2</ele><time>2026-04-09T17:08:00.999Z</time></trkpt><trkpt lat="44.34531632986227" lon="7.71232610584628"><ele>570.8</ele><time>2026-04-09T17:08:01.999Z</time></trkpt><trkpt lat="44.345397829723126" lon="7.712237547072465"><ele>569.4</ele><time>2026-04-09T17:08:02.999Z</time></trkpt><trkpt lat="44.34545968498324" lon="7.7121474621529655"><ele>568.0</ele><time>2026-04-09T17:08:03.999Z</time></trkpt><trkpt lat="44.34550981367971" lon="7.712074742283232"><ele>570.1999999999999</ele><time>2026-04-09T17:08:04.999Z</time></trkpt><trkpt lat="44.34559167751986" lon="7.7119965528144165"><ele>572.4</ele><time>2026-04-09T17:08:06.999Z</time></trkpt><trkpt lat="44.345690595143004" lon="7.711985192884373"><ele>574.5999999999999</ele><time>2026-04-09T17:08:08.999Z</time></trkpt><trkpt lat="44.34576305671346" lon="7.712016286512909"><ele>576.8</ele><time>2026-04-09T17:08:09.999Z</time></trkpt><trkpt lat="44.34584123495376" lon="7.712070940392828"><ele>579.0</ele><time>2026-04-09T17:08:10.999Z</time></trkpt><trkpt lat="44.345927553820005" lon="7.712135314274356"><ele>579.0</ele><time>2026-04-09T17:08:11.999Z</time></trkpt><trkpt lat="44.345993099775356" lon="7.712194013638433"><ele>579.0</ele><time>2026-04-09T17:08:12.999Z</time></trkpt><trkpt lat="44.346081515004705" lon="7.7122767080106165"><ele>579.0</ele><time>2026-04-09T17:08:14.999Z</time></trkpt><trkpt lat="44.346158329294084" lon="7.712311181311581"><ele>579.0</ele><time>2026-04-09T17:08:16.999Z</time></trkpt><trkpt lat="44.34622347487613" lon="7.712240000946396"><ele>579.0</ele><time>2026-04-09T17:08:19.999Z</time></trkpt><trkpt lat="44.34620258170364" lon="7.712126548779758"><ele>579.0</ele><time>2026-04-09T17:08:21.999Z</time></trkpt><trkpt lat="44.346143926150944" lon="7.712046898991175"><ele>579.0</ele><time>2026-04-09T17:08:22.999Z</time></trkpt><trkpt lat="44.3460981514737" lon="7.7119835689757705"><ele>579.0</ele><time>2026-04-09T17:08:23.999Z</time></trkpt><trkpt lat="44.346036561724844" lon="7.711868854733521"><ele>579.0</ele><time>2026-04-09T17:08:25.999Z</time></trkpt><trkpt lat="44.346000163326025" lon="7.711788686788798"><ele>579.0</ele><time>2026-04-09T17:08:26.999Z</time></trkpt><trkpt lat="44.34600174023137" lon="7.711616385049569"><ele>579.0</ele><time>2026-04-09T17:08:28.999Z</time></trkpt><trkpt lat="44.34602833767018" lon="7.711515122605602"><ele>579.0</ele><time>2026-04-09T17:08:29.999Z</time></trkpt><trkpt lat="44.34608667900511" lon="7.711394048051643"><ele>578.2</ele><time>2026-04-09T17:08:31.999Z</time></trkpt><trkpt lat="44.34613142466185" lon="7.71133208307676"><ele>577.4</ele><time>2026-04-09T17:08:32.998Z</time></trkpt><trkpt lat="44.346192932369966" lon="7.7112907914754185"><ele>576.6</ele><time>2026-04-09T17:08:33.998Z</time></trkpt><trkpt lat="44.34629148428084" lon="7.711226947895725"><ele>575.8</ele><time>2026-04-09T17:08:35.998Z</time></trkpt><trkpt lat="44.346380706536905" lon="7.711214034334466"><ele>575.0</ele><time>2026-04-09T17:08:37.998Z</time></trkpt><trkpt lat="44.34650269737781" lon="7.711269373055912"><ele>575.0</ele><time>2026-04-09T17:08:39.998Z</time></trkpt><trkpt lat="44.346562332712246" lon="7.71131816295852"><ele>575.0</ele><time>2026-04-09T17:08:40.998Z</time></trkpt><trkpt lat="44.346630430561866" lon="7.711400181071682"><ele>575.0</ele><time>2026-04-09T17:08:42Z</time></trkpt><trkpt lat="44.346713593617324" lon="7.711487018433387"><ele>575.0</ele><time>2026-04-09T17:08:43Z</time></trkpt><trkpt lat="44.34680127273993" lon="7.711594360826319"><ele>575.0</ele><time>2026-04-09T17:08:44Z</time></trkpt><trkpt lat="44.34687862790854" lon="7.711692308802081"><ele>575.0</ele><time>2026-04-09T17:08:45Z</time></trkpt><trkpt lat="44.3469527938123" lon="7.711770426073724"><ele>575.0</ele><time>2026-04-09T17:08:46Z</time></trkpt><trkpt lat="44.34700501390022" lon="7.711835810620712"><ele>575.0</ele><time>2026-04-09T17:08:47Z</time></trkpt><trkpt lat="44.347096268008535" lon="7.711945865070839"><ele>575.0</ele><time>2026-04-09T17:08:49Z</time></trkpt><trkpt lat="44.34714555891143" lon="7.712000831670493"><ele>575.0</ele><time>2026-04-09T17:08:52Z</time></trkpt><trkpt lat="44.34720460293063" lon="7.7119590567478005"><ele>575.0</ele><time>2026-04-09T17:08:56Z</time></trkpt><trkpt lat="44.347245372369294" lon="7.711869794285985"><ele>575.0</ele><time>2026-04-09T17:09:00Z</time></trkpt><trkpt lat="44.34724413367275" lon="7.711768638563123"><ele>575.0</ele><time>2026-04-09T17:09:20Z</time></trkpt><trkpt lat="44.34720577392768" lon="7.711606312469879"><ele>575.0</ele><time>2026-04-09T17:09:36.999Z</time></trkpt><trkpt lat="44.347253338268885" lon="7.7117022574088665"><ele>575.0</ele><time>2026-04-09T17:09:45.999Z</time></trkpt><trkpt lat="44.347276804097234" lon="7.711790804488576"><ele>575.0</ele><time>2026-04-09T17:09:48.999Z</time></trkpt><trkpt lat="44.34734153426258" lon="7.711761338170315"><ele>575.0</ele><time>2026-04-09T17:10:21.999Z</time></trkpt><trkpt lat="44.347340312441894" lon="7.711673055112438"><ele>575.0</ele><time>2026-04-09T17:10:25.999Z</time></trkpt><trkpt lat="44.347305390380946" lon="7.711521535977271"><ele>575.0</ele><time>2026-04-09T17:10:28.999Z</time></trkpt><trkpt lat="44.34723714088079" lon="7.711363927502901"><ele>575.0</ele><time>2026-04-09T17:10:30.999Z</time></trkpt><trkpt lat="44.347189499198" lon="7.711255050157775"><ele>575.0</ele><time>2026-04-09T17:10:31.999Z</time></trkpt><trkpt lat="44.347136569297575" lon="7.711143181255594"><ele>575.0</ele><time>2026-04-09T17:10:32.999Z</time></trkpt><trkpt lat="44.34709791680768" lon="7.7110363933269985"><ele>574.0</ele><time>2026-04-09T17:10:33.999Z</time></trkpt><trkpt lat="44.347054267032135" lon="7.710931382895626"><ele>573.0</ele><time>2026-04-09T17:10:34.999Z</time></trkpt><trkpt lat="44.34703085824415" lon="7.710832805069257"><ele>572.0</ele><time>2026-04-09T17:10:35.999Z</time></trkpt><trkpt lat="44.347020758740335" lon="7.7107063021326825"><ele>571.0</ele><time>2026-04-09T17:10:37.999Z</time></trkpt><trkpt lat="44.347021707345704" lon="7.710591130879701"><ele>570.0</ele><time>2026-04-09T17:10:39.998Z</time></trkpt><trkpt lat="44.347049816838755" lon="7.710457578631685"><ele>569.0</ele><time>2026-04-09T17:10:41.998Z</time></trkpt><trkpt lat="44.34709634085079" lon="7.710369580653689"><ele>569.0000000000001</ele><time>2026-04-09T17:10:43.998Z</time></trkpt><trkpt lat="44.3471281166024" lon="7.710287381240458"><ele>569.0</ele><time>2026-04-09T17:10:45.998Z</time></trkpt><trkpt lat="44.34716184855864" lon="7.710209316201927"><ele>569.0</ele><time>2026-04-09T17:10:48Z</time></trkpt><trkpt lat="44.34718606003632" lon="7.71010100184755"><ele>569.0</ele><time>2026-04-09T17:10:51Z</time></trkpt><trkpt lat="44.3472260686958" lon="7.710017631382454"><ele>569.0</ele><time>2026-04-09T17:10:55Z</time></trkpt><trkpt lat="44.34726939470497" lon="7.709938103969041"><ele>569.0000000000001</ele><time>2026-04-09T17:10:57Z</time></trkpt><trkpt lat="44.34730985148465" lon="7.709868664214208"><ele>569.0</ele><time>2026-04-09T17:11:03Z</time></trkpt><trkpt lat="44.347244486144945" lon="7.709933751475734"><ele>568.2</ele><time>2026-04-09T17:11:09Z</time></trkpt><trkpt lat="44.34719433517548" lon="7.7100167746547905"><ele>567.4</ele><time>2026-04-09T17:11:13Z</time></trkpt><trkpt lat="44.34710660254021" lon="7.7100540517586005"><ele>566.6</ele><time>2026-04-09T17:12:20.999Z</time></trkpt><trkpt lat="44.3470783948617" lon="7.709900638586791"><ele>565.8</ele><time>2026-04-09T17:12:51.998Z</time></trkpt><trkpt lat="44.347114662859305" lon="7.709973032972859"><ele>565.0</ele><time>2026-04-09T17:12:58Z</time></trkpt><trkpt lat="44.34719444945879" lon="7.710076113648302"><ele>565.0</ele><time>2026-04-09T17:13:20Z</time></trkpt><trkpt lat="44.34713933179437" lon="7.710033218975712"><ele>565.0</ele><time>2026-04-09T17:13:39Z</time></trkpt><trkpt lat="44.34706284609741" lon="7.710041904249777"><ele>565.0</ele><time>2026-04-09T17:19:53.999Z</time></trkpt><trkpt lat="44.347176708696296" lon="7.710036022549556"><ele>565.0</ele><time>2026-04-09T17:20:39.999Z</time></trkpt><trkpt lat="44.347234068683846" lon="7.7099874616551025"><ele>565.0</ele><time>2026-04-09T17:20:47.999Z</time></trkpt><trkpt lat="44.3472598027515" lon="7.7099058114942185"><ele>565.0</ele><time>2026-04-09T17:20:52.999Z</time></trkpt><trkpt lat="44.347196003199166" lon="7.71004931503665"><ele>564.9999999999999</ele><time>2026-04-09T17:21:04.999Z</time></trkpt><trkpt lat="44.347188670515905" lon="7.710150138573314"><ele>565.0</ele><time>2026-04-09T17:21:16.998Z</time></trkpt><trkpt lat="44.34723573213814" lon="7.710089783596706"><ele>565.0</ele><time>2026-04-09T17:21:22.999Z</time></trkpt><trkpt lat="44.347250532516924" lon="7.709985418977284"><ele>565.0</ele><time>2026-04-09T17:21:28.999Z</time></trkpt><trkpt lat="44.34722644129124" lon="7.7098910472284885"><ele>565.0</ele><time>2026-04-09T17:22:10.999Z</time></trkpt><trkpt lat="44.34725697295363" lon="7.709975200847055"><ele>564.9999999999999</ele><time>2026-04-09T17:23:00.999Z</time></trkpt><trkpt lat="44.347315909013794" lon="7.7099389790857185"><ele>565.0</ele><time>2026-04-09T17:24:02.999Z</time></trkpt><trkpt lat="44.3473955055649" lon="7.709862998317755"><ele>564.9999999999999</ele><time>2026-04-09T17:24:04.999Z</time></trkpt><trkpt lat="44.34746425487967" lon="7.709805813128312"><ele>565.0</ele><time>2026-04-09T17:24:05.999Z</time></trkpt><trkpt lat="44.34753837038023" lon="7.7097397337089655"><ele>565.0</ele><time>2026-04-09T17:24:06.999Z</time></trkpt><trkpt lat="44.34759950202014" lon="7.709700855083518"><ele>565.0</ele><time>2026-04-09T17:24:07.999Z</time></trkpt><trkpt lat="44.347661905047936" lon="7.70967869784653"><ele>565.0</ele><time>2026-04-09T17:24:08.999Z</time></trkpt><trkpt lat="44.347710286856575" lon="7.709592377874354"><ele>564.9999999999999</ele><time>2026-04-09T17:24:10.999Z</time></trkpt><trkpt lat="44.34772920364481" lon="7.70950802734253"><ele>565.0</ele><time>2026-04-09T17:24:11.999Z</time></trkpt><trkpt lat="44.34767628528023" lon="7.709332249671758"><ele>565.0</ele><time>2026-04-09T17:24:13.999Z</time></trkpt><trkpt lat="44.34764273593349" lon="7.709243921050671"><ele>565.0</ele><time>2026-04-09T17:24:14.999Z</time></trkpt><trkpt lat="44.34760198020041" lon="7.709155722462989"><ele>565.0</ele><time>2026-04-09T17:24:15.999Z</time></trkpt><trkpt lat="44.34755116320003" lon="7.709023911170266"><ele>565.0</ele><time>2026-04-09T17:24:17.999Z</time></trkpt><trkpt lat="44.347526152618606" lon="7.70893527863507"><ele>565.0</ele><time>2026-04-09T17:24:18.999Z</time></trkpt><trkpt lat="44.347490813184805" lon="7.708854250855185"><ele>565.0</ele><time>2026-04-09T17:24:19.999Z</time></trkpt><trkpt lat="44.34744117467236" lon="7.708728055658756"><ele>565.0</ele><time>2026-04-09T17:24:21.999Z</time></trkpt><trkpt lat="44.34740455005953" lon="7.708624138449954"><ele>565.0</ele><time>2026-04-09T17:24:23.999Z</time></trkpt><trkpt lat="44.34741233508848" lon="7.708534845135446"><ele>565.0</ele><time>2026-04-09T17:24:28.999Z</time></trkpt><trkpt lat="44.34751439963718" lon="7.708510632592013"><ele>565.0</ele><time>2026-04-09T17:24:34.999Z</time></trkpt><trkpt lat="44.347594290755566" lon="7.708488764929753"><ele>565.0</ele><time>2026-04-09T17:24:35.999Z</time></trkpt><trkpt lat="44.3476957250103" lon="7.708455293787071"><ele>565.0</ele><time>2026-04-09T17:24:37.999Z</time></trkpt><trkpt lat="44.34780320022437" lon="7.708403557781184"><ele>566.2</ele><time>2026-04-09T17:24:39.999Z</time></trkpt><trkpt lat="44.34788669655873" lon="7.7083202685798655"><ele>567.4</ele><time>2026-04-09T17:24:41.999Z</time></trkpt><trkpt lat="44.3479369853572" lon="7.70824925436271"><ele>568.6</ele><time>2026-04-09T17:24:43.999Z</time></trkpt><trkpt lat="44.348005670098864" lon="7.708112915064658"><ele>569.8</ele><time>2026-04-09T17:24:45.999Z</time></trkpt><trkpt lat="44.34809610901405" lon="7.707992169057313"><ele>571.0</ele><time>2026-04-09T17:24:47.999Z</time></trkpt><trkpt lat="44.348148275148375" lon="7.707939676707907"><ele>571.2</ele><time>2026-04-09T17:24:48.999Z</time></trkpt><trkpt lat="44.348244992286304" lon="7.707842114286933"><ele>571.4000000000001</ele><time>2026-04-09T17:24:50.999Z</time></trkpt><trkpt lat="44.34833280320973" lon="7.707751710414105"><ele>571.6</ele><time>2026-04-09T17:24:52.999Z</time></trkpt><trkpt lat="44.34844309936872" lon="7.7076947558220255"><ele>571.8000000000001</ele><time>2026-04-09T17:24:54.999Z</time></trkpt><trkpt lat="44.34850950860082" lon="7.707670628331981"><ele>572.0</ele><time>2026-04-09T17:24:55.999Z</time></trkpt><trkpt lat="44.348629150041546" lon="7.7076275477945435"><ele>572.0</ele><time>2026-04-09T17:24:57.999Z</time></trkpt><trkpt lat="44.34873118629471" lon="7.707592073771248"><ele>572.0</ele><time>2026-04-09T17:24:59.999Z</time></trkpt><trkpt lat="44.34882715731196" lon="7.707556455381869"><ele>572.0</ele><time>2026-04-09T17:25:01.999Z</time></trkpt><trkpt lat="44.34895085915515" lon="7.7075162465810205"><ele>572.0</ele><time>2026-04-09T17:25:03.999Z</time></trkpt><trkpt lat="44.34905979703831" lon="7.707479670244945"><ele>572.0</ele><time>2026-04-09T17:25:05.999Z</time></trkpt><trkpt lat="44.34913371530223" lon="7.707507660056781"><ele>570.0</ele><time>2026-04-09T17:25:06.999Z</time></trkpt><trkpt lat="44.34921156846608" lon="7.707558902882586"><ele>568.0</ele><time>2026-04-09T17:25:08.999Z</time></trkpt><trkpt lat="44.34928147531118" lon="7.707641120305119"><ele>566.0</ele><time>2026-04-09T17:25:10.999Z</time></trkpt><trkpt lat="44.349360000250144" lon="7.707715105852374"><ele>564.0</ele><time>2026-04-09T17:25:12.999Z</time></trkpt><trkpt lat="44.34942871015089" lon="7.7077990102716"><ele>562.0</ele><time>2026-04-09T17:25:14.999Z</time></trkpt><trkpt lat="44.349542261643165" lon="7.707823792926486"><ele>560.8000000000001</ele><time>2026-04-09T17:25:16.999Z</time></trkpt><trkpt lat="44.349643320009356" lon="7.707804017488993"><ele>559.6</ele><time>2026-04-09T17:25:18.999Z</time></trkpt><trkpt lat="44.34977398756419" lon="7.707807342005024"><ele>558.4000000000001</ele><time>2026-04-09T17:25:20.999Z</time></trkpt><trkpt lat="44.34986316074334" lon="7.707796394134442"><ele>557.2</ele><time>2026-04-09T17:25:21.999Z</time></trkpt><trkpt lat="44.34993086279352" lon="7.7077587465156085"><ele>556.0</ele><time>2026-04-09T17:25:22.999Z</time></trkpt><trkpt lat="44.349995137417764" lon="7.707763493778952"><ele>557.2</ele><time>2026-04-09T17:25:23.999Z</time></trkpt><trkpt lat="44.35007042092019" lon="7.7077369886695015"><ele>558.4000000000001</ele><time>2026-04-09T17:25:24.999Z</time></trkpt><trkpt lat="44.350182619221734" lon="7.707667708172859"><ele>559.6</ele><time>2026-04-09T17:25:26.999Z</time></trkpt><trkpt lat="44.35024806098387" lon="7.70764837569131"><ele>560.8000000000001</ele><time>2026-04-09T17:25:27.999Z</time></trkpt><trkpt lat="44.35036703489074" lon="7.707657310110693"><ele>562.0</ele><time>2026-04-09T17:25:30Z</time></trkpt><trkpt lat="44.350460236403116" lon="7.707641524082744"><ele>560.5</ele><time>2026-04-09T17:25:31Z</time></trkpt><trkpt lat="44.350547314703874" lon="7.707620834508861"><ele>559.0</ele><time>2026-04-09T17:25:32Z</time></trkpt><trkpt lat="44.350637246816945" lon="7.707592529320692"><ele>557.5</ele><time>2026-04-09T17:25:33Z</time></trkpt><trkpt lat="44.35073326391763" lon="7.707562481466659"><ele>556.0</ele><time>2026-04-09T17:25:34Z</time></trkpt><trkpt lat="44.35081720658187" lon="7.707542161200406"><ele>554.5</ele><time>2026-04-09T17:25:35Z</time></trkpt><trkpt lat="44.35088415178814" lon="7.707526571683439"><ele>553.0</ele><time>2026-04-09T17:25:36Z</time></trkpt><trkpt lat="44.35095129294302" lon="7.707510893197546"><ele>553.0</ele><time>2026-04-09T17:25:37Z</time></trkpt><trkpt lat="44.351070364952285" lon="7.707454281710179"><ele>553.0</ele><time>2026-04-09T17:25:39Z</time></trkpt><trkpt lat="44.35114538538722" lon="7.707430539776529"><ele>553.0</ele><time>2026-04-09T17:25:40Z</time></trkpt><trkpt lat="44.35120073671576" lon="7.707382242511842"><ele>553.0</ele><time>2026-04-09T17:25:41Z</time></trkpt><trkpt lat="44.351259664879706" lon="7.707308415505677"><ele>553.0</ele><time>2026-04-09T17:25:42Z</time></trkpt><trkpt lat="44.3513234886982" lon="7.707221016949209"><ele>553.0</ele><time>2026-04-09T17:25:43Z</time></trkpt><trkpt lat="44.35140288381194" lon="7.707156798837926"><ele>552.6666666666667</ele><time>2026-04-09T17:25:44Z</time></trkpt><trkpt lat="44.35148210978528" lon="7.707091388601015"><ele>552.3333333333334</ele><time>2026-04-09T17:25:45Z</time></trkpt><trkpt lat="44.35154895903756" lon="7.707027219205887"><ele>552.0</ele><time>2026-04-09T17:25:46Z</time></trkpt><trkpt lat="44.351629143173184" lon="7.706998747385066"><ele>551.6666666666666</ele><time>2026-04-09T17:25:47Z</time></trkpt><trkpt lat="44.35171075709139" lon="7.706942634829323"><ele>551.3333333333333</ele><time>2026-04-09T17:25:48Z</time></trkpt><trkpt lat="44.351775065762574" lon="7.706866392234804"><ele>551.0</ele><time>2026-04-09T17:25:49Z</time></trkpt><trkpt lat="44.35183517533377" lon="7.706807605785711"><ele>551.0</ele><time>2026-04-09T17:25:50Z</time></trkpt><trkpt lat="44.35191507956279" lon="7.706768111323651"><ele>551.0</ele><time>2026-04-09T17:25:51Z</time></trkpt><trkpt lat="44.35199623867525" lon="7.706680862470346"><ele>551.0</ele><time>2026-04-09T17:25:52Z</time></trkpt><trkpt lat="44.352062435981324" lon="7.706609101036676"><ele>551.0</ele><time>2026-04-09T17:25:53Z</time></trkpt><trkpt lat="44.35213338444849" lon="7.706546052534867"><ele>551.0</ele><time>2026-04-09T17:25:54Z</time></trkpt><trkpt lat="44.35219425684292" lon="7.706487342268068"><ele>551.0</ele><time>2026-04-09T17:25:55Z</time></trkpt><trkpt lat="44.35224975458874" lon="7.706421145458659"><ele>548.1666666666666</ele><time>2026-04-09T17:25:56Z</time></trkpt><trkpt lat="44.352325494856345" lon="7.706367122871601"><ele>545.3333333333333</ele><time>2026-04-09T17:25:57Z</time></trkpt><trkpt lat="44.35238425862958" lon="7.706310603288386"><ele>542.5</ele><time>2026-04-09T17:25:58Z</time></trkpt><trkpt lat="44.352466909752806" lon="7.706271837857613"><ele>539.6666666666666</ele><time>2026-04-09T17:25:59Z</time></trkpt><trkpt lat="44.35255252123175" lon="7.706258464374368"><ele>536.8333333333334</ele><time>2026-04-09T17:26:00Z</time></trkpt><trkpt lat="44.35263060877163" lon="7.70624659328246"><ele>534.0</ele><time>2026-04-09T17:26:01Z</time></trkpt><trkpt lat="44.35270809463124" lon="7.706236317812283"><ele>534.0</ele><time>2026-04-09T17:26:02Z</time></trkpt><trkpt lat="44.352778270571015" lon="7.706202068359266"><ele>534.0</ele><time>2026-04-09T17:26:03Z</time></trkpt><trkpt lat="44.35286481683781" lon="7.706141906779383"><ele>534.0</ele><time>2026-04-09T17:26:04Z</time></trkpt><trkpt lat="44.352950400207476" lon="7.706078122228281"><ele>534.0</ele><time>2026-04-09T17:26:05Z</time></trkpt><trkpt lat="44.35304405892861" lon="7.7060074497693245"><ele>534.0</ele><time>2026-04-09T17:26:06Z</time></trkpt><trkpt lat="44.3531700840664" lon="7.70594961383613"><ele>535.25</ele><time>2026-04-09T17:26:07Z</time></trkpt><trkpt lat="44.35332031667331" lon="7.705890137659553"><ele>536.5</ele><time>2026-04-09T17:26:08Z</time></trkpt><trkpt lat="44.353428482532415" lon="7.70583480662999"><ele>537.75</ele><time>2026-04-09T17:26:09Z</time></trkpt><trkpt lat="44.35354369563435" lon="7.705775788627831"><ele>539.0</ele><time>2026-04-09T17:26:10Z</time></trkpt><trkpt lat="44.353637650581064" lon="7.705732383289597"><ele>539.0</ele><time>2026-04-09T17:26:11Z</time></trkpt><trkpt lat="44.35372993022563" lon="7.705691225069257"><ele>539.0</ele><time>2026-04-09T17:26:12Z</time></trkpt><trkpt lat="44.35381764720946" lon="7.7056660569164785"><ele>539.0</ele><time>2026-04-09T17:26:13Z</time></trkpt><trkpt lat="44.35390566427447" lon="7.705649078206287"><ele>539.0</ele><time>2026-04-09T17:26:14Z</time></trkpt><trkpt lat="44.35398779678357" lon="7.705637132751446"><ele>539.0</ele><time>2026-04-09T17:26:15Z</time></trkpt><trkpt lat="44.354065455078356" lon="7.705625032395042"><ele>539.0</ele><time>2026-04-09T17:26:16Z</time></trkpt><trkpt lat="44.35414336476028" lon="7.7056013595376776"><ele>539.0</ele><time>2026-04-09T17:26:17Z</time></trkpt><trkpt lat="44.35420600867815" lon="7.705573352715077"><ele>539.0</ele><time>2026-04-09T17:26:18Z</time></trkpt><trkpt lat="44.354276257853606" lon="7.705529762050628"><ele>539.0</ele><time>2026-04-09T17:26:19Z</time></trkpt><trkpt lat="44.354345255702775" lon="7.705474629630903"><ele>539.0</ele><time>2026-04-09T17:26:20Z</time></trkpt><trkpt lat="44.354423534048934" lon="7.705389964458932"><ele>539.0</ele><time>2026-04-09T17:26:21Z</time></trkpt><trkpt lat="44.35450670481554" lon="7.70530938167428"><ele>539.0</ele><time>2026-04-09T17:26:22Z</time></trkpt><trkpt lat="44.35456505654257" lon="7.70523719327565"><ele>539.0</ele><time>2026-04-09T17:26:23Z</time></trkpt><trkpt lat="44.35461695914402" lon="7.705164820623033"><ele>539.0</ele><time>2026-04-09T17:26:24Z</time></trkpt><trkpt lat="44.35466267783963" lon="7.7050941234169965"><ele>539.0</ele><time>2026-04-09T17:26:25Z</time></trkpt><trkpt lat="44.35470861492462" lon="7.705018622505896"><ele>539.0</ele><time>2026-04-09T17:26:26Z</time></trkpt><trkpt lat="44.35475925405183" lon="7.704892590159578"><ele>539.0</ele><time>2026-04-09T17:26:28Z</time></trkpt><trkpt lat="44.35482688911768" lon="7.704798820882782"><ele>539.0</ele><time>2026-04-09T17:26:30Z</time></trkpt><trkpt lat="44.35488296453045" lon="7.704720439596589"><ele>537.0</ele><time>2026-04-09T17:26:31Z</time></trkpt><trkpt lat="44.354928133946" lon="7.704656382337526"><ele>535.0</ele><time>2026-04-09T17:26:32Z</time></trkpt><trkpt lat="44.35500671380401" lon="7.704617477759613"><ele>533.0</ele><time>2026-04-09T17:26:33Z</time></trkpt><trkpt lat="44.35511842115923" lon="7.7045764227008675"><ele>531.0</ele><time>2026-04-09T17:26:35Z</time></trkpt><trkpt lat="44.35518160397801" lon="7.704560830389293"><ele>529.0</ele><time>2026-04-09T17:26:36Z</time></trkpt><trkpt lat="44.35526516803364" lon="7.704540939405924"><ele>527.0</ele><time>2026-04-09T17:26:37Z</time></trkpt><trkpt lat="44.35535456202214" lon="7.704519660831262"><ele>527.0</ele><time>2026-04-09T17:26:38Z</time></trkpt><trkpt lat="44.35544437932711" lon="7.704498281536192"><ele>527.0</ele><time>2026-04-09T17:26:39Z</time></trkpt><trkpt lat="44.3555487993617" lon="7.704473426334226"><ele>527.0</ele><time>2026-04-09T17:26:40Z</time></trkpt><trkpt lat="44.3556381989226" lon="7.704426496619925"><ele>527.0</ele><time>2026-04-09T17:26:41Z</time></trkpt><trkpt lat="44.355729539212426" lon="7.704392374375808"><ele>527.0</ele><time>2026-04-09T17:26:42Z</time></trkpt><trkpt lat="44.35581537909417" lon="7.7043696264194805"><ele>526.6666666666666</ele><time>2026-04-09T17:26:43Z</time></trkpt><trkpt lat="44.35589367162045" lon="7.704349433749525"><ele>526.3333333333333</ele><time>2026-04-09T17:26:44Z</time></trkpt><trkpt lat="44.35596455328437" lon="7.704307080657615"><ele>526.0</ele><time>2026-04-09T17:26:45Z</time></trkpt><trkpt lat="44.35606035762594" lon="7.704292012384317"><ele>525.6666666666666</ele><time>2026-04-09T17:26:46Z</time></trkpt><trkpt lat="44.356123166933244" lon="7.704244970542747"><ele>525.3333333333334</ele><time>2026-04-09T17:26:47Z</time></trkpt><trkpt lat="44.35619760484013" lon="7.704181869568956"><ele>525.0</ele><time>2026-04-09T17:26:48Z</time></trkpt><trkpt lat="44.3562914336429" lon="7.704129973129548"><ele>525.0</ele><time>2026-04-09T17:26:49Z</time></trkpt><trkpt lat="44.356354951024585" lon="7.704082713637177"><ele>525.0</ele><time>2026-04-09T17:26:50Z</time></trkpt><trkpt lat="44.35641816990267" lon="7.704038252699748"><ele>525.0</ele><time>2026-04-09T17:26:51Z</time></trkpt><trkpt lat="44.35648424735875" lon="7.703998938794342"><ele>525.0</ele><time>2026-04-09T17:26:52Z</time></trkpt><trkpt lat="44.356551916096436" lon="7.7039825076533015"><ele>525.0</ele><time>2026-04-09T17:26:53Z</time></trkpt><trkpt lat="44.35666018052559" lon="7.70396386301132"><ele>525.0</ele><time>2026-04-09T17:26:55Z</time></trkpt><trkpt lat="44.35673621882189" lon="7.703967388017668"><ele>524.8333333333334</ele><time>2026-04-09T17:26:56Z</time></trkpt><trkpt lat="44.356820861794766" lon="7.70397848674777"><ele>524.6666666666666</ele><time>2026-04-09T17:26:56.999Z</time></trkpt><trkpt lat="44.3568890664527" lon="7.703984293253326"><ele>524.5</ele><time>2026-04-09T17:26:57.999Z</time></trkpt><trkpt lat="44.356976161846305" lon="7.704005257081911"><ele>524.3333333333333</ele><time>2026-04-09T17:26:58.999Z</time></trkpt><trkpt lat="44.35704933144996" lon="7.704024391096158"><ele>524.1666666666666</ele><time>2026-04-09T17:26:59.999Z</time></trkpt><trkpt lat="44.35713399416522" lon="7.704025791426422"><ele>524.0</ele><time>2026-04-09T17:27:00.999Z</time></trkpt><trkpt lat="44.35723381872693" lon="7.704047030327724"><ele>523.25</ele><time>2026-04-09T17:27:01.999Z</time></trkpt><trkpt lat="44.357344559919625" lon="7.704067092111025"><ele>522.5</ele><time>2026-04-09T17:27:02.999Z</time></trkpt><trkpt lat="44.35745772223618" lon="7.704088850740181"><ele>521.75</ele><time>2026-04-09T17:27:03.999Z</time></trkpt><trkpt lat="44.35760915336842" lon="7.70412882674126"><ele>521.0</ele><time>2026-04-09T17:27:04.999Z</time></trkpt><trkpt lat="44.35773930449711" lon="7.704180481469916"><ele>521.0</ele><time>2026-04-09T17:27:05.999Z</time></trkpt><trkpt lat="44.357859671156476" lon="7.704235826788793"><ele>521.0</ele><time>2026-04-09T17:27:06.999Z</time></trkpt><trkpt lat="44.357984657045726" lon="7.704296270381443"><ele>521.0</ele><time>2026-04-09T17:27:07.999Z</time></trkpt><trkpt lat="44.35809635358158" lon="7.704342187758154"><ele>521.0</ele><time>2026-04-09T17:27:08.999Z</time></trkpt><trkpt lat="44.35822499733462" lon="7.704389232263972"><ele>520.75</ele><time>2026-04-09T17:27:09.999Z</time></trkpt><trkpt lat="44.35835659243018" lon="7.704440058519026"><ele>520.5</ele><time>2026-04-09T17:27:10.999Z</time></trkpt><trkpt lat="44.35848118609329" lon="7.704495301876518"><ele>520.25</ele><time>2026-04-09T17:27:11.999Z</time></trkpt><trkpt lat="44.35861491351415" lon="7.704539422230836"><ele>520.0</ele><time>2026-04-09T17:27:12.999Z</time></trkpt><trkpt lat="44.358737230971656" lon="7.7045890549409695"><ele>520.0</ele><time>2026-04-09T17:27:13.999Z</time></trkpt><trkpt lat="44.35887318620974" lon="7.704622747616164"><ele>520.0</ele><time>2026-04-09T17:27:14.999Z</time></trkpt><trkpt lat="44.35901033668629" lon="7.7046426378269866"><ele>520.0</ele><time>2026-04-09T17:27:15.999Z</time></trkpt><trkpt lat="44.35913342277411" lon="7.704655471872229"><ele>520.0</ele><time>2026-04-09T17:27:16.999Z</time></trkpt><trkpt lat="44.35925448717937" lon="7.70467440727971"><ele>520.0</ele><time>2026-04-09T17:27:17.999Z</time></trkpt><trkpt lat="44.35937568748791" lon="7.704705787660742"><ele>520.0</ele><time>2026-04-09T17:27:18.999Z</time></trkpt><trkpt lat="44.35950386075541" lon="7.704742792700623"><ele>520.0</ele><time>2026-04-09T17:27:19.999Z</time></trkpt><trkpt lat="44.359630645259166" lon="7.704795932249472"><ele>520.0</ele><time>2026-04-09T17:27:20.999Z</time></trkpt><trkpt lat="44.35976680676786" lon="7.7048708827712"><ele>519.25</ele><time>2026-04-09T17:27:21.999Z</time></trkpt><trkpt lat="44.35985716470137" lon="7.704953163381805"><ele>518.5</ele><time>2026-04-09T17:27:22.999Z</time></trkpt><trkpt lat="44.35997664316284" lon="7.7050129258452245"><ele>517.75</ele><time>2026-04-09T17:27:23.999Z</time></trkpt><trkpt lat="44.360099994089154" lon="7.705086771197606"><ele>517.0</ele><time>2026-04-09T17:27:24.999Z</time></trkpt><trkpt lat="44.36023678904647" lon="7.705162869018876"><ele>517.0</ele><time>2026-04-09T17:27:25.999Z</time></trkpt><trkpt lat="44.360375374105026" lon="7.705234366686707"><ele>517.0</ele><time>2026-04-09T17:27:26.999Z</time></trkpt><trkpt lat="44.36051902795152" lon="7.70533288734997"><ele>517.0</ele><time>2026-04-09T17:27:27.999Z</time></trkpt><trkpt lat="44.36065021519153" lon="7.705438570591388"><ele>516.3333333333334</ele><time>2026-04-09T17:27:28.999Z</time></trkpt><trkpt lat="44.3607914203348" lon="7.705572307744988"><ele>515.6666666666666</ele><time>2026-04-09T17:27:29.999Z</time></trkpt><trkpt lat="44.360930942362124" lon="7.70569892629415"><ele>515.0</ele><time>2026-04-09T17:27:30.999Z</time></trkpt><trkpt lat="44.361076962662686" lon="7.705822554190559"><ele>515.0</ele><time>2026-04-09T17:27:31.999Z</time></trkpt><trkpt lat="44.36123494753677" lon="7.705944879509214"><ele>515.0</ele><time>2026-04-09T17:27:32.999Z</time></trkpt><trkpt lat="44.36138326477271" lon="7.7060855648897695"><ele>515.0</ele><time>2026-04-09T17:27:33.999Z</time></trkpt><trkpt lat="44.36152733529035" lon="7.706209028480411"><ele>514.3333333333333</ele><time>2026-04-09T17:27:34.999Z</time></trkpt><trkpt lat="44.36165866170412" lon="7.706322007491066"><ele>513.6666666666666</ele><time>2026-04-09T17:27:36Z</time></trkpt><trkpt lat="44.3617912561955" lon="7.706429264761492"><ele>513.0</ele><time>2026-04-09T17:27:37Z</time></trkpt><trkpt lat="44.36190963795911" lon="7.706544553043039"><ele>513.0</ele><time>2026-04-09T17:27:38Z</time></trkpt><trkpt lat="44.36202538115664" lon="7.706651196388332"><ele>513.0</ele><time>2026-04-09T17:27:39Z</time></trkpt><trkpt lat="44.36213443347804" lon="7.706747976482105"><ele>513.0</ele><time>2026-04-09T17:27:40Z</time></trkpt><trkpt lat="44.362240552570256" lon="7.706843539392069"><ele>513.0</ele><time>2026-04-09T17:27:41Z</time></trkpt><trkpt lat="44.36234358526277" lon="7.7069375863462835"><ele>512.5</ele><time>2026-04-09T17:27:42Z</time></trkpt><trkpt lat="44.362443110419015" lon="7.707025291731172"><ele>512.0</ele><time>2026-04-09T17:27:43Z</time></trkpt><trkpt lat="44.362543857592726" lon="7.707111829383883"><ele>511.5</ele><time>2026-04-09T17:27:44Z</time></trkpt><trkpt lat="44.362643912632066" lon="7.707204050796849"><ele>511.0</ele><time>2026-04-09T17:27:45Z</time></trkpt><trkpt lat="44.36273867668408" lon="7.707283124466975"><ele>511.0</ele><time>2026-04-09T17:27:46Z</time></trkpt><trkpt lat="44.36282042721108" lon="7.707354464560358"><ele>511.0</ele><time>2026-04-09T17:27:47Z</time></trkpt><trkpt lat="44.362913487155204" lon="7.707435024308765"><ele>511.0</ele><time>2026-04-09T17:27:48Z</time></trkpt><trkpt lat="44.36300821122699" lon="7.707517462880637"><ele>511.0</ele><time>2026-04-09T17:27:49Z</time></trkpt><trkpt lat="44.36309777480942" lon="7.707602683375881"><ele>511.0</ele><time>2026-04-09T17:27:50Z</time></trkpt><trkpt lat="44.36319273801431" lon="7.7076870577978"><ele>510.8</ele><time>2026-04-09T17:27:51Z</time></trkpt><trkpt lat="44.363284538345454" lon="7.707773370015575"><ele>510.6</ele><time>2026-04-09T17:27:52Z</time></trkpt><trkpt lat="44.3633732278278" lon="7.707846765691172"><ele>510.4</ele><time>2026-04-09T17:27:53Z</time></trkpt><trkpt lat="44.36346367013281" lon="7.707923666521146"><ele>510.2</ele><time>2026-04-09T17:27:54Z</time></trkpt><trkpt lat="44.363566681968884" lon="7.708006678488859"><ele>510.0</ele><time>2026-04-09T17:27:55Z</time></trkpt><trkpt lat="44.36365304794098" lon="7.708087803259373"><ele>510.0</ele><time>2026-04-09T17:27:56Z</time></trkpt><trkpt lat="44.363754465718344" lon="7.708169632018197"><ele>510.0</ele><time>2026-04-09T17:27:57Z</time></trkpt><trkpt lat="44.36383901523119" lon="7.708251601019659"><ele>510.0</ele><time>2026-04-09T17:27:58Z</time></trkpt><trkpt lat="44.36393542203594" lon="7.708336025705178"><ele>510.0</ele><time>2026-04-09T17:27:59Z</time></trkpt><trkpt lat="44.36402920133526" lon="7.708419720913372"><ele>510.0</ele><time>2026-04-09T17:28:00Z</time></trkpt><trkpt lat="44.36412346129061" lon="7.7085001148030035"><ele>509.8</ele><time>2026-04-09T17:28:01Z</time></trkpt><trkpt lat="44.36421339097495" lon="7.708570739452519"><ele>509.6</ele><time>2026-04-09T17:28:02Z</time></trkpt><trkpt lat="44.364306324758374" lon="7.708642696559043"><ele>509.4</ele><time>2026-04-09T17:28:03Z</time></trkpt><trkpt lat="44.36439275641355" lon="7.708714428254955"><ele>509.2</ele><time>2026-04-09T17:28:04Z</time></trkpt><trkpt lat="44.364487680398916" lon="7.708794983358814"><ele>509.0</ele><time>2026-04-09T17:28:05Z</time></trkpt><trkpt lat="44.364585665939906" lon="7.7088674380770295"><ele>508.79999999999995</ele><time>2026-04-09T17:28:06Z</time></trkpt><trkpt lat="44.36468004663361" lon="7.7089449735775295"><ele>508.59999999999997</ele><time>2026-04-09T17:28:07Z</time></trkpt><trkpt lat="44.36477149273613" lon="7.70900154045711"><ele>508.4</ele><time>2026-04-09T17:28:08Z</time></trkpt><trkpt lat="44.364857077800494" lon="7.7090764708986"><ele>508.2</ele><time>2026-04-09T17:28:09Z</time></trkpt><trkpt lat="44.36494206547444" lon="7.709147353376779"><ele>508.0</ele><time>2026-04-09T17:28:10Z</time></trkpt><trkpt lat="44.36504099772045" lon="7.70922462404196"><ele>508.0</ele><time>2026-04-09T17:28:11Z</time></trkpt><trkpt lat="44.365131407075594" lon="7.709282542362451"><ele>507.99999999999994</ele><time>2026-04-09T17:28:12Z</time></trkpt><trkpt lat="44.365231156720284" lon="7.709345387009151"><ele>507.99999999999994</ele><time>2026-04-09T17:28:13Z</time></trkpt><trkpt lat="44.365330402387066" lon="7.709413933092259"><ele>508.0</ele><time>2026-04-09T17:28:14Z</time></trkpt><trkpt lat="44.3654324635431" lon="7.709486795140616"><ele>508.0</ele><time>2026-04-09T17:28:15Z</time></trkpt><trkpt lat="44.36552577548173" lon="7.709565945668695"><ele>507.59999999999997</ele><time>2026-04-09T17:28:16Z</time></trkpt><trkpt lat="44.36563055337736" lon="7.709632134469125"><ele>507.19999999999993</ele><time>2026-04-09T17:28:17Z</time></trkpt><trkpt lat="44.36573073367576" lon="7.709699163495146"><ele>506.8</ele><time>2026-04-09T17:28:18Z</time></trkpt><trkpt lat="44.3658200065159" lon="7.709771028474422"><ele>506.4</ele><time>2026-04-09T17:28:19Z</time></trkpt><trkpt lat="44.36592713934465" lon="7.709840971339198"><ele>506.0</ele><time>2026-04-09T17:28:20Z</time></trkpt><trkpt lat="44.366002691665656" lon="7.709895055254357"><ele>506.0</ele><time>2026-04-09T17:28:21Z</time></trkpt><trkpt lat="44.36610258821356" lon="7.709967319670257"><ele>506.0</ele><time>2026-04-09T17:28:22Z</time></trkpt><trkpt lat="44.36620129546912" lon="7.710037039896345"><ele>506.0</ele><time>2026-04-09T17:28:23Z</time></trkpt><trkpt lat="44.36629532070488" lon="7.710107136405385"><ele>506.0</ele><time>2026-04-09T17:28:24Z</time></trkpt><trkpt lat="44.36639315726766" lon="7.71017614302431"><ele>506.0</ele><time>2026-04-09T17:28:25Z</time></trkpt><trkpt lat="44.36650104889354" lon="7.7102465832712825"><ele>505.6</ele><time>2026-04-09T17:28:26Z</time></trkpt><trkpt lat="44.366617162981335" lon="7.710341894895437"><ele>505.20000000000005</ele><time>2026-04-09T17:28:27Z</time></trkpt><trkpt lat="44.36671666510429" lon="7.710397889763216"><ele>504.79999999999995</ele><time>2026-04-09T17:28:28Z</time></trkpt><trkpt lat="44.36679495656718" lon="7.710453971309554"><ele>504.4</ele><time>2026-04-09T17:28:29Z</time></trkpt><trkpt lat="44.3668795748712" lon="7.7105182364097535"><ele>504.0</ele><time>2026-04-09T17:28:30Z</time></trkpt><trkpt lat="44.36697422426261" lon="7.71058942663395"><ele>504.0</ele><time>2026-04-09T17:28:31Z</time></trkpt><trkpt lat="44.367087240893035" lon="7.710658380294368"><ele>504.0</ele><time>2026-04-09T17:28:32Z</time></trkpt><trkpt lat="44.367179635479225" lon="7.710732994012218"><ele>504.0</ele><time>2026-04-09T17:28:33Z</time></trkpt><trkpt lat="44.36727253629259" lon="7.710793232273302"><ele>504.0</ele><time>2026-04-09T17:28:34Z</time></trkpt><trkpt lat="44.36736697708766" lon="7.710855059990077"><ele>504.0</ele><time>2026-04-09T17:28:35Z</time></trkpt><trkpt lat="44.367466483057484" lon="7.710924392674872"><ele>503.6</ele><time>2026-04-09T17:28:36Z</time></trkpt><trkpt lat="44.36756057768392" lon="7.71099838380859"><ele>503.2</ele><time>2026-04-09T17:28:37Z</time></trkpt><trkpt lat="44.367660170933085" lon="7.711062596587737"><ele>502.80000000000007</ele><time>2026-04-09T17:28:38Z</time></trkpt><trkpt lat="44.36776088114591" lon="7.711135753712116"><ele>502.40000000000003</ele><time>2026-04-09T17:28:39Z</time></trkpt><trkpt lat="44.36783803723287" lon="7.7111841094033515"><ele>502.0</ele><time>2026-04-09T17:28:40Z</time></trkpt><trkpt lat="44.36793553732637" lon="7.7112592720272755"><ele>501.8</ele><time>2026-04-09T17:28:41Z</time></trkpt><trkpt lat="44.368032286301364" lon="7.711329825338003"><ele>501.6</ele><time>2026-04-09T17:28:42Z</time></trkpt><trkpt lat="44.36813854833566" lon="7.711391814765173"><ele>501.40000000000003</ele><time>2026-04-09T17:28:43Z</time></trkpt><trkpt lat="44.36822671519988" lon="7.7114574675964365"><ele>501.20000000000005</ele><time>2026-04-09T17:28:44Z</time></trkpt><trkpt lat="44.36831189756293" lon="7.711520626501205"><ele>501.0</ele><time>2026-04-09T17:28:45Z</time></trkpt><trkpt lat="44.368384036061926" lon="7.7115704518067725"><ele>501.0</ele><time>2026-04-09T17:28:46Z</time></trkpt><trkpt lat="44.368461461040795" lon="7.711625704064878"><ele>501.0</ele><time>2026-04-09T17:28:47Z</time></trkpt><trkpt lat="44.368535778885864" lon="7.711690445259183"><ele>501.0</ele><time>2026-04-09T17:28:48Z</time></trkpt><trkpt lat="44.36860230755902" lon="7.711736466552403"><ele>501.0</ele><time>2026-04-09T17:28:49Z</time></trkpt><trkpt lat="44.36865734034404" lon="7.711791961934723"><ele>501.0</ele><time>2026-04-09T17:28:50Z</time></trkpt><trkpt lat="44.368717049571" lon="7.71187532367855"><ele>501.0</ele><time>2026-04-09T17:28:52Z</time></trkpt><trkpt lat="44.3687812153755" lon="7.711947655750882"><ele>501.0</ele><time>2026-04-09T17:28:54Z</time></trkpt><trkpt lat="44.36883713159883" lon="7.712003911641723"><ele>501.0</ele><time>2026-04-09T17:28:55Z</time></trkpt><trkpt lat="44.36891271991285" lon="7.712021039997153"><ele>501.0</ele><time>2026-04-09T17:28:56Z</time></trkpt><trkpt lat="44.36900207676806" lon="7.712024993148168"><ele>501.0</ele><time>2026-04-09T17:28:57Z</time></trkpt><trkpt lat="44.369098781932976" lon="7.712027783640434"><ele>501.0</ele><time>2026-04-09T17:28:58Z</time></trkpt><trkpt lat="44.36922481427847" lon="7.712051972344882"><ele>501.0</ele><time>2026-04-09T17:28:59Z</time></trkpt><trkpt lat="44.36932805444375" lon="7.712085396162884"><ele>501.0</ele><time>2026-04-09T17:29:00Z</time></trkpt><trkpt lat="44.36944240015585" lon="7.7121364608690595"><ele>501.0</ele><time>2026-04-09T17:29:01Z</time></trkpt><trkpt lat="44.36955002848137" lon="7.712182668408446"><ele>501.0</ele><time>2026-04-09T17:29:02Z</time></trkpt><trkpt lat="44.369646415298355" lon="7.712228921520252"><ele>501.0</ele><time>2026-04-09T17:29:03Z</time></trkpt><trkpt lat="44.369766786672294" lon="7.712270011218493"><ele>500.6</ele><time>2026-04-09T17:29:04Z</time></trkpt><trkpt lat="44.36986267867294" lon="7.712308065067907"><ele>500.20000000000005</ele><time>2026-04-09T17:29:05Z</time></trkpt><trkpt lat="44.36995928608083" lon="7.712347180837624"><ele>499.79999999999995</ele><time>2026-04-09T17:29:06Z</time></trkpt><trkpt lat="44.37006500588515" lon="7.712383997349375"><ele>499.4</ele><time>2026-04-09T17:29:07Z</time></trkpt><trkpt lat="44.37016599253994" lon="7.712438433235795"><ele>499.0</ele><time>2026-04-09T17:29:08Z</time></trkpt><trkpt lat="44.37027023372102" lon="7.712486805524499"><ele>499.0</ele><time>2026-04-09T17:29:09Z</time></trkpt><trkpt lat="44.370370726956" lon="7.712530129872038"><ele>499.0</ele><time>2026-04-09T17:29:10Z</time></trkpt><trkpt lat="44.37047371661802" lon="7.712573186555279"><ele>499.0</ele><time>2026-04-09T17:29:11Z</time></trkpt><trkpt lat="44.370584294758515" lon="7.712626977180479"><ele>499.0</ele><time>2026-04-09T17:29:12Z</time></trkpt><trkpt lat="44.37068398726686" lon="7.7126674094752286"><ele>499.0</ele><time>2026-04-09T17:29:13Z</time></trkpt><trkpt lat="44.37077528862063" lon="7.712709479787308"><ele>498.6</ele><time>2026-04-09T17:29:14Z</time></trkpt><trkpt lat="44.37086566307282" lon="7.712748529114128"><ele>498.2</ele><time>2026-04-09T17:29:15Z</time></trkpt><trkpt lat="44.370970991851884" lon="7.712799977221279"><ele>497.80000000000007</ele><time>2026-04-09T17:29:15.999Z</time></trkpt><trkpt lat="44.37106323714454" lon="7.712837375805143"><ele>497.40000000000003</ele><time>2026-04-09T17:29:16.999Z</time></trkpt><trkpt lat="44.37115357807226" lon="7.712873574939436"><ele>497.0</ele><time>2026-04-09T17:29:17.999Z</time></trkpt><trkpt lat="44.3712566413022" lon="7.712916652108532"><ele>497.0</ele><time>2026-04-09T17:29:18.999Z</time></trkpt><trkpt lat="44.37138164107959" lon="7.712982751500806"><ele>497.00000000000006</ele><time>2026-04-09T17:29:19.999Z</time></trkpt><trkpt lat="44.37148165429513" lon="7.713007190218984"><ele>497.00000000000006</ele><time>2026-04-09T17:29:20.999Z</time></trkpt><trkpt lat="44.37158517530917" lon="7.713018074877222"><ele>497.0</ele><time>2026-04-09T17:29:21.999Z</time></trkpt><trkpt lat="44.371665645324015" lon="7.713071294761756"><ele>497.0</ele><time>2026-04-09T17:29:22.999Z</time></trkpt><trkpt lat="44.37175857910138" lon="7.713122109137538"><ele>497.0</ele><time>2026-04-09T17:29:23.999Z</time></trkpt><trkpt lat="44.37186254547879" lon="7.713164814643112"><ele>497.00000000000006</ele><time>2026-04-09T17:29:24.999Z</time></trkpt><trkpt lat="44.3719499421427" lon="7.713200381885603"><ele>497.00000000000006</ele><time>2026-04-09T17:29:25.999Z</time></trkpt><trkpt lat="44.37201837296539" lon="7.713241505609466"><ele>497.0</ele><time>2026-04-09T17:29:26.999Z</time></trkpt><trkpt lat="44.37211220666502" lon="7.713280821234272"><ele>497.0</ele><time>2026-04-09T17:29:27.999Z</time></trkpt><trkpt lat="44.37219463589707" lon="7.713326438919685"><ele>497.0</ele><time>2026-04-09T17:29:28.999Z</time></trkpt><trkpt lat="44.37230367150154" lon="7.7133750958317595"><ele>497.00000000000006</ele><time>2026-04-09T17:29:29.999Z</time></trkpt><trkpt lat="44.37240530301836" lon="7.713410485138273"><ele>497.00000000000006</ele><time>2026-04-09T17:29:30.999Z</time></trkpt><trkpt lat="44.37249056054029" lon="7.713460551080106"><ele>497.0</ele><time>2026-04-09T17:29:31.999Z</time></trkpt><trkpt lat="44.37260735125635" lon="7.713508366606916"><ele>497.0</ele><time>2026-04-09T17:29:32.999Z</time></trkpt><trkpt lat="44.372704004451485" lon="7.713556520268202"><ele>496.75</ele><time>2026-04-09T17:29:33.999Z</time></trkpt><trkpt lat="44.37283043388905" lon="7.71360775589686"><ele>496.5</ele><time>2026-04-09T17:29:34.999Z</time></trkpt><trkpt lat="44.372941783338156" lon="7.713650911315218"><ele>496.25</ele><time>2026-04-09T17:29:35.999Z</time></trkpt><trkpt lat="44.37305050644773" lon="7.713713281539832"><ele>496.0</ele><time>2026-04-09T17:29:36.999Z</time></trkpt><trkpt lat="44.37316103029874" lon="7.713773811817967"><ele>496.0</ele><time>2026-04-09T17:29:37.999Z</time></trkpt><trkpt lat="44.37324963389552" lon="7.7138235161205015"><ele>496.0</ele><time>2026-04-09T17:29:38.999Z</time></trkpt><trkpt lat="44.373351657897445" lon="7.713887621049967"><ele>496.0</ele><time>2026-04-09T17:29:39.999Z</time></trkpt><trkpt lat="44.373449390901136" lon="7.713944388963407"><ele>496.0</ele><time>2026-04-09T17:29:40.999Z</time></trkpt><trkpt lat="44.373559748603164" lon="7.714016201027887"><ele>496.0</ele><time>2026-04-09T17:29:42.001Z</time></trkpt><trkpt lat="44.37366277294637" lon="7.714064707678601"><ele>496.0</ele><time>2026-04-09T17:29:43.001Z</time></trkpt><trkpt lat="44.37376161288212" lon="7.714128513164423"><ele>496.0</ele><time>2026-04-09T17:29:44.001Z</time></trkpt><trkpt lat="44.373863822954924" lon="7.714198727577816"><ele>496.0</ele><time>2026-04-09T17:29:45.001Z</time></trkpt><trkpt lat="44.37396339049499" lon="7.714265079911029"><ele>496.0</ele><time>2026-04-09T17:29:46.001Z</time></trkpt><trkpt lat="44.37407361823431" lon="7.714325092664492"><ele>496.20000000000005</ele><time>2026-04-09T17:29:47.001Z</time></trkpt><trkpt lat="44.374179448020186" lon="7.714362256372543"><ele>496.40000000000003</ele><time>2026-04-09T17:29:48.001Z</time></trkpt><trkpt lat="44.37428336081332" lon="7.714377206333412"><ele>496.6</ele><time>2026-04-09T17:29:49.001Z</time></trkpt><trkpt lat="44.37439791199258" lon="7.714390237403819"><ele>496.8</ele><time>2026-04-09T17:29:50.001Z</time></trkpt><trkpt lat="44.37451014218451" lon="7.714400045705683"><ele>497.0</ele><time>2026-04-09T17:29:51.001Z</time></trkpt><trkpt lat="44.37461134391401" lon="7.714403547613856"><ele>497.0</ele><time>2026-04-09T17:29:52.001Z</time></trkpt><trkpt lat="44.37473250400006" lon="7.714417457844804"><ele>497.0</ele><time>2026-04-09T17:29:53.001Z</time></trkpt><trkpt lat="44.37484961814713" lon="7.714428869809704"><ele>497.0</ele><time>2026-04-09T17:29:54.001Z</time></trkpt><trkpt lat="44.37495821952884" lon="7.71444002304677"><ele>497.0</ele><time>2026-04-09T17:29:55.001Z</time></trkpt><trkpt lat="44.3750746596987" lon="7.714453231418664"><ele>497.0</ele><time>2026-04-09T17:29:56.001Z</time></trkpt><trkpt lat="44.37518246837331" lon="7.714456925228176"><ele>497.00000000000006</ele><time>2026-04-09T17:29:57.001Z</time></trkpt><trkpt lat="44.37528959817989" lon="7.714467218539191"><ele>497.00000000000006</ele><time>2026-04-09T17:29:58.001Z</time></trkpt><trkpt lat="44.37539939907779" lon="7.714478415798866"><ele>497.0</ele><time>2026-04-09T17:29:59Z</time></trkpt><trkpt lat="44.37550888975619" lon="7.7144832243154475"><ele>497.0</ele><time>2026-04-09T17:30:00Z</time></trkpt><trkpt lat="44.37563223059163" lon="7.714498119425544"><ele>495.75</ele><time>2026-04-09T17:30:01Z</time></trkpt><trkpt lat="44.37574706943164" lon="7.714514328573834"><ele>494.5</ele><time>2026-04-09T17:30:02Z</time></trkpt><trkpt lat="44.375859691020224" lon="7.714527397656327"><ele>493.25</ele><time>2026-04-09T17:30:03Z</time></trkpt><trkpt lat="44.37597783173878" lon="7.714546570058136"><ele>492.0</ele><time>2026-04-09T17:30:04Z</time></trkpt><trkpt lat="44.37609188687091" lon="7.714566107040528"><ele>492.0</ele><time>2026-04-09T17:30:05Z</time></trkpt><trkpt lat="44.37621082677107" lon="7.714596483707308"><ele>492.0</ele><time>2026-04-09T17:30:06Z</time></trkpt><trkpt lat="44.37632756240751" lon="7.714637601725213"><ele>492.0</ele><time>2026-04-09T17:30:07Z</time></trkpt><trkpt lat="44.37648082991528" lon="7.714695303357683"><ele>492.0</ele><time>2026-04-09T17:30:08Z</time></trkpt><trkpt lat="44.37659735809427" lon="7.714773251841291"><ele>492.66666666666663</ele><time>2026-04-09T17:30:09Z</time></trkpt><trkpt lat="44.376723963003755" lon="7.7148802377554855"><ele>493.3333333333333</ele><time>2026-04-09T17:30:10Z</time></trkpt><trkpt lat="44.37686224961496" lon="7.714975366505807"><ele>494.0</ele><time>2026-04-09T17:30:11Z</time></trkpt><trkpt lat="44.376996828374075" lon="7.715075973102524"><ele>494.0</ele><time>2026-04-09T17:30:12Z</time></trkpt><trkpt lat="44.377141690169665" lon="7.715185997927191"><ele>494.0</ele><time>2026-04-09T17:30:13Z</time></trkpt><trkpt lat="44.37730373383233" lon="7.715309387561633"><ele>494.0</ele><time>2026-04-09T17:30:14Z</time></trkpt><trkpt lat="44.37747104300174" lon="7.715426126403322"><ele>493.0</ele><time>2026-04-09T17:30:15Z</time></trkpt><trkpt lat="44.377631662435256" lon="7.715552884412471"><ele>492.0</ele><time>2026-04-09T17:30:16Z</time></trkpt><trkpt lat="44.37779524665016" lon="7.715666494743483"><ele>491.0</ele><time>2026-04-09T17:30:17Z</time></trkpt><trkpt lat="44.37793375553179" lon="7.715770786996507"><ele>490.66666666666663</ele><time>2026-04-09T17:30:18Z</time></trkpt><trkpt lat="44.37806643131689" lon="7.7158749549001975"><ele>490.33333333333337</ele><time>2026-04-09T17:30:19Z</time></trkpt><trkpt lat="44.37821533183915" lon="7.715973002069375"><ele>490.0</ele><time>2026-04-09T17:30:20Z</time></trkpt><trkpt lat="44.37834414232664" lon="7.716068065202143"><ele>490.0</ele><time>2026-04-09T17:30:21Z</time></trkpt><trkpt lat="44.37847476545185" lon="7.716169654809478"><ele>490.0</ele><time>2026-04-09T17:30:22Z</time></trkpt><trkpt lat="44.378601404996736" lon="7.716257941070316"><ele>490.0</ele><time>2026-04-09T17:30:23Z</time></trkpt><trkpt lat="44.37871838673435" lon="7.716359665507334"><ele>490.0</ele><time>2026-04-09T17:30:24Z</time></trkpt><trkpt lat="44.37883183409895" lon="7.716460509581075"><ele>490.0</ele><time>2026-04-09T17:30:25Z</time></trkpt><trkpt lat="44.378945715809664" lon="7.716567892146363"><ele>490.0</ele><time>2026-04-09T17:30:26Z</time></trkpt><trkpt lat="44.37906438874416" lon="7.716680538362132"><ele>490.0</ele><time>2026-04-09T17:30:27Z</time></trkpt><trkpt lat="44.37917235183313" lon="7.716792799274765"><ele>490.0</ele><time>2026-04-09T17:30:28Z</time></trkpt><trkpt lat="44.37928400786058" lon="7.716903345320995"><ele>490.0</ele><time>2026-04-09T17:30:29Z</time></trkpt><trkpt lat="44.379392741489944" lon="7.717011628046993"><ele>490.0</ele><time>2026-04-09T17:30:30Z</time></trkpt><trkpt lat="44.37950386412697" lon="7.717127510866286"><ele>490.0</ele><time>2026-04-09T17:30:31Z</time></trkpt><trkpt lat="44.3796120346858" lon="7.717228426987669"><ele>490.0</ele><time>2026-04-09T17:30:32Z</time></trkpt><trkpt lat="44.37972405160216" lon="7.717332653349237"><ele>489.25</ele><time>2026-04-09T17:30:33Z</time></trkpt><trkpt lat="44.37983217408888" lon="7.717440386199003"><ele>488.5</ele><time>2026-04-09T17:30:34Z</time></trkpt><trkpt lat="44.37993298734292" lon="7.717542250838012"><ele>487.75</ele><time>2026-04-09T17:30:35Z</time></trkpt><trkpt lat="44.380042071226214" lon="7.717645306010183"><ele>487.0</ele><time>2026-04-09T17:30:36Z</time></trkpt><trkpt lat="44.38015570413167" lon="7.717752823628177"><ele>486.75</ele><time>2026-04-09T17:30:37Z</time></trkpt><trkpt lat="44.38027155955862" lon="7.717864437410708"><ele>486.5</ele><time>2026-04-09T17:30:38Z</time></trkpt><trkpt lat="44.380385159059486" lon="7.717969555343045"><ele>486.25</ele><time>2026-04-09T17:30:39Z</time></trkpt><trkpt lat="44.38050372317638" lon="7.71808178737297"><ele>486.0</ele><time>2026-04-09T17:30:40Z</time></trkpt><trkpt lat="44.38062376691098" lon="7.718188924678852"><ele>485.5</ele><time>2026-04-09T17:30:41Z</time></trkpt><trkpt lat="44.380740529362384" lon="7.71827192691809"><ele>485.0</ele><time>2026-04-09T17:30:42Z</time></trkpt><trkpt lat="44.38085726059483" lon="7.718358128144651"><ele>484.5</ele><time>2026-04-09T17:30:43Z</time></trkpt><trkpt lat="44.38098360950045" lon="7.718443813835802"><ele>484.0</ele><time>2026-04-09T17:30:44Z</time></trkpt><trkpt lat="44.381112251838424" lon="7.718522738236218"><ele>484.25</ele><time>2026-04-09T17:30:45Z</time></trkpt><trkpt lat="44.38124453627506" lon="7.718579877311444"><ele>484.5</ele><time>2026-04-09T17:30:46Z</time></trkpt><trkpt lat="44.381385402560646" lon="7.718628910250189"><ele>484.75</ele><time>2026-04-09T17:30:47Z</time></trkpt><trkpt lat="44.38153561306223" lon="7.718678405775715"><ele>485.0</ele><time>2026-04-09T17:30:48Z</time></trkpt><trkpt lat="44.3816974734323" lon="7.718717973703231"><ele>485.0</ele><time>2026-04-09T17:30:49Z</time></trkpt><trkpt lat="44.381872475927025" lon="7.718744083999431"><ele>485.0</ele><time>2026-04-09T17:30:50Z</time></trkpt><trkpt lat="44.382043277039756" lon="7.7187598461371145"><ele>485.0</ele><time>2026-04-09T17:30:51Z</time></trkpt><trkpt lat="44.38221232019592" lon="7.718768468365979"><ele>484.3333333333333</ele><time>2026-04-09T17:30:52Z</time></trkpt><trkpt lat="44.38237208375802" lon="7.718774442958013"><ele>483.66666666666663</ele><time>2026-04-09T17:30:53Z</time></trkpt><trkpt lat="44.38253952663459" lon="7.718788952959092"><ele>483.0</ele><time>2026-04-09T17:30:54Z</time></trkpt><trkpt lat="44.38269438921056" lon="7.71881138984483"><ele>483.0</ele><time>2026-04-09T17:30:55Z</time></trkpt><trkpt lat="44.38287568682342" lon="7.718824285294093"><ele>483.0</ele><time>2026-04-09T17:30:56Z</time></trkpt><trkpt lat="44.38306759604991" lon="7.718835520112425"><ele>483.0</ele><time>2026-04-09T17:30:57Z</time></trkpt><trkpt lat="44.383269925187925" lon="7.718853006137913"><ele>482.33333333333337</ele><time>2026-04-09T17:30:58Z</time></trkpt><trkpt lat="44.38346091348328" lon="7.718869387101488"><ele>481.6666666666667</ele><time>2026-04-09T17:30:59Z</time></trkpt><trkpt lat="44.38365069542026" lon="7.718885588035023"><ele>481.0</ele><time>2026-04-09T17:31:00Z</time></trkpt><trkpt lat="44.38381120888936" lon="7.7189038278487345"><ele>479.25</ele><time>2026-04-09T17:31:01Z</time></trkpt><trkpt lat="44.3839580632794" lon="7.718914740248238"><ele>477.5</ele><time>2026-04-09T17:31:02Z</time></trkpt><trkpt lat="44.38409607124944" lon="7.718924043688698"><ele>475.75</ele><time>2026-04-09T17:31:03Z</time></trkpt><trkpt lat="44.38423134275524" lon="7.7189396222398825"><ele>474.0</ele><time>2026-04-09T17:31:04Z</time></trkpt><trkpt lat="44.38436498882986" lon="7.718951090931853"><ele>474.0</ele><time>2026-04-09T17:31:05Z</time></trkpt><trkpt lat="44.38448334882667" lon="7.718959064034974"><ele>474.0</ele><time>2026-04-09T17:31:06Z</time></trkpt><trkpt lat="44.384606441838685" lon="7.718966787112506"><ele>474.0</ele><time>2026-04-09T17:31:07Z</time></trkpt><trkpt lat="44.38471160416191" lon="7.718975519297519"><ele>474.0</ele><time>2026-04-09T17:31:08Z</time></trkpt><trkpt lat="44.384813261847505" lon="7.718986453555371"><ele>474.0</ele><time>2026-04-09T17:31:09Z</time></trkpt><trkpt lat="44.38490535966482" lon="7.718992340372026"><ele>472.0</ele><time>2026-04-09T17:31:10Z</time></trkpt><trkpt lat="44.384999675665554" lon="7.719015041217758"><ele>470.0</ele><time>2026-04-09T17:31:11Z</time></trkpt><trkpt lat="44.38509603090276" lon="7.719042638325046"><ele>468.0</ele><time>2026-04-09T17:31:12Z</time></trkpt><trkpt lat="44.3851832691234" lon="7.719087569603906"><ele>466.0</ele><time>2026-04-09T17:31:13Z</time></trkpt><trkpt lat="44.38527548115598" lon="7.719147549681416"><ele>464.0</ele><time>2026-04-09T17:31:14Z</time></trkpt><trkpt lat="44.38535832950634" lon="7.719209531286173"><ele>464.0</ele><time>2026-04-09T17:31:15Z</time></trkpt><trkpt lat="44.3854379256318" lon="7.7192741783636505"><ele>464.0</ele><time>2026-04-09T17:31:16Z</time></trkpt><trkpt lat="44.38551889927392" lon="7.719342451022645"><ele>464.0</ele><time>2026-04-09T17:31:17Z</time></trkpt><trkpt lat="44.38558923384333" lon="7.719414349188022"><ele>464.0</ele><time>2026-04-09T17:31:17.999Z</time></trkpt><trkpt lat="44.38564554183168" lon="7.719482749539001"><ele>464.0</ele><time>2026-04-09T17:31:18.999Z</time></trkpt><trkpt lat="44.385729922060335" lon="7.719586497010835"><ele>463.4</ele><time>2026-04-09T17:31:20.999Z</time></trkpt><trkpt lat="44.385785092851265" lon="7.719646978711909"><ele>462.79999999999995</ele><time>2026-04-09T17:31:22.999Z</time></trkpt><trkpt lat="44.38591017551857" lon="7.7196251228853825"><ele>462.20000000000005</ele><time>2026-04-09T17:31:27.999Z</time></trkpt><trkpt lat="44.38597866063958" lon="7.719615785963264"><ele>461.6</ele><time>2026-04-09T17:31:28.999Z</time></trkpt><trkpt lat="44.386046038253745" lon="7.71960720035873"><ele>461.0</ele><time>2026-04-09T17:31:29.999Z</time></trkpt><trkpt lat="44.386184810715044" lon="7.719560788931613"><ele>461.0</ele><time>2026-04-09T17:31:31.999Z</time></trkpt><trkpt lat="44.38625150364495" lon="7.71953162689505"><ele>461.00000000000006</ele><time>2026-04-09T17:31:32.999Z</time></trkpt><trkpt lat="44.38631830767349" lon="7.719499221190194"><ele>461.0</ele><time>2026-04-09T17:31:33.999Z</time></trkpt><trkpt lat="44.38639022463121" lon="7.71947113738624"><ele>461.0</ele><time>2026-04-09T17:31:34.999Z</time></trkpt><trkpt lat="44.38646403989763" lon="7.719452539581425"><ele>461.00000000000006</ele><time>2026-04-09T17:31:35.999Z</time></trkpt><trkpt lat="44.38652652649256" lon="7.719431356351549"><ele>461.0</ele><time>2026-04-09T17:31:36.999Z</time></trkpt><trkpt lat="44.38659788014846" lon="7.719413266659509"><ele>461.0</ele><time>2026-04-09T17:31:37.999Z</time></trkpt><trkpt lat="44.38668605358316" lon="7.719397725086848"><ele>459.0</ele><time>2026-04-09T17:31:38.999Z</time></trkpt><trkpt lat="44.386784112140525" lon="7.719375707195771"><ele>457.0</ele><time>2026-04-09T17:31:39.999Z</time></trkpt><trkpt lat="44.38686235977195" lon="7.719372243959287"><ele>455.0</ele><time>2026-04-09T17:31:40.999Z</time></trkpt><trkpt lat="44.38696220878709" lon="7.719369482277503"><ele>453.0</ele><time>2026-04-09T17:31:41.999Z</time></trkpt><trkpt lat="44.387052356064395" lon="7.719379597039813"><ele>451.0</ele><time>2026-04-09T17:31:42.999Z</time></trkpt><trkpt lat="44.38713846775086" lon="7.719395771988669"><ele>450.6</ele><time>2026-04-09T17:31:43.999Z</time></trkpt><trkpt lat="44.38720970227217" lon="7.71942847056428"><ele>450.20000000000005</ele><time>2026-04-09T17:31:44.999Z</time></trkpt><trkpt lat="44.38728364464442" lon="7.719486369787415"><ele>449.79999999999995</ele><time>2026-04-09T17:31:45.999Z</time></trkpt><trkpt lat="44.38738231210819" lon="7.719577143381282"><ele>449.4</ele><time>2026-04-09T17:31:46.999Z</time></trkpt><trkpt lat="44.387468336780685" lon="7.719681919268848"><ele>449.0</ele><time>2026-04-09T17:31:48.001Z</time></trkpt><trkpt lat="44.38756005339811" lon="7.719804822861398"><ele>449.0</ele><time>2026-04-09T17:31:49.001Z</time></trkpt><trkpt lat="44.38765960366996" lon="7.719925343768436"><ele>449.0</ele><time>2026-04-09T17:31:50.001Z</time></trkpt><trkpt lat="44.38775890218618" lon="7.720066595050016"><ele>449.0</ele><time>2026-04-09T17:31:51.001Z</time></trkpt><trkpt lat="44.38786559427123" lon="7.720216316107382"><ele>449.0</ele><time>2026-04-09T17:31:52.001Z</time></trkpt><trkpt lat="44.38799498871017" lon="7.720366928970521"><ele>448.3333333333333</ele><time>2026-04-09T17:31:53.001Z</time></trkpt><trkpt lat="44.388140242635366" lon="7.720513739320512"><ele>447.66666666666663</ele><time>2026-04-09T17:31:54.001Z</time></trkpt><trkpt lat="44.38826910709925" lon="7.720687461612956"><ele>447.0</ele><time>2026-04-09T17:31:55.001Z</time></trkpt><trkpt lat="44.388401515100114" lon="7.720864025612891"><ele>447.0</ele><time>2026-04-09T17:31:56.001Z</time></trkpt><trkpt lat="44.38853492530002" lon="7.721048576141029"><ele>447.0</ele><time>2026-04-09T17:31:57.001Z</time></trkpt><trkpt lat="44.38868099628079" lon="7.721224220848449"><ele>447.0</ele><time>2026-04-09T17:31:58.001Z</time></trkpt><trkpt lat="44.38881174423917" lon="7.72138703884583"><ele>446.66666666666663</ele><time>2026-04-09T17:31:59.001Z</time></trkpt><trkpt lat="44.3889368085859" lon="7.7215277777389115"><ele>446.3333333333333</ele><time>2026-04-09T17:32:00.001Z</time></trkpt><trkpt lat="44.389059931415034" lon="7.721678398173735"><ele>446.0</ele><time>2026-04-09T17:32:01.001Z</time></trkpt><trkpt lat="44.38917475248867" lon="7.721820466706314"><ele>446.0</ele><time>2026-04-09T17:32:02.001Z</time></trkpt><trkpt lat="44.38927299649712" lon="7.721989381580134"><ele>446.0</ele><time>2026-04-09T17:32:03.001Z</time></trkpt><trkpt lat="44.38938015920979" lon="7.7221444224603415"><ele>446.0</ele><time>2026-04-09T17:32:04Z</time></trkpt><trkpt lat="44.38947150311212" lon="7.722326643940257"><ele>446.0</ele><time>2026-04-09T17:32:05Z</time></trkpt><trkpt lat="44.38955342192689" lon="7.7225274552658325"><ele>446.0</ele><time>2026-04-09T17:32:06Z</time></trkpt><trkpt lat="44.38963480454098" lon="7.72274035260569"><ele>446.0</ele><time>2026-04-09T17:32:07Z</time></trkpt><trkpt lat="44.389727326055734" lon="7.722953976255168"><ele>445.3333333333333</ele><time>2026-04-09T17:32:08Z</time></trkpt><trkpt lat="44.389814059185596" lon="7.72318309097431"><ele>444.66666666666663</ele><time>2026-04-09T17:32:09Z</time></trkpt><trkpt lat="44.38990709509844" lon="7.723422709120519"><ele>444.0</ele><time>2026-04-09T17:32:10Z</time></trkpt><trkpt lat="44.39000014097639" lon="7.723661186578706"><ele>443.66666666666663</ele><time>2026-04-09T17:32:11Z</time></trkpt><trkpt lat="44.390095331105385" lon="7.72389556442311"><ele>443.3333333333333</ele><time>2026-04-09T17:32:12Z</time></trkpt><trkpt lat="44.39018834853702" lon="7.724152778127568"><ele>443.0</ele><time>2026-04-09T17:32:13Z</time></trkpt><trkpt lat="44.390283525360054" lon="7.724386095149414"><ele>443.0</ele><time>2026-04-09T17:32:14Z</time></trkpt><trkpt lat="44.39037433438714" lon="7.724611341632337"><ele>443.0</ele><time>2026-04-09T17:32:15Z</time></trkpt><trkpt lat="44.390466399715464" lon="7.724848020443707"><ele>443.0</ele><time>2026-04-09T17:32:16Z</time></trkpt><trkpt lat="44.39055984364254" lon="7.725093391228033"><ele>442.3333333333333</ele><time>2026-04-09T17:32:17Z</time></trkpt><trkpt lat="44.39065796527835" lon="7.725340067174823"><ele>441.66666666666663</ele><time>2026-04-09T17:32:18Z</time></trkpt><trkpt lat="44.39075501279563" lon="7.725586239942958"><ele>441.0</ele><time>2026-04-09T17:32:19Z</time></trkpt><trkpt lat="44.39085022011493" lon="7.725832569523786"><ele>440.66666666666663</ele><time>2026-04-09T17:32:20Z</time></trkpt><trkpt lat="44.39095090908305" lon="7.7260886563918545"><ele>440.3333333333333</ele><time>2026-04-09T17:32:21Z</time></trkpt><trkpt lat="44.39105354977766" lon="7.7263620677471305"><ele>440.0</ele><time>2026-04-09T17:32:22Z</time></trkpt><trkpt lat="44.39116217412608" lon="7.726639642697091"><ele>440.0</ele><time>2026-04-09T17:32:23Z</time></trkpt><trkpt lat="44.39126931689742" lon="7.726923898693369"><ele>440.0</ele><time>2026-04-09T17:32:24Z</time></trkpt><trkpt lat="44.391376024089695" lon="7.7272149851222816"><ele>440.5</ele><time>2026-04-09T17:32:25Z</time></trkpt><trkpt lat="44.391480654619855" lon="7.727490559398034"><ele>441.0</ele><time>2026-04-09T17:32:26Z</time></trkpt><trkpt lat="44.391595654493216" lon="7.7277665574913605"><ele>440.0</ele><time>2026-04-09T17:32:27Z</time></trkpt><trkpt lat="44.391703805987866" lon="7.728050977396049"><ele>439.0</ele><time>2026-04-09T17:32:28Z</time></trkpt><trkpt lat="44.391809297354456" lon="7.72833104819315"><ele>439.0</ele><time>2026-04-09T17:32:29Z</time></trkpt><trkpt lat="44.39191332199962" lon="7.728604233198328"><ele>439.0</ele><time>2026-04-09T17:32:30Z</time></trkpt><trkpt lat="44.39201750494613" lon="7.728879529575131"><ele>439.0</ele><time>2026-04-09T17:32:31Z</time></trkpt><trkpt lat="44.39212572617085" lon="7.729150075816741"><ele>437.6666666666667</ele><time>2026-04-09T17:32:32Z</time></trkpt><trkpt lat="44.39222848235729" lon="7.729413292364907"><ele>436.33333333333337</ele><time>2026-04-09T17:32:33Z</time></trkpt><trkpt lat="44.39232695475554" lon="7.729675488800265"><ele>435.0</ele><time>2026-04-09T17:32:34Z</time></trkpt><trkpt lat="44.39242767423085" lon="7.729934951564925"><ele>435.0</ele><time>2026-04-09T17:32:35Z</time></trkpt><trkpt lat="44.39252003287724" lon="7.730182398225086"><ele>435.0</ele><time>2026-04-09T17:32:36Z</time></trkpt><trkpt lat="44.392615991866585" lon="7.7304371411891655"><ele>435.0</ele><time>2026-04-09T17:32:37Z</time></trkpt><trkpt lat="44.392711253186576" lon="7.730685527948302"><ele>435.0</ele><time>2026-04-09T17:32:38Z</time></trkpt><trkpt lat="44.39280334839187" lon="7.7309297129373755"><ele>435.0</ele><time>2026-04-09T17:32:39Z</time></trkpt><trkpt lat="44.39289728923109" lon="7.731167125443785"><ele>435.0</ele><time>2026-04-09T17:32:40Z</time></trkpt><trkpt lat="44.39299269556327" lon="7.731414076842329"><ele>435.33333333333337</ele><time>2026-04-09T17:32:41Z</time></trkpt><trkpt lat="44.39308833660705" lon="7.731659673004319"><ele>435.6666666666667</ele><time>2026-04-09T17:32:42Z</time></trkpt><trkpt lat="44.39318315806888" lon="7.73189504994919"><ele>436.0</ele><time>2026-04-09T17:32:43Z</time></trkpt><trkpt lat="44.39327411386685" lon="7.732108700323737"><ele>436.0</ele><time>2026-04-09T17:32:44Z</time></trkpt><trkpt lat="44.3933576256592" lon="7.732324760957273"><ele>436.0</ele><time>2026-04-09T17:32:45Z</time></trkpt><trkpt lat="44.39345210464443" lon="7.7325428072811855"><ele>436.0</ele><time>2026-04-09T17:32:46Z</time></trkpt><trkpt lat="44.39355604505802" lon="7.732761068121236"><ele>435.6666666666667</ele><time>2026-04-09T17:32:47Z</time></trkpt><trkpt lat="44.39366833435429" lon="7.732982786407052"><ele>435.33333333333337</ele><time>2026-04-09T17:32:48Z</time></trkpt><trkpt lat="44.39378581344676" lon="7.733209740209248"><ele>435.0</ele><time>2026-04-09T17:32:49Z</time></trkpt><trkpt lat="44.39389985800274" lon="7.733432897852104"><ele>434.66666666666663</ele><time>2026-04-09T17:32:50Z</time></trkpt><trkpt lat="44.394017751992884" lon="7.733652422976425"><ele>434.3333333333333</ele><time>2026-04-09T17:32:51Z</time></trkpt><trkpt lat="44.3941382279517" lon="7.733880993856285"><ele>434.0</ele><time>2026-04-09T17:32:52Z</time></trkpt><trkpt lat="44.394252158094325" lon="7.734111497921462"><ele>434.0</ele><time>2026-04-09T17:32:53Z</time></trkpt><trkpt lat="44.394372853801336" lon="7.734313128676851"><ele>434.0</ele><time>2026-04-09T17:32:54Z</time></trkpt><trkpt lat="44.3944892883177" lon="7.734532633965181"><ele>434.0</ele><time>2026-04-09T17:32:55Z</time></trkpt><trkpt lat="44.39460635314623" lon="7.73475495164654"><ele>434.0</ele><time>2026-04-09T17:32:56Z</time></trkpt><trkpt lat="44.39472633817818" lon="7.734975084093746"><ele>434.0</ele><time>2026-04-09T17:32:57Z</time></trkpt><trkpt lat="44.394839420378496" lon="7.735188279122489"><ele>434.0</ele><time>2026-04-09T17:32:58Z</time></trkpt><trkpt lat="44.39495442006182" lon="7.73541182283847"><ele>434.0</ele><time>2026-04-09T17:32:59Z</time></trkpt><trkpt lat="44.395066157901695" lon="7.735630538884539"><ele>434.0</ele><time>2026-04-09T17:33:00Z</time></trkpt><trkpt lat="44.39517879149407" lon="7.735837041290984"><ele>434.0</ele><time>2026-04-09T17:33:01Z</time></trkpt><trkpt lat="44.39529685430549" lon="7.736044461546918"><ele>433.66666666666663</ele><time>2026-04-09T17:33:02Z</time></trkpt><trkpt lat="44.39541606943356" lon="7.736263654757543"><ele>433.33333333333337</ele><time>2026-04-09T17:33:03Z</time></trkpt><trkpt lat="44.395530972697095" lon="7.736483206365549"><ele>433.0</ele><time>2026-04-09T17:33:04Z</time></trkpt><trkpt lat="44.395646144321084" lon="7.736708198688605"><ele>432.33333333333337</ele><time>2026-04-09T17:33:05Z</time></trkpt><trkpt lat="44.395767970553855" lon="7.7369444057664225"><ele>431.66666666666663</ele><time>2026-04-09T17:33:06Z</time></trkpt><trkpt lat="44.39589082588506" lon="7.73718399141987"><ele>431.0</ele><time>2026-04-09T17:33:07Z</time></trkpt><trkpt lat="44.39601715080562" lon="7.737434986747432"><ele>431.0</ele><time>2026-04-09T17:33:08Z</time></trkpt><trkpt lat="44.396146200799194" lon="7.7376790739636006"><ele>431.0</ele><time>2026-04-09T17:33:08.999Z</time></trkpt><trkpt lat="44.39627832136695" lon="7.737941565666179"><ele>431.0</ele><time>2026-04-09T17:33:09.999Z</time></trkpt><trkpt lat="44.396422068414026" lon="7.738199265543644"><ele>431.0</ele><time>2026-04-09T17:33:10.999Z</time></trkpt><trkpt lat="44.396557485707746" lon="7.738476838981095"><ele>431.0</ele><time>2026-04-09T17:33:11.999Z</time></trkpt><trkpt lat="44.39668960180027" lon="7.738717419528978"><ele>430.66666666666663</ele><time>2026-04-09T17:33:12.999Z</time></trkpt><trkpt lat="44.39681815727692" lon="7.7389393552439785"><ele>430.33333333333337</ele><time>2026-04-09T17:33:13.999Z</time></trkpt><trkpt lat="44.39694803320378" lon="7.739175321578325"><ele>430.0</ele><time>2026-04-09T17:33:14.999Z</time></trkpt><trkpt lat="44.39707226429076" lon="7.739416524317038"><ele>429.6666666666667</ele><time>2026-04-09T17:33:15.999Z</time></trkpt><trkpt lat="44.39719249886587" lon="7.739632556907146"><ele>429.33333333333337</ele><time>2026-04-09T17:33:16.999Z</time></trkpt><trkpt lat="44.397305479998856" lon="7.739840236026883"><ele>429.0</ele><time>2026-04-09T17:33:17.999Z</time></trkpt><trkpt lat="44.397415101431434" lon="7.740058235431013"><ele>428.66666666666663</ele><time>2026-04-09T17:33:18.999Z</time></trkpt><trkpt lat="44.3975319071452" lon="7.740258167816381"><ele>428.3333333333333</ele><time>2026-04-09T17:33:19.999Z</time></trkpt><trkpt lat="44.397645952750494" lon="7.740454495151227"><ele>428.0</ele><time>2026-04-09T17:33:20.999Z</time></trkpt><trkpt lat="44.39775915851629" lon="7.74063385033641"><ele>428.0</ele><time>2026-04-09T17:33:21.999Z</time></trkpt><trkpt lat="44.39787448735736" lon="7.740799913822485"><ele>428.0</ele><time>2026-04-09T17:33:22.999Z</time></trkpt><trkpt lat="44.39800399620823" lon="7.740959222219725"><ele>428.0</ele><time>2026-04-09T17:33:23.999Z</time></trkpt><trkpt lat="44.39814945717512" lon="7.741109450198685"><ele>428.0</ele><time>2026-04-09T17:33:24.999Z</time></trkpt><trkpt lat="44.398300299173705" lon="7.741259824279244"><ele>428.0</ele><time>2026-04-09T17:33:25.999Z</time></trkpt><trkpt lat="44.39846289894763" lon="7.741413904458543"><ele>428.0</ele><time>2026-04-09T17:33:26.999Z</time></trkpt><trkpt lat="44.398626714355174" lon="7.741571453784746"><ele>428.0</ele><time>2026-04-09T17:33:27.999Z</time></trkpt><trkpt lat="44.39879702207863" lon="7.74173750202729"><ele>428.0</ele><time>2026-04-09T17:33:28.999Z</time></trkpt><trkpt lat="44.39897021222069" lon="7.741902086242613"><ele>428.0</ele><time>2026-04-09T17:33:29.999Z</time></trkpt><trkpt lat="44.39914753153568" lon="7.742065238011221"><ele>427.3333333333333</ele><time>2026-04-09T17:33:30.999Z</time></trkpt><trkpt lat="44.399318940807156" lon="7.742226556958183"><ele>426.66666666666663</ele><time>2026-04-09T17:33:31.999Z</time></trkpt><trkpt lat="44.399483724885236" lon="7.742384439111703"><ele>426.0</ele><time>2026-04-09T17:33:32.999Z</time></trkpt><trkpt lat="44.39963420392584" lon="7.742543933321512"><ele>426.0</ele><time>2026-04-09T17:33:33.999Z</time></trkpt><trkpt lat="44.39976058338826" lon="7.742656949684073"><ele>426.0</ele><time>2026-04-09T17:33:34.999Z</time></trkpt><trkpt lat="44.39986923115558" lon="7.742749999301592"><ele>426.0</ele><time>2026-04-09T17:33:35.999Z</time></trkpt><trkpt lat="44.39995673369153" lon="7.742836707579647"><ele>426.0</ele><time>2026-04-09T17:33:36.999Z</time></trkpt><trkpt lat="44.400031322181135" lon="7.742932032191983"><ele>426.0</ele><time>2026-04-09T17:33:37.999Z</time></trkpt><trkpt lat="44.400105231759085" lon="7.743009879576613"><ele>426.0</ele><time>2026-04-09T17:33:38.999Z</time></trkpt><trkpt lat="44.400161834688426" lon="7.743091271093966"><ele>426.0</ele><time>2026-04-09T17:33:39.999Z</time></trkpt><trkpt lat="44.400209575996826" lon="7.743176913904183"><ele>426.0</ele><time>2026-04-09T17:33:40.999Z</time></trkpt><trkpt lat="44.400255809890716" lon="7.7432554169820165"><ele>426.0</ele><time>2026-04-09T17:33:41.999Z</time></trkpt><trkpt lat="44.400291760589695" lon="7.743328542791812"><ele>426.0</ele><time>2026-04-09T17:33:42.999Z</time></trkpt><trkpt lat="44.40037538836205" lon="7.74343901936456"><ele>426.0</ele><time>2026-04-09T17:33:44.999Z</time></trkpt><trkpt lat="44.400436869154895" lon="7.743478248932265"><ele>426.0</ele><time>2026-04-09T17:33:45.999Z</time></trkpt><trkpt lat="44.40051826400807" lon="7.743505822826526"><ele>426.0</ele><time>2026-04-09T17:33:46.999Z</time></trkpt><trkpt lat="44.40060769491669" lon="7.743559872773965"><ele>426.0</ele><time>2026-04-09T17:33:47.999Z</time></trkpt><trkpt lat="44.40069857836944" lon="7.743654635452934"><ele>426.0</ele><time>2026-04-09T17:33:48.999Z</time></trkpt><trkpt lat="44.40081169355807" lon="7.7437616697309375"><ele>426.25</ele><time>2026-04-09T17:33:49.999Z</time></trkpt><trkpt lat="44.40091085671154" lon="7.743881288083401"><ele>426.5</ele><time>2026-04-09T17:33:50.999Z</time></trkpt><trkpt lat="44.40102278267825" lon="7.744010884047045"><ele>426.75</ele><time>2026-04-09T17:33:51.999Z</time></trkpt><trkpt lat="44.40114535358829" lon="7.744155336356768"><ele>427.0</ele><time>2026-04-09T17:33:52.999Z</time></trkpt><trkpt lat="44.40127508643815" lon="7.744304275884822"><ele>426.33333333333337</ele><time>2026-04-09T17:33:54.001Z</time></trkpt><trkpt lat="44.40140822299097" lon="7.74446127194004"><ele>425.66666666666663</ele><time>2026-04-09T17:33:55.001Z</time></trkpt><trkpt lat="44.401551329681574" lon="7.744620235501895"><ele>425.0</ele><time>2026-04-09T17:33:56.001Z</time></trkpt><trkpt lat="44.40169578076223" lon="7.744787490330193"><ele>425.0</ele><time>2026-04-09T17:33:57.001Z</time></trkpt><trkpt lat="44.40184140820396" lon="7.744957691706664"><ele>425.0</ele><time>2026-04-09T17:33:58.001Z</time></trkpt><trkpt lat="44.40199437902824" lon="7.745136558788519"><ele>425.0</ele><time>2026-04-09T17:33:59.001Z</time></trkpt><trkpt lat="44.402147421681775" lon="7.745308184696784"><ele>424.66666666666663</ele><time>2026-04-09T17:34:00.001Z</time></trkpt><trkpt lat="44.402291973414634" lon="7.745468854131325"><ele>424.33333333333337</ele><time>2026-04-09T17:34:01.001Z</time></trkpt><trkpt lat="44.40243048625622" lon="7.745626009139904"><ele>424.0</ele><time>2026-04-09T17:34:02Z</time></trkpt><trkpt lat="44.402570795495826" lon="7.745783850221804"><ele>424.0</ele><time>2026-04-09T17:34:03Z</time></trkpt><trkpt lat="44.40270272612954" lon="7.745936271521468"><ele>424.0</ele><time>2026-04-09T17:34:04Z</time></trkpt><trkpt lat="44.40285280485861" lon="7.74609737981076"><ele>424.0</ele><time>2026-04-09T17:34:05Z</time></trkpt><trkpt lat="44.40301009670223" lon="7.746237152527917"><ele>423.6666666666667</ele><time>2026-04-09T17:34:06Z</time></trkpt><trkpt lat="44.40317503455076" lon="7.746372841786226"><ele>423.33333333333337</ele><time>2026-04-09T17:34:07Z</time></trkpt><trkpt lat="44.40335481258298" lon="7.746510539478161"><ele>423.0</ele><time>2026-04-09T17:34:08Z</time></trkpt><trkpt lat="44.40353589155566" lon="7.7466420434442185"><ele>423.0</ele><time>2026-04-09T17:34:09Z</time></trkpt><trkpt lat="44.403729799749435" lon="7.7467601586302575"><ele>423.0</ele><time>2026-04-09T17:34:10Z</time></trkpt><trkpt lat="44.40393388149876" lon="7.746875929844984"><ele>423.0</ele><time>2026-04-09T17:34:11Z</time></trkpt><trkpt lat="44.40414137070013" lon="7.746982662690444"><ele>422.0</ele><time>2026-04-09T17:34:12Z</time></trkpt><trkpt lat="44.40435696687565" lon="7.747104382214208"><ele>421.0</ele><time>2026-04-09T17:34:13Z</time></trkpt><trkpt lat="44.404575915647314" lon="7.747231524103066"><ele>421.5</ele><time>2026-04-09T17:34:14Z</time></trkpt><trkpt lat="44.40479523889457" lon="7.7473552179607905"><ele>422.0</ele><time>2026-04-09T17:34:15Z</time></trkpt><trkpt lat="44.405011694877636" lon="7.747498821040439"><ele>422.0</ele><time>2026-04-09T17:34:16Z</time></trkpt><trkpt lat="44.405228735082915" lon="7.747628052611791"><ele>422.0</ele><time>2026-04-09T17:34:17Z</time></trkpt><trkpt lat="44.40545629961853" lon="7.747758778846795"><ele>422.0</ele><time>2026-04-09T17:34:18Z</time></trkpt><trkpt lat="44.40568185026426" lon="7.747896225842606"><ele>422.0</ele><time>2026-04-09T17:34:19Z</time></trkpt><trkpt lat="44.40590702782456" lon="7.748020274146414"><ele>422.0</ele><time>2026-04-09T17:34:20Z</time></trkpt><trkpt lat="44.40612596165892" lon="7.748156558741863"><ele>422.0</ele><time>2026-04-09T17:34:21Z</time></trkpt><trkpt lat="44.40634465296895" lon="7.748284533923872"><ele>422.0</ele><time>2026-04-09T17:34:22Z</time></trkpt><trkpt lat="44.40654388694968" lon="7.748401882432006"><ele>422.0</ele><time>2026-04-09T17:34:23Z</time></trkpt><trkpt lat="44.40673823776267" lon="7.748511430683971"><ele>422.0</ele><time>2026-04-09T17:34:24Z</time></trkpt><trkpt lat="44.4069187267607" lon="7.748618773777923"><ele>421.66666666666663</ele><time>2026-04-09T17:34:25Z</time></trkpt><trkpt lat="44.407092604651545" lon="7.748725127695015"><ele>421.33333333333337</ele><time>2026-04-09T17:34:26Z</time></trkpt><trkpt lat="44.40726464227444" lon="7.74883132286959"><ele>421.0</ele><time>2026-04-09T17:34:27Z</time></trkpt><trkpt lat="44.40744008265779" lon="7.748941595948309"><ele>421.0</ele><time>2026-04-09T17:34:28Z</time></trkpt><trkpt lat="44.4076180908113" lon="7.749057375738652"><ele>421.0</ele><time>2026-04-09T17:34:29Z</time></trkpt><trkpt lat="44.407812367138064" lon="7.7491838598819545"><ele>421.0</ele><time>2026-04-09T17:34:30Z</time></trkpt><trkpt lat="44.40799742065327" lon="7.74932095026139"><ele>420.33333333333337</ele><time>2026-04-09T17:34:31Z</time></trkpt><trkpt lat="44.40818557523321" lon="7.749464917069833"><ele>419.66666666666663</ele><time>2026-04-09T17:34:32Z</time></trkpt><trkpt lat="44.408375381737415" lon="7.749616242515313"><ele>419.0</ele><time>2026-04-09T17:34:33Z</time></trkpt><trkpt lat="44.40856957741082" lon="7.74976740163471"><ele>419.0</ele><time>2026-04-09T17:34:34Z</time></trkpt><trkpt lat="44.408746721274795" lon="7.749910428412717"><ele>419.0</ele><time>2026-04-09T17:34:35Z</time></trkpt><trkpt lat="44.408910219596265" lon="7.750055643619963"><ele>419.0</ele><time>2026-04-09T17:34:36Z</time></trkpt><trkpt lat="44.40908552335186" lon="7.750202791330549"><ele>418.66666666666663</ele><time>2026-04-09T17:34:37Z</time></trkpt><trkpt lat="44.409264102722354" lon="7.750346747543589"><ele>418.33333333333337</ele><time>2026-04-09T17:34:38Z</time></trkpt><trkpt lat="44.40943923212612" lon="7.7504904631104266"><ele>418.0</ele><time>2026-04-09T17:34:39Z</time></trkpt><trkpt lat="44.40962647958908" lon="7.750625415363888"><ele>418.33333333333337</ele><time>2026-04-09T17:34:40Z</time></trkpt><trkpt lat="44.40980802439263" lon="7.750782881053153"><ele>418.66666666666663</ele><time>2026-04-09T17:34:41Z</time></trkpt><trkpt lat="44.409990739513475" lon="7.750926572994623"><ele>419.0</ele><time>2026-04-09T17:34:42Z</time></trkpt><trkpt lat="44.410176440846655" lon="7.751081318071765"><ele>419.0</ele><time>2026-04-09T17:34:43Z</time></trkpt><trkpt lat="44.41035393837921" lon="7.7512343419458345"><ele>419.0</ele><time>2026-04-09T17:34:44Z</time></trkpt><trkpt lat="44.41054168928959" lon="7.751387649561764"><ele>419.0</ele><time>2026-04-09T17:34:45Z</time></trkpt><trkpt lat="44.41072939093574" lon="7.751538361843269"><ele>418.66666666666663</ele><time>2026-04-09T17:34:46Z</time></trkpt><trkpt lat="44.41092243955842" lon="7.751688310311349"><ele>418.33333333333337</ele><time>2026-04-09T17:34:47Z</time></trkpt><trkpt lat="44.411119527683695" lon="7.751832611043563"><ele>418.0</ele><time>2026-04-09T17:34:48Z</time></trkpt><trkpt lat="44.411323486195116" lon="7.751967986015187"><ele>417.33333333333337</ele><time>2026-04-09T17:34:49Z</time></trkpt><trkpt lat="44.41152514186877" lon="7.752105402742761"><ele>416.66666666666663</ele><time>2026-04-09T17:34:50Z</time></trkpt><trkpt lat="44.411714871518484" lon="7.752226438523408"><ele>416.0</ele><time>2026-04-09T17:34:51Z</time></trkpt><trkpt lat="44.411894782007565" lon="7.752346103273988"><ele>416.0</ele><time>2026-04-09T17:34:52Z</time></trkpt><trkpt lat="44.41206778223174" lon="7.752462660538482"><ele>416.0</ele><time>2026-04-09T17:34:53Z</time></trkpt><trkpt lat="44.41223023937003" lon="7.752582702586532"><ele>416.0</ele><time>2026-04-09T17:34:54Z</time></trkpt><trkpt lat="44.41240032128786" lon="7.752710571474306"><ele>416.3333333333333</ele><time>2026-04-09T17:34:55Z</time></trkpt><trkpt lat="44.4125584070226" lon="7.752835446936911"><ele>416.66666666666663</ele><time>2026-04-09T17:34:56Z</time></trkpt><trkpt lat="44.41272530501285" lon="7.752970638875573"><ele>417.0</ele><time>2026-04-09T17:34:57Z</time></trkpt><trkpt lat="44.4128930464402" lon="7.753104809914934"><ele>417.0</ele><time>2026-04-09T17:34:58Z</time></trkpt><trkpt lat="44.41306103802853" lon="7.753247369240696"><ele>417.0</ele><time>2026-04-09T17:34:59Z</time></trkpt><trkpt lat="44.413240989479355" lon="7.753389189321721"><ele>417.0</ele><time>2026-04-09T17:35:00Z</time></trkpt><trkpt lat="44.41341548144666" lon="7.753528943129404"><ele>416.33333333333337</ele><time>2026-04-09T17:35:01Z</time></trkpt><trkpt lat="44.413594308467395" lon="7.753674008204547"><ele>415.6666666666667</ele><time>2026-04-09T17:35:01.999Z</time></trkpt><trkpt lat="44.413768569151514" lon="7.753829139037507"><ele>415.0</ele><time>2026-04-09T17:35:02.999Z</time></trkpt><trkpt lat="44.41394723629462" lon="7.753971268880868"><ele>415.0</ele><time>2026-04-09T17:35:03.999Z</time></trkpt><trkpt lat="44.41413311734102" lon="7.75410672131441"><ele>415.0</ele><time>2026-04-09T17:35:04.999Z</time></trkpt><trkpt lat="44.41431394056509" lon="7.754245618579793"><ele>415.0</ele><time>2026-04-09T17:35:05.999Z</time></trkpt><trkpt lat="44.414494030564086" lon="7.75437507356568"><ele>415.0</ele><time>2026-04-09T17:35:06.999Z</time></trkpt><trkpt lat="44.41467436861503" lon="7.754498878444703"><ele>415.0</ele><time>2026-04-09T17:35:07.999Z</time></trkpt><trkpt lat="44.41485260213129" lon="7.754619605216492"><ele>415.0</ele><time>2026-04-09T17:35:08.999Z</time></trkpt><trkpt lat="44.41502990011299" lon="7.754738069155951"><ele>415.0</ele><time>2026-04-09T17:35:09.999Z</time></trkpt><trkpt lat="44.41520754783416" lon="7.7548586980176895"><ele>415.0</ele><time>2026-04-09T17:35:10.999Z</time></trkpt><trkpt lat="44.415389104627884" lon="7.754979699443947"><ele>415.0</ele><time>2026-04-09T17:35:11.999Z</time></trkpt><trkpt lat="44.415572639507594" lon="7.755104067198635"><ele>414.33333333333337</ele><time>2026-04-09T17:35:12.999Z</time></trkpt><trkpt lat="44.4157516382843" lon="7.755229570355912"><ele>413.66666666666663</ele><time>2026-04-09T17:35:13.999Z</time></trkpt><trkpt lat="44.41592497457297" lon="7.755340787734245"><ele>413.0</ele><time>2026-04-09T17:35:14.999Z</time></trkpt><trkpt lat="44.41609280000674" lon="7.755455349942572"><ele>413.0</ele><time>2026-04-09T17:35:15.999Z</time></trkpt><trkpt lat="44.41626481484462" lon="7.755569759714191"><ele>413.0</ele><time>2026-04-09T17:35:16.999Z</time></trkpt><trkpt lat="44.41643431840635" lon="7.75568112672751"><ele>413.0</ele><time>2026-04-09T17:35:17.999Z</time></trkpt><trkpt lat="44.41661012679947" lon="7.755794076501464"><ele>413.0</ele><time>2026-04-09T17:35:18.999Z</time></trkpt><trkpt lat="44.41679380608718" lon="7.755906071987118"><ele>413.0</ele><time>2026-04-09T17:35:19.999Z</time></trkpt><trkpt lat="44.41697064725238" lon="7.75601528563777"><ele>413.0</ele><time>2026-04-09T17:35:20.999Z</time></trkpt><trkpt lat="44.41713861527405" lon="7.7561259527043"><ele>412.3333333333333</ele><time>2026-04-09T17:35:21.999Z</time></trkpt><trkpt lat="44.41729459403573" lon="7.756233753822846"><ele>411.66666666666663</ele><time>2026-04-09T17:35:22.999Z</time></trkpt><trkpt lat="44.41745871233004" lon="7.756339026434107"><ele>411.0</ele><time>2026-04-09T17:35:23.999Z</time></trkpt><trkpt lat="44.41762495054461" lon="7.7564446351565985"><ele>411.0</ele><time>2026-04-09T17:35:24.999Z</time></trkpt><trkpt lat="44.417789668255544" lon="7.7565491829605095"><ele>411.0</ele><time>2026-04-09T17:35:25.999Z</time></trkpt><trkpt lat="44.417954320387274" lon="7.756651131431088"><ele>411.0</ele><time>2026-04-09T17:35:26.999Z</time></trkpt><trkpt lat="44.41812137202193" lon="7.756758724595349"><ele>411.0</ele><time>2026-04-09T17:35:27.999Z</time></trkpt><trkpt lat="44.4182858127364" lon="7.756867952057494"><ele>411.0</ele><time>2026-04-09T17:35:28.999Z</time></trkpt><trkpt lat="44.41846213031219" lon="7.7569784822201315"><ele>411.0</ele><time>2026-04-09T17:35:29.999Z</time></trkpt><trkpt lat="44.41864623871415" lon="7.757090413593684"><ele>411.0</ele><time>2026-04-09T17:35:30.999Z</time></trkpt><trkpt lat="44.41883152906978" lon="7.757210126887201"><ele>411.0</ele><time>2026-04-09T17:35:31.999Z</time></trkpt><trkpt lat="44.41899955031472" lon="7.757320824896823"><ele>411.0</ele><time>2026-04-09T17:35:32.999Z</time></trkpt><trkpt lat="44.419161680101354" lon="7.75742365526344"><ele>411.0</ele><time>2026-04-09T17:35:33.999Z</time></trkpt><trkpt lat="44.41931163980629" lon="7.757524311006857"><ele>411.0</ele><time>2026-04-09T17:35:34.999Z</time></trkpt><trkpt lat="44.41943723947117" lon="7.757602875435716"><ele>411.0</ele><time>2026-04-09T17:35:35.999Z</time></trkpt><trkpt lat="44.419553626443744" lon="7.757682115119321"><ele>411.0</ele><time>2026-04-09T17:35:36.999Z</time></trkpt><trkpt lat="44.41965826585071" lon="7.757762253059113"><ele>410.8</ele><time>2026-04-09T17:35:37.999Z</time></trkpt><trkpt lat="44.41976507444794" lon="7.757832377510126"><ele>410.6</ele><time>2026-04-09T17:35:38.999Z</time></trkpt><trkpt lat="44.41987301693735" lon="7.757898034024983"><ele>410.4</ele><time>2026-04-09T17:35:39.999Z</time></trkpt><trkpt lat="44.41996686727517" lon="7.757965891835485"><ele>410.2</ele><time>2026-04-09T17:35:40.999Z</time></trkpt><trkpt lat="44.42005952115376" lon="7.758029741468442"><ele>410.0</ele><time>2026-04-09T17:35:41.999Z</time></trkpt><trkpt lat="44.4201287103403" lon="7.758081498754861"><ele>410.0</ele><time>2026-04-09T17:35:42.999Z</time></trkpt><trkpt lat="44.42019087115517" lon="7.7581392947250825"><ele>410.0</ele><time>2026-04-09T17:35:43.999Z</time></trkpt><trkpt lat="44.420252886425956" lon="7.758206724497868"><ele>410.0</ele><time>2026-04-09T17:35:45.999Z</time></trkpt><trkpt lat="44.42032565677283" lon="7.758228615835676"><ele>410.0</ele><time>2026-04-09T17:35:48.999Z</time></trkpt><trkpt lat="44.420413409157995" lon="7.758085751207666"><ele>410.0</ele><time>2026-04-09T17:35:50.999Z</time></trkpt><trkpt lat="44.420472917154115" lon="7.757979015975011"><ele>410.0</ele><time>2026-04-09T17:35:51.999Z</time></trkpt><trkpt lat="44.42053141526168" lon="7.757861219386526"><ele>410.0</ele><time>2026-04-09T17:35:52.999Z</time></trkpt><trkpt lat="44.42060031284747" lon="7.757729028939802"><ele>410.0</ele><time>2026-04-09T17:35:53.999Z</time></trkpt><trkpt lat="44.420672233370546" lon="7.757587328303802"><ele>410.0</ele><time>2026-04-09T17:35:54.999Z</time></trkpt><trkpt lat="44.42074874925005" lon="7.757455840737861"><ele>410.0</ele><time>2026-04-09T17:35:55.999Z</time></trkpt><trkpt lat="44.4208164938776" lon="7.7573166666651465"><ele>410.0</ele><time>2026-04-09T17:35:56.999Z</time></trkpt><trkpt lat="44.4208751360354" lon="7.757182429050436"><ele>410.0</ele><time>2026-04-09T17:35:57.999Z</time></trkpt><trkpt lat="44.42091568542242" lon="7.757053715117034"><ele>410.0</ele><time>2026-04-09T17:35:58.999Z</time></trkpt><trkpt lat="44.42094898093758" lon="7.7569407001455595"><ele>410.0</ele><time>2026-04-09T17:36:00Z</time></trkpt><trkpt lat="44.420973694264774" lon="7.756822152728464"><ele>409.8333333333333</ele><time>2026-04-09T17:36:01Z</time></trkpt><trkpt lat="44.42100441765347" lon="7.7566957312727345"><ele>409.66666666666663</ele><time>2026-04-09T17:36:02Z</time></trkpt><trkpt lat="44.42102883519716" lon="7.756587628016519"><ele>409.5</ele><time>2026-04-09T17:36:03Z</time></trkpt><trkpt lat="44.421055111391006" lon="7.75647509752211"><ele>409.33333333333337</ele><time>2026-04-09T17:36:04Z</time></trkpt><trkpt lat="44.421082820597604" lon="7.756375868706913"><ele>409.1666666666667</ele><time>2026-04-09T17:36:05Z</time></trkpt><trkpt lat="44.421105250062894" lon="7.756283479410676"><ele>409.0</ele><time>2026-04-09T17:36:06Z</time></trkpt><trkpt lat="44.4211404990583" lon="7.756126965363285"><ele>408.75</ele><time>2026-04-09T17:36:08Z</time></trkpt><trkpt lat="44.421193571323926" lon="7.756006476354531"><ele>408.5</ele><time>2026-04-09T17:36:10Z</time></trkpt><trkpt lat="44.421311638568255" lon="7.7560145391454896"><ele>408.25</ele><time>2026-04-09T17:36:12Z</time></trkpt><trkpt lat="44.42142987722725" lon="7.756108616217976"><ele>408.0</ele><time>2026-04-09T17:36:14Z</time></trkpt><trkpt lat="44.421513851405756" lon="7.756216122645991"><ele>408.0</ele><time>2026-04-09T17:36:15Z</time></trkpt><trkpt lat="44.421585840943095" lon="7.756320612398094"><ele>408.0</ele><time>2026-04-09T17:36:16Z</time></trkpt><trkpt lat="44.42168799478178" lon="7.756434371752813"><ele>408.0</ele><time>2026-04-09T17:36:17Z</time></trkpt><trkpt lat="44.42178893497586" lon="7.756556075250749"><ele>408.0</ele><time>2026-04-09T17:36:18Z</time></trkpt><trkpt lat="44.42190070279397" lon="7.756643980921598"><ele>408.0</ele><time>2026-04-09T17:36:19Z</time></trkpt><trkpt lat="44.421999845002226" lon="7.756707810723542"><ele>408.0</ele><time>2026-04-09T17:36:20Z</time></trkpt><trkpt lat="44.422094231380385" lon="7.756787465208189"><ele>408.0</ele><time>2026-04-09T17:36:21Z</time></trkpt><trkpt lat="44.42217510513831" lon="7.756837445162782"><ele>408.0</ele><time>2026-04-09T17:36:22Z</time></trkpt><trkpt lat="44.42225684134526" lon="7.756876198550826"><ele>408.0</ele><time>2026-04-09T17:36:23Z</time></trkpt><trkpt lat="44.422361581344155" lon="7.7569251054237895"><ele>408.79999999999995</ele><time>2026-04-09T17:36:25Z</time></trkpt><trkpt lat="44.42243627018467" lon="7.756920488940592"><ele>409.6</ele><time>2026-04-09T17:36:27Z</time></trkpt><trkpt lat="44.422465485602984" lon="7.756800799713173"><ele>410.4</ele><time>2026-04-09T17:36:29Z</time></trkpt><trkpt lat="44.422379651886985" lon="7.756589850399236"><ele>411.20000000000005</ele><time>2026-04-09T17:36:31Z</time></trkpt><trkpt lat="44.42230104181572" lon="7.756488647135993"><ele>412.0</ele><time>2026-04-09T17:36:32Z</time></trkpt><trkpt lat="44.422226064285375" lon="7.756382730067648"><ele>411.0</ele><time>2026-04-09T17:36:33Z</time></trkpt><trkpt lat="44.4221514091886" lon="7.7562781121416435"><ele>410.0</ele><time>2026-04-09T17:36:34Z</time></trkpt><trkpt lat="44.42205635671539" lon="7.756136529284145"><ele>409.0</ele><time>2026-04-09T17:36:35Z</time></trkpt><trkpt lat="44.42195774732263" lon="7.7560066542648425"><ele>408.0</ele><time>2026-04-09T17:36:36Z</time></trkpt><trkpt lat="44.421871534684136" lon="7.755900077921674"><ele>405.59999999999997</ele><time>2026-04-09T17:36:37Z</time></trkpt><trkpt lat="44.42179021391962" lon="7.75579060735696"><ele>403.2</ele><time>2026-04-09T17:36:38Z</time></trkpt><trkpt lat="44.42172370503878" lon="7.755715176807848"><ele>400.8</ele><time>2026-04-09T17:36:39Z</time></trkpt><trkpt lat="44.42165264520381" lon="7.7556579581307945"><ele>398.4</ele><time>2026-04-09T17:36:40Z</time></trkpt><trkpt lat="44.42155596697921" lon="7.755562514293838"><ele>396.0</ele><time>2026-04-09T17:36:42Z</time></trkpt><trkpt lat="44.42148841544843" lon="7.755457045371926"><ele>396.0</ele><time>2026-04-09T17:36:44Z</time></trkpt><trkpt lat="44.42150617164858" lon="7.755295573012431"><ele>396.0</ele><time>2026-04-09T17:36:46Z</time></trkpt><trkpt lat="44.42160253731739" lon="7.755182299164073"><ele>396.0</ele><time>2026-04-09T17:36:48Z</time></trkpt><trkpt lat="44.42173407708885" lon="7.7552194593789086"><ele>396.0</ele><time>2026-04-09T17:36:50Z</time></trkpt><trkpt lat="44.42180677045944" lon="7.7552929469137775"><ele>396.0</ele><time>2026-04-09T17:36:51Z</time></trkpt><trkpt lat="44.42189212397324" lon="7.75537881259735"><ele>396.0</ele><time>2026-04-09T17:36:52Z</time></trkpt><trkpt lat="44.42199191596531" lon="7.755494250697932"><ele>396.0</ele><time>2026-04-09T17:36:53Z</time></trkpt><trkpt lat="44.422089388360064" lon="7.755606575796683"><ele>396.0</ele><time>2026-04-09T17:36:54Z</time></trkpt><trkpt lat="44.42217649193885" lon="7.755711789974858"><ele>396.4</ele><time>2026-04-09T17:36:55Z</time></trkpt><trkpt lat="44.42226359401778" lon="7.7558075916585505"><ele>396.8</ele><time>2026-04-09T17:36:56Z</time></trkpt><trkpt lat="44.42234614273543" lon="7.755882793994586"><ele>397.2</ele><time>2026-04-09T17:36:57Z</time></trkpt><trkpt lat="44.422419416401645" lon="7.7559615635538774"><ele>397.59999999999997</ele><time>2026-04-09T17:36:58Z</time></trkpt><trkpt lat="44.422482648183575" lon="7.756010078931568"><ele>398.0</ele><time>2026-04-09T17:36:59Z</time></trkpt><trkpt lat="44.42255223446344" lon="7.756068813742653"><ele>398.0</ele><time>2026-04-09T17:37:00Z</time></trkpt><trkpt lat="44.42264584766468" lon="7.756092169689044"><ele>398.0</ele><time>2026-04-09T17:37:01.999Z</time></trkpt><trkpt lat="44.42292707140846" lon="7.75590540531343"><ele>398.0</ele><time>2026-04-09T17:37:05.999Z</time></trkpt><trkpt lat="44.42299884062087" lon="7.755832601371201"><ele>391.2</ele><time>2026-04-09T17:37:06.999Z</time></trkpt><trkpt lat="44.42305665901681" lon="7.755776484618485"><ele>384.4</ele><time>2026-04-09T17:37:07.999Z</time></trkpt><trkpt lat="44.423126044352614" lon="7.755712527848446"><ele>377.59999999999997</ele><time>2026-04-09T17:37:08.999Z</time></trkpt><trkpt lat="44.42328911154654" lon="7.755672973868956"><ele>370.79999999999995</ele><time>2026-04-09T17:37:10.999Z</time></trkpt><trkpt lat="44.42337569746436" lon="7.755678986835869"><ele>364.0</ele><time>2026-04-09T17:37:11.999Z</time></trkpt><trkpt lat="44.42347042367115" lon="7.755702961296152"><ele>364.0</ele><time>2026-04-09T17:37:12.999Z</time></trkpt><trkpt lat="44.42357016995276" lon="7.755741184549358"><ele>364.0</ele><time>2026-04-09T17:37:13.999Z</time></trkpt><trkpt lat="44.42366697383949" lon="7.755777631306832"><ele>364.0</ele><time>2026-04-09T17:37:14.999Z</time></trkpt><trkpt lat="44.4237592195611" lon="7.755813249856754"><ele>364.0</ele><time>2026-04-09T17:37:15.999Z</time></trkpt><trkpt lat="44.42383102227484" lon="7.755841327572239"><ele>364.0</ele><time>2026-04-09T17:37:16.999Z</time></trkpt><trkpt lat="44.423917811191146" lon="7.755862902457791"><ele>363.16666666666663</ele><time>2026-04-09T17:37:17.999Z</time></trkpt><trkpt lat="44.4239824971639" lon="7.75587269694072"><ele>362.3333333333333</ele><time>2026-04-09T17:37:18.999Z</time></trkpt><trkpt lat="44.42405587144235" lon="7.755883676752987"><ele>361.5</ele><time>2026-04-09T17:37:19.999Z</time></trkpt><trkpt lat="44.42412789885347" lon="7.755878083952399"><ele>360.6666666666667</ele><time>2026-04-09T17:37:20.999Z</time></trkpt><trkpt lat="44.42421491840352" lon="7.75583217345356"><ele>359.83333333333337</ele><time>2026-04-09T17:37:21.999Z</time></trkpt><trkpt lat="44.42429452258164" lon="7.75577590892497"><ele>359.0</ele><time>2026-04-09T17:37:22.999Z</time></trkpt><trkpt lat="44.42436444678806" lon="7.755694243485489"><ele>359.0</ele><time>2026-04-09T17:37:23.999Z</time></trkpt><trkpt lat="44.42443450654615" lon="7.755569213279833"><ele>359.0</ele><time>2026-04-09T17:37:24.999Z</time></trkpt><trkpt lat="44.42450551507634" lon="7.755416244776094"><ele>359.0</ele><time>2026-04-09T17:37:25.999Z</time></trkpt><trkpt lat="44.424580276670525" lon="7.755260045978194"><ele>359.0</ele><time>2026-04-09T17:37:26.999Z</time></trkpt><trkpt lat="44.424667582473155" lon="7.755077954010473"><ele>359.25</ele><time>2026-04-09T17:37:27.999Z</time></trkpt><trkpt lat="44.42475565051254" lon="7.754888055356308"><ele>359.5</ele><time>2026-04-09T17:37:28.999Z</time></trkpt><trkpt lat="44.42483430142117" lon="7.754726708982281"><ele>359.75</ele><time>2026-04-09T17:37:29.999Z</time></trkpt><trkpt lat="44.42490276504144" lon="7.754586560400129"><ele>360.0</ele><time>2026-04-09T17:37:30.999Z</time></trkpt><trkpt lat="44.42496467870987" lon="7.754471690413042"><ele>360.4</ele><time>2026-04-09T17:37:31.999Z</time></trkpt><trkpt lat="44.4250227176625" lon="7.754365635327628"><ele>360.8</ele><time>2026-04-09T17:37:32.999Z</time></trkpt><trkpt lat="44.42508553789455" lon="7.75427485046056"><ele>361.20000000000005</ele><time>2026-04-09T17:37:33.999Z</time></trkpt><trkpt lat="44.425159057042116" lon="7.754184249769409"><ele>361.6</ele><time>2026-04-09T17:37:34.999Z</time></trkpt><trkpt lat="44.42525708797095" lon="7.754108198510047"><ele>362.0</ele><time>2026-04-09T17:37:35.999Z</time></trkpt><trkpt lat="44.425375543873464" lon="7.754054416673869"><ele>361.75</ele><time>2026-04-09T17:37:36.999Z</time></trkpt><trkpt lat="44.425509357101745" lon="7.754002128999261"><ele>361.5</ele><time>2026-04-09T17:37:37.999Z</time></trkpt><trkpt lat="44.425620605766895" lon="7.753954092015088"><ele>361.25</ele><time>2026-04-09T17:37:38.999Z</time></trkpt><trkpt lat="44.425717432244056" lon="7.753904535348106"><ele>361.0</ele><time>2026-04-09T17:37:39.999Z</time></trkpt><trkpt lat="44.425802219543904" lon="7.753837737402188"><ele>361.0</ele><time>2026-04-09T17:37:40.999Z</time></trkpt><trkpt lat="44.42587934583224" lon="7.753734275830607"><ele>361.0</ele><time>2026-04-09T17:37:41.999Z</time></trkpt><trkpt lat="44.4259368882403" lon="7.753591530236073"><ele>361.0</ele><time>2026-04-09T17:37:42.999Z</time></trkpt><trkpt lat="44.42597602721715" lon="7.753419946094496"><ele>361.0</ele><time>2026-04-09T17:37:43.999Z</time></trkpt><trkpt lat="44.42600306895882" lon="7.753232285485952"><ele>361.5</ele><time>2026-04-09T17:37:44.999Z</time></trkpt><trkpt lat="44.42602608721947" lon="7.7530383037033275"><ele>362.0</ele><time>2026-04-09T17:37:45.999Z</time></trkpt><trkpt lat="44.42605625719214" lon="7.7528515179963415"><ele>362.5</ele><time>2026-04-09T17:37:46.999Z</time></trkpt><trkpt lat="44.426086978846186" lon="7.752645243160287"><ele>363.0</ele><time>2026-04-09T17:37:47.999Z</time></trkpt><trkpt lat="44.42611604699671" lon="7.7524390006180965"><ele>364.25</ele><time>2026-04-09T17:37:48.999Z</time></trkpt><trkpt lat="44.42612960277697" lon="7.752222530800998"><ele>365.5</ele><time>2026-04-09T17:37:49.999Z</time></trkpt><trkpt lat="44.426143314805756" lon="7.752029289145802"><ele>366.75</ele><time>2026-04-09T17:37:50.999Z</time></trkpt><trkpt lat="44.426156284256685" lon="7.751860971932505"><ele>368.0</ele><time>2026-04-09T17:37:51.999Z</time></trkpt><trkpt lat="44.42615433094168" lon="7.751712890638276"><ele>369.0</ele><time>2026-04-09T17:37:52.999Z</time></trkpt><trkpt lat="44.426195039761815" lon="7.751542704827521"><ele>370.0</ele><time>2026-04-09T17:37:53.999Z</time></trkpt><trkpt lat="44.42624873425257" lon="7.751384364520285"><ele>371.0</ele><time>2026-04-09T17:37:54.999Z</time></trkpt><trkpt lat="44.42630497485629" lon="7.751261165972445"><ele>372.0</ele><time>2026-04-09T17:37:55.999Z</time></trkpt><trkpt lat="44.42638803208535" lon="7.751172377071063"><ele>373.5</ele><time>2026-04-09T17:37:56.999Z</time></trkpt><trkpt lat="44.426483452207506" lon="7.751088190845506"><ele>375.0</ele><time>2026-04-09T17:37:57.999Z</time></trkpt><trkpt lat="44.4266068357246" lon="7.751016959011266"><ele>376.5</ele><time>2026-04-09T17:37:58.999Z</time></trkpt><trkpt lat="44.426730959321425" lon="7.750943914096023"><ele>378.0</ele><time>2026-04-09T17:37:59.999Z</time></trkpt><trkpt lat="44.426854860458505" lon="7.7508783833917025"><ele>379.0</ele><time>2026-04-09T17:38:00.999Z</time></trkpt><trkpt lat="44.42697505964623" lon="7.750813825202114"><ele>380.0</ele><time>2026-04-09T17:38:01.999Z</time></trkpt><trkpt lat="44.42710768107655" lon="7.750755263477315"><ele>381.0</ele><time>2026-04-09T17:38:02.999Z</time></trkpt><trkpt lat="44.42721273932408" lon="7.750697389020498"><ele>382.0</ele><time>2026-04-09T17:38:03.999Z</time></trkpt><trkpt lat="44.427317078962545" lon="7.750655956229699"><ele>383.40000000000003</ele><time>2026-04-09T17:38:04.999Z</time></trkpt><trkpt lat="44.427403620315246" lon="7.750615968600839"><ele>384.8</ele><time>2026-04-09T17:38:06Z</time></trkpt><trkpt lat="44.42747371042174" lon="7.750569669402583"><ele>386.2</ele><time>2026-04-09T17:38:07Z</time></trkpt><trkpt lat="44.427561947941996" lon="7.75049457926904"><ele>387.6</ele><time>2026-04-09T17:38:08Z</time></trkpt><trkpt lat="44.42763161913325" lon="7.750404618650799"><ele>389.0</ele><time>2026-04-09T17:38:09Z</time></trkpt><trkpt lat="44.427682254910536" lon="7.750301605855608"><ele>389.0</ele><time>2026-04-09T17:38:10Z</time></trkpt><trkpt lat="44.4277302020575" lon="7.75018142320379"><ele>389.0</ele><time>2026-04-09T17:38:11Z</time></trkpt><trkpt lat="44.42775776119956" lon="7.75003905478305"><ele>389.0</ele><time>2026-04-09T17:38:12Z</time></trkpt><trkpt lat="44.42778493559825" lon="7.749884900482972"><ele>389.0</ele><time>2026-04-09T17:38:13Z</time></trkpt><trkpt lat="44.42781345236308" lon="7.749756643496565"><ele>389.0</ele><time>2026-04-09T17:38:14Z</time></trkpt><trkpt lat="44.42784320878788" lon="7.749626164244771"><ele>389.0</ele><time>2026-04-09T17:38:15Z</time></trkpt><trkpt lat="44.42787172497753" lon="7.749496010965592"><ele>389.0</ele><time>2026-04-09T17:38:16Z</time></trkpt><trkpt lat="44.427897184678415" lon="7.749359313995756"><ele>389.0</ele><time>2026-04-09T17:38:17Z</time></trkpt><trkpt lat="44.42792899016316" lon="7.749219976895437"><ele>389.0</ele><time>2026-04-09T17:38:18Z</time></trkpt><trkpt lat="44.427953085465234" lon="7.749086340376668"><ele>389.0</ele><time>2026-04-09T17:38:19Z</time></trkpt><trkpt lat="44.42798792900086" lon="7.748951764653921"><ele>391.2</ele><time>2026-04-09T17:38:20Z</time></trkpt><trkpt lat="44.42801320327761" lon="7.748815770528089"><ele>393.4</ele><time>2026-04-09T17:38:21Z</time></trkpt><trkpt lat="44.428049949782285" lon="7.748672642638047"><ele>395.6</ele><time>2026-04-09T17:38:22Z</time></trkpt><trkpt lat="44.428089560914316" lon="7.748522535578177"><ele>397.8</ele><time>2026-04-09T17:38:23Z</time></trkpt><trkpt lat="44.42812664547089" lon="7.748391789920426"><ele>400.0</ele><time>2026-04-09T17:38:24Z</time></trkpt><trkpt lat="44.42815730268472" lon="7.748276432594763"><ele>400.50000000000006</ele><time>2026-04-09T17:38:25Z</time></trkpt><trkpt lat="44.42819306505465" lon="7.748164713901909"><ele>401.0</ele><time>2026-04-09T17:38:26Z</time></trkpt><trkpt lat="44.42823133851937" lon="7.748042657182277"><ele>401.5</ele><time>2026-04-09T17:38:27Z</time></trkpt><trkpt lat="44.428275127690796" lon="7.747920517083911"><ele>402.0</ele><time>2026-04-09T17:38:28Z</time></trkpt><trkpt lat="44.428315736321395" lon="7.747820777856696"><ele>402.50000000000006</ele><time>2026-04-09T17:38:29Z</time></trkpt><trkpt lat="44.42835661665986" lon="7.747741984753758"><ele>403.0</ele><time>2026-04-09T17:38:30Z</time></trkpt><trkpt lat="44.42840577385807" lon="7.747653910308854"><ele>403.00000000000006</ele><time>2026-04-09T17:38:31Z</time></trkpt><trkpt lat="44.42845112485632" lon="7.7475669729236705"><ele>403.0</ele><time>2026-04-09T17:38:32Z</time></trkpt><trkpt lat="44.42850679274416" lon="7.747489430158103"><ele>403.0</ele><time>2026-04-09T17:38:33Z</time></trkpt><trkpt lat="44.428566684042906" lon="7.747416434643428"><ele>403.0</ele><time>2026-04-09T17:38:34Z</time></trkpt><trkpt lat="44.42863472460118" lon="7.74735736704078"><ele>403.00000000000006</ele><time>2026-04-09T17:38:35Z</time></trkpt><trkpt lat="44.428705747209825" lon="7.747296335444565"><ele>403.0</ele><time>2026-04-09T17:38:36Z</time></trkpt><trkpt lat="44.42875659319726" lon="7.747231075396086"><ele>403.00000000000006</ele><time>2026-04-09T17:38:37Z</time></trkpt><trkpt lat="44.42879791016892" lon="7.747157368405971"><ele>403.0</ele><time>2026-04-09T17:38:38Z</time></trkpt><trkpt lat="44.428848925409376" lon="7.747045038300349"><ele>403.0</ele><time>2026-04-09T17:38:39Z</time></trkpt><trkpt lat="44.42889303169491" lon="7.746928870043257"><ele>403.0</ele><time>2026-04-09T17:38:40Z</time></trkpt><trkpt lat="44.42891996370651" lon="7.746807498846613"><ele>403.00000000000006</ele><time>2026-04-09T17:38:41Z</time></trkpt><trkpt lat="44.42894600410793" lon="7.746688697421751"><ele>403.0</ele><time>2026-04-09T17:38:42Z</time></trkpt><trkpt lat="44.42899895569131" lon="7.7465628147714325"><ele>404.4</ele><time>2026-04-09T17:38:43Z</time></trkpt><trkpt lat="44.42907620943611" lon="7.746448293251306"><ele>405.79999999999995</ele><time>2026-04-09T17:38:44Z</time></trkpt><trkpt lat="44.42915392738398" lon="7.7463523644988275"><ele>407.2</ele><time>2026-04-09T17:38:45Z</time></trkpt><trkpt lat="44.429232552200446" lon="7.74624793348833"><ele>408.6</ele><time>2026-04-09T17:38:46Z</time></trkpt><trkpt lat="44.42932504295252" lon="7.746167594096264"><ele>410.0</ele><time>2026-04-09T17:38:47Z</time></trkpt><trkpt lat="44.42940589758785" lon="7.7461124895371345"><ele>409.99999999999994</ele><time>2026-04-09T17:38:48Z</time></trkpt><trkpt lat="44.42947762117814" lon="7.7460579656057815"><ele>410.0</ele><time>2026-04-09T17:38:49Z</time></trkpt><trkpt lat="44.42956065675147" lon="7.7460153473273685"><ele>410.0</ele><time>2026-04-09T17:38:50Z</time></trkpt><trkpt lat="44.42963882009428" lon="7.745982483715437"><ele>410.0</ele><time>2026-04-09T17:38:51Z</time></trkpt><trkpt lat="44.42970287451885" lon="7.745926149214894"><ele>409.99999999999994</ele><time>2026-04-09T17:38:52Z</time></trkpt><trkpt lat="44.429769721989445" lon="7.745869283603927"><ele>410.0</ele><time>2026-04-09T17:38:53Z</time></trkpt><trkpt lat="44.429840639031376" lon="7.745811096198021"><ele>410.66666666666663</ele><time>2026-04-09T17:38:54Z</time></trkpt><trkpt lat="44.42990912543836" lon="7.745764232657768"><ele>411.3333333333333</ele><time>2026-04-09T17:38:55Z</time></trkpt><trkpt lat="44.429976453347805" lon="7.7457165349832975"><ele>412.0</ele><time>2026-04-09T17:38:56Z</time></trkpt><trkpt lat="44.43004266463643" lon="7.745669678638661"><ele>412.66666666666663</ele><time>2026-04-09T17:38:57Z</time></trkpt><trkpt lat="44.43011177147344" lon="7.745621596709034"><ele>413.3333333333333</ele><time>2026-04-09T17:38:58Z</time></trkpt><trkpt lat="44.430218557888246" lon="7.74554918340985"><ele>414.0</ele><time>2026-04-09T17:39:00Z</time></trkpt><trkpt lat="44.43028926443429" lon="7.745506867093523"><ele>414.0</ele><time>2026-04-09T17:39:01.999Z</time></trkpt><trkpt lat="44.430354419689664" lon="7.745466114332264"><ele>414.0</ele><time>2026-04-09T17:39:04.999Z</time></trkpt><trkpt lat="44.4304367915101" lon="7.745407715955597"><ele>414.0</ele><time>2026-04-09T17:39:13.999Z</time></trkpt><trkpt lat="44.43051229290556" lon="7.7453601113584805"><ele>414.0</ele><time>2026-04-09T17:39:15.999Z</time></trkpt><trkpt lat="44.43057681276509" lon="7.745374222500093"><ele>414.0</ele><time>2026-04-09T17:39:17.999Z</time></trkpt><trkpt lat="44.43062839291177" lon="7.745449416359867"><ele>414.0</ele><time>2026-04-09T17:39:19.999Z</time></trkpt><trkpt lat="44.43066593439529" lon="7.745609852236765"><ele>414.1666666666667</ele><time>2026-04-09T17:39:21.999Z</time></trkpt><trkpt lat="44.43069019783963" lon="7.74569443019231"><ele>414.33333333333337</ele><time>2026-04-09T17:39:22.999Z</time></trkpt><trkpt lat="44.430732698709804" lon="7.745765784655713"><ele>414.5</ele><time>2026-04-09T17:39:23.999Z</time></trkpt><trkpt lat="44.43077105531702" lon="7.745875715347422"><ele>414.6666666666667</ele><time>2026-04-09T17:39:24.999Z</time></trkpt><trkpt lat="44.43082078003085" lon="7.746005843294512"><ele>414.83333333333337</ele><time>2026-04-09T17:39:25.999Z</time></trkpt><trkpt lat="44.43085903254568" lon="7.746152326133707"><ele>415.0</ele><time>2026-04-09T17:39:26.999Z</time></trkpt><trkpt lat="44.43091148370969" lon="7.746273479746537"><ele>414.2</ele><time>2026-04-09T17:39:27.999Z</time></trkpt><trkpt lat="44.43094979075797" lon="7.7463992417956415"><ele>413.4</ele><time>2026-04-09T17:39:28.999Z</time></trkpt><trkpt lat="44.43100664249417" lon="7.746526629180188"><ele>412.6</ele><time>2026-04-09T17:39:29.999Z</time></trkpt><trkpt lat="44.431045691485544" lon="7.746651916976193"><ele>411.8</ele><time>2026-04-09T17:39:30.999Z</time></trkpt><trkpt lat="44.43109119530792" lon="7.746788416421015"><ele>411.0</ele><time>2026-04-09T17:39:31.999Z</time></trkpt><trkpt lat="44.431133263226165" lon="7.7469212359972595"><ele>411.0</ele><time>2026-04-09T17:39:32.999Z</time></trkpt><trkpt lat="44.43117599396695" lon="7.747053715713232"><ele>411.0</ele><time>2026-04-09T17:39:33.999Z</time></trkpt><trkpt lat="44.43122367586584" lon="7.747184218900062"><ele>411.0</ele><time>2026-04-09T17:39:34.999Z</time></trkpt><trkpt lat="44.43127046918565" lon="7.747321934813789"><ele>411.0</ele><time>2026-04-09T17:39:35.999Z</time></trkpt><trkpt lat="44.43131990816303" lon="7.747461164122109"><ele>411.0</ele><time>2026-04-09T17:39:36.999Z</time></trkpt><trkpt lat="44.43136877739236" lon="7.7476001994510835"><ele>411.25</ele><time>2026-04-09T17:39:37.999Z</time></trkpt><trkpt lat="44.43142054539466" lon="7.747748851038995"><ele>411.5</ele><time>2026-04-09T17:39:38.999Z</time></trkpt><trkpt lat="44.431471336496486" lon="7.74793774850639"><ele>411.75</ele><time>2026-04-09T17:39:39.999Z</time></trkpt><trkpt lat="44.43152790519973" lon="7.748123929092273"><ele>412.0</ele><time>2026-04-09T17:39:40.999Z</time></trkpt><trkpt lat="44.431593728200895" lon="7.748323741661253"><ele>412.0</ele><time>2026-04-09T17:39:41.999Z</time></trkpt><trkpt lat="44.43166346299146" lon="7.748530702249181"><ele>412.0</ele><time>2026-04-09T17:39:42.999Z</time></trkpt><trkpt lat="44.4317344447889" lon="7.748758329345449"><ele>412.0</ele><time>2026-04-09T17:39:43.999Z</time></trkpt><trkpt lat="44.43180748592957" lon="7.748986564460155"><ele>411.6666666666667</ele><time>2026-04-09T17:39:44.999Z</time></trkpt><trkpt lat="44.43188609727849" lon="7.7492347158608395"><ele>411.33333333333337</ele><time>2026-04-09T17:39:45.999Z</time></trkpt><trkpt lat="44.431964672667675" lon="7.7494868196412305"><ele>411.0</ele><time>2026-04-09T17:39:46.999Z</time></trkpt><trkpt lat="44.43204833476063" lon="7.749749656430977"><ele>411.0</ele><time>2026-04-09T17:39:47.999Z</time></trkpt><trkpt lat="44.43212870018145" lon="7.750021939888151"><ele>411.0</ele><time>2026-04-09T17:39:48.999Z</time></trkpt><trkpt lat="44.43221115224965" lon="7.750290369275871"><ele>411.0</ele><time>2026-04-09T17:39:49.999Z</time></trkpt><trkpt lat="44.43229918830489" lon="7.75056964259165"><ele>410.5</ele><time>2026-04-09T17:39:50.999Z</time></trkpt><trkpt lat="44.432385482789165" lon="7.750867103756414"><ele>410.0</ele><time>2026-04-09T17:39:51.999Z</time></trkpt><trkpt lat="44.43248029124256" lon="7.751162252008162"><ele>409.5</ele><time>2026-04-09T17:39:52.999Z</time></trkpt><trkpt lat="44.432578986776704" lon="7.751454877582188"><ele>409.0</ele><time>2026-04-09T17:39:53.999Z</time></trkpt><trkpt lat="44.432675859720675" lon="7.751760703848171"><ele>409.0</ele><time>2026-04-09T17:39:54.999Z</time></trkpt><trkpt lat="44.43277839837219" lon="7.752063404605069"><ele>409.0</ele><time>2026-04-09T17:39:55.999Z</time></trkpt><trkpt lat="44.43287936674088" lon="7.752377587623972"><ele>409.5</ele><time>2026-04-09T17:39:56.999Z</time></trkpt><trkpt lat="44.43298437016718" lon="7.752694485110221"><ele>410.0</ele><time>2026-04-09T17:39:57.999Z</time></trkpt><trkpt lat="44.433087109954926" lon="7.753015286869583"><ele>410.0</ele><time>2026-04-09T17:39:58.999Z</time></trkpt><trkpt lat="44.433187272069524" lon="7.7533275239693795"><ele>410.0</ele><time>2026-04-09T17:39:59.999Z</time></trkpt><trkpt lat="44.433292296730926" lon="7.753648171071739"><ele>410.0</ele><time>2026-04-09T17:40:00.999Z</time></trkpt><trkpt lat="44.433394822034515" lon="7.753977106292991"><ele>410.0</ele><time>2026-04-09T17:40:01.999Z</time></trkpt><trkpt lat="44.433502673519115" lon="7.754304373592024"><ele>408.5</ele><time>2026-04-09T17:40:02.999Z</time></trkpt><trkpt lat="44.43360965712623" lon="7.754637437083566"><ele>407.0</ele><time>2026-04-09T17:40:03.999Z</time></trkpt><trkpt lat="44.433715730887755" lon="7.754967347744282"><ele>408.5</ele><time>2026-04-09T17:40:04.999Z</time></trkpt><trkpt lat="44.433818051566824" lon="7.755311311017829"><ele>410.0</ele><time>2026-04-09T17:40:05.999Z</time></trkpt><trkpt lat="44.433922435714784" lon="7.75564949435548"><ele>410.0</ele><time>2026-04-09T17:40:06.999Z</time></trkpt><trkpt lat="44.434018484099454" lon="7.755968526281495"><ele>410.0</ele><time>2026-04-09T17:40:07.998Z</time></trkpt><trkpt lat="44.43411376970434" lon="7.756296372845518"><ele>408.5</ele><time>2026-04-09T17:40:08.998Z</time></trkpt><trkpt lat="44.43421511878619" lon="7.7566009647990635"><ele>407.0</ele><time>2026-04-09T17:40:09.998Z</time></trkpt><trkpt lat="44.434310480587754" lon="7.756920134786767"><ele>406.5</ele><time>2026-04-09T17:40:10.998Z</time></trkpt><trkpt lat="44.434412941132386" lon="7.75723485209775"><ele>406.0</ele><time>2026-04-09T17:40:12Z</time></trkpt><trkpt lat="44.434518435157194" lon="7.757547618609021"><ele>406.5</ele><time>2026-04-09T17:40:13Z</time></trkpt><trkpt lat="44.4346226426056" lon="7.757855936707818"><ele>407.0</ele><time>2026-04-09T17:40:14Z</time></trkpt><trkpt lat="44.43472195090493" lon="7.758172583496107"><ele>407.5</ele><time>2026-04-09T17:40:15Z</time></trkpt><trkpt lat="44.43482491879636" lon="7.758502372100291"><ele>408.0</ele><time>2026-04-09T17:40:16Z</time></trkpt><trkpt lat="44.434927613557896" lon="7.758841217995431"><ele>407.0</ele><time>2026-04-09T17:40:17Z</time></trkpt><trkpt lat="44.43503081788927" lon="7.759163801116573"><ele>406.0</ele><time>2026-04-09T17:40:18Z</time></trkpt><trkpt lat="44.43512959429233" lon="7.759491884476953"><ele>406.0</ele><time>2026-04-09T17:40:19Z</time></trkpt><trkpt lat="44.43523297553039" lon="7.759832360319898"><ele>406.0</ele><time>2026-04-09T17:40:20Z</time></trkpt><trkpt lat="44.43534105173597" lon="7.760174063332706"><ele>406.0</ele><time>2026-04-09T17:40:21Z</time></trkpt><trkpt lat="44.43544964680814" lon="7.76051384122659"><ele>406.0</ele><time>2026-04-09T17:40:22Z</time></trkpt><trkpt lat="44.43555651999714" lon="7.760860021834488"><ele>405.5</ele><time>2026-04-09T17:40:23Z</time></trkpt><trkpt lat="44.43566299095836" lon="7.761197284621084"><ele>405.0</ele><time>2026-04-09T17:40:24Z</time></trkpt><trkpt lat="44.43576341836998" lon="7.761545036604983"><ele>404.5</ele><time>2026-04-09T17:40:25Z</time></trkpt><trkpt lat="44.435873959688905" lon="7.761867786361641"><ele>404.0</ele><time>2026-04-09T17:40:26Z</time></trkpt><trkpt lat="44.43598057866698" lon="7.76219691583471"><ele>404.0</ele><time>2026-04-09T17:40:27Z</time></trkpt><trkpt lat="44.436084141351806" lon="7.762531275332969"><ele>404.0</ele><time>2026-04-09T17:40:28Z</time></trkpt><trkpt lat="44.43619324543443" lon="7.762856197830556"><ele>404.0</ele><time>2026-04-09T17:40:29Z</time></trkpt><trkpt lat="44.43630256948247" lon="7.763191619037982"><ele>404.0</ele><time>2026-04-09T17:40:30Z</time></trkpt><trkpt lat="44.43641217732518" lon="7.763521411679755"><ele>404.0</ele><time>2026-04-09T17:40:31Z</time></trkpt><trkpt lat="44.436514229898634" lon="7.763867087611681"><ele>404.0</ele><time>2026-04-09T17:40:32Z</time></trkpt><trkpt lat="44.43661591292925" lon="7.764208884661174"><ele>404.0</ele><time>2026-04-09T17:40:33Z</time></trkpt><trkpt lat="44.43672910971183" lon="7.764531556686166"><ele>404.0</ele><time>2026-04-09T17:40:34Z</time></trkpt><trkpt lat="44.436835147811614" lon="7.764875171699553"><ele>404.0</ele><time>2026-04-09T17:40:35Z</time></trkpt><trkpt lat="44.43694611464222" lon="7.7652022487412244"><ele>404.0</ele><time>2026-04-09T17:40:36Z</time></trkpt><trkpt lat="44.43705669417146" lon="7.765548072097028"><ele>403.5</ele><time>2026-04-09T17:40:37Z</time></trkpt><trkpt lat="44.43716574074669" lon="7.7658803738433315"><ele>403.0</ele><time>2026-04-09T17:40:38Z</time></trkpt><trkpt lat="44.43728241588295" lon="7.766208815468235"><ele>403.0</ele><time>2026-04-09T17:40:39Z</time></trkpt><trkpt lat="44.43739615147928" lon="7.766542780377751"><ele>403.0</ele><time>2026-04-09T17:40:40Z</time></trkpt><trkpt lat="44.437507533266206" lon="7.7668812822060955"><ele>403.0</ele><time>2026-04-09T17:40:41Z</time></trkpt><trkpt lat="44.43761638688783" lon="7.7672262501423415"><ele>403.0</ele><time>2026-04-09T17:40:42Z</time></trkpt><trkpt lat="44.4377235032433" lon="7.7675779622876595"><ele>403.0</ele><time>2026-04-09T17:40:43Z</time></trkpt><trkpt lat="44.43783202288283" lon="7.767908768288874"><ele>403.0</ele><time>2026-04-09T17:40:44Z</time></trkpt><trkpt lat="44.43794028053414" lon="7.768261022205245"><ele>403.0</ele><time>2026-04-09T17:40:45Z</time></trkpt><trkpt lat="44.43804432014629" lon="7.76860296347862"><ele>403.0</ele><time>2026-04-09T17:40:46Z</time></trkpt><trkpt lat="44.43814802605737" lon="7.768949358974488"><ele>403.0</ele><time>2026-04-09T17:40:47Z</time></trkpt><trkpt lat="44.438248576987206" lon="7.769270353374638"><ele>403.0</ele><time>2026-04-09T17:40:48Z</time></trkpt><trkpt lat="44.43834876203816" lon="7.769606298606052"><ele>402.5</ele><time>2026-04-09T17:40:49Z</time></trkpt><trkpt lat="44.43843690004766" lon="7.76991890250968"><ele>402.0</ele><time>2026-04-09T17:40:50Z</time></trkpt><trkpt lat="44.43852736132511" lon="7.770199381811972"><ele>402.0</ele><time>2026-04-09T17:40:51Z</time></trkpt><trkpt lat="44.43861900666036" lon="7.770485273253324"><ele>402.0</ele><time>2026-04-09T17:40:52Z</time></trkpt><trkpt lat="44.43870501850503" lon="7.770767155500004"><ele>402.0</ele><time>2026-04-09T17:40:53Z</time></trkpt><trkpt lat="44.438787383280776" lon="7.771048463209368"><ele>401.66666666666663</ele><time>2026-04-09T17:40:54Z</time></trkpt><trkpt lat="44.43887504275587" lon="7.771325801275218"><ele>401.3333333333333</ele><time>2026-04-09T17:40:55Z</time></trkpt><trkpt lat="44.438961747564846" lon="7.7716031855979715"><ele>401.0</ele><time>2026-04-09T17:40:56Z</time></trkpt><trkpt lat="44.43904702155324" lon="7.7718654303780355"><ele>400.66666666666663</ele><time>2026-04-09T17:40:57Z</time></trkpt><trkpt lat="44.43913567025697" lon="7.772129088500745"><ele>400.33333333333337</ele><time>2026-04-09T17:40:58Z</time></trkpt><trkpt lat="44.43921486495051" lon="7.7723945116244435"><ele>400.0</ele><time>2026-04-09T17:40:59Z</time></trkpt><trkpt lat="44.4392898269668" lon="7.772641766697926"><ele>400.0</ele><time>2026-04-09T17:41:00Z</time></trkpt><trkpt lat="44.43936389077809" lon="7.77286183362231"><ele>400.0</ele><time>2026-04-09T17:41:00.999Z</time></trkpt><trkpt lat="44.4394294739989" lon="7.773084121128545"><ele>400.0</ele><time>2026-04-09T17:41:01.999Z</time></trkpt><trkpt lat="44.439501516159275" lon="7.773307454929002"><ele>400.0</ele><time>2026-04-09T17:41:02.999Z</time></trkpt><trkpt lat="44.439575501344024" lon="7.773527838409254"><ele>400.0</ele><time>2026-04-09T17:41:03.999Z</time></trkpt><trkpt lat="44.43964396402196" lon="7.773742047890162"><ele>400.0</ele><time>2026-04-09T17:41:04.999Z</time></trkpt><trkpt lat="44.43970753086476" lon="7.7739475853774564"><ele>400.0</ele><time>2026-04-09T17:41:05.999Z</time></trkpt><trkpt lat="44.4397669469723" lon="7.774155627171028"><ele>400.0</ele><time>2026-04-09T17:41:06.999Z</time></trkpt><trkpt lat="44.43983375967957" lon="7.7743549252015045"><ele>400.0</ele><time>2026-04-09T17:41:07.999Z</time></trkpt><trkpt lat="44.4398956495278" lon="7.774551358413459"><ele>399.6666666666667</ele><time>2026-04-09T17:41:08.999Z</time></trkpt><trkpt lat="44.43995653867522" lon="7.774754642741089"><ele>399.33333333333337</ele><time>2026-04-09T17:41:09.999Z</time></trkpt><trkpt lat="44.44001416342737" lon="7.774950503883136"><ele>399.0</ele><time>2026-04-09T17:41:10.999Z</time></trkpt><trkpt lat="44.440073689537655" lon="7.775131474326569"><ele>399.33333333333337</ele><time>2026-04-09T17:41:11.999Z</time></trkpt><trkpt lat="44.440135768509315" lon="7.775328272351965"><ele>399.6666666666667</ele><time>2026-04-09T17:41:12.999Z</time></trkpt><trkpt lat="44.440197096765225" lon="7.775517945874276"><ele>400.0</ele><time>2026-04-09T17:41:13.999Z</time></trkpt><trkpt lat="44.440260620586216" lon="7.775717796008249"><ele>400.0</ele><time>2026-04-09T17:41:14.999Z</time></trkpt><trkpt lat="44.44031814448949" lon="7.775896629878278"><ele>400.0</ele><time>2026-04-09T17:41:15.999Z</time></trkpt><trkpt lat="44.44037265616769" lon="7.776068884646332"><ele>400.0</ele><time>2026-04-09T17:41:16.999Z</time></trkpt><trkpt lat="44.44042282658836" lon="7.776232908943919"><ele>400.0</ele><time>2026-04-09T17:41:17.999Z</time></trkpt><trkpt lat="44.44047129880017" lon="7.776387731314849"><ele>399.8</ele><time>2026-04-09T17:41:18.999Z</time></trkpt><trkpt lat="44.44051840236259" lon="7.776526854366381"><ele>399.6</ele><time>2026-04-09T17:41:19.999Z</time></trkpt><trkpt lat="44.44056228610586" lon="7.776662163506521"><ele>399.4</ele><time>2026-04-09T17:41:20.999Z</time></trkpt><trkpt lat="44.44060497652619" lon="7.776785851092795"><ele>399.2</ele><time>2026-04-09T17:41:21.999Z</time></trkpt><trkpt lat="44.44067899362153" lon="7.7769074909187195"><ele>399.0</ele><time>2026-04-09T17:41:23.999Z</time></trkpt><trkpt lat="44.4408106323377" lon="7.776958678442757"><ele>398.75</ele><time>2026-04-09T17:41:25.999Z</time></trkpt><trkpt lat="44.44090546002893" lon="7.776967784539349"><ele>398.5</ele><time>2026-04-09T17:41:26.999Z</time></trkpt><trkpt lat="44.441018147477834" lon="7.776968587574422"><ele>398.25</ele><time>2026-04-09T17:41:27.999Z</time></trkpt><trkpt lat="44.44114578341098" lon="7.776983854959153"><ele>398.0</ele><time>2026-04-09T17:41:28.999Z</time></trkpt><trkpt lat="44.44128231303837" lon="7.7770064894138065"><ele>397.75</ele><time>2026-04-09T17:41:29.999Z</time></trkpt><trkpt lat="44.44140551632239" lon="7.777021893133234"><ele>397.5</ele><time>2026-04-09T17:41:30.999Z</time></trkpt><trkpt lat="44.44151857472583" lon="7.777042354354531"><ele>397.25</ele><time>2026-04-09T17:41:31.999Z</time></trkpt><trkpt lat="44.44163492415254" lon="7.777056631153081"><ele>397.0</ele><time>2026-04-09T17:41:32.999Z</time></trkpt><trkpt lat="44.44174729419931" lon="7.777065877919977"><ele>397.0</ele><time>2026-04-09T17:41:33.999Z</time></trkpt><trkpt lat="44.44185602747424" lon="7.777084130179988"><ele>397.0</ele><time>2026-04-09T17:41:34.999Z</time></trkpt><trkpt lat="44.441958783802484" lon="7.777106988516783"><ele>397.0</ele><time>2026-04-09T17:41:35.999Z</time></trkpt><trkpt lat="44.4420528467575" lon="7.777128395818186"><ele>397.0</ele><time>2026-04-09T17:41:36.999Z</time></trkpt><trkpt lat="44.442157232488775" lon="7.77714740516651"><ele>397.0</ele><time>2026-04-09T17:41:37.999Z</time></trkpt><trkpt lat="44.442263186086215" lon="7.77716450446425"><ele>397.40000000000003</ele><time>2026-04-09T17:41:38.999Z</time></trkpt><trkpt lat="44.442369980868044" lon="7.777174660055677"><ele>397.8</ele><time>2026-04-09T17:41:39.999Z</time></trkpt><trkpt lat="44.442471043254805" lon="7.77719812627219"><ele>398.2</ele><time>2026-04-09T17:41:40.999Z</time></trkpt><trkpt lat="44.44257563225163" lon="7.777212209478367"><ele>398.6</ele><time>2026-04-09T17:41:41.999Z</time></trkpt><trkpt lat="44.44268505120902" lon="7.777226338792898"><ele>399.0</ele><time>2026-04-09T17:41:42.999Z</time></trkpt><trkpt lat="44.44279500894389" lon="7.777235021479119"><ele>399.0</ele><time>2026-04-09T17:41:43.999Z</time></trkpt><trkpt lat="44.44289680766261" lon="7.7772481255882475"><ele>399.0</ele><time>2026-04-09T17:41:44.999Z</time></trkpt><trkpt lat="44.44299329794238" lon="7.777265818454551"><ele>399.0</ele><time>2026-04-09T17:41:45.999Z</time></trkpt><trkpt lat="44.4431043384631" lon="7.777278676957936"><ele>399.0</ele><time>2026-04-09T17:41:46.999Z</time></trkpt><trkpt lat="44.44321018004462" lon="7.777300614477691"><ele>399.0</ele><time>2026-04-09T17:41:47.999Z</time></trkpt><trkpt lat="44.44330412555342" lon="7.7773176537669375"><ele>399.4</ele><time>2026-04-09T17:41:48.999Z</time></trkpt><trkpt lat="44.44339782126523" lon="7.777335449827362"><ele>399.79999999999995</ele><time>2026-04-09T17:41:49.999Z</time></trkpt><trkpt lat="44.443492666131505" lon="7.777354103905386"><ele>400.20000000000005</ele><time>2026-04-09T17:41:50.999Z</time></trkpt><trkpt lat="44.44359286065008" lon="7.777368152531218"><ele>400.6</ele><time>2026-04-09T17:41:51.999Z</time></trkpt><trkpt lat="44.44369381729365" lon="7.777385357471672"><ele>401.0</ele><time>2026-04-09T17:41:52.999Z</time></trkpt><trkpt lat="44.44377870436605" lon="7.777396441070687"><ele>400.8</ele><time>2026-04-09T17:41:53.999Z</time></trkpt><trkpt lat="44.44386527979377" lon="7.777410283548494"><ele>400.6</ele><time>2026-04-09T17:41:54.999Z</time></trkpt><trkpt lat="44.443952744817516" lon="7.777420702691535"><ele>400.4</ele><time>2026-04-09T17:41:55.999Z</time></trkpt><trkpt lat="44.4440518830826" lon="7.777427987681676"><ele>400.2</ele><time>2026-04-09T17:41:56.999Z</time></trkpt><trkpt lat="44.44415102885325" lon="7.777424459273021"><ele>400.0</ele><time>2026-04-09T17:41:57.999Z</time></trkpt><trkpt lat="44.44425284140981" lon="7.77741030869125"><ele>400.0</ele><time>2026-04-09T17:41:58.999Z</time></trkpt><trkpt lat="44.4443641009813" lon="7.77737619623585"><ele>400.0</ele><time>2026-04-09T17:41:59.999Z</time></trkpt><trkpt lat="44.44445910716188" lon="7.77734226524002"><ele>400.0</ele><time>2026-04-09T17:42:00.999Z</time></trkpt><trkpt lat="44.44454161368469" lon="7.777304577723894"><ele>400.0</ele><time>2026-04-09T17:42:01.999Z</time></trkpt><trkpt lat="44.44462300112582" lon="7.777270809120816"><ele>400.0</ele><time>2026-04-09T17:42:02.999Z</time></trkpt><trkpt lat="44.44469946822006" lon="7.777232035729185"><ele>400.00000000000006</ele><time>2026-04-09T17:42:03.999Z</time></trkpt><trkpt lat="44.444770727940416" lon="7.77719821410507"><ele>400.0</ele><time>2026-04-09T17:42:04.999Z</time></trkpt><trkpt lat="44.44488640175867" lon="7.777125195210895"><ele>400.0</ele><time>2026-04-09T17:42:06.999Z</time></trkpt><trkpt lat="44.4449469908355" lon="7.777086654574425"><ele>400.0</ele><time>2026-04-09T17:42:07.998Z</time></trkpt><trkpt lat="44.44502343570477" lon="7.777031969260325"><ele>400.00000000000006</ele><time>2026-04-09T17:42:08.998Z</time></trkpt><trkpt lat="44.44510935265094" lon="7.776980179742052"><ele>400.0</ele><time>2026-04-09T17:42:09.998Z</time></trkpt><trkpt lat="44.445203512731254" lon="7.776919049620942"><ele>400.0</ele><time>2026-04-09T17:42:10.998Z</time></trkpt><trkpt lat="44.445313905425856" lon="7.776855272569605"><ele>400.0</ele><time>2026-04-09T17:42:11.998Z</time></trkpt><trkpt lat="44.44541159246605" lon="7.776795531052443"><ele>400.0</ele><time>2026-04-09T17:42:12.998Z</time></trkpt><trkpt lat="44.44550715293275" lon="7.776735294630862"><ele>400.0</ele><time>2026-04-09T17:42:13.998Z</time></trkpt><trkpt lat="44.445599710695795" lon="7.77668171579893"><ele>400.0</ele><time>2026-04-09T17:42:14.998Z</time></trkpt><trkpt lat="44.445689854680964" lon="7.776624771688072"><ele>400.0</ele><time>2026-04-09T17:42:15.998Z</time></trkpt><trkpt lat="44.44578735084734" lon="7.7765658296849205"><ele>400.0</ele><time>2026-04-09T17:42:16.998Z</time></trkpt><trkpt lat="44.445878989186774" lon="7.776502221185396"><ele>400.0</ele><time>2026-04-09T17:42:18Z</time></trkpt><trkpt lat="44.44597163763548" lon="7.77643512743882"><ele>400.0</ele><time>2026-04-09T17:42:19Z</time></trkpt><trkpt lat="44.44606874331414" lon="7.77637121601005"><ele>400.0</ele><time>2026-04-09T17:42:20Z</time></trkpt><trkpt lat="44.446168776583356" lon="7.776301107184652"><ele>400.0</ele><time>2026-04-09T17:42:21Z</time></trkpt><trkpt lat="44.44626893035963" lon="7.776231710702286"><ele>400.0</ele><time>2026-04-09T17:42:22Z</time></trkpt><trkpt lat="44.4463598648054" lon="7.776163695321407"><ele>400.0</ele><time>2026-04-09T17:42:23Z</time></trkpt><trkpt lat="44.44645702653557" lon="7.776097182501491"><ele>400.0</ele><time>2026-04-09T17:42:24Z</time></trkpt><trkpt lat="44.44656363750511" lon="7.7760388909739016"><ele>400.0</ele><time>2026-04-09T17:42:25Z</time></trkpt><trkpt lat="44.44665392805598" lon="7.775981576508477"><ele>399.83333333333337</ele><time>2026-04-09T17:42:26Z</time></trkpt><trkpt lat="44.44674271318256" lon="7.775933952964536"><ele>399.6666666666667</ele><time>2026-04-09T17:42:27Z</time></trkpt><trkpt lat="44.44681715005127" lon="7.775883483981403"><ele>399.5</ele><time>2026-04-09T17:42:28Z</time></trkpt><trkpt lat="44.4468758961834" lon="7.775836120289067"><ele>399.33333333333337</ele><time>2026-04-09T17:42:29Z</time></trkpt><trkpt lat="44.446944759342394" lon="7.7757904350116585"><ele>399.1666666666667</ele><time>2026-04-09T17:42:30Z</time></trkpt><trkpt lat="44.44702038329088" lon="7.775747032997206"><ele>399.0</ele><time>2026-04-09T17:42:31Z</time></trkpt><trkpt lat="44.44710920414336" lon="7.775693910135473"><ele>399.0</ele><time>2026-04-09T17:42:32Z</time></trkpt><trkpt lat="44.447190501829255" lon="7.775646930010943"><ele>399.0</ele><time>2026-04-09T17:42:33Z</time></trkpt><trkpt lat="44.44726588868398" lon="7.775584733477759"><ele>399.0</ele><time>2026-04-09T17:42:34Z</time></trkpt><trkpt lat="44.44734609169823" lon="7.775520853327135"><ele>399.0</ele><time>2026-04-09T17:42:35Z</time></trkpt><trkpt lat="44.447433097288126" lon="7.775458590098937"><ele>399.0</ele><time>2026-04-09T17:42:36Z</time></trkpt><trkpt lat="44.44751211635192" lon="7.775400103494033"><ele>399.0</ele><time>2026-04-09T17:42:37Z</time></trkpt><trkpt lat="44.447593260287114" lon="7.775349719596204"><ele>399.0</ele><time>2026-04-09T17:42:38Z</time></trkpt><trkpt lat="44.44767868456089" lon="7.775290459759968"><ele>399.0</ele><time>2026-04-09T17:42:39Z</time></trkpt><trkpt lat="44.44775581555887" lon="7.775228209930132"><ele>399.0</ele><time>2026-04-09T17:42:40Z</time></trkpt><trkpt lat="44.44784246714422" lon="7.775161547511025"><ele>399.0</ele><time>2026-04-09T17:42:41Z</time></trkpt><trkpt lat="44.447932319157765" lon="7.775100385723306"><ele>399.0</ele><time>2026-04-09T17:42:42Z</time></trkpt><trkpt lat="44.448025037996096" lon="7.7750326507265335"><ele>399.0</ele><time>2026-04-09T17:42:43Z</time></trkpt><trkpt lat="44.44811693428357" lon="7.774969653067938"><ele>399.0</ele><time>2026-04-09T17:42:44Z</time></trkpt><trkpt lat="44.44821691875406" lon="7.774910532606422"><ele>399.0</ele><time>2026-04-09T17:42:45Z</time></trkpt><trkpt lat="44.44831390609082" lon="7.774846549138338"><ele>399.0</ele><time>2026-04-09T17:42:46Z</time></trkpt><trkpt lat="44.448406186831306" lon="7.774784922869102"><ele>399.0</ele><time>2026-04-09T17:42:47Z</time></trkpt><trkpt lat="44.448503874257966" lon="7.774716215423485"><ele>399.0</ele><time>2026-04-09T17:42:48Z</time></trkpt><trkpt lat="44.44860585141964" lon="7.774653656022311"><ele>399.0</ele><time>2026-04-09T17:42:49Z</time></trkpt><trkpt lat="44.44872416872081" lon="7.774576541771863"><ele>399.0</ele><time>2026-04-09T17:42:50Z</time></trkpt><trkpt lat="44.44883806424987" lon="7.774510490344039"><ele>399.0</ele><time>2026-04-09T17:42:51Z</time></trkpt><trkpt lat="44.44892793097801" lon="7.774442375392972"><ele>399.0</ele><time>2026-04-09T17:42:52Z</time></trkpt><trkpt lat="44.44902751080348" lon="7.77437121482302"><ele>399.0</ele><time>2026-04-09T17:42:53Z</time></trkpt><trkpt lat="44.449127421008434" lon="7.774306567522646"><ele>399.0</ele><time>2026-04-09T17:42:54Z</time></trkpt><trkpt lat="44.44922563292323" lon="7.774253824161045"><ele>399.0</ele><time>2026-04-09T17:42:55Z</time></trkpt><trkpt lat="44.44932166454587" lon="7.774223795779732"><ele>399.4</ele><time>2026-04-09T17:42:56Z</time></trkpt><trkpt lat="44.44941284480533" lon="7.774210512237018"><ele>399.79999999999995</ele><time>2026-04-09T17:42:57Z</time></trkpt><trkpt lat="44.44949349538841" lon="7.774229354169397"><ele>400.20000000000005</ele><time>2026-04-09T17:42:58Z</time></trkpt><trkpt lat="44.449584299052404" lon="7.774263005811068"><ele>400.6</ele><time>2026-04-09T17:42:59Z</time></trkpt><trkpt lat="44.449675060531135" lon="7.77431201159539"><ele>401.0</ele><time>2026-04-09T17:43:00Z</time></trkpt><trkpt lat="44.44976563668202" lon="7.7743946190482305"><ele>401.0</ele><time>2026-04-09T17:43:01Z</time></trkpt><trkpt lat="44.44985711792487" lon="7.774497634395091"><ele>401.0</ele><time>2026-04-09T17:43:02Z</time></trkpt><trkpt lat="44.44994407817066" lon="7.774603540380096"><ele>401.0</ele><time>2026-04-09T17:43:03Z</time></trkpt><trkpt lat="44.45000261755333" lon="7.774706674797333"><ele>401.0</ele><time>2026-04-09T17:43:04Z</time></trkpt><trkpt lat="44.45004989197214" lon="7.774824549131069"><ele>401.0</ele><time>2026-04-09T17:43:04.999Z</time></trkpt><trkpt lat="44.450095036586625" lon="7.774949130919538"><ele>401.0</ele><time>2026-04-09T17:43:05.999Z</time></trkpt><trkpt lat="44.45013399551306" lon="7.7750784508580795"><ele>401.0</ele><time>2026-04-09T17:43:06.999Z</time></trkpt><trkpt lat="44.45016761468029" lon="7.77519717815051"><ele>401.0</ele><time>2026-04-09T17:43:07.999Z</time></trkpt><trkpt lat="44.45021463893627" lon="7.77531374107824"><ele>401.0</ele><time>2026-04-09T17:43:08.999Z</time></trkpt><trkpt lat="44.45028218317526" lon="7.775447981959461"><ele>401.0</ele><time>2026-04-09T17:43:09.999Z</time></trkpt><trkpt lat="44.450359306794425" lon="7.775577006343813"><ele>401.0</ele><time>2026-04-09T17:43:10.999Z</time></trkpt><trkpt lat="44.45043313762963" lon="7.775678015159844"><ele>401.0</ele><time>2026-04-09T17:43:11.999Z</time></trkpt><trkpt lat="44.450492191636854" lon="7.775792202222274"><ele>401.0</ele><time>2026-04-09T17:43:12.999Z</time></trkpt><trkpt lat="44.45054819764288" lon="7.77590412293383"><ele>401.0</ele><time>2026-04-09T17:43:13.999Z</time></trkpt><trkpt lat="44.45060279635091" lon="7.776009786830037"><ele>401.0</ele><time>2026-04-09T17:43:14.999Z</time></trkpt><trkpt lat="44.45065799466906" lon="7.77611526492025"><ele>401.0</ele><time>2026-04-09T17:43:15.999Z</time></trkpt><trkpt lat="44.45071864151261" lon="7.776228850172344"><ele>401.0</ele><time>2026-04-09T17:43:16.999Z</time></trkpt><trkpt lat="44.45077826259747" lon="7.776357046509674"><ele>401.0</ele><time>2026-04-09T17:43:17.999Z</time></trkpt><trkpt lat="44.450826397460965" lon="7.77652462182541"><ele>401.0</ele><time>2026-04-09T17:43:18.999Z</time></trkpt><trkpt lat="44.45086720320999" lon="7.776677973423821"><ele>401.0</ele><time>2026-04-09T17:43:19.999Z</time></trkpt><trkpt lat="44.45091567958711" lon="7.776821904967314"><ele>401.0</ele><time>2026-04-09T17:43:20.999Z</time></trkpt><trkpt lat="44.45098118387953" lon="7.7769446773811755"><ele>401.0</ele><time>2026-04-09T17:43:21.999Z</time></trkpt><trkpt lat="44.4510472406827" lon="7.777075788073529"><ele>401.0</ele><time>2026-04-09T17:43:22.999Z</time></trkpt><trkpt lat="44.45111479126701" lon="7.777176223120197"><ele>401.0</ele><time>2026-04-09T17:43:23.999Z</time></trkpt><trkpt lat="44.45117627430892" lon="7.777283487870803"><ele>401.0</ele><time>2026-04-09T17:43:24.999Z</time></trkpt><trkpt lat="44.451237707968666" lon="7.777390848956425"><ele>401.0</ele><time>2026-04-09T17:43:25.999Z</time></trkpt><trkpt lat="44.45129710354973" lon="7.777505865216958"><ele>401.0</ele><time>2026-04-09T17:43:26.999Z</time></trkpt><trkpt lat="44.45136494542617" lon="7.777614581499609"><ele>401.0</ele><time>2026-04-09T17:43:27.999Z</time></trkpt><trkpt lat="44.451422493494654" lon="7.777733170374029"><ele>401.0</ele><time>2026-04-09T17:43:28.999Z</time></trkpt><trkpt lat="44.45148319236584" lon="7.777835457458343"><ele>400.8</ele><time>2026-04-09T17:43:29.999Z</time></trkpt><trkpt lat="44.4515482402792" lon="7.777930752397158"><ele>400.6</ele><time>2026-04-09T17:43:30.999Z</time></trkpt><trkpt lat="44.451609404802646" lon="7.778030871135656"><ele>400.4</ele><time>2026-04-09T17:43:31.999Z</time></trkpt><trkpt lat="44.4516680298699" lon="7.778129095110155"><ele>400.2</ele><time>2026-04-09T17:43:32.999Z</time></trkpt><trkpt lat="44.45173092942547" lon="7.778225336744408"><ele>400.0</ele><time>2026-04-09T17:43:33.999Z</time></trkpt><trkpt lat="44.45178631521953" lon="7.778315571018453"><ele>400.0</ele><time>2026-04-09T17:43:34.999Z</time></trkpt><trkpt lat="44.45184224378292" lon="7.778399800809073"><ele>400.0</ele><time>2026-04-09T17:43:35.999Z</time></trkpt><trkpt lat="44.45190258422956" lon="7.77850014388883"><ele>400.0</ele><time>2026-04-09T17:43:36.999Z</time></trkpt><trkpt lat="44.451961296929" lon="7.778611144256375"><ele>400.0</ele><time>2026-04-09T17:43:37.999Z</time></trkpt><trkpt lat="44.45201618914046" lon="7.77871979691053"><ele>400.0</ele><time>2026-04-09T17:43:38.999Z</time></trkpt><trkpt lat="44.45207602573194" lon="7.778822940952357"><ele>400.4</ele><time>2026-04-09T17:43:39.999Z</time></trkpt><trkpt lat="44.45212483186173" lon="7.778935280707863"><ele>400.8</ele><time>2026-04-09T17:43:40.999Z</time></trkpt><trkpt lat="44.45215727000449" lon="7.779075169859515"><ele>401.20000000000005</ele><time>2026-04-09T17:43:41.999Z</time></trkpt><trkpt lat="44.45219409743249" lon="7.779207145700545"><ele>401.6</ele><time>2026-04-09T17:43:42.999Z</time></trkpt><trkpt lat="44.45223317095535" lon="7.779340574289375"><ele>402.0</ele><time>2026-04-09T17:43:43.999Z</time></trkpt><trkpt lat="44.45227473724069" lon="7.779480371298461"><ele>402.0</ele><time>2026-04-09T17:43:44.999Z</time></trkpt><trkpt lat="44.452322294893214" lon="7.779635913583812"><ele>402.0</ele><time>2026-04-09T17:43:45.999Z</time></trkpt><trkpt lat="44.45236124316441" lon="7.779780250470299"><ele>402.0</ele><time>2026-04-09T17:43:46.999Z</time></trkpt><trkpt lat="44.452395645401126" lon="7.7799166984165105"><ele>402.0</ele><time>2026-04-09T17:43:47.999Z</time></trkpt><trkpt lat="44.452426233549524" lon="7.780032052624046"><ele>402.0</ele><time>2026-04-09T17:43:48.999Z</time></trkpt><trkpt lat="44.45245711514208" lon="7.780155474847457"><ele>401.8</ele><time>2026-04-09T17:43:49.999Z</time></trkpt><trkpt lat="44.45248562793612" lon="7.780281272744831"><ele>401.6</ele><time>2026-04-09T17:43:50.999Z</time></trkpt><trkpt lat="44.45251413993359" lon="7.780413660704319"><ele>401.40000000000003</ele><time>2026-04-09T17:43:51.999Z</time></trkpt><trkpt lat="44.45254203794001" lon="7.780557678147821"><ele>401.20000000000005</ele><time>2026-04-09T17:43:52.999Z</time></trkpt><trkpt lat="44.452568138939554" lon="7.78069595183303"><ele>401.0</ele><time>2026-04-09T17:43:53.999Z</time></trkpt><trkpt lat="44.45259207557133" lon="7.780816096081506"><ele>400.99999999999994</ele><time>2026-04-09T17:43:54.999Z</time></trkpt><trkpt lat="44.45262166394214" lon="7.780933604478026"><ele>401.0</ele><time>2026-04-09T17:43:55.999Z</time></trkpt><trkpt lat="44.452648735521656" lon="7.781043891082036"><ele>401.0</ele><time>2026-04-09T17:43:56.999Z</time></trkpt><trkpt lat="44.45267811492008" lon="7.781129923004118"><ele>401.0</ele><time>2026-04-09T17:43:57.999Z</time></trkpt><trkpt lat="44.45271249033683" lon="7.781221865840355"><ele>400.99999999999994</ele><time>2026-04-09T17:43:58.999Z</time></trkpt><trkpt lat="44.4527510701842" lon="7.781310726273999"><ele>401.0</ele><time>2026-04-09T17:43:59.999Z</time></trkpt><trkpt lat="44.452781846940326" lon="7.781391474261573"><ele>401.0</ele><time>2026-04-09T17:44:00.999Z</time></trkpt><trkpt lat="44.45282528784037" lon="7.781470297026198"><ele>401.0</ele><time>2026-04-09T17:44:01.999Z</time></trkpt><trkpt lat="44.45286710226114" lon="7.78154747860862"><ele>401.0</ele><time>2026-04-09T17:44:02.999Z</time></trkpt><trkpt lat="44.452937129574636" lon="7.781682430165157"><ele>401.0</ele><time>2026-04-09T17:44:04.999Z</time></trkpt><trkpt lat="44.45296756056373" lon="7.781760463375499"><ele>401.0</ele><time>2026-04-09T17:44:06.999Z</time></trkpt><trkpt lat="44.453015355392516" lon="7.781953749219955"><ele>400.99999999999994</ele><time>2026-04-09T17:44:11.999Z</time></trkpt><trkpt lat="44.45305252541464" lon="7.782031447013571"><ele>401.0</ele><time>2026-04-09T17:44:12.998Z</time></trkpt><trkpt lat="44.45308517875162" lon="7.782114388837561"><ele>401.0</ele><time>2026-04-09T17:44:13.998Z</time></trkpt><trkpt lat="44.45312517717913" lon="7.782227650696494"><ele>401.0</ele><time>2026-04-09T17:44:14.998Z</time></trkpt><trkpt lat="44.45318409259058" lon="7.7823612181152315"><ele>400.99999999999994</ele><time>2026-04-09T17:44:15.998Z</time></trkpt><trkpt lat="44.453247060869224" lon="7.782487635555965"><ele>401.0</ele><time>2026-04-09T17:44:16.998Z</time></trkpt><trkpt lat="44.453303183343614" lon="7.782645338085902"><ele>401.0</ele><time>2026-04-09T17:44:17.998Z</time></trkpt><trkpt lat="44.45334448179099" lon="7.782781866853498"><ele>401.0</ele><time>2026-04-09T17:44:18.998Z</time></trkpt><trkpt lat="44.45338361143662" lon="7.782924253604921"><ele>401.0</ele><time>2026-04-09T17:44:19.998Z</time></trkpt><trkpt lat="44.45342319985398" lon="7.783061630875448"><ele>401.0</ele><time>2026-04-09T17:44:20.998Z</time></trkpt><trkpt lat="44.453464138040324" lon="7.783187876911082"><ele>401.0</ele><time>2026-04-09T17:44:21.998Z</time></trkpt><trkpt lat="44.4534953323551" lon="7.7833116434359795"><ele>401.0</ele><time>2026-04-09T17:44:22.998Z</time></trkpt><trkpt lat="44.45353384389559" lon="7.783450721143768"><ele>401.0</ele><time>2026-04-09T17:44:24Z</time></trkpt><trkpt lat="44.453572333470085" lon="7.783597232172475"><ele>401.0</ele><time>2026-04-09T17:44:25Z</time></trkpt><trkpt lat="44.45360300711498" lon="7.783731059467072"><ele>401.0</ele><time>2026-04-09T17:44:26Z</time></trkpt><trkpt lat="44.45364137370982" lon="7.7838650454344425"><ele>401.0</ele><time>2026-04-09T17:44:27Z</time></trkpt><trkpt lat="44.453678344561474" lon="7.783998351149837"><ele>400.8</ele><time>2026-04-09T17:44:28Z</time></trkpt><trkpt lat="44.45371961147055" lon="7.7841400527599784"><ele>400.6</ele><time>2026-04-09T17:44:29Z</time></trkpt><trkpt lat="44.45375574312079" lon="7.784278481067312"><ele>400.4</ele><time>2026-04-09T17:44:30Z</time></trkpt><trkpt lat="44.4537900821577" lon="7.7844080017465975"><ele>400.2</ele><time>2026-04-09T17:44:31Z</time></trkpt><trkpt lat="44.45382643069603" lon="7.784541373408841"><ele>400.0</ele><time>2026-04-09T17:44:32Z</time></trkpt><trkpt lat="44.45386101070741" lon="7.784676486311167"><ele>400.0</ele><time>2026-04-09T17:44:33Z</time></trkpt><trkpt lat="44.4538987460134" lon="7.784819000137159"><ele>400.0</ele><time>2026-04-09T17:44:34Z</time></trkpt><trkpt lat="44.453933740276966" lon="7.784950036687121"><ele>400.0</ele><time>2026-04-09T17:44:35Z</time></trkpt><trkpt lat="44.45396867008449" lon="7.785075795336706"><ele>400.0</ele><time>2026-04-09T17:44:36Z</time></trkpt><trkpt lat="44.45400688564151" lon="7.7852031002926205"><ele>400.0</ele><time>2026-04-09T17:44:37Z</time></trkpt><trkpt lat="44.4540400690717" lon="7.7853409619628104"><ele>400.2</ele><time>2026-04-09T17:44:38Z</time></trkpt><trkpt lat="44.45408083224361" lon="7.785471831675287"><ele>400.4</ele><time>2026-04-09T17:44:39Z</time></trkpt><trkpt lat="44.45411748951432" lon="7.785606800162927"><ele>400.6</ele><time>2026-04-09T17:44:40Z</time></trkpt><trkpt lat="44.45416174710451" lon="7.785739466344256"><ele>400.8</ele><time>2026-04-09T17:44:41Z</time></trkpt><trkpt lat="44.45419146122164" lon="7.785872047135426"><ele>401.0</ele><time>2026-04-09T17:44:42Z</time></trkpt><trkpt lat="44.45422230805029" lon="7.78598815211078"><ele>401.0</ele><time>2026-04-09T17:44:43Z</time></trkpt><trkpt lat="44.45425951927597" lon="7.786124548523306"><ele>401.0</ele><time>2026-04-09T17:44:44Z</time></trkpt><trkpt lat="44.454298264556456" lon="7.786284272330327"><ele>401.0</ele><time>2026-04-09T17:44:45Z</time></trkpt><trkpt lat="44.4543365979945" lon="7.786408441411065"><ele>401.0</ele><time>2026-04-09T17:44:46Z</time></trkpt><trkpt lat="44.45437595550888" lon="7.786550486982369"><ele>401.0</ele><time>2026-04-09T17:44:47Z</time></trkpt><trkpt lat="44.45441581419521" lon="7.786682246134281"><ele>401.0</ele><time>2026-04-09T17:44:48Z</time></trkpt><trkpt lat="44.45445417651415" lon="7.786812027599907"><ele>401.0</ele><time>2026-04-09T17:44:49Z</time></trkpt><trkpt lat="44.45449648022763" lon="7.786938865773053"><ele>401.0</ele><time>2026-04-09T17:44:50Z</time></trkpt><trkpt lat="44.454546299529135" lon="7.787067473744383"><ele>401.0</ele><time>2026-04-09T17:44:51Z</time></trkpt><trkpt lat="44.45460251389062" lon="7.787232754712121"><ele>401.0</ele><time>2026-04-09T17:44:52Z</time></trkpt><trkpt lat="44.45466241393918" lon="7.787373989610685"><ele>401.0</ele><time>2026-04-09T17:44:53Z</time></trkpt><trkpt lat="44.4547245387181" lon="7.787498335763059"><ele>401.0</ele><time>2026-04-09T17:44:54Z</time></trkpt><trkpt lat="44.45478307027266" lon="7.7876097881547315"><ele>401.0</ele><time>2026-04-09T17:44:55Z</time></trkpt><trkpt lat="44.454831981142014" lon="7.7877159385632675"><ele>401.0</ele><time>2026-04-09T17:44:56Z</time></trkpt><trkpt lat="44.45488047836626" lon="7.787824516874411"><ele>401.0</ele><time>2026-04-09T17:44:57Z</time></trkpt><trkpt lat="44.454933648717336" lon="7.787917861893106"><ele>400.99999999999994</ele><time>2026-04-09T17:44:58Z</time></trkpt><trkpt lat="44.4549735841089" lon="7.7880012245171155"><ele>401.0</ele><time>2026-04-09T17:44:59Z</time></trkpt><trkpt lat="44.45500910677539" lon="7.788084068195177"><ele>401.0</ele><time>2026-04-09T17:45:00Z</time></trkpt><trkpt lat="44.455052150909324" lon="7.788217033531465"><ele>401.0</ele><time>2026-04-09T17:45:02Z</time></trkpt><trkpt lat="44.45502101966225" lon="7.788351941983211"><ele>400.99999999999994</ele><time>2026-04-09T17:45:05Z</time></trkpt><trkpt lat="44.45497728326805" lon="7.788421047743975"><ele>401.0</ele><time>2026-04-09T17:45:06Z</time></trkpt><trkpt lat="44.4548685913705" lon="7.7885044577926505"><ele>400.66666666666663</ele><time>2026-04-09T17:45:08Z</time></trkpt><trkpt lat="44.454798685439485" lon="7.788578216145609"><ele>400.3333333333333</ele><time>2026-04-09T17:45:10Z</time></trkpt><trkpt lat="44.45472742742702" lon="7.788718986487385"><ele>400.0</ele><time>2026-04-09T17:45:12Z</time></trkpt><trkpt lat="44.45467637351653" lon="7.788780091434632"><ele>399.66666666666663</ele><time>2026-04-09T17:45:13Z</time></trkpt><trkpt lat="44.454616310596286" lon="7.78882598427036"><ele>399.3333333333333</ele><time>2026-04-09T17:45:13.999Z</time></trkpt><trkpt lat="44.454552959580944" lon="7.788855156323662"><ele>399.0</ele><time>2026-04-09T17:45:14.999Z</time></trkpt><trkpt lat="44.454427825651" lon="7.788909819191136"><ele>398.25</ele><time>2026-04-09T17:45:16.999Z</time></trkpt><trkpt lat="44.45432686217071" lon="7.788959554776717"><ele>397.5</ele><time>2026-04-09T17:45:17.999Z</time></trkpt><trkpt lat="44.45420637559534" lon="7.789039299073267"><ele>396.75</ele><time>2026-04-09T17:45:18.999Z</time></trkpt><trkpt lat="44.45408064350783" lon="7.789105391093878"><ele>396.0</ele><time>2026-04-09T17:45:19.999Z</time></trkpt><trkpt lat="44.45393139611604" lon="7.7891716909070245"><ele>395.0</ele><time>2026-04-09T17:45:20.999Z</time></trkpt><trkpt lat="44.453777463295395" lon="7.7892268786897665"><ele>394.0</ele><time>2026-04-09T17:45:21.999Z</time></trkpt><trkpt lat="44.45361564760283" lon="7.789285641569252"><ele>393.0</ele><time>2026-04-09T17:45:22.999Z</time></trkpt><trkpt lat="44.4534418840692" lon="7.789348833388351"><ele>393.0</ele><time>2026-04-09T17:45:23.999Z</time></trkpt><trkpt lat="44.453263834762346" lon="7.789403550697666"><ele>393.0</ele><time>2026-04-09T17:45:24.999Z</time></trkpt><trkpt lat="44.45308575687672" lon="7.789472609152824"><ele>393.0</ele><time>2026-04-09T17:45:25.999Z</time></trkpt><trkpt lat="44.45292409665812" lon="7.789526033481158"><ele>393.0</ele><time>2026-04-09T17:45:26.999Z</time></trkpt><trkpt lat="44.45277431377714" lon="7.789575500971599"><ele>393.0</ele><time>2026-04-09T17:45:27.999Z</time></trkpt><trkpt lat="44.452630383997914" lon="7.78963705190153"><ele>393.0</ele><time>2026-04-09T17:45:28.999Z</time></trkpt><trkpt lat="44.452483757040106" lon="7.789695537764787"><ele>393.0</ele><time>2026-04-09T17:45:29.999Z</time></trkpt><trkpt lat="44.452330707586285" lon="7.789760147380124"><ele>393.0</ele><time>2026-04-09T17:45:30.999Z</time></trkpt><trkpt lat="44.45217197559686" lon="7.789830908578314"><ele>393.0</ele><time>2026-04-09T17:45:31.999Z</time></trkpt><trkpt lat="44.452000073892506" lon="7.789929138143063"><ele>393.0</ele><time>2026-04-09T17:45:32.999Z</time></trkpt><trkpt lat="44.45182785754536" lon="7.7900306554907655"><ele>393.0</ele><time>2026-04-09T17:45:33.999Z</time></trkpt><trkpt lat="44.4516536311282" lon="7.790133089692561"><ele>393.0</ele><time>2026-04-09T17:45:34.999Z</time></trkpt><trkpt lat="44.451478646766475" lon="7.790239105571161"><ele>392.66666666666663</ele><time>2026-04-09T17:45:35.999Z</time></trkpt><trkpt lat="44.451295511091786" lon="7.7903434848058115"><ele>392.3333333333333</ele><time>2026-04-09T17:45:36.999Z</time></trkpt><trkpt lat="44.451105682944466" lon="7.790453510372091"><ele>392.0</ele><time>2026-04-09T17:45:37.999Z</time></trkpt><trkpt lat="44.45092482970084" lon="7.790566690367016"><ele>391.66666666666663</ele><time>2026-04-09T17:45:38.999Z</time></trkpt><trkpt lat="44.45076081164393" lon="7.790668455746315"><ele>391.33333333333337</ele><time>2026-04-09T17:45:39.999Z</time></trkpt><trkpt lat="44.45060288756184" lon="7.790757793744937"><ele>391.0</ele><time>2026-04-09T17:45:40.999Z</time></trkpt><trkpt lat="44.450448916298576" lon="7.790852054611553"><ele>391.0</ele><time>2026-04-09T17:45:41.999Z</time></trkpt><trkpt lat="44.45030937640414" lon="7.790939690924069"><ele>391.0</ele><time>2026-04-09T17:45:42.999Z</time></trkpt><trkpt lat="44.45017167666094" lon="7.791027429118483"><ele>391.0</ele><time>2026-04-09T17:45:43.999Z</time></trkpt><trkpt lat="44.450025661960055" lon="7.791120720748224"><ele>390.6666666666667</ele><time>2026-04-09T17:45:44.999Z</time></trkpt><trkpt lat="44.44988119210915" lon="7.79122667275746"><ele>390.33333333333337</ele><time>2026-04-09T17:45:45.999Z</time></trkpt><trkpt lat="44.44975231401278" lon="7.791333558124831"><ele>390.0</ele><time>2026-04-09T17:45:46.999Z</time></trkpt><trkpt lat="44.44963119371327" lon="7.791432081873183"><ele>390.0</ele><time>2026-04-09T17:45:47.999Z</time></trkpt><trkpt lat="44.449512362958274" lon="7.791535437191645"><ele>390.0</ele><time>2026-04-09T17:45:48.999Z</time></trkpt><trkpt lat="44.44938669363179" lon="7.791648141231542"><ele>390.0</ele><time>2026-04-09T17:45:49.999Z</time></trkpt><trkpt lat="44.44925363067827" lon="7.791789752266171"><ele>390.25</ele><time>2026-04-09T17:45:50.999Z</time></trkpt><trkpt lat="44.44913353171374" lon="7.791921313779988"><ele>390.5</ele><time>2026-04-09T17:45:51.999Z</time></trkpt><trkpt lat="44.44902023791446" lon="7.792058630999229"><ele>390.75</ele><time>2026-04-09T17:45:52.999Z</time></trkpt><trkpt lat="44.44891378779706" lon="7.792190632387726"><ele>391.0</ele><time>2026-04-09T17:45:53.999Z</time></trkpt><trkpt lat="44.44882024784821" lon="7.7923269435067"><ele>391.0</ele><time>2026-04-09T17:45:54.999Z</time></trkpt><trkpt lat="44.448718558851866" lon="7.792472468141802"><ele>391.0</ele><time>2026-04-09T17:45:55.999Z</time></trkpt><trkpt lat="44.448603920381004" lon="7.7926173414718605"><ele>391.0</ele><time>2026-04-09T17:45:56.999Z</time></trkpt><trkpt lat="44.448486989339045" lon="7.792764682149687"><ele>390.6666666666667</ele><time>2026-04-09T17:45:57.999Z</time></trkpt><trkpt lat="44.44837927837665" lon="7.792907846926107"><ele>390.33333333333337</ele><time>2026-04-09T17:45:58.999Z</time></trkpt><trkpt lat="44.44826313623838" lon="7.793062553011388"><ele>390.0</ele><time>2026-04-09T17:45:59.999Z</time></trkpt><trkpt lat="44.44814503391596" lon="7.7932061191742585"><ele>390.0</ele><time>2026-04-09T17:46:00.999Z</time></trkpt><trkpt lat="44.4480324375219" lon="7.793338950923286"><ele>390.0</ele><time>2026-04-09T17:46:01.999Z</time></trkpt><trkpt lat="44.44792110431229" lon="7.7934584122292865"><ele>390.0</ele><time>2026-04-09T17:46:02.999Z</time></trkpt><trkpt lat="44.44781104496356" lon="7.793555028055956"><ele>390.0</ele><time>2026-04-09T17:46:03.999Z</time></trkpt><trkpt lat="44.44770853753197" lon="7.793635564298048"><ele>389.3333333333333</ele><time>2026-04-09T17:46:04.999Z</time></trkpt><trkpt lat="44.447615923547694" lon="7.793705760548054"><ele>388.66666666666663</ele><time>2026-04-09T17:46:05.999Z</time></trkpt><trkpt lat="44.447536126210856" lon="7.7937633482534965"><ele>388.0</ele><time>2026-04-09T17:46:06.999Z</time></trkpt><trkpt lat="44.447476648188356" lon="7.7938092441817775"><ele>387.3333333333333</ele><time>2026-04-09T17:46:07.999Z</time></trkpt><trkpt lat="44.44738230089418" lon="7.7938661016617194"><ele>386.66666666666663</ele><time>2026-04-09T17:46:09.999Z</time></trkpt><trkpt lat="44.44732704337124" lon="7.7939184332446025"><ele>386.0</ele><time>2026-04-09T17:46:12.999Z</time></trkpt><trkpt lat="44.44738437569471" lon="7.794119172349897"><ele>386.0</ele><time>2026-04-09T17:46:22.998Z</time></trkpt><trkpt lat="44.4474441775278" lon="7.794201914737074"><ele>386.0</ele><time>2026-04-09T17:46:23.998Z</time></trkpt><trkpt lat="44.44753242302453" lon="7.794288570476438"><ele>386.0</ele><time>2026-04-09T17:46:24.998Z</time></trkpt><trkpt lat="44.447636005083076" lon="7.794398128285064"><ele>386.0</ele><time>2026-04-09T17:46:25.998Z</time></trkpt><trkpt lat="44.447741802896246" lon="7.794512803748266"><ele>385.66666666666663</ele><time>2026-04-09T17:46:26.998Z</time></trkpt><trkpt lat="44.44785646081862" lon="7.794657685644286"><ele>385.33333333333337</ele><time>2026-04-09T17:46:27.998Z</time></trkpt><trkpt lat="44.44798676263073" lon="7.794801013431699"><ele>385.0</ele><time>2026-04-09T17:46:28.998Z</time></trkpt><trkpt lat="44.44811814836836" lon="7.794950410050956"><ele>385.0</ele><time>2026-04-09T17:46:30Z</time></trkpt><trkpt lat="44.44825280656644" lon="7.795109036747976"><ele>385.0</ele><time>2026-04-09T17:46:31Z</time></trkpt><trkpt lat="44.448391497912176" lon="7.795259429794831"><ele>385.0</ele><time>2026-04-09T17:46:32Z</time></trkpt><trkpt lat="44.44853617158534" lon="7.795435488628474"><ele>385.33333333333337</ele><time>2026-04-09T17:46:33Z</time></trkpt><trkpt lat="44.44868219241989" lon="7.795611321400075"><ele>385.66666666666663</ele><time>2026-04-09T17:46:34Z</time></trkpt><trkpt lat="44.44883451647712" lon="7.795803495537755"><ele>386.0</ele><time>2026-04-09T17:46:35Z</time></trkpt><trkpt lat="44.4489979798501" lon="7.795979537269246"><ele>386.0</ele><time>2026-04-09T17:46:36Z</time></trkpt><trkpt lat="44.44915661728364" lon="7.796155711925077"><ele>386.0</ele><time>2026-04-09T17:46:37Z</time></trkpt><trkpt lat="44.44932271504539" lon="7.796339553702677"><ele>386.0</ele><time>2026-04-09T17:46:38Z</time></trkpt><trkpt lat="44.44948307665721" lon="7.796531176113316"><ele>386.0</ele><time>2026-04-09T17:46:39Z</time></trkpt><trkpt lat="44.44961811903411" lon="7.796713019848305"><ele>386.0</ele><time>2026-04-09T17:46:40Z</time></trkpt><trkpt lat="44.44975947065544" lon="7.796878490783822"><ele>386.0</ele><time>2026-04-09T17:46:41Z</time></trkpt><trkpt lat="44.44989449064983" lon="7.797061018709267"><ele>387.0</ele><time>2026-04-09T17:46:42Z</time></trkpt><trkpt lat="44.450018378947455" lon="7.797243893157672"><ele>388.0</ele><time>2026-04-09T17:46:43Z</time></trkpt><trkpt lat="44.450132662968045" lon="7.7974320368546834"><ele>389.0</ele><time>2026-04-09T17:46:44Z</time></trkpt><trkpt lat="44.45026302724931" lon="7.797621344326609"><ele>389.0</ele><time>2026-04-09T17:46:45Z</time></trkpt><trkpt lat="44.45038250661583" lon="7.797825376601029"><ele>389.0</ele><time>2026-04-09T17:46:46Z</time></trkpt><trkpt lat="44.450500493754326" lon="7.79802089260785"><ele>389.0</ele><time>2026-04-09T17:46:47Z</time></trkpt><trkpt lat="44.450612562054346" lon="7.798219222007474"><ele>389.0</ele><time>2026-04-09T17:46:48Z</time></trkpt><trkpt lat="44.45072135270259" lon="7.7984161276000235"><ele>389.0</ele><time>2026-04-09T17:46:49Z</time></trkpt><trkpt lat="44.45082965140269" lon="7.798613716969676"><ele>389.0</ele><time>2026-04-09T17:46:50Z</time></trkpt><trkpt lat="44.45093717200585" lon="7.798824775192001"><ele>389.0</ele><time>2026-04-09T17:46:51Z</time></trkpt><trkpt lat="44.45103664598475" lon="7.799038134675719"><ele>389.0</ele><time>2026-04-09T17:46:52Z</time></trkpt><trkpt lat="44.451133546224085" lon="7.799246871117055"><ele>389.0</ele><time>2026-04-09T17:46:53Z</time></trkpt><trkpt lat="44.45122973888531" lon="7.799471768277322"><ele>389.0</ele><time>2026-04-09T17:46:54Z</time></trkpt><trkpt lat="44.45132396996319" lon="7.799690755083274"><ele>389.0</ele><time>2026-04-09T17:46:55Z</time></trkpt><trkpt lat="44.451417105671815" lon="7.799906069370512"><ele>389.0</ele><time>2026-04-09T17:46:56Z</time></trkpt><trkpt lat="44.45151379348541" lon="7.800124791867159"><ele>388.66666666666663</ele><time>2026-04-09T17:46:57Z</time></trkpt><trkpt lat="44.45160443891048" lon="7.800352710309808"><ele>388.33333333333337</ele><time>2026-04-09T17:46:58Z</time></trkpt><trkpt lat="44.451697364022635" lon="7.800583139016828"><ele>388.0</ele><time>2026-04-09T17:46:59Z</time></trkpt><trkpt lat="44.45179200397079" lon="7.800806292042126"><ele>388.0</ele><time>2026-04-09T17:47:00Z</time></trkpt><trkpt lat="44.45189242541425" lon="7.8010350840233595"><ele>388.0</ele><time>2026-04-09T17:47:01Z</time></trkpt><trkpt lat="44.45199108407996" lon="7.801267970589"><ele>388.0</ele><time>2026-04-09T17:47:02Z</time></trkpt><trkpt lat="44.452086205597205" lon="7.801513101594621"><ele>387.6666666666667</ele><time>2026-04-09T17:47:03Z</time></trkpt><trkpt lat="44.45218386079032" lon="7.801758925866988"><ele>387.33333333333337</ele><time>2026-04-09T17:47:04Z</time></trkpt><trkpt lat="44.452286051047984" lon="7.8020108765040055"><ele>387.0</ele><time>2026-04-09T17:47:05Z</time></trkpt><trkpt lat="44.45238950861771" lon="7.8022693231957145"><ele>386.66666666666663</ele><time>2026-04-09T17:47:06Z</time></trkpt><trkpt lat="44.45249761390119" lon="7.802527387762014"><ele>386.3333333333333</ele><time>2026-04-09T17:47:07Z</time></trkpt><trkpt lat="44.45260799401448" lon="7.802789992844017"><ele>386.0</ele><time>2026-04-09T17:47:08Z</time></trkpt><trkpt lat="44.452722455567994" lon="7.803056738579896"><ele>386.0</ele><time>2026-04-09T17:47:09Z</time></trkpt><trkpt lat="44.452835645397656" lon="7.8033351427676525"><ele>386.0</ele><time>2026-04-09T17:47:10Z</time></trkpt><trkpt lat="44.452952783030796" lon="7.803616455478726"><ele>386.0</ele><time>2026-04-09T17:47:11Z</time></trkpt><trkpt lat="44.45306671440306" lon="7.803893239181248"><ele>386.0</ele><time>2026-04-09T17:47:12Z</time></trkpt><trkpt lat="44.45317339107373" lon="7.804153580547662"><ele>386.0</ele><time>2026-04-09T17:47:13Z</time></trkpt><trkpt lat="44.45326304468734" lon="7.8043966024132825"><ele>386.0</ele><time>2026-04-09T17:47:14Z</time></trkpt><trkpt lat="44.453363920373874" lon="7.804635935619361"><ele>386.0</ele><time>2026-04-09T17:47:15Z</time></trkpt><trkpt lat="44.453464375587906" lon="7.804865644479792"><ele>386.0</ele><time>2026-04-09T17:47:16Z</time></trkpt><trkpt lat="44.453557260122224" lon="7.805099335836758"><ele>386.3333333333333</ele><time>2026-04-09T17:47:17Z</time></trkpt><trkpt lat="44.4536506442086" lon="7.805328891353779"><ele>386.66666666666663</ele><time>2026-04-09T17:47:18Z</time></trkpt><trkpt lat="44.45374709104878" lon="7.805565104695631"><ele>387.0</ele><time>2026-04-09T17:47:18.999Z</time></trkpt><trkpt lat="44.45384464782779" lon="7.805790081695481"><ele>386.66666666666663</ele><time>2026-04-09T17:47:19.999Z</time></trkpt><trkpt lat="44.45393660723757" lon="7.806015284425849"><ele>386.3333333333333</ele><time>2026-04-09T17:47:20.999Z</time></trkpt><trkpt lat="44.45403212385206" lon="7.806237186557433"><ele>386.0</ele><time>2026-04-09T17:47:21.999Z</time></trkpt><trkpt lat="44.454124192550914" lon="7.806453933390635"><ele>386.0</ele><time>2026-04-09T17:47:22.999Z</time></trkpt><trkpt lat="44.45421572906699" lon="7.806674427247601"><ele>386.0</ele><time>2026-04-09T17:47:23.999Z</time></trkpt><trkpt lat="44.45430971297791" lon="7.806893278055744"><ele>386.0</ele><time>2026-04-09T17:47:24.999Z</time></trkpt><trkpt lat="44.45440001058422" lon="7.807108772240709"><ele>385.66666666666663</ele><time>2026-04-09T17:47:25.999Z</time></trkpt><trkpt lat="44.454491639874895" lon="7.807327550889513"><ele>385.33333333333337</ele><time>2026-04-09T17:47:26.999Z</time></trkpt><trkpt lat="44.45458027570823" lon="7.807545767388398"><ele>385.0</ele><time>2026-04-09T17:47:27.999Z</time></trkpt><trkpt lat="44.454669112240715" lon="7.807767408299451"><ele>385.6666666666667</ele><time>2026-04-09T17:47:28.999Z</time></trkpt><trkpt lat="44.454763003821746" lon="7.807984711095239"><ele>386.33333333333337</ele><time>2026-04-09T17:47:29.999Z</time></trkpt><trkpt lat="44.45485474312637" lon="7.808206112440445"><ele>387.0</ele><time>2026-04-09T17:47:30.999Z</time></trkpt><trkpt lat="44.45494296467284" lon="7.808418363453575"><ele>386.33333333333337</ele><time>2026-04-09T17:47:31.999Z</time></trkpt><trkpt lat="44.455030609640666" lon="7.808639301452295"><ele>385.6666666666667</ele><time>2026-04-09T17:47:32.999Z</time></trkpt><trkpt lat="44.455119889766" lon="7.808851501689282"><ele>385.0</ele><time>2026-04-09T17:47:33.999Z</time></trkpt><trkpt lat="44.455212200456984" lon="7.809080512043988"><ele>385.0</ele><time>2026-04-09T17:47:34.999Z</time></trkpt><trkpt lat="44.45530840207361" lon="7.809308611328191"><ele>385.0</ele><time>2026-04-09T17:47:35.999Z</time></trkpt><trkpt lat="44.45540708993825" lon="7.809541324163464"><ele>385.0</ele><time>2026-04-09T17:47:36.999Z</time></trkpt><trkpt lat="44.45550724262019" lon="7.809789212134841"><ele>384.33333333333337</ele><time>2026-04-09T17:47:37.999Z</time></trkpt><trkpt lat="44.45560617541189" lon="7.8100415171661215"><ele>383.6666666666667</ele><time>2026-04-09T17:47:38.999Z</time></trkpt><trkpt lat="44.455708744774" lon="7.810295945662891"><ele>383.0</ele><time>2026-04-09T17:47:39.999Z</time></trkpt><trkpt lat="44.45581652867918" lon="7.810556521510605"><ele>383.0</ele><time>2026-04-09T17:47:40.999Z</time></trkpt><trkpt lat="44.45592878108894" lon="7.810817571845461"><ele>383.0</ele><time>2026-04-09T17:47:41.999Z</time></trkpt><trkpt lat="44.45604159641488" lon="7.811089982236625"><ele>383.0</ele><time>2026-04-09T17:47:42.999Z</time></trkpt><trkpt lat="44.45615530628028" lon="7.81136558116328"><ele>383.0</ele><time>2026-04-09T17:47:43.999Z</time></trkpt><trkpt lat="44.45627040438262" lon="7.811646947075813"><ele>383.0</ele><time>2026-04-09T17:47:44.999Z</time></trkpt><trkpt lat="44.45638731435394" lon="7.811934327177746"><ele>382.0</ele><time>2026-04-09T17:47:45.999Z</time></trkpt><trkpt lat="44.4565047619892" lon="7.8122304065045585"><ele>381.0</ele><time>2026-04-09T17:47:46.999Z</time></trkpt><trkpt lat="44.45662482149237" lon="7.812525751457501"><ele>381.0</ele><time>2026-04-09T17:47:47.999Z</time></trkpt><trkpt lat="44.456749272622424" lon="7.8128237025112375"><ele>381.0</ele><time>2026-04-09T17:47:48.999Z</time></trkpt><trkpt lat="44.456873022523396" lon="7.8131270159282105"><ele>381.0</ele><time>2026-04-09T17:47:49.999Z</time></trkpt><trkpt lat="44.45699572795707" lon="7.813433955722141"><ele>381.0</ele><time>2026-04-09T17:47:50.999Z</time></trkpt><trkpt lat="44.45712237653835" lon="7.813735768191027"><ele>381.0</ele><time>2026-04-09T17:47:51.999Z</time></trkpt><trkpt lat="44.457250857159934" lon="7.81404349821402"><ele>381.0</ele><time>2026-04-09T17:47:52.999Z</time></trkpt><trkpt lat="44.457382009594895" lon="7.81435498874475"><ele>380.5</ele><time>2026-04-09T17:47:53.999Z</time></trkpt><trkpt lat="44.45751677400558" lon="7.814670289231183"><ele>380.0</ele><time>2026-04-09T17:47:54.999Z</time></trkpt><trkpt lat="44.45765346090467" lon="7.81498405820015"><ele>380.5</ele><time>2026-04-09T17:47:55.999Z</time></trkpt><trkpt lat="44.4577862107681" lon="7.815306248755129"><ele>381.0</ele><time>2026-04-09T17:47:56.999Z</time></trkpt><trkpt lat="44.457920826707344" lon="7.815619466434899"><ele>380.5</ele><time>2026-04-09T17:47:57.999Z</time></trkpt><trkpt lat="44.45803218571008" lon="7.815916809755051"><ele>380.0</ele><time>2026-04-09T17:47:58.999Z</time></trkpt><trkpt lat="44.45814545777398" lon="7.816196581873411"><ele>380.0</ele><time>2026-04-09T17:47:59.999Z</time></trkpt><trkpt lat="44.458262187186065" lon="7.816488056462105"><ele>380.0</ele><time>2026-04-09T17:48:00.999Z</time></trkpt><trkpt lat="44.45838906439259" lon="7.816782480340451"><ele>380.0</ele><time>2026-04-09T17:48:01.999Z</time></trkpt><trkpt lat="44.458509655983654" lon="7.817087356268084"><ele>380.0</ele><time>2026-04-09T17:48:02.999Z</time></trkpt><trkpt lat="44.45863530144095" lon="7.8173883128266946"><ele>380.0</ele><time>2026-04-09T17:48:03.999Z</time></trkpt><trkpt lat="44.4587483369356" lon="7.81766648523044"><ele>380.0</ele><time>2026-04-09T17:48:04.999Z</time></trkpt><trkpt lat="44.458858675423265" lon="7.817940048895188"><ele>380.33333333333337</ele><time>2026-04-09T17:48:05.999Z</time></trkpt><trkpt lat="44.458972875979654" lon="7.818204309392775"><ele>380.6666666666667</ele><time>2026-04-09T17:48:06.999Z</time></trkpt><trkpt lat="44.45907329064311" lon="7.818457984066857"><ele>381.0</ele><time>2026-04-09T17:48:07.999Z</time></trkpt><trkpt lat="44.459171719440626" lon="7.818693360483877"><ele>381.3333333333333</ele><time>2026-04-09T17:48:08.999Z</time></trkpt><trkpt lat="44.45926231565282" lon="7.818912155400064"><ele>381.66666666666663</ele><time>2026-04-09T17:48:09.999Z</time></trkpt><trkpt lat="44.45935220044296" lon="7.81912606794178"><ele>382.0</ele><time>2026-04-09T17:48:10.999Z</time></trkpt><trkpt lat="44.45943889032827" lon="7.819342842319801"><ele>381.3333333333333</ele><time>2026-04-09T17:48:11.999Z</time></trkpt><trkpt lat="44.459529645333035" lon="7.819562148078996"><ele>380.6666666666667</ele><time>2026-04-09T17:48:12.999Z</time></trkpt><trkpt lat="44.45962063655581" lon="7.819763489956863"><ele>380.0</ele><time>2026-04-09T17:48:13.999Z</time></trkpt><trkpt lat="44.4597071361309" lon="7.8199644039518645"><ele>379.75</ele><time>2026-04-09T17:48:14.999Z</time></trkpt><trkpt lat="44.45978366661843" lon="7.820155642135006"><ele>379.5</ele><time>2026-04-09T17:48:15.999Z</time></trkpt><trkpt lat="44.45985646762041" lon="7.82033614953731"><ele>379.25</ele><time>2026-04-09T17:48:16.999Z</time></trkpt><trkpt lat="44.45992987350537" lon="7.820510700323271"><ele>379.0</ele><time>2026-04-09T17:48:17.999Z</time></trkpt><trkpt lat="44.459996223164005" lon="7.8206759232416205"><ele>379.0</ele><time>2026-04-09T17:48:18.999Z</time></trkpt><trkpt lat="44.460071346609574" lon="7.820843638459735"><ele>379.0</ele><time>2026-04-09T17:48:19.999Z</time></trkpt><trkpt lat="44.46014343288153" lon="7.821018432462205"><ele>379.0</ele><time>2026-04-09T17:48:20.999Z</time></trkpt><trkpt lat="44.46020826290696" lon="7.821192870621918"><ele>379.0</ele><time>2026-04-09T17:48:21.999Z</time></trkpt><trkpt lat="44.4602698468803" lon="7.821349149718812"><ele>379.0</ele><time>2026-04-09T17:48:22.999Z</time></trkpt><trkpt lat="44.46033440099098" lon="7.821511325007278"><ele>379.0</ele><time>2026-04-09T17:48:23.999Z</time></trkpt><trkpt lat="44.46039964636261" lon="7.821671094772732"><ele>379.0</ele><time>2026-04-09T17:48:24.999Z</time></trkpt><trkpt lat="44.46046448023735" lon="7.821835782357393"><ele>379.0</ele><time>2026-04-09T17:48:25.998Z</time></trkpt><trkpt lat="44.46052896619866" lon="7.822001468312934"><ele>378.75</ele><time>2026-04-09T17:48:26.998Z</time></trkpt><trkpt lat="44.46059173519788" lon="7.822151994113901"><ele>378.5</ele><time>2026-04-09T17:48:27.998Z</time></trkpt><trkpt lat="44.46065150497092" lon="7.82229838944532"><ele>378.25</ele><time>2026-04-09T17:48:28.998Z</time></trkpt><trkpt lat="44.46071304990987" lon="7.822443966059199"><ele>378.0</ele><time>2026-04-09T17:48:29.998Z</time></trkpt><trkpt lat="44.46076963803561" lon="7.822586682618471"><ele>378.2</ele><time>2026-04-09T17:48:30.998Z</time></trkpt><trkpt lat="44.46082324220843" lon="7.822715375909298"><ele>378.4</ele><time>2026-04-09T17:48:31.998Z</time></trkpt><trkpt lat="44.46087830328198" lon="7.822839635282388"><ele>378.59999999999997</ele><time>2026-04-09T17:48:32.998Z</time></trkpt><trkpt lat="44.46092698101556" lon="7.822962124105663"><ele>378.79999999999995</ele><time>2026-04-09T17:48:33.998Z</time></trkpt><trkpt lat="44.46097556922211" lon="7.823079797837364"><ele>379.0</ele><time>2026-04-09T17:48:34.998Z</time></trkpt><trkpt lat="44.46101994046005" lon="7.8231895506501195"><ele>379.0</ele><time>2026-04-09T17:48:36Z</time></trkpt><trkpt lat="44.461056444192906" lon="7.823299229647213"><ele>379.0</ele><time>2026-04-09T17:48:37Z</time></trkpt><trkpt lat="44.46109109150799" lon="7.823400445735522"><ele>379.0</ele><time>2026-04-09T17:48:38Z</time></trkpt><trkpt lat="44.461120544591836" lon="7.823491345855421"><ele>379.0</ele><time>2026-04-09T17:48:39Z</time></trkpt><trkpt lat="44.46114081034149" lon="7.8235934463409444"><ele>379.0</ele><time>2026-04-09T17:48:40Z</time></trkpt><trkpt lat="44.46115470955704" lon="7.8236905186134456"><ele>379.0</ele><time>2026-04-09T17:48:41Z</time></trkpt><trkpt lat="44.46119326440772" lon="7.823817035017479"><ele>378.79999999999995</ele><time>2026-04-09T17:48:43Z</time></trkpt><trkpt lat="44.461285602812175" lon="7.823878372913358"><ele>378.59999999999997</ele><time>2026-04-09T17:48:45Z</time></trkpt><trkpt lat="44.46139911192324" lon="7.823775346032135"><ele>378.4</ele><time>2026-04-09T17:48:47Z</time></trkpt><trkpt lat="44.461466906921196" lon="7.823716997063585"><ele>378.2</ele><time>2026-04-09T17:48:48Z</time></trkpt><trkpt lat="44.46154586001109" lon="7.823674480554462"><ele>378.0</ele><time>2026-04-09T17:48:49Z</time></trkpt><trkpt lat="44.46162637969651" lon="7.823639305051075"><ele>378.0</ele><time>2026-04-09T17:48:50Z</time></trkpt><trkpt lat="44.46170309374578" lon="7.823626114639607"><ele>378.0</ele><time>2026-04-09T17:48:51Z</time></trkpt><trkpt lat="44.46178822187424" lon="7.823628029730961"><ele>378.0</ele><time>2026-04-09T17:48:52Z</time></trkpt><trkpt lat="44.46187522686228" lon="7.823632955933709"><ele>378.0</ele><time>2026-04-09T17:48:53Z</time></trkpt><trkpt lat="44.46195445650284" lon="7.8236226964657725"><ele>378.0</ele><time>2026-04-09T17:48:54Z</time></trkpt><trkpt lat="44.46203831490861" lon="7.823617000382399"><ele>378.0</ele><time>2026-04-09T17:48:55Z</time></trkpt><trkpt lat="44.46213016957409" lon="7.823614884742606"><ele>378.0</ele><time>2026-04-09T17:48:56Z</time></trkpt><trkpt lat="44.462228257524835" lon="7.823614743457244"><ele>378.0</ele><time>2026-04-09T17:48:57Z</time></trkpt><trkpt lat="44.46232835339761" lon="7.823613604822691"><ele>378.0</ele><time>2026-04-09T17:48:58Z</time></trkpt><trkpt lat="44.46244087733654" lon="7.823612115252181"><ele>378.0</ele><time>2026-04-09T17:48:59Z</time></trkpt><trkpt lat="44.462554385894386" lon="7.823602649998367"><ele>378.0</ele><time>2026-04-09T17:49:00Z</time></trkpt><trkpt lat="44.46266236049553" lon="7.82359386943754"><ele>378.0</ele><time>2026-04-09T17:49:01Z</time></trkpt><trkpt lat="44.46276875350863" lon="7.823589618578084"><ele>378.0</ele><time>2026-04-09T17:49:02Z</time></trkpt><trkpt lat="44.46287906832449" lon="7.823581431499775"><ele>378.0</ele><time>2026-04-09T17:49:03Z</time></trkpt><trkpt lat="44.46298461408542" lon="7.823584009579367"><ele>378.0</ele><time>2026-04-09T17:49:04Z</time></trkpt><trkpt lat="44.46309059258934" lon="7.823575980582224"><ele>378.0</ele><time>2026-04-09T17:49:05Z</time></trkpt><trkpt lat="44.46320020195762" lon="7.823570327000201"><ele>378.4</ele><time>2026-04-09T17:49:06Z</time></trkpt><trkpt lat="44.463314452762226" lon="7.823562615795684"><ele>378.79999999999995</ele><time>2026-04-09T17:49:07Z</time></trkpt><trkpt lat="44.46342734493969" lon="7.823558256995023"><ele>379.2</ele><time>2026-04-09T17:49:08Z</time></trkpt><trkpt lat="44.46353192963549" lon="7.82355828851799"><ele>379.6</ele><time>2026-04-09T17:49:09Z</time></trkpt><trkpt lat="44.46364206629684" lon="7.823554045533765"><ele>380.0</ele><time>2026-04-09T17:49:10Z</time></trkpt><trkpt lat="44.463755376733076" lon="7.823547167690384"><ele>380.0</ele><time>2026-04-09T17:49:11Z</time></trkpt><trkpt lat="44.463858748701696" lon="7.8235423053538575"><ele>380.0</ele><time>2026-04-09T17:49:12Z</time></trkpt><trkpt lat="44.463960269416916" lon="7.823532575013518"><ele>380.0</ele><time>2026-04-09T17:49:13Z</time></trkpt><trkpt lat="44.464063562899604" lon="7.8235307454959955"><ele>380.0</ele><time>2026-04-09T17:49:14Z</time></trkpt><trkpt lat="44.464170447009266" lon="7.8235260525450725"><ele>380.0</ele><time>2026-04-09T17:49:15Z</time></trkpt><trkpt lat="44.46427504057791" lon="7.823521456291968"><ele>380.0</ele><time>2026-04-09T17:49:16Z</time></trkpt><trkpt lat="44.46437769367367" lon="7.823504153489398"><ele>380.0</ele><time>2026-04-09T17:49:17Z</time></trkpt><trkpt lat="44.46448053758925" lon="7.823499702152341"><ele>380.0</ele><time>2026-04-09T17:49:18Z</time></trkpt><trkpt lat="44.464582427960316" lon="7.823489410965769"><ele>380.0</ele><time>2026-04-09T17:49:19Z</time></trkpt><trkpt lat="44.46468200518193" lon="7.823475248025845"><ele>380.0</ele><time>2026-04-09T17:49:20Z</time></trkpt><trkpt lat="44.464787390399" lon="7.82344807317269"><ele>380.8</ele><time>2026-04-09T17:49:21Z</time></trkpt><trkpt lat="44.46488976333078" lon="7.823410373784738"><ele>381.6</ele><time>2026-04-09T17:49:22Z</time></trkpt><trkpt lat="44.46499856843761" lon="7.823371445068352"><ele>382.4</ele><time>2026-04-09T17:49:22.999Z</time></trkpt><trkpt lat="44.46510441247288" lon="7.823327892348425"><ele>383.2</ele><time>2026-04-09T17:49:23.999Z</time></trkpt><trkpt lat="44.46520479285401" lon="7.823291756899018"><ele>384.0</ele><time>2026-04-09T17:49:24.999Z</time></trkpt><trkpt lat="44.46529155387721" lon="7.823252957316233"><ele>384.0</ele><time>2026-04-09T17:49:25.999Z</time></trkpt><trkpt lat="44.465370244072815" lon="7.823221627743906"><ele>384.0</ele><time>2026-04-09T17:49:26.999Z</time></trkpt><trkpt lat="44.4654348738979" lon="7.823188820664948"><ele>384.0</ele><time>2026-04-09T17:49:27.999Z</time></trkpt><trkpt lat="44.465536864065236" lon="7.823135803526472"><ele>384.0</ele><time>2026-04-09T17:49:29.999Z</time></trkpt><trkpt lat="44.46562823769087" lon="7.823196382089794"><ele>384.0</ele><time>2026-04-09T17:49:36.999Z</time></trkpt><trkpt lat="44.4656575451487" lon="7.823330926199197"><ele>385.0</ele><time>2026-04-09T17:49:38.999Z</time></trkpt><trkpt lat="44.465709569537275" lon="7.8234726571439746"><ele>386.0</ele><time>2026-04-09T17:49:40.999Z</time></trkpt><trkpt lat="44.46577174651153" lon="7.823635783993828"><ele>387.0</ele><time>2026-04-09T17:49:42.999Z</time></trkpt><trkpt lat="44.46583452875014" lon="7.8237453157380346"><ele>388.0</ele><time>2026-04-09T17:49:43.999Z</time></trkpt><trkpt lat="44.46588901922958" lon="7.823869254683401"><ele>388.0</ele><time>2026-04-09T17:49:44.999Z</time></trkpt><trkpt lat="44.4659544236441" lon="7.824008199431102"><ele>388.0</ele><time>2026-04-09T17:49:45.999Z</time></trkpt><trkpt lat="44.46602893302859" lon="7.824149653393383"><ele>388.0</ele><time>2026-04-09T17:49:46.999Z</time></trkpt><trkpt lat="44.46608868608637" lon="7.824283345058593"><ele>388.0</ele><time>2026-04-09T17:49:47.999Z</time></trkpt><trkpt lat="44.46614701166335" lon="7.824399880056483"><ele>387.25</ele><time>2026-04-09T17:49:48.999Z</time></trkpt><trkpt lat="44.466206395514874" lon="7.824534124168978"><ele>386.5</ele><time>2026-04-09T17:49:49.999Z</time></trkpt><trkpt lat="44.466258209353846" lon="7.824665020972391"><ele>385.75</ele><time>2026-04-09T17:49:50.999Z</time></trkpt><trkpt lat="44.466313050784144" lon="7.824807753271913"><ele>385.0</ele><time>2026-04-09T17:49:51.999Z</time></trkpt><trkpt lat="44.4663702221966" lon="7.8249602388638575"><ele>386.0</ele><time>2026-04-09T17:49:52.999Z</time></trkpt><trkpt lat="44.46641529935392" lon="7.825138973064059"><ele>387.0</ele><time>2026-04-09T17:49:53.999Z</time></trkpt><trkpt lat="44.46645789233661" lon="7.825300021338116"><ele>388.0</ele><time>2026-04-09T17:49:54.999Z</time></trkpt><trkpt lat="44.466501557928865" lon="7.825444772717372"><ele>389.0</ele><time>2026-04-09T17:49:55.999Z</time></trkpt><trkpt lat="44.46655872319825" lon="7.825605899925023"><ele>389.0</ele><time>2026-04-09T17:49:56.999Z</time></trkpt><trkpt lat="44.46662473643322" lon="7.825766673718626"><ele>389.0</ele><time>2026-04-09T17:49:57.999Z</time></trkpt><trkpt lat="44.46669032620208" lon="7.8259091256787245"><ele>389.0</ele><time>2026-04-09T17:49:58.999Z</time></trkpt><trkpt lat="44.46675695537853" lon="7.826048190743916"><ele>389.0</ele><time>2026-04-09T17:49:59.999Z</time></trkpt><trkpt lat="44.46681621052594" lon="7.82620112897241"><ele>388.25</ele><time>2026-04-09T17:50:00.999Z</time></trkpt><trkpt lat="44.46686665384877" lon="7.826352371918466"><ele>387.5</ele><time>2026-04-09T17:50:01.999Z</time></trkpt><trkpt lat="44.46691081206191" lon="7.826524267128244"><ele>386.75</ele><time>2026-04-09T17:50:02.999Z</time></trkpt><trkpt lat="44.466952228459654" lon="7.826697670219205"><ele>386.0</ele><time>2026-04-09T17:50:03.999Z</time></trkpt><trkpt lat="44.46698899692794" lon="7.826858076361784"><ele>386.0</ele><time>2026-04-09T17:50:04.999Z</time></trkpt><trkpt lat="44.46703160426478" lon="7.827030142510659"><ele>386.0</ele><time>2026-04-09T17:50:05.999Z</time></trkpt><trkpt lat="44.46708428665069" lon="7.827216462107069"><ele>386.0</ele><time>2026-04-09T17:50:06.999Z</time></trkpt><trkpt lat="44.46713990297706" lon="7.827439349735938"><ele>386.0</ele><time>2026-04-09T17:50:07.999Z</time></trkpt><trkpt lat="44.46720578659973" lon="7.827654089054308"><ele>386.0</ele><time>2026-04-09T17:50:08.999Z</time></trkpt><trkpt lat="44.46726751374404" lon="7.827890063914505"><ele>386.0</ele><time>2026-04-09T17:50:09.999Z</time></trkpt><trkpt lat="44.467328289725174" lon="7.828143501625365"><ele>386.0</ele><time>2026-04-09T17:50:10.999Z</time></trkpt><trkpt lat="44.46739615409854" lon="7.828395635608182"><ele>385.0</ele><time>2026-04-09T17:50:11.999Z</time></trkpt><trkpt lat="44.46746561484019" lon="7.8286663213961365"><ele>384.0</ele><time>2026-04-09T17:50:12.999Z</time></trkpt><trkpt lat="44.46753469139606" lon="7.828924270267995"><ele>383.0</ele><time>2026-04-09T17:50:13.999Z</time></trkpt><trkpt lat="44.46759772786343" lon="7.829174684511587"><ele>381.6666666666667</ele><time>2026-04-09T17:50:14.999Z</time></trkpt><trkpt lat="44.4676601383348" lon="7.829431174884448"><ele>380.3333333333333</ele><time>2026-04-09T17:50:15.999Z</time></trkpt><trkpt lat="44.467716453528915" lon="7.829659553520768"><ele>379.0</ele><time>2026-04-09T17:50:16.999Z</time></trkpt><trkpt lat="44.46776457442639" lon="7.829836375207461"><ele>379.0</ele><time>2026-04-09T17:50:17.999Z</time></trkpt><trkpt lat="44.46781677222106" lon="7.830031214974971"><ele>379.0</ele><time>2026-04-09T17:50:18.999Z</time></trkpt><trkpt lat="44.46786538533594" lon="7.830213447571691"><ele>379.0</ele><time>2026-04-09T17:50:19.999Z</time></trkpt><trkpt lat="44.467920181991005" lon="7.830375648533458"><ele>379.0</ele><time>2026-04-09T17:50:20.999Z</time></trkpt><trkpt lat="44.467987880946374" lon="7.830559056786717"><ele>380.0</ele><time>2026-04-09T17:50:21.999Z</time></trkpt><trkpt lat="44.468074781709205" lon="7.8307436124293694"><ele>381.0</ele><time>2026-04-09T17:50:22.999Z</time></trkpt><trkpt lat="44.468168589993965" lon="7.830930167189462"><ele>382.0</ele><time>2026-04-09T17:50:23.999Z</time></trkpt><trkpt lat="44.46827644685798" lon="7.831118650943317"><ele>382.0</ele><time>2026-04-09T17:50:24.999Z</time></trkpt><trkpt lat="44.4684010401952" lon="7.831315985507788"><ele>382.0</ele><time>2026-04-09T17:50:25.999Z</time></trkpt><trkpt lat="44.46852792322214" lon="7.831521135558905"><ele>382.0</ele><time>2026-04-09T17:50:26.999Z</time></trkpt><trkpt lat="44.46864911422209" lon="7.831714939259048"><ele>382.0</ele><time>2026-04-09T17:50:27.999Z</time></trkpt><trkpt lat="44.46877500413821" lon="7.831915018230636"><ele>382.0</ele><time>2026-04-09T17:50:28.999Z</time></trkpt><trkpt lat="44.468905246195845" lon="7.83212711393057"><ele>382.0</ele><time>2026-04-09T17:50:29.998Z</time></trkpt><trkpt lat="44.46903929803247" lon="7.832348560264999"><ele>382.0</ele><time>2026-04-09T17:50:30.998Z</time></trkpt><trkpt lat="44.46917321503348" lon="7.832561473228739"><ele>382.0</ele><time>2026-04-09T17:50:31.998Z</time></trkpt><trkpt lat="44.46929520722827" lon="7.832756401874245"><ele>382.0</ele><time>2026-04-09T17:50:32.998Z</time></trkpt><trkpt lat="44.46941107056646" lon="7.832933604714937"><ele>382.0</ele><time>2026-04-09T17:50:33.998Z</time></trkpt><trkpt lat="44.46952513877516" lon="7.833120367726943"><ele>382.0</ele><time>2026-04-09T17:50:34.998Z</time></trkpt><trkpt lat="44.46964118642047" lon="7.833322681818698"><ele>382.0</ele><time>2026-04-09T17:50:35.998Z</time></trkpt><trkpt lat="44.46975784438341" lon="7.833533476406821"><ele>382.0</ele><time>2026-04-09T17:50:36.998Z</time></trkpt><trkpt lat="44.469878020584396" lon="7.833753802214902"><ele>382.0</ele><time>2026-04-09T17:50:37.998Z</time></trkpt><trkpt lat="44.469995498914216" lon="7.83398535481817"><ele>382.0</ele><time>2026-04-09T17:50:38.998Z</time></trkpt><trkpt lat="44.47010968585131" lon="7.8342302641499115"><ele>382.66666666666663</ele><time>2026-04-09T17:50:39.998Z</time></trkpt><trkpt lat="44.47022639198463" lon="7.834478143584299"><ele>383.3333333333333</ele><time>2026-04-09T17:50:40.998Z</time></trkpt><trkpt lat="44.47034518431279" lon="7.834724535620058"><ele>384.0</ele><time>2026-04-09T17:50:42Z</time></trkpt><trkpt lat="44.47046708796969" lon="7.834976335809954"><ele>382.0</ele><time>2026-04-09T17:50:43Z</time></trkpt><trkpt lat="44.470589050970275" lon="7.835241508755893"><ele>380.0</ele><time>2026-04-09T17:50:44Z</time></trkpt><trkpt lat="44.47071297436892" lon="7.835506550416951"><ele>380.0</ele><time>2026-04-09T17:50:45Z</time></trkpt><trkpt lat="44.47082775829481" lon="7.835751179076859"><ele>380.0</ele><time>2026-04-09T17:50:46Z</time></trkpt><trkpt lat="44.4709295852233" lon="7.835978905550204"><ele>380.0</ele><time>2026-04-09T17:50:47Z</time></trkpt><trkpt lat="44.47102868754928" lon="7.836196347448258"><ele>380.75</ele><time>2026-04-09T17:50:48Z</time></trkpt><trkpt lat="44.471121532718996" lon="7.836401181621442"><ele>381.5</ele><time>2026-04-09T17:50:49Z</time></trkpt><trkpt lat="44.47119977201998" lon="7.836559035527384"><ele>382.25</ele><time>2026-04-09T17:50:50Z</time></trkpt><trkpt lat="44.47126981810375" lon="7.836716943493142"><ele>383.0</ele><time>2026-04-09T17:50:51Z</time></trkpt><trkpt lat="44.471337894602165" lon="7.836873870186661"><ele>383.0</ele><time>2026-04-09T17:50:52Z</time></trkpt><trkpt lat="44.471397237376465" lon="7.837023291594569"><ele>383.0</ele><time>2026-04-09T17:50:53Z</time></trkpt><trkpt lat="44.4714388781285" lon="7.837196557112961"><ele>383.0</ele><time>2026-04-09T17:50:54Z</time></trkpt><trkpt lat="44.471467257324306" lon="7.837393253381124"><ele>383.0</ele><time>2026-04-09T17:50:55Z</time></trkpt><trkpt lat="44.471477497817055" lon="7.837590843846716"><ele>382.6666666666667</ele><time>2026-04-09T17:50:56Z</time></trkpt><trkpt lat="44.47147233458837" lon="7.837799395325406"><ele>382.3333333333333</ele><time>2026-04-09T17:50:57Z</time></trkpt><trkpt lat="44.471454158755265" lon="7.838022575367345"><ele>382.0</ele><time>2026-04-09T17:50:58Z</time></trkpt><trkpt lat="44.471434178614516" lon="7.838263555436675"><ele>380.3333333333333</ele><time>2026-04-09T17:50:59Z</time></trkpt><trkpt lat="44.4714159146786" lon="7.838510629636765"><ele>378.6666666666667</ele><time>2026-04-09T17:51:00Z</time></trkpt><trkpt lat="44.471388038865115" lon="7.838774914403512"><ele>377.0</ele><time>2026-04-09T17:51:01Z</time></trkpt><trkpt lat="44.471363582105504" lon="7.839026749561347"><ele>377.0</ele><time>2026-04-09T17:51:02Z</time></trkpt><trkpt lat="44.47133927815472" lon="7.839267116803408"><ele>377.0</ele><time>2026-04-09T17:51:03Z</time></trkpt><trkpt lat="44.47131325281183" lon="7.839534233736267"><ele>377.0</ele><time>2026-04-09T17:51:04Z</time></trkpt><trkpt lat="44.47128693610849" lon="7.839772524481214"><ele>375.0</ele><time>2026-04-09T17:51:05Z</time></trkpt><trkpt lat="44.471267233845836" lon="7.840004752998241"><ele>373.0</ele><time>2026-04-09T17:51:06Z</time></trkpt><trkpt lat="44.47124614987463" lon="7.840227139389436"><ele>371.0</ele><time>2026-04-09T17:51:07Z</time></trkpt><trkpt lat="44.47119947639319" lon="7.840422133529897"><ele>370.8</ele><time>2026-04-09T17:51:08Z</time></trkpt><trkpt lat="44.47118216009286" lon="7.840598712890218"><ele>370.6</ele><time>2026-04-09T17:51:09Z</time></trkpt><trkpt lat="44.47116607956663" lon="7.840763036855676"><ele>370.4</ele><time>2026-04-09T17:51:10Z</time></trkpt><trkpt lat="44.47115308025695" lon="7.840896908178995"><ele>370.2</ele><time>2026-04-09T17:51:11Z</time></trkpt><trkpt lat="44.47114347433641" lon="7.841009947377877"><ele>370.0</ele><time>2026-04-09T17:51:12Z</time></trkpt><trkpt lat="44.471134279554484" lon="7.841121050984501"><ele>369.8</ele><time>2026-04-09T17:51:13Z</time></trkpt><trkpt lat="44.47111726244489" lon="7.841282913307741"><ele>369.6</ele><time>2026-04-09T17:51:15Z</time></trkpt><trkpt lat="44.471079222693135" lon="7.841357465699807"><ele>369.4</ele><time>2026-04-09T17:51:17Z</time></trkpt><trkpt lat="44.47103677213579" lon="7.8414266993281805"><ele>369.2</ele><time>2026-04-09T17:51:28Z</time></trkpt><trkpt lat="44.471035220592604" lon="7.8415946994399635"><ele>369.0</ele><time>2026-04-09T17:51:29.999Z</time></trkpt><trkpt lat="44.47104827571633" lon="7.8417205603118205"><ele>369.0</ele><time>2026-04-09T17:51:30.999Z</time></trkpt><trkpt lat="44.471060810478726" lon="7.841868887051095"><ele>369.0</ele><time>2026-04-09T17:51:31.999Z</time></trkpt><trkpt lat="44.471080045046584" lon="7.842024241627241"><ele>369.0</ele><time>2026-04-09T17:51:32.999Z</time></trkpt><trkpt lat="44.47111256471231" lon="7.842207963022625"><ele>369.0</ele><time>2026-04-09T17:51:33.999Z</time></trkpt><trkpt lat="44.47114146872501" lon="7.842409755340538"><ele>369.0</ele><time>2026-04-09T17:51:34.999Z</time></trkpt><trkpt lat="44.47116679669552" lon="7.842619816271361"><ele>369.0</ele><time>2026-04-09T17:51:35.999Z</time></trkpt><trkpt lat="44.47119290185642" lon="7.8428498019867785"><ele>369.0</ele><time>2026-04-09T17:51:36.999Z</time></trkpt><trkpt lat="44.47122280425774" lon="7.843087348548273"><ele>369.0</ele><time>2026-04-09T17:51:37.999Z</time></trkpt><trkpt lat="44.47125345307853" lon="7.84333321711803"><ele>369.0</ele><time>2026-04-09T17:51:38.999Z</time></trkpt><trkpt lat="44.47128291779913" lon="7.843583381377985"><ele>369.0</ele><time>2026-04-09T17:51:39.999Z</time></trkpt><trkpt lat="44.47129732721033" lon="7.843828382556657"><ele>369.0</ele><time>2026-04-09T17:51:40.999Z</time></trkpt><trkpt lat="44.47133693628616" lon="7.844046057342604"><ele>369.0</ele><time>2026-04-09T17:51:41.999Z</time></trkpt><trkpt lat="44.471368318801616" lon="7.84426354271851"><ele>369.0</ele><time>2026-04-09T17:51:42.999Z</time></trkpt><trkpt lat="44.47140990819981" lon="7.84448492362763"><ele>368.6666666666667</ele><time>2026-04-09T17:51:43.999Z</time></trkpt><trkpt lat="44.471464318280134" lon="7.8447021129785375"><ele>368.33333333333337</ele><time>2026-04-09T17:51:44.999Z</time></trkpt><trkpt lat="44.47154119395839" lon="7.844924496869088"><ele>368.0</ele><time>2026-04-09T17:51:45.999Z</time></trkpt><trkpt lat="44.47163728872313" lon="7.845150641439004"><ele>367.6666666666667</ele><time>2026-04-09T17:51:46.999Z</time></trkpt><trkpt lat="44.471740436836114" lon="7.8453544582064545"><ele>367.3333333333333</ele><time>2026-04-09T17:51:47.999Z</time></trkpt><trkpt lat="44.471832172456246" lon="7.845544737717475"><ele>367.0</ele><time>2026-04-09T17:51:48.999Z</time></trkpt><trkpt lat="44.47192023275889" lon="7.845737961729128"><ele>367.0</ele><time>2026-04-09T17:51:49.999Z</time></trkpt><trkpt lat="44.472008635292916" lon="7.845939768841196"><ele>367.0</ele><time>2026-04-09T17:51:50.999Z</time></trkpt><trkpt lat="44.47209833064266" lon="7.846126229274721"><ele>367.0</ele><time>2026-04-09T17:51:51.999Z</time></trkpt><trkpt lat="44.47218289929377" lon="7.84630294581492"><ele>367.0</ele><time>2026-04-09T17:51:52.999Z</time></trkpt><trkpt lat="44.472249088525956" lon="7.846490488235415"><ele>367.0</ele><time>2026-04-09T17:51:53.999Z</time></trkpt><trkpt lat="44.47233463034839" lon="7.846644831544588"><ele>367.0</ele><time>2026-04-09T17:51:54.999Z</time></trkpt><trkpt lat="44.472388954633125" lon="7.846808933932927"><ele>367.0</ele><time>2026-04-09T17:51:55.999Z</time></trkpt><trkpt lat="44.47246383801395" lon="7.846950438094672"><ele>367.0</ele><time>2026-04-09T17:51:56.999Z</time></trkpt><trkpt lat="44.47249870982005" lon="7.847102296487739"><ele>367.0</ele><time>2026-04-09T17:51:57.999Z</time></trkpt><trkpt lat="44.472541220537614" lon="7.847261860921448"><ele>367.0</ele><time>2026-04-09T17:51:58.999Z</time></trkpt><trkpt lat="44.47257920829618" lon="7.847406618114292"><ele>367.0</ele><time>2026-04-09T17:51:59.999Z</time></trkpt><trkpt lat="44.4726132896048" lon="7.8475513485904465"><ele>367.40000000000003</ele><time>2026-04-09T17:52:00.999Z</time></trkpt><trkpt lat="44.47264628716831" lon="7.847700575022778"><ele>367.8</ele><time>2026-04-09T17:52:01.999Z</time></trkpt><trkpt lat="44.472681817060085" lon="7.847847994203969"><ele>368.2</ele><time>2026-04-09T17:52:02.999Z</time></trkpt><trkpt lat="44.472712716489646" lon="7.847991037397231"><ele>368.6</ele><time>2026-04-09T17:52:03.999Z</time></trkpt><trkpt lat="44.47274631475786" lon="7.848140271514363"><ele>369.0</ele><time>2026-04-09T17:52:04.999Z</time></trkpt><trkpt lat="44.47277701796665" lon="7.848284321634925"><ele>369.0</ele><time>2026-04-09T17:52:05.999Z</time></trkpt><trkpt lat="44.47281488489203" lon="7.848426423157581"><ele>369.0</ele><time>2026-04-09T17:52:06.999Z</time></trkpt><trkpt lat="44.47285160392111" lon="7.848574674329144"><ele>369.0</ele><time>2026-04-09T17:52:07.999Z</time></trkpt><trkpt lat="44.47289271197993" lon="7.848722688593874"><ele>369.0</ele><time>2026-04-09T17:52:08.999Z</time></trkpt><trkpt lat="44.47293298464362" lon="7.84886937112849"><ele>369.0</ele><time>2026-04-09T17:52:09.999Z</time></trkpt><trkpt lat="44.47297420044925" lon="7.849021882521541"><ele>369.25</ele><time>2026-04-09T17:52:10.999Z</time></trkpt><trkpt lat="44.47300836896383" lon="7.849184270365915"><ele>369.5</ele><time>2026-04-09T17:52:11.999Z</time></trkpt><trkpt lat="44.47304977614871" lon="7.849355078124876"><ele>369.75</ele><time>2026-04-09T17:52:12.999Z</time></trkpt><trkpt lat="44.47309189278501" lon="7.84953068612569"><ele>370.0</ele><time>2026-04-09T17:52:13.999Z</time></trkpt><trkpt lat="44.47313709197849" lon="7.849712031745712"><ele>370.0</ele><time>2026-04-09T17:52:14.999Z</time></trkpt><trkpt lat="44.473187869369816" lon="7.8498956521439505"><ele>370.0</ele><time>2026-04-09T17:52:15.999Z</time></trkpt><trkpt lat="44.47323354842107" lon="7.85009369809339"><ele>370.0</ele><time>2026-04-09T17:52:16.999Z</time></trkpt><trkpt lat="44.47327646483175" lon="7.850297592891762"><ele>370.0</ele><time>2026-04-09T17:52:17.999Z</time></trkpt><trkpt lat="44.47331605026933" lon="7.850491239362707"><ele>370.0</ele><time>2026-04-09T17:52:18.999Z</time></trkpt><trkpt lat="44.47335370954771" lon="7.8506843730324505"><ele>370.0</ele><time>2026-04-09T17:52:19.999Z</time></trkpt><trkpt lat="44.47339354620725" lon="7.850877725790294"><ele>370.0</ele><time>2026-04-09T17:52:20.999Z</time></trkpt><trkpt lat="44.47343350568868" lon="7.851069242105943"><ele>370.0</ele><time>2026-04-09T17:52:21.999Z</time></trkpt><trkpt lat="44.47346877264034" lon="7.85127132448782"><ele>370.0</ele><time>2026-04-09T17:52:22.999Z</time></trkpt><trkpt lat="44.473502338592" lon="7.851471515589057"><ele>370.0</ele><time>2026-04-09T17:52:23.999Z</time></trkpt><trkpt lat="44.4735342487888" lon="7.851670457177679"><ele>370.0</ele><time>2026-04-09T17:52:24.999Z</time></trkpt><trkpt lat="44.473563267126956" lon="7.85186615322299"><ele>370.0</ele><time>2026-04-09T17:52:25.999Z</time></trkpt><trkpt lat="44.473587689536004" lon="7.852055314500531"><ele>369.5</ele><time>2026-04-09T17:52:26.999Z</time></trkpt><trkpt lat="44.47361740304387" lon="7.852245862319478"><ele>369.0</ele><time>2026-04-09T17:52:27.999Z</time></trkpt><trkpt lat="44.47365011831131" lon="7.8524314808839275"><ele>368.5</ele><time>2026-04-09T17:52:28.999Z</time></trkpt><trkpt lat="44.47368173107375" lon="7.852620420393718"><ele>368.0</ele><time>2026-04-09T17:52:29.999Z</time></trkpt><trkpt lat="44.47370841925746" lon="7.852813876155548"><ele>368.0</ele><time>2026-04-09T17:52:30.999Z</time></trkpt><trkpt lat="44.473735563321505" lon="7.853008514944544"><ele>368.0</ele><time>2026-04-09T17:52:31.999Z</time></trkpt><trkpt lat="44.47376295364581" lon="7.853208524661796"><ele>368.0</ele><time>2026-04-09T17:52:32.999Z</time></trkpt><trkpt lat="44.473784925462176" lon="7.853403982355931"><ele>368.0</ele><time>2026-04-09T17:52:33.999Z</time></trkpt><trkpt lat="44.47380398224509" lon="7.853604182664463"><ele>368.0</ele><time>2026-04-09T17:52:34.998Z</time></trkpt><trkpt lat="44.473818855268206" lon="7.8538107000136295"><ele>368.0</ele><time>2026-04-09T17:52:35.998Z</time></trkpt><trkpt lat="44.47383334758756" lon="7.85401856652148"><ele>368.0</ele><time>2026-04-09T17:52:36.998Z</time></trkpt><trkpt lat="44.473849302270764" lon="7.854231305334478"><ele>368.25</ele><time>2026-04-09T17:52:37.998Z</time></trkpt><trkpt lat="44.47385955006249" lon="7.854435380547597"><ele>368.5</ele><time>2026-04-09T17:52:38.998Z</time></trkpt><trkpt lat="44.473867334482115" lon="7.85463233851253"><ele>368.75</ele><time>2026-04-09T17:52:39.998Z</time></trkpt><trkpt lat="44.47387225401783" lon="7.854835092431364"><ele>369.0</ele><time>2026-04-09T17:52:40.998Z</time></trkpt><trkpt lat="44.47387861308853" lon="7.855032522181364"><ele>368.75</ele><time>2026-04-09T17:52:41.998Z</time></trkpt><trkpt lat="44.473891508460056" lon="7.855226679836747"><ele>368.5</ele><time>2026-04-09T17:52:42.998Z</time></trkpt><trkpt lat="44.47390263195429" lon="7.855426501445192"><ele>368.25</ele><time>2026-04-09T17:52:43.998Z</time></trkpt><trkpt lat="44.473910124306286" lon="7.855626083330629"><ele>368.0</ele><time>2026-04-09T17:52:44.998Z</time></trkpt><trkpt lat="44.47392190947828" lon="7.855824854927837"><ele>367.75</ele><time>2026-04-09T17:52:45.998Z</time></trkpt><trkpt lat="44.47393040766762" lon="7.856025780693689"><ele>367.5</ele><time>2026-04-09T17:52:46.998Z</time></trkpt><trkpt lat="44.473938669612664" lon="7.856229501020375"><ele>367.25</ele><time>2026-04-09T17:52:48Z</time></trkpt><trkpt lat="44.47394843952559" lon="7.85643502740135"><ele>367.0</ele><time>2026-04-09T17:52:49Z</time></trkpt><trkpt lat="44.4739413930263" lon="7.856642525137341"><ele>366.75</ele><time>2026-04-09T17:52:50Z</time></trkpt><trkpt lat="44.473949992648734" lon="7.856853070819249"><ele>366.5</ele><time>2026-04-09T17:52:51Z</time></trkpt><trkpt lat="44.47395809005076" lon="7.857056816894206"><ele>366.25</ele><time>2026-04-09T17:52:52Z</time></trkpt><trkpt lat="44.473966959811364" lon="7.857265913005449"><ele>366.0</ele><time>2026-04-09T17:52:53Z</time></trkpt><trkpt lat="44.47399008864846" lon="7.857485613721256"><ele>365.75</ele><time>2026-04-09T17:52:54Z</time></trkpt><trkpt lat="44.47399585010569" lon="7.85769194556641"><ele>365.5</ele><time>2026-04-09T17:52:55Z</time></trkpt><trkpt lat="44.4740057579404" lon="7.857894955698475"><ele>365.25</ele><time>2026-04-09T17:52:56Z</time></trkpt><trkpt lat="44.47399946718981" lon="7.858091831892507"><ele>365.0</ele><time>2026-04-09T17:52:57Z</time></trkpt><trkpt lat="44.47401109604264" lon="7.858297816696168"><ele>365.5</ele><time>2026-04-09T17:52:58Z</time></trkpt><trkpt lat="44.47402471754724" lon="7.858505469477032"><ele>366.0</ele><time>2026-04-09T17:52:59Z</time></trkpt><trkpt lat="44.4740362717295" lon="7.858704532415446"><ele>366.5</ele><time>2026-04-09T17:53:00Z</time></trkpt><trkpt lat="44.474048174947136" lon="7.858906177445692"><ele>367.0</ele><time>2026-04-09T17:53:01Z</time></trkpt><trkpt lat="44.474057642110566" lon="7.859111414945078"><ele>366.5</ele><time>2026-04-09T17:53:02Z</time></trkpt><trkpt lat="44.4740745732303" lon="7.859306998666372"><ele>366.0</ele><time>2026-04-09T17:53:03Z</time></trkpt><trkpt lat="44.474106879616905" lon="7.859520601015058"><ele>365.5</ele><time>2026-04-09T17:53:04Z</time></trkpt><trkpt lat="44.47413696868113" lon="7.859715968251974"><ele>365.0</ele><time>2026-04-09T17:53:05Z</time></trkpt><trkpt lat="44.47417173738995" lon="7.85992075248739"><ele>364.75</ele><time>2026-04-09T17:53:06Z</time></trkpt><trkpt lat="44.474219449556" lon="7.860124451493735"><ele>364.5</ele><time>2026-04-09T17:53:07Z</time></trkpt><trkpt lat="44.474273457666726" lon="7.8603297016144005"><ele>364.25</ele><time>2026-04-09T17:53:08Z</time></trkpt><trkpt lat="44.47432630192088" lon="7.8605036839642395"><ele>364.0</ele><time>2026-04-09T17:53:09Z</time></trkpt><trkpt lat="44.47436849282884" lon="7.860687639613855"><ele>364.0</ele><time>2026-04-09T17:53:10Z</time></trkpt><trkpt lat="44.47445018506981" lon="7.860855787056462"><ele>364.0</ele><time>2026-04-09T17:53:11Z</time></trkpt><trkpt lat="44.474505200124824" lon="7.8610395154158965"><ele>364.0</ele><time>2026-04-09T17:53:12Z</time></trkpt><trkpt lat="44.47458157523581" lon="7.861210691737301"><ele>364.0</ele><time>2026-04-09T17:53:13Z</time></trkpt><trkpt lat="44.47467539561104" lon="7.861356661599156"><ele>364.0</ele><time>2026-04-09T17:53:14Z</time></trkpt><trkpt lat="44.474763234357134" lon="7.861515601198744"><ele>364.0</ele><time>2026-04-09T17:53:15Z</time></trkpt><trkpt lat="44.47485190587511" lon="7.861667052506783"><ele>364.0</ele><time>2026-04-09T17:53:16Z</time></trkpt><trkpt lat="44.474942546325984" lon="7.861807542572403"><ele>364.0</ele><time>2026-04-09T17:53:17Z</time></trkpt><trkpt lat="44.4750331249344" lon="7.861958250873043"><ele>364.0</ele><time>2026-04-09T17:53:18Z</time></trkpt><trkpt lat="44.47512887936492" lon="7.862090942735907"><ele>364.0</ele><time>2026-04-09T17:53:19Z</time></trkpt><trkpt lat="44.47522223863426" lon="7.86222438553281"><ele>364.0</ele><time>2026-04-09T17:53:20Z</time></trkpt><trkpt lat="44.47531022363005" lon="7.862359036986978"><ele>364.0</ele><time>2026-04-09T17:53:21Z</time></trkpt><trkpt lat="44.47540195199958" lon="7.862499214731638"><ele>364.25</ele><time>2026-04-09T17:53:22Z</time></trkpt><trkpt lat="44.475494418898194" lon="7.862630609386742"><ele>364.5</ele><time>2026-04-09T17:53:23Z</time></trkpt><trkpt lat="44.47558296270816" lon="7.862781168289592"><ele>364.75</ele><time>2026-04-09T17:53:24Z</time></trkpt><trkpt lat="44.475674463129174" lon="7.862919136742806"><ele>365.0</ele><time>2026-04-09T17:53:25Z</time></trkpt><trkpt lat="44.4757632748424" lon="7.863058630087486"><ele>365.0</ele><time>2026-04-09T17:53:26Z</time></trkpt><trkpt lat="44.4758505577426" lon="7.863203583421153"><ele>365.0</ele><time>2026-04-09T17:53:27Z</time></trkpt><trkpt lat="44.47594289842831" lon="7.863331664259815"><ele>365.0</ele><time>2026-04-09T17:53:28Z</time></trkpt><trkpt lat="44.476032492129136" lon="7.863457176153367"><ele>365.0</ele><time>2026-04-09T17:53:29Z</time></trkpt><trkpt lat="44.47611817017012" lon="7.863581221576488"><ele>365.0</ele><time>2026-04-09T17:53:30Z</time></trkpt><trkpt lat="44.47620467351777" lon="7.863715709542822"><ele>365.0</ele><time>2026-04-09T17:53:31Z</time></trkpt><trkpt lat="44.47630485418678" lon="7.863852004227932"><ele>365.0</ele><time>2026-04-09T17:53:32Z</time></trkpt><trkpt lat="44.47639328192509" lon="7.863979758365712"><ele>365.0</ele><time>2026-04-09T17:53:33Z</time></trkpt><trkpt lat="44.47647269608193" lon="7.864098628565819"><ele>365.0</ele><time>2026-04-09T17:53:34Z</time></trkpt><trkpt lat="44.47654325435894" lon="7.864206991339887"><ele>365.0</ele><time>2026-04-09T17:53:34.999Z</time></trkpt><trkpt lat="44.476624881521275" lon="7.864308111542406"><ele>365.0</ele><time>2026-04-09T17:53:35.999Z</time></trkpt><trkpt lat="44.47668653511667" lon="7.864440467418374"><ele>365.0</ele><time>2026-04-09T17:53:36.999Z</time></trkpt><trkpt lat="44.47677553009266" lon="7.864542521001675"><ele>365.0</ele><time>2026-04-09T17:53:37.999Z</time></trkpt><trkpt lat="44.47684977377212" lon="7.8646601272465375"><ele>364.8</ele><time>2026-04-09T17:53:38.999Z</time></trkpt><trkpt lat="44.47691693783473" lon="7.864764079359912"><ele>364.6</ele><time>2026-04-09T17:53:39.999Z</time></trkpt><trkpt lat="44.47698092786841" lon="7.864870861702435"><ele>364.4</ele><time>2026-04-09T17:53:40.999Z</time></trkpt><trkpt lat="44.477042673754475" lon="7.864986947699938"><ele>364.2</ele><time>2026-04-09T17:53:41.999Z</time></trkpt><trkpt lat="44.477091432256955" lon="7.865097847956899"><ele>364.0</ele><time>2026-04-09T17:53:42.999Z</time></trkpt><trkpt lat="44.47715191836536" lon="7.865197678611076"><ele>364.0</ele><time>2026-04-09T17:53:43.999Z</time></trkpt><trkpt lat="44.47720164642037" lon="7.865325602102908"><ele>364.0</ele><time>2026-04-09T17:53:44.999Z</time></trkpt><trkpt lat="44.47722401333664" lon="7.8654680704277515"><ele>364.0</ele><time>2026-04-09T17:53:45.999Z</time></trkpt><trkpt lat="44.47727535936928" lon="7.8655991568397905"><ele>364.0</ele><time>2026-04-09T17:53:46.999Z</time></trkpt><trkpt lat="44.47730484341706" lon="7.865740985986455"><ele>364.0</ele><time>2026-04-09T17:53:47.999Z</time></trkpt><trkpt lat="44.47733299102819" lon="7.865879400874943"><ele>364.0</ele><time>2026-04-09T17:53:48.999Z</time></trkpt><trkpt lat="44.47735991427793" lon="7.866004591554313"><ele>364.0</ele><time>2026-04-09T17:53:49.999Z</time></trkpt><trkpt lat="44.477386802578565" lon="7.866120549177449"><ele>364.0</ele><time>2026-04-09T17:53:50.999Z</time></trkpt><trkpt lat="44.477412212840136" lon="7.866247944627646"><ele>364.0</ele><time>2026-04-09T17:53:51.999Z</time></trkpt><trkpt lat="44.47743571469672" lon="7.866373442046505"><ele>364.0</ele><time>2026-04-09T17:53:52.999Z</time></trkpt><trkpt lat="44.4774643472685" lon="7.86648066294103"><ele>364.0</ele><time>2026-04-09T17:53:53.999Z</time></trkpt><trkpt lat="44.477489765357674" lon="7.866594245998635"><ele>364.0</ele><time>2026-04-09T17:53:54.999Z</time></trkpt><trkpt lat="44.47751652806402" lon="7.866710323935557"><ele>364.0</ele><time>2026-04-09T17:53:55.999Z</time></trkpt><trkpt lat="44.47754580459422" lon="7.866824013372064"><ele>364.0</ele><time>2026-04-09T17:53:56.999Z</time></trkpt><trkpt lat="44.4775688436681" lon="7.8669435386391156"><ele>364.0</ele><time>2026-04-09T17:53:57.999Z</time></trkpt><trkpt lat="44.47758750302717" lon="7.867048288447457"><ele>364.0</ele><time>2026-04-09T17:53:58.999Z</time></trkpt><trkpt lat="44.47761213195911" lon="7.867147721756985"><ele>364.0</ele><time>2026-04-09T17:53:59.999Z</time></trkpt><trkpt lat="44.47763373147002" lon="7.867244310243999"><ele>364.0</ele><time>2026-04-09T17:54:00.999Z</time></trkpt><trkpt lat="44.47766020119051" lon="7.867352244367538"><ele>364.0</ele><time>2026-04-09T17:54:01.999Z</time></trkpt><trkpt lat="44.47768774302907" lon="7.867452843579494"><ele>364.0</ele><time>2026-04-09T17:54:02.999Z</time></trkpt><trkpt lat="44.4777102798892" lon="7.867550218210913"><ele>364.0</ele><time>2026-04-09T17:54:03.999Z</time></trkpt><trkpt lat="44.47773033424577" lon="7.867657510909535"><ele>364.0</ele><time>2026-04-09T17:54:04.999Z</time></trkpt><trkpt lat="44.477755298889484" lon="7.8677522019955"><ele>364.0</ele><time>2026-04-09T17:54:05.999Z</time></trkpt><trkpt lat="44.47778202311726" lon="7.867856786411757"><ele>363.8333333333333</ele><time>2026-04-09T17:54:06.999Z</time></trkpt><trkpt lat="44.477786017808114" lon="7.867955918684956"><ele>363.66666666666663</ele><time>2026-04-09T17:54:07.999Z</time></trkpt><trkpt lat="44.47780562791325" lon="7.868051323565734"><ele>363.5</ele><time>2026-04-09T17:54:08.999Z</time></trkpt><trkpt lat="44.477840518726715" lon="7.8681303431073815"><ele>363.3333333333333</ele><time>2026-04-09T17:54:09.999Z</time></trkpt><trkpt lat="44.477879605318506" lon="7.868308400709174"><ele>363.1666666666667</ele><time>2026-04-09T17:54:11.999Z</time></trkpt><trkpt lat="44.47789007714392" lon="7.8684198384097765"><ele>363.0</ele><time>2026-04-09T17:54:12.999Z</time></trkpt><trkpt lat="44.47791547977334" lon="7.8685358782609125"><ele>362.8333333333333</ele><time>2026-04-09T17:54:13.999Z</time></trkpt><trkpt lat="44.47794092850127" lon="7.8686550271711395"><ele>362.6666666666667</ele><time>2026-04-09T17:54:14.999Z</time></trkpt><trkpt lat="44.47796421580126" lon="7.868771922368975"><ele>362.5</ele><time>2026-04-09T17:54:15.999Z</time></trkpt><trkpt lat="44.477987639407104" lon="7.8688895017649285"><ele>362.33333333333337</ele><time>2026-04-09T17:54:16.999Z</time></trkpt><trkpt lat="44.47802642885772" lon="7.868995558534298"><ele>362.1666666666667</ele><time>2026-04-09T17:54:17.999Z</time></trkpt><trkpt lat="44.47803901002593" lon="7.869106391253239"><ele>362.0</ele><time>2026-04-09T17:54:18.999Z</time></trkpt><trkpt lat="44.478064519756025" lon="7.869217793909253"><ele>362.0</ele><time>2026-04-09T17:54:19.999Z</time></trkpt><trkpt lat="44.47808940805573" lon="7.869326991180236"><ele>362.0</ele><time>2026-04-09T17:54:20.999Z</time></trkpt><trkpt lat="44.478107635595336" lon="7.869433438750404"><ele>362.0</ele><time>2026-04-09T17:54:21.999Z</time></trkpt><trkpt lat="44.47813939561235" lon="7.869535924589636"><ele>362.0</ele><time>2026-04-09T17:54:22.999Z</time></trkpt><trkpt lat="44.47817203341323" lon="7.869665278106601"><ele>362.0</ele><time>2026-04-09T17:54:23.999Z</time></trkpt><trkpt lat="44.47820883562217" lon="7.869827606828131"><ele>362.0</ele><time>2026-04-09T17:54:24.999Z</time></trkpt><trkpt lat="44.47824752095861" lon="7.869997962269738"><ele>362.0</ele><time>2026-04-09T17:54:25.999Z</time></trkpt><trkpt lat="44.47828605754256" lon="7.8701722852817095"><ele>362.0</ele><time>2026-04-09T17:54:26.999Z</time></trkpt><trkpt lat="44.478320158405865" lon="7.870331317334661"><ele>362.0</ele><time>2026-04-09T17:54:27.999Z</time></trkpt><trkpt lat="44.478353080979275" lon="7.870447730817627"><ele>362.1666666666667</ele><time>2026-04-09T17:54:28.999Z</time></trkpt><trkpt lat="44.478379273148434" lon="7.870552400364823"><ele>362.33333333333337</ele><time>2026-04-09T17:54:29.999Z</time></trkpt><trkpt lat="44.47840129919303" lon="7.8706410497829955"><ele>362.5</ele><time>2026-04-09T17:54:30.999Z</time></trkpt><trkpt lat="44.47845042904655" lon="7.870798045475946"><ele>362.6666666666667</ele><time>2026-04-09T17:54:32.999Z</time></trkpt><trkpt lat="44.4784764938896" lon="7.870897648947871"><ele>362.8333333333333</ele><time>2026-04-09T17:54:33.999Z</time></trkpt><trkpt lat="44.47851462911897" lon="7.871018744628839"><ele>363.0</ele><time>2026-04-09T17:54:34.999Z</time></trkpt><trkpt lat="44.47855490772859" lon="7.871150220450648"><ele>363.2</ele><time>2026-04-09T17:54:35.999Z</time></trkpt><trkpt lat="44.4786000824129" lon="7.871303192976154"><ele>363.4</ele><time>2026-04-09T17:54:36.999Z</time></trkpt><trkpt lat="44.47864053131602" lon="7.871440883502136"><ele>363.59999999999997</ele><time>2026-04-09T17:54:37.999Z</time></trkpt><trkpt lat="44.4786778823108" lon="7.871565617651905"><ele>363.79999999999995</ele><time>2026-04-09T17:54:38.999Z</time></trkpt><trkpt lat="44.47871297799326" lon="7.871683684686628"><ele>364.0</ele><time>2026-04-09T17:54:39.999Z</time></trkpt><trkpt lat="44.47874250780818" lon="7.871804693135422"><ele>364.0</ele><time>2026-04-09T17:54:40.998Z</time></trkpt><trkpt lat="44.47877789386179" lon="7.871912363384994"><ele>364.0</ele><time>2026-04-09T17:54:41.998Z</time></trkpt><trkpt lat="44.47880137002862" lon="7.87206173384033"><ele>364.0</ele><time>2026-04-09T17:54:42.998Z</time></trkpt><trkpt lat="44.4788396866168" lon="7.872187162765956"><ele>364.0</ele><time>2026-04-09T17:54:43.998Z</time></trkpt><trkpt lat="44.478879377207456" lon="7.872316513203433"><ele>364.0</ele><time>2026-04-09T17:54:44.998Z</time></trkpt><trkpt lat="44.47891689121093" lon="7.872434113276507"><ele>364.0</ele><time>2026-04-09T17:54:45.998Z</time></trkpt><trkpt lat="44.478952394652055" lon="7.8725431317955"><ele>364.0</ele><time>2026-04-09T17:54:46.998Z</time></trkpt><trkpt lat="44.47898541242411" lon="7.872645512409673"><ele>364.0</ele><time>2026-04-09T17:54:47.998Z</time></trkpt><trkpt lat="44.479014296142545" lon="7.872745799079914"><ele>364.0</ele><time>2026-04-09T17:54:48.998Z</time></trkpt><trkpt lat="44.479047279092086" lon="7.87284976550181"><ele>364.0</ele><time>2026-04-09T17:54:49.998Z</time></trkpt><trkpt lat="44.47908643310934" lon="7.872963110649281"><ele>364.0</ele><time>2026-04-09T17:54:50.998Z</time></trkpt><trkpt lat="44.47912332975148" lon="7.873106298505514"><ele>364.0</ele><time>2026-04-09T17:54:51.998Z</time></trkpt><trkpt lat="44.47918022428164" lon="7.873228832563671"><ele>364.0</ele><time>2026-04-09T17:54:52.998Z</time></trkpt><trkpt lat="44.47921617591052" lon="7.873358650385185"><ele>364.0</ele><time>2026-04-09T17:54:54Z</time></trkpt><trkpt lat="44.47926412431106" lon="7.873497747435023"><ele>364.0</ele><time>2026-04-09T17:54:55Z</time></trkpt><trkpt lat="44.47930330793285" lon="7.873623449988165"><ele>364.0</ele><time>2026-04-09T17:54:56Z</time></trkpt><trkpt lat="44.479334276950866" lon="7.873736290195301"><ele>363.6</ele><time>2026-04-09T17:54:57Z</time></trkpt><trkpt lat="44.47936629201347" lon="7.8738604601085544"><ele>363.2</ele><time>2026-04-09T17:54:58Z</time></trkpt><trkpt lat="44.47938619764776" lon="7.874002482041389"><ele>362.8</ele><time>2026-04-09T17:54:59Z</time></trkpt><trkpt lat="44.479403647147485" lon="7.874143682076545"><ele>362.40000000000003</ele><time>2026-04-09T17:55:00Z</time></trkpt><trkpt lat="44.479420315034744" lon="7.874274625975847"><ele>362.0</ele><time>2026-04-09T17:55:01Z</time></trkpt><trkpt lat="44.47943615741159" lon="7.874398278270573"><ele>361.8</ele><time>2026-04-09T17:55:02Z</time></trkpt><trkpt lat="44.4794453265173" lon="7.8745231544565275"><ele>361.6</ele><time>2026-04-09T17:55:03Z</time></trkpt><trkpt lat="44.479456928349336" lon="7.87465626680424"><ele>361.40000000000003</ele><time>2026-04-09T17:55:04Z</time></trkpt><trkpt lat="44.47946879414735" lon="7.8747964751908"><ele>361.20000000000005</ele><time>2026-04-09T17:55:05Z</time></trkpt><trkpt lat="44.479476721084446" lon="7.874935974690444"><ele>361.0</ele><time>2026-04-09T17:55:06Z</time></trkpt><trkpt lat="44.47948754712966" lon="7.875055882137294"><ele>361.0</ele><time>2026-04-09T17:55:07Z</time></trkpt><trkpt lat="44.479485846597626" lon="7.875192283536826"><ele>361.0</ele><time>2026-04-09T17:55:08Z</time></trkpt><trkpt lat="44.47948528760646" lon="7.8753167026052004"><ele>361.0</ele><time>2026-04-09T17:55:09Z</time></trkpt><trkpt lat="44.479483082673006" lon="7.875439235316028"><ele>361.0</ele><time>2026-04-09T17:55:10Z</time></trkpt><trkpt lat="44.47948477678359" lon="7.875554772456028"><ele>361.0</ele><time>2026-04-09T17:55:11Z</time></trkpt><trkpt lat="44.4794871924447" lon="7.875664063790364"><ele>361.0</ele><time>2026-04-09T17:55:12Z</time></trkpt><trkpt lat="44.479478345817014" lon="7.875760111917073"><ele>361.0</ele><time>2026-04-09T17:55:13Z</time></trkpt><trkpt lat="44.47947599298877" lon="7.875886288134604"><ele>361.0</ele><time>2026-04-09T17:55:14Z</time></trkpt><trkpt lat="44.479468910669965" lon="7.875998487804227"><ele>361.0</ele><time>2026-04-09T17:55:15Z</time></trkpt><trkpt lat="44.47946242426122" lon="7.876095717229338"><ele>361.0</ele><time>2026-04-09T17:55:16Z</time></trkpt><trkpt lat="44.47945474778202" lon="7.876214997889116"><ele>361.0</ele><time>2026-04-09T17:55:17Z</time></trkpt><trkpt lat="44.47945577883212" lon="7.876336364656828"><ele>361.0</ele><time>2026-04-09T17:55:18Z</time></trkpt><trkpt lat="44.479451018959956" lon="7.8764405449225094"><ele>361.0</ele><time>2026-04-09T17:55:19Z</time></trkpt><trkpt lat="44.479451452768465" lon="7.876570156078502"><ele>361.0</ele><time>2026-04-09T17:55:20Z</time></trkpt><trkpt lat="44.47945307438908" lon="7.87666958049152"><ele>361.0</ele><time>2026-04-09T17:55:21Z</time></trkpt><trkpt lat="44.47946337110415" lon="7.876780514301879"><ele>361.0</ele><time>2026-04-09T17:55:22Z</time></trkpt><trkpt lat="44.47945380333026" lon="7.876897401855286"><ele>361.0</ele><time>2026-04-09T17:55:23Z</time></trkpt><trkpt lat="44.47946102250448" lon="7.877024359596037"><ele>361.0</ele><time>2026-04-09T17:55:24Z</time></trkpt><trkpt lat="44.4794861071619" lon="7.8771357450581965"><ele>361.0</ele><time>2026-04-09T17:55:25Z</time></trkpt><trkpt lat="44.479497773912854" lon="7.877252291688658"><ele>361.0</ele><time>2026-04-09T17:55:26Z</time></trkpt><trkpt lat="44.47952415084427" lon="7.877382151418902"><ele>361.0</ele><time>2026-04-09T17:55:27Z</time></trkpt><trkpt lat="44.47955009265031" lon="7.877486676571568"><ele>361.0</ele><time>2026-04-09T17:55:28Z</time></trkpt><trkpt lat="44.47957757345541" lon="7.877604706052209"><ele>361.0</ele><time>2026-04-09T17:55:29Z</time></trkpt><trkpt lat="44.47960634403801" lon="7.877726349472887"><ele>361.0</ele><time>2026-04-09T17:55:30Z</time></trkpt><trkpt lat="44.47963997153966" lon="7.8778529853923365"><ele>361.0</ele><time>2026-04-09T17:55:31Z</time></trkpt><trkpt lat="44.479674620002164" lon="7.877964412856257"><ele>361.0</ele><time>2026-04-09T17:55:32Z</time></trkpt><trkpt lat="44.47971189461672" lon="7.8780775956118845"><ele>361.0</ele><time>2026-04-09T17:55:33Z</time></trkpt><trkpt lat="44.4797492329376" lon="7.878200151460225"><ele>361.0</ele><time>2026-04-09T17:55:34Z</time></trkpt><trkpt lat="44.47979282922774" lon="7.878320289928584"><ele>361.0</ele><time>2026-04-09T17:55:35Z</time></trkpt><trkpt lat="44.479831882733556" lon="7.87842950987636"><ele>360.8333333333333</ele><time>2026-04-09T17:55:36Z</time></trkpt><trkpt lat="44.47986570524675" lon="7.8785448957823565"><ele>360.66666666666663</ele><time>2026-04-09T17:55:37Z</time></trkpt><trkpt lat="44.47990744458226" lon="7.878644139655052"><ele>360.5</ele><time>2026-04-09T17:55:38Z</time></trkpt><trkpt lat="44.47992584325755" lon="7.878751753385915"><ele>360.3333333333333</ele><time>2026-04-09T17:55:39Z</time></trkpt><trkpt lat="44.479953699804824" lon="7.878845469377391"><ele>360.1666666666667</ele><time>2026-04-09T17:55:40Z</time></trkpt><trkpt lat="44.47998474758744" lon="7.878937857638497"><ele>360.0</ele><time>2026-04-09T17:55:41Z</time></trkpt><trkpt lat="44.48001915582691" lon="7.879021456586968"><ele>360.0</ele><time>2026-04-09T17:55:42Z</time></trkpt><trkpt lat="44.48007626500779" lon="7.879129344555358"><ele>360.0</ele><time>2026-04-09T17:55:43.999Z</time></trkpt><trkpt lat="44.4800148950967" lon="7.879236761228061"><ele>360.0</ele><time>2026-04-09T17:55:46.999Z</time></trkpt><trkpt lat="44.47994912806949" lon="7.879254443452934"><ele>360.0</ele><time>2026-04-09T17:55:47.999Z</time></trkpt><trkpt lat="44.479880867115405" lon="7.879305798132357"><ele>360.0</ele><time>2026-04-09T17:55:48.999Z</time></trkpt><trkpt lat="44.47981832222234" lon="7.879352052494224"><ele>360.0</ele><time>2026-04-09T17:55:49.999Z</time></trkpt><trkpt lat="44.47972122543828" lon="7.879433450561681"><ele>359.8333333333333</ele><time>2026-04-09T17:55:51.999Z</time></trkpt><trkpt lat="44.4796456585925" lon="7.879500659212367"><ele>359.6666666666667</ele><time>2026-04-09T17:55:53.999Z</time></trkpt><trkpt lat="44.4795831003669" lon="7.87952716845503"><ele>359.5</ele><time>2026-04-09T17:55:54.999Z</time></trkpt><trkpt lat="44.479491160027244" lon="7.8795719854137305"><ele>359.33333333333337</ele><time>2026-04-09T17:55:56.999Z</time></trkpt><trkpt lat="44.47941820887681" lon="7.879606532997109"><ele>359.1666666666667</ele><time>2026-04-09T17:55:58.999Z</time></trkpt><trkpt lat="44.47932573409902" lon="7.879589782484265"><ele>359.0</ele><time>2026-04-09T17:56:00.999Z</time></trkpt><trkpt lat="44.479212442138206" lon="7.879541514819382"><ele>359.2</ele><time>2026-04-09T17:56:02.999Z</time></trkpt><trkpt lat="44.479144541178464" lon="7.879528316467058"><ele>359.4</ele><time>2026-04-09T17:56:03.999Z</time></trkpt><trkpt lat="44.479031992159264" lon="7.879500222072141"><ele>359.6</ele><time>2026-04-09T17:56:05.999Z</time></trkpt><trkpt lat="44.47894033319869" lon="7.879472432598059"><ele>359.8</ele><time>2026-04-09T17:56:07.999Z</time></trkpt><trkpt lat="44.47885801514277" lon="7.879464478649554"><ele>360.0</ele><time>2026-04-09T17:56:09.999Z</time></trkpt><trkpt lat="44.47875907529155" lon="7.879452025096592"><ele>360.0</ele><time>2026-04-09T17:56:11.999Z</time></trkpt><trkpt lat="44.478679962340955" lon="7.879454230377463"><ele>360.0</ele><time>2026-04-09T17:56:13.999Z</time></trkpt><trkpt lat="44.47857921397538" lon="7.879464499192649"><ele>360.0</ele><time>2026-04-09T17:56:15.999Z</time></trkpt><trkpt lat="44.47848550207577" lon="7.8794020168858045"><ele>360.0</ele><time>2026-04-09T17:56:17.999Z</time></trkpt><trkpt lat="44.47838729773233" lon="7.879390170683442"><ele>360.0</ele><time>2026-04-09T17:56:19.999Z</time></trkpt><trkpt lat="44.47831472588395" lon="7.879370656925752"><ele>360.3333333333333</ele><time>2026-04-09T17:56:22.999Z</time></trkpt><trkpt lat="44.478307360590975" lon="7.87921464033791"><ele>360.6666666666667</ele><time>2026-04-09T17:56:23.999Z</time></trkpt><trkpt lat="44.47829468819791" lon="7.87912421314189"><ele>361.0</ele><time>2026-04-09T17:56:25.999Z</time></trkpt><trkpt lat="44.47829612825604" lon="7.879014744886312"><ele>361.33333333333337</ele><time>2026-04-09T17:56:27.999Z</time></trkpt><trkpt lat="44.47829913001651" lon="7.878911498814304"><ele>361.6666666666667</ele><time>2026-04-09T17:56:29.999Z</time></trkpt><trkpt lat="44.47831075000838" lon="7.878785420006906"><ele>362.0</ele><time>2026-04-09T17:56:32.999Z</time></trkpt><trkpt lat="44.47833871218376" lon="7.878701380345583"><ele>362.0</ele><time>2026-04-09T17:56:34.999Z</time></trkpt><trkpt lat="44.478364232917734" lon="7.878602556897544"><ele>362.0</ele><time>2026-04-09T17:56:38.999Z</time></trkpt><trkpt lat="44.47815538877043" lon="7.8784910165679545"><ele>362.0</ele><time>2026-04-09T17:56:47.999Z</time></trkpt><trkpt lat="44.478078418909774" lon="7.878434016779565"><ele>362.0</ele><time>2026-04-09T17:56:49.998Z</time></trkpt><trkpt lat="44.47801892487214" lon="7.878324080805781"><ele>362.0</ele><time>2026-04-09T17:56:51.998Z</time></trkpt><trkpt lat="44.47796944415853" lon="7.8782352212078886"><ele>362.0</ele><time>2026-04-09T17:56:54.998Z</time></trkpt><trkpt lat="44.47792508275614" lon="7.878113717812645"><ele>362.0</ele><time>2026-04-09T17:56:56.998Z</time></trkpt><trkpt lat="44.47787998656043" lon="7.878002186029377"><ele>362.0</ele><time>2026-04-09T17:56:58.998Z</time></trkpt><trkpt lat="44.477898913786035" lon="7.877840747478715"><ele>362.0</ele><time>2026-04-09T17:57:01Z</time></trkpt><trkpt lat="44.47790494523137" lon="7.877739990798301"><ele>362.0</ele><time>2026-04-09T17:57:02Z</time></trkpt><trkpt lat="44.47793592480861" lon="7.877644541674152"><ele>362.0</ele><time>2026-04-09T17:57:03Z</time></trkpt><trkpt lat="44.47795553884448" lon="7.877555056821138"><ele>362.0</ele><time>2026-04-09T17:57:04Z</time></trkpt><trkpt lat="44.477971521058464" lon="7.87745215068494"><ele>362.0</ele><time>2026-04-09T17:57:05Z</time></trkpt><trkpt lat="44.47801811256277" lon="7.87737020545533"><ele>362.0</ele><time>2026-04-09T17:57:07Z</time></trkpt><trkpt lat="44.47805253031781" lon="7.87727321670405"><ele>362.0</ele><time>2026-04-09T17:57:09Z</time></trkpt><trkpt lat="44.47810438247149" lon="7.877192355858577"><ele>362.0</ele><time>2026-04-09T17:57:11Z</time></trkpt><trkpt lat="44.47815821153606" lon="7.8771167475011366"><ele>362.0</ele><time>2026-04-09T17:57:12Z</time></trkpt><trkpt lat="44.47819021691439" lon="7.877024135464139"><ele>362.0</ele><time>2026-04-09T17:57:13Z</time></trkpt><trkpt lat="44.478233696617494" lon="7.8768920142233565"><ele>362.0</ele><time>2026-04-09T17:57:15Z</time></trkpt><trkpt lat="44.47829231995992" lon="7.876756286454099"><ele>362.0</ele><time>2026-04-09T17:57:17Z</time></trkpt><trkpt lat="44.4783281896319" lon="7.876670075685556"><ele>362.0</ele><time>2026-04-09T17:57:18Z</time></trkpt><trkpt lat="44.47833642666084" lon="7.876568908148156"><ele>362.0</ele><time>2026-04-09T17:57:19Z</time></trkpt><trkpt lat="44.47833651920259" lon="7.876457646681997"><ele>361.8</ele><time>2026-04-09T17:57:20Z</time></trkpt><trkpt lat="44.4783382249574" lon="7.876351101085792"><ele>361.6</ele><time>2026-04-09T17:57:21Z</time></trkpt><trkpt lat="44.4783349811559" lon="7.876214663078227"><ele>361.40000000000003</ele><time>2026-04-09T17:57:22Z</time></trkpt><trkpt lat="44.47833753661687" lon="7.876056914693067"><ele>361.20000000000005</ele><time>2026-04-09T17:57:23Z</time></trkpt><trkpt lat="44.47833778926911" lon="7.8758833522592475"><ele>361.0</ele><time>2026-04-09T17:57:24Z</time></trkpt><trkpt lat="44.47833755980301" lon="7.875737196256889"><ele>361.0</ele><time>2026-04-09T17:57:25Z</time></trkpt><trkpt lat="44.47833284982004" lon="7.875597972201766"><ele>361.0</ele><time>2026-04-09T17:57:26Z</time></trkpt><trkpt lat="44.47832800938366" lon="7.875501067108183"><ele>361.0</ele><time>2026-04-09T17:57:27Z</time></trkpt><trkpt lat="44.47832458344709" lon="7.8753557841552935"><ele>361.0</ele><time>2026-04-09T17:57:29Z</time></trkpt><trkpt lat="44.47832990717435" lon="7.875259703895617"><ele>361.0</ele><time>2026-04-09T17:57:31Z</time></trkpt><trkpt lat="44.47833268850295" lon="7.875161033888997"><ele>361.0</ele><time>2026-04-09T17:57:33Z</time></trkpt><trkpt lat="44.47833392531284" lon="7.8749837555787146"><ele>361.0</ele><time>2026-04-09T17:57:35Z</time></trkpt><trkpt lat="44.47831738460199" lon="7.874819858091804"><ele>361.0</ele><time>2026-04-09T17:57:37Z</time></trkpt><trkpt lat="44.47831701274428" lon="7.8746505334989125"><ele>361.0</ele><time>2026-04-09T17:57:39Z</time></trkpt><trkpt lat="44.47829434019205" lon="7.874522941917291"><ele>361.0</ele><time>2026-04-09T17:57:41Z</time></trkpt><trkpt lat="44.47829751283297" lon="7.874414558281574"><ele>361.0</ele><time>2026-04-09T17:57:44Z</time></trkpt><trkpt lat="44.47844114511886" lon="7.874391931765803"><ele>361.0</ele><time>2026-04-09T17:57:45Z</time></trkpt><trkpt lat="44.47854228902998" lon="7.874374963644237"><ele>361.0</ele><time>2026-04-09T17:57:47Z</time></trkpt><trkpt lat="44.478647576431854" lon="7.874351628000414"><ele>361.0</ele><time>2026-04-09T17:57:48.999Z</time></trkpt><trkpt lat="44.47877249562684" lon="7.874337651244048"><ele>361.0</ele><time>2026-04-09T17:57:50.999Z</time></trkpt><trkpt lat="44.47884887297026" lon="7.874322317740981"><ele>361.0</ele><time>2026-04-09T17:57:51.999Z</time></trkpt><trkpt lat="44.47895756130665" lon="7.8743199901056355"><ele>361.0</ele><time>2026-04-09T17:57:53.999Z</time></trkpt><trkpt lat="44.479063336246575" lon="7.874302987076654"><ele>361.0</ele><time>2026-04-09T17:57:55.999Z</time></trkpt><trkpt lat="44.47915770591358" lon="7.874265340389264"><ele>361.0</ele><time>2026-04-09T17:57:57.999Z</time></trkpt><trkpt lat="44.47925690285324" lon="7.874271129075105"><ele>361.0</ele><time>2026-04-09T17:57:59.999Z</time></trkpt><trkpt lat="44.47932839282656" lon="7.874259158316217"><ele>361.0</ele><time>2026-04-09T17:58:01.999Z</time></trkpt><trkpt lat="44.47939940438353" lon="7.874225198684937"><ele>361.20000000000005</ele><time>2026-04-09T17:58:03.999Z</time></trkpt><trkpt lat="44.479486103803374" lon="7.874224719375693"><ele>361.40000000000003</ele><time>2026-04-09T17:58:23.999Z</time></trkpt><trkpt lat="44.47944199823019" lon="7.87407716596738"><ele>361.6</ele><time>2026-04-09T17:58:24.999Z</time></trkpt><trkpt lat="44.4794216741271" lon="7.873946835617964"><ele>361.8</ele><time>2026-04-09T17:58:26.999Z</time></trkpt><trkpt lat="44.479383159661495" lon="7.873770017287927"><ele>362.0</ele><time>2026-04-09T17:58:28.999Z</time></trkpt><trkpt lat="44.479353792883614" lon="7.873669413956847"><ele>362.0</ele><time>2026-04-09T17:58:29.999Z</time></trkpt><trkpt lat="44.47932174594326" lon="7.873561474261134"><ele>362.0</ele><time>2026-04-09T17:58:30.999Z</time></trkpt><trkpt lat="44.47929311531649" lon="7.873465041499077"><ele>362.0</ele><time>2026-04-09T17:58:31.999Z</time></trkpt><trkpt lat="44.47925776078105" lon="7.8733503253194455"><ele>362.0</ele><time>2026-04-09T17:58:32.999Z</time></trkpt><trkpt lat="44.479223234862324" lon="7.873243496926862"><ele>362.0</ele><time>2026-04-09T17:58:33.999Z</time></trkpt><trkpt lat="44.47921578118612" lon="7.873133192219655"><ele>362.0</ele><time>2026-04-09T17:58:34.999Z</time></trkpt><trkpt lat="44.4791887719918" lon="7.873035876657769"><ele>362.40000000000003</ele><time>2026-04-09T17:58:35.999Z</time></trkpt><trkpt lat="44.47916226827394" lon="7.872944513133304"><ele>362.8</ele><time>2026-04-09T17:58:36.999Z</time></trkpt><trkpt lat="44.47911719870725" lon="7.872781936381369"><ele>363.2</ele><time>2026-04-09T17:58:38.999Z</time></trkpt><trkpt lat="44.479091196642045" lon="7.872687102417624"><ele>363.6</ele><time>2026-04-09T17:58:39.999Z</time></trkpt><trkpt lat="44.47902326361943" lon="7.87260353354744"><ele>364.0</ele><time>2026-04-09T17:58:40.999Z</time></trkpt><trkpt lat="44.478986600557775" lon="7.872472378010276"><ele>364.0</ele><time>2026-04-09T17:58:41.999Z</time></trkpt><trkpt lat="44.478948543393564" lon="7.872340314224338"><ele>364.0</ele><time>2026-04-09T17:58:42.999Z</time></trkpt><trkpt lat="44.47890925011679" lon="7.872198500153157"><ele>364.0</ele><time>2026-04-09T17:58:43.999Z</time></trkpt><trkpt lat="44.478869871854236" lon="7.872073345761328"><ele>364.0</ele><time>2026-04-09T17:58:44.999Z</time></trkpt><trkpt lat="44.47883489523094" lon="7.871962142655686"><ele>364.0</ele><time>2026-04-09T17:58:45.999Z</time></trkpt><trkpt lat="44.478804811471846" lon="7.871866494165965"><ele>364.0</ele><time>2026-04-09T17:58:46.999Z</time></trkpt><trkpt lat="44.478772591066146" lon="7.87175648891773"><ele>364.0</ele><time>2026-04-09T17:58:47.999Z</time></trkpt><trkpt lat="44.47875380913937" lon="7.871637011881546"><ele>364.0</ele><time>2026-04-09T17:58:48.999Z</time></trkpt><trkpt lat="44.47872697829314" lon="7.87153040311906"><ele>364.0</ele><time>2026-04-09T17:58:49.999Z</time></trkpt><trkpt lat="44.47870080989816" lon="7.871435668953886"><ele>364.0</ele><time>2026-04-09T17:58:50.999Z</time></trkpt><trkpt lat="44.47867907996422" lon="7.871347365456812"><ele>364.0</ele><time>2026-04-09T17:58:51.998Z</time></trkpt><trkpt lat="44.47863205152454" lon="7.871182892184239"><ele>364.0</ele><time>2026-04-09T17:58:53.998Z</time></trkpt><trkpt lat="44.47859961283904" lon="7.871018967265707"><ele>364.0</ele><time>2026-04-09T17:58:55.998Z</time></trkpt><trkpt lat="44.47852830431699" lon="7.870896141515148"><ele>364.0</ele><time>2026-04-09T17:58:57.998Z</time></trkpt><trkpt lat="44.478671050179486" lon="7.870749389671833"><ele>364.0</ele><time>2026-04-09T17:58:58.998Z</time></trkpt><trkpt lat="44.478714323585294" lon="7.8706508299891285"><ele>363.8333333333333</ele><time>2026-04-09T17:58:59.998Z</time></trkpt><trkpt lat="44.4787663688948" lon="7.870540890877143"><ele>363.66666666666663</ele><time>2026-04-09T17:59:00.998Z</time></trkpt><trkpt lat="44.47881227867322" lon="7.870451844493105"><ele>363.5</ele><time>2026-04-09T17:59:01.998Z</time></trkpt><trkpt lat="44.47885824881454" lon="7.8703537065382125"><ele>363.3333333333333</ele><time>2026-04-09T17:59:02.998Z</time></trkpt><trkpt lat="44.478902369357876" lon="7.8702561701543745"><ele>363.1666666666667</ele><time>2026-04-09T17:59:03.998Z</time></trkpt><trkpt lat="44.47894214093573" lon="7.870174530908198"><ele>363.0</ele><time>2026-04-09T17:59:04.998Z</time></trkpt><trkpt lat="44.478979272503416" lon="7.870095685135449"><ele>363.0</ele><time>2026-04-09T17:59:06Z</time></trkpt><trkpt lat="44.47902425738008" lon="7.869989312922826"><ele>363.0</ele><time>2026-04-09T17:59:08Z</time></trkpt><trkpt lat="44.479065429694984" lon="7.869920402240103"><ele>363.0</ele><time>2026-04-09T17:59:11Z</time></trkpt><trkpt lat="44.479212969383326" lon="7.870030114737834"><ele>363.0</ele><time>2026-04-09T17:59:15Z</time></trkpt><trkpt lat="44.47926281624066" lon="7.870100285014353"><ele>363.0</ele><time>2026-04-09T17:59:16Z</time></trkpt><trkpt lat="44.47933045091771" lon="7.870164978169741"><ele>363.0</ele><time>2026-04-09T17:59:17Z</time></trkpt><trkpt lat="44.4793903978249" lon="7.870223440948182"><ele>363.0</ele><time>2026-04-09T17:59:18Z</time></trkpt><trkpt lat="44.47944822692724" lon="7.870270805967186"><ele>363.0</ele><time>2026-04-09T17:59:19Z</time></trkpt><trkpt lat="44.47955660633413" lon="7.870373117360299"><ele>363.0</ele><time>2026-04-09T17:59:21Z</time></trkpt><trkpt lat="44.479615634741144" lon="7.870432684564459"><ele>363.0</ele><time>2026-04-09T17:59:22Z</time></trkpt><trkpt lat="44.47967791568774" lon="7.870496532606965"><ele>363.0</ele><time>2026-04-09T17:59:23Z</time></trkpt><trkpt lat="44.479740352994874" lon="7.8705606306455405"><ele>363.0</ele><time>2026-04-09T17:59:24Z</time></trkpt><trkpt lat="44.47979423521435" lon="7.870615509355175"><ele>363.0</ele><time>2026-04-09T17:59:25Z</time></trkpt><trkpt lat="44.479848080675424" lon="7.870662612361797"><ele>363.0</ele><time>2026-04-09T17:59:26Z</time></trkpt><trkpt lat="44.47995672480541" lon="7.870765255327298"><ele>363.0</ele><time>2026-04-09T17:59:28Z</time></trkpt><trkpt lat="44.48002203282649" lon="7.870829337027309"><ele>363.0</ele><time>2026-04-09T17:59:29Z</time></trkpt><trkpt lat="44.480086022781144" lon="7.870898952785108"><ele>363.0</ele><time>2026-04-09T17:59:30Z</time></trkpt><trkpt lat="44.480162335478596" lon="7.870971319227993"><ele>363.0</ele><time>2026-04-09T17:59:31Z</time></trkpt><trkpt lat="44.48023894184008" lon="7.871050650228378"><ele>363.0</ele><time>2026-04-09T17:59:32Z</time></trkpt><trkpt lat="44.48032738556965" lon="7.871135638549726"><ele>363.0</ele><time>2026-04-09T17:59:33Z</time></trkpt><trkpt lat="44.48040958729147" lon="7.871239324653514"><ele>363.0</ele><time>2026-04-09T17:59:34Z</time></trkpt><trkpt lat="44.480496772282066" lon="7.871374461202129"><ele>363.0</ele><time>2026-04-09T17:59:35Z</time></trkpt><trkpt lat="44.48056685364534" lon="7.871498497052701"><ele>363.0</ele><time>2026-04-09T17:59:36Z</time></trkpt><trkpt lat="44.480618112581645" lon="7.871622510649738"><ele>363.0</ele><time>2026-04-09T17:59:37Z</time></trkpt><trkpt lat="44.480654728849316" lon="7.871741807365717"><ele>363.0</ele><time>2026-04-09T17:59:38Z</time></trkpt><trkpt lat="44.48069438821575" lon="7.8718358531454005"><ele>363.0</ele><time>2026-04-09T17:59:39Z</time></trkpt><trkpt lat="44.480727058547885" lon="7.8719166972561"><ele>363.0</ele><time>2026-04-09T17:59:40Z</time></trkpt><trkpt lat="44.480767698111435" lon="7.872065643693661"><ele>363.0</ele><time>2026-04-09T17:59:42Z</time></trkpt><trkpt lat="44.4807561802361" lon="7.872180155395213"><ele>363.0</ele><time>2026-04-09T17:59:44Z</time></trkpt><trkpt lat="44.48065944256607" lon="7.872278748198204"><ele>363.0</ele><time>2026-04-09T17:59:46Z</time></trkpt><trkpt lat="44.4805895912436" lon="7.872312859520254"><ele>363.0</ele><time>2026-04-09T17:59:47Z</time></trkpt><trkpt lat="44.480525772518" lon="7.872344334255508"><ele>363.0</ele><time>2026-04-09T17:59:48Z</time></trkpt><trkpt lat="44.480418977619195" lon="7.872380420174365"><ele>363.0</ele><time>2026-04-09T17:59:50Z</time></trkpt><trkpt lat="44.48033652752768" lon="7.87241617369366"><ele>363.0</ele><time>2026-04-09T17:59:52Z</time></trkpt><trkpt lat="44.48026564914431" lon="7.872465262690356"><ele>363.0</ele><time>2026-04-09T17:59:54.999Z</time></trkpt><trkpt lat="44.4802444197826" lon="7.872674048025378"><ele>363.0</ele><time>2026-04-09T18:00:03.999Z</time></trkpt><trkpt lat="44.480236717459235" lon="7.872798941132011"><ele>363.0</ele><time>2026-04-09T18:00:06.999Z</time></trkpt><trkpt lat="44.48023560743756" lon="7.872904889863888"><ele>363.0</ele><time>2026-04-09T18:00:10.016Z</time></trkpt><trkpt lat="44.47971500553323" lon="7.872943556519059"><ele>363.0</ele><time>2026-04-09T18:00:29.268Z</time></trkpt><trkpt lat="44.479656076194736" lon="7.8728136510427"><ele>363.0</ele><time>2026-04-09T18:00:35.356Z</time></trkpt><trkpt lat="44.47958981387789" lon="7.872964463076182"><ele>363.0</ele><time>2026-04-09T18:00:38.014Z</time></trkpt><trkpt lat="44.47948564805224" lon="7.873008937600271"><ele>363.0</ele><time>2026-04-09T18:00:40.016Z</time></trkpt><trkpt lat="44.47941158898661" lon="7.873045637366267"><ele>363.0</ele><time>2026-04-09T18:00:42.013Z</time></trkpt><trkpt lat="44.47933712564562" lon="7.8730724893267094"><ele>363.0</ele><time>2026-04-09T18:00:44.011Z</time></trkpt><trkpt lat="44.4797219859275" lon="7.873053752412675"><ele>363.0</ele><time>2026-04-09T18:00:51.366Z</time></trkpt><trkpt lat="44.47957919898119" lon="7.872844943231084"><ele>364.0</ele><time>2026-04-09T18:01:44.045Z</time></trkpt><trkpt lat="44.4795224642587" lon="7.87291868042832"><ele>364.0</ele><time>2026-04-09T18:01:48.998Z</time></trkpt><trkpt lat="44.47949778721845" lon="7.872829501702679"><ele>364.0</ele><time>2026-04-09T18:02:01Z</time></trkpt><trkpt lat="44.479548359907604" lon="7.872768636337736"><ele>364.0</ele><time>2026-04-09T18:02:11Z</time></trkpt></trkseg></trk></gpx>